<?xml version="1.0" encoding="UTF-8" standalone="no" ?>
<gpx xmlns="http://www.topografix.com/GPX/1/1" xmlns:xsi="http://www.w3.org/2001/XMLSchema-instance" xsi:schemaLocation="http://www.topografix.com/GPX/1/1 http://www.topografix.com/GPX/1/1/gpx.xsd" version="1.1" creator="VisuGPX - https://www.visugpx.com">
  <metadata>
    <name>ROC D'AZURE 13-10-2018</name>
  </metadata>
  <trk>
    <name><![CDATA[ROC D'AZURE 13-10-2018]]></name>
    <trkseg>
      <trkpt lat="43.41855" lon="6.73707">
        <ele>1.7999999523163</ele>
        <time>2018-10-13T07:57:01Z</time>
      </trkpt>
      <trkpt lat="43.41855" lon="6.73707">
        <ele>1.7999999523163</ele>
        <time>2018-10-13T07:57:02Z</time>
      </trkpt>
      <trkpt lat="43.41851" lon="6.73707">
        <ele>2</ele>
        <time>2018-10-13T08:00:37Z</time>
      </trkpt>
      <trkpt lat="43.41845" lon="6.73707">
        <ele>2.2000000476837</ele>
        <time>2018-10-13T08:00:39Z</time>
      </trkpt>
      <trkpt lat="43.41826" lon="6.73703">
        <ele>2.2000000476837</ele>
        <time>2018-10-13T08:00:43Z</time>
      </trkpt>
      <trkpt lat="43.41797" lon="6.73696">
        <ele>2</ele>
        <time>2018-10-13T08:00:48Z</time>
      </trkpt>
      <trkpt lat="43.41751" lon="6.73687">
        <ele>2.2000000476837</ele>
        <time>2018-10-13T08:00:55Z</time>
      </trkpt>
      <trkpt lat="43.41733" lon="6.73683">
        <ele>2.2000000476837</ele>
        <time>2018-10-13T08:00:58Z</time>
      </trkpt>
      <trkpt lat="43.41716" lon="6.73681">
        <ele>2.2000000476837</ele>
        <time>2018-10-13T08:01:01Z</time>
      </trkpt>
      <trkpt lat="43.41695" lon="6.73675">
        <ele>2.2000000476837</ele>
        <time>2018-10-13T08:01:06Z</time>
      </trkpt>
      <trkpt lat="43.41684" lon="6.73668">
        <ele>2.2000000476837</ele>
        <time>2018-10-13T08:01:09Z</time>
      </trkpt>
      <trkpt lat="43.4168" lon="6.73664">
        <ele>2.2000000476837</ele>
        <time>2018-10-13T08:01:10Z</time>
      </trkpt>
      <trkpt lat="43.41676" lon="6.7366">
        <ele>2.4000000953674</ele>
        <time>2018-10-13T08:01:11Z</time>
      </trkpt>
      <trkpt lat="43.41659" lon="6.73636">
        <ele>2.4000000953674</ele>
        <time>2018-10-13T08:01:16Z</time>
      </trkpt>
      <trkpt lat="43.41639" lon="6.73602">
        <ele>2.5999999046326</ele>
        <time>2018-10-13T08:01:23Z</time>
      </trkpt>
      <trkpt lat="43.41624" lon="6.73571">
        <ele>2.5999999046326</ele>
        <time>2018-10-13T08:01:29Z</time>
      </trkpt>
      <trkpt lat="43.41621" lon="6.73558">
        <ele>2.5999999046326</ele>
        <time>2018-10-13T08:01:31Z</time>
      </trkpt>
      <trkpt lat="43.41621" lon="6.73545">
        <ele>2.5999999046326</ele>
        <time>2018-10-13T08:01:33Z</time>
      </trkpt>
      <trkpt lat="43.41622" lon="6.73538">
        <ele>2.5999999046326</ele>
        <time>2018-10-13T08:01:34Z</time>
      </trkpt>
      <trkpt lat="43.41627" lon="6.73518">
        <ele>2.7999999523163</ele>
        <time>2018-10-13T08:01:37Z</time>
      </trkpt>
      <trkpt lat="43.41633" lon="6.73506">
        <ele>2.7999999523163</ele>
        <time>2018-10-13T08:01:39Z</time>
      </trkpt>
      <trkpt lat="43.41652" lon="6.73481">
        <ele>2.7999999523163</ele>
        <time>2018-10-13T08:01:44Z</time>
      </trkpt>
      <trkpt lat="43.41659" lon="6.73472">
        <ele>3</ele>
        <time>2018-10-13T08:01:46Z</time>
      </trkpt>
      <trkpt lat="43.41691" lon="6.73431">
        <ele>3</ele>
        <time>2018-10-13T08:01:55Z</time>
      </trkpt>
      <trkpt lat="43.41711" lon="6.73393">
        <ele>3.2000000476837</ele>
        <time>2018-10-13T08:02:02Z</time>
      </trkpt>
      <trkpt lat="43.41722" lon="6.7335">
        <ele>3.4000000953674</ele>
        <time>2018-10-13T08:02:09Z</time>
      </trkpt>
      <trkpt lat="43.41724" lon="6.73304">
        <ele>3.4000000953674</ele>
        <time>2018-10-13T08:02:16Z</time>
      </trkpt>
      <trkpt lat="43.41719" lon="6.73259">
        <ele>3.4000000953674</ele>
        <time>2018-10-13T08:02:23Z</time>
      </trkpt>
      <trkpt lat="43.41712" lon="6.73207">
        <ele>3.5999999046326</ele>
        <time>2018-10-13T08:02:31Z</time>
      </trkpt>
      <trkpt lat="43.41707" lon="6.73162">
        <ele>3.7999999523163</ele>
        <time>2018-10-13T08:02:38Z</time>
      </trkpt>
      <trkpt lat="43.41702" lon="6.73118">
        <ele>3.7999999523163</ele>
        <time>2018-10-13T08:02:45Z</time>
      </trkpt>
      <trkpt lat="43.41698" lon="6.73061">
        <ele>3.7999999523163</ele>
        <time>2018-10-13T08:02:54Z</time>
      </trkpt>
      <trkpt lat="43.41693" lon="6.73018">
        <ele>3.7999999523163</ele>
        <time>2018-10-13T08:03:01Z</time>
      </trkpt>
      <trkpt lat="43.41685" lon="6.72963">
        <ele>3.7999999523163</ele>
        <time>2018-10-13T08:03:10Z</time>
      </trkpt>
      <trkpt lat="43.41681" lon="6.72944">
        <ele>3.7999999523163</ele>
        <time>2018-10-13T08:03:13Z</time>
      </trkpt>
      <trkpt lat="43.41675" lon="6.72919">
        <ele>3.5999999046326</ele>
        <time>2018-10-13T08:03:17Z</time>
      </trkpt>
      <trkpt lat="43.41661" lon="6.72871">
        <ele>3.5999999046326</ele>
        <time>2018-10-13T08:03:25Z</time>
      </trkpt>
      <trkpt lat="43.41645" lon="6.72831">
        <ele>3.5999999046326</ele>
        <time>2018-10-13T08:03:32Z</time>
      </trkpt>
      <trkpt lat="43.41634" lon="6.72821">
        <ele>3.5999999046326</ele>
        <time>2018-10-13T08:03:35Z</time>
      </trkpt>
      <trkpt lat="43.4163" lon="6.72819">
        <ele>3.5999999046326</ele>
        <time>2018-10-13T08:03:36Z</time>
      </trkpt>
      <trkpt lat="43.41625" lon="6.72818">
        <ele>3.5999999046326</ele>
        <time>2018-10-13T08:03:37Z</time>
      </trkpt>
      <trkpt lat="43.41614" lon="6.72817">
        <ele>3.5999999046326</ele>
        <time>2018-10-13T08:03:39Z</time>
      </trkpt>
      <trkpt lat="43.41609" lon="6.72817">
        <ele>3.5999999046326</ele>
        <time>2018-10-13T08:03:40Z</time>
      </trkpt>
      <trkpt lat="43.41599" lon="6.72818">
        <ele>3.5999999046326</ele>
        <time>2018-10-13T08:03:42Z</time>
      </trkpt>
      <trkpt lat="43.41584" lon="6.72825">
        <ele>3.5999999046326</ele>
        <time>2018-10-13T08:03:45Z</time>
      </trkpt>
      <trkpt lat="43.41574" lon="6.7283">
        <ele>3.4000000953674</ele>
        <time>2018-10-13T08:03:47Z</time>
      </trkpt>
      <trkpt lat="43.41564" lon="6.72837">
        <ele>3.2000000476837</ele>
        <time>2018-10-13T08:03:49Z</time>
      </trkpt>
      <trkpt lat="43.41548" lon="6.72845">
        <ele>3</ele>
        <time>2018-10-13T08:03:52Z</time>
      </trkpt>
      <trkpt lat="43.41538" lon="6.72848">
        <ele>2.7999999523163</ele>
        <time>2018-10-13T08:03:54Z</time>
      </trkpt>
      <trkpt lat="43.41523" lon="6.72856">
        <ele>2.4000000953674</ele>
        <time>2018-10-13T08:03:57Z</time>
      </trkpt>
      <trkpt lat="43.41518" lon="6.7286">
        <ele>2.4000000953674</ele>
        <time>2018-10-13T08:03:58Z</time>
      </trkpt>
      <trkpt lat="43.41514" lon="6.72865">
        <ele>2.4000000953674</ele>
        <time>2018-10-13T08:03:59Z</time>
      </trkpt>
      <trkpt lat="43.41502" lon="6.72881">
        <ele>2.2000000476837</ele>
        <time>2018-10-13T08:04:02Z</time>
      </trkpt>
      <trkpt lat="43.41481" lon="6.72911">
        <ele>1.7999999523163</ele>
        <time>2018-10-13T08:04:07Z</time>
      </trkpt>
      <trkpt lat="43.41477" lon="6.72916">
        <ele>1.7999999523163</ele>
        <time>2018-10-13T08:04:08Z</time>
      </trkpt>
      <trkpt lat="43.41469" lon="6.72929">
        <ele>1.6000000238419</ele>
        <time>2018-10-13T08:04:10Z</time>
      </trkpt>
      <trkpt lat="43.41463" lon="6.72938">
        <ele>1.6000000238419</ele>
        <time>2018-10-13T08:04:12Z</time>
      </trkpt>
      <trkpt lat="43.4145" lon="6.72955">
        <ele>1.2000000476837</ele>
        <time>2018-10-13T08:04:16Z</time>
      </trkpt>
      <trkpt lat="43.41446" lon="6.72959">
        <ele>1.2000000476837</ele>
        <time>2018-10-13T08:04:17Z</time>
      </trkpt>
      <trkpt lat="43.41437" lon="6.72971">
        <ele>1</ele>
        <time>2018-10-13T08:04:19Z</time>
      </trkpt>
      <trkpt lat="43.41397" lon="6.73032">
        <ele>1.2000000476837</ele>
        <time>2018-10-13T08:04:27Z</time>
      </trkpt>
      <trkpt lat="43.41379" lon="6.73057">
        <ele>1.3999999761581</ele>
        <time>2018-10-13T08:04:31Z</time>
      </trkpt>
      <trkpt lat="43.4137" lon="6.73069">
        <ele>1.3999999761581</ele>
        <time>2018-10-13T08:04:33Z</time>
      </trkpt>
      <trkpt lat="43.41351" lon="6.73092">
        <ele>1.3999999761581</ele>
        <time>2018-10-13T08:04:37Z</time>
      </trkpt>
      <trkpt lat="43.41347" lon="6.73098">
        <ele>1.3999999761581</ele>
        <time>2018-10-13T08:04:38Z</time>
      </trkpt>
      <trkpt lat="43.41333" lon="6.73128">
        <ele>1.3999999761581</ele>
        <time>2018-10-13T08:04:42Z</time>
      </trkpt>
      <trkpt lat="43.41331" lon="6.73137">
        <ele>1.3999999761581</ele>
        <time>2018-10-13T08:04:43Z</time>
      </trkpt>
      <trkpt lat="43.41326" lon="6.73163">
        <ele>1.3999999761581</ele>
        <time>2018-10-13T08:04:46Z</time>
      </trkpt>
      <trkpt lat="43.41323" lon="6.7317">
        <ele>1.3999999761581</ele>
        <time>2018-10-13T08:04:47Z</time>
      </trkpt>
      <trkpt lat="43.41319" lon="6.73174">
        <ele>1.3999999761581</ele>
        <time>2018-10-13T08:04:48Z</time>
      </trkpt>
      <trkpt lat="43.41313" lon="6.73175">
        <ele>1.3999999761581</ele>
        <time>2018-10-13T08:04:49Z</time>
      </trkpt>
      <trkpt lat="43.41302" lon="6.73177">
        <ele>1.3999999761581</ele>
        <time>2018-10-13T08:04:51Z</time>
      </trkpt>
      <trkpt lat="43.41292" lon="6.73185">
        <ele>1.2000000476837</ele>
        <time>2018-10-13T08:04:53Z</time>
      </trkpt>
      <trkpt lat="43.41282" lon="6.73195">
        <ele>1.3999999761581</ele>
        <time>2018-10-13T08:04:55Z</time>
      </trkpt>
      <trkpt lat="43.41272" lon="6.73199">
        <ele>1.2000000476837</ele>
        <time>2018-10-13T08:04:57Z</time>
      </trkpt>
      <trkpt lat="43.41261" lon="6.73197">
        <ele>1.2000000476837</ele>
        <time>2018-10-13T08:04:59Z</time>
      </trkpt>
      <trkpt lat="43.41251" lon="6.73192">
        <ele>0.80000001192093</ele>
        <time>2018-10-13T08:05:01Z</time>
      </trkpt>
      <trkpt lat="43.41245" lon="6.7319">
        <ele>0.80000001192093</ele>
        <time>2018-10-13T08:05:02Z</time>
      </trkpt>
      <trkpt lat="43.41236" lon="6.7319">
        <ele>0.60000002384186</ele>
        <time>2018-10-13T08:05:04Z</time>
      </trkpt>
      <trkpt lat="43.41231" lon="6.73191">
        <ele>0.40000000596046</ele>
        <time>2018-10-13T08:05:05Z</time>
      </trkpt>
      <trkpt lat="43.41227" lon="6.73191">
        <ele>0.40000000596046</ele>
        <time>2018-10-13T08:05:06Z</time>
      </trkpt>
      <trkpt lat="43.41219" lon="6.73188">
        <ele>0.60000002384186</ele>
        <time>2018-10-13T08:05:08Z</time>
      </trkpt>
      <trkpt lat="43.41209" lon="6.73176">
        <ele>0.20000000298023</ele>
        <time>2018-10-13T08:05:11Z</time>
      </trkpt>
      <trkpt lat="43.41185" lon="6.73146">
        <ele>1</ele>
        <time>2018-10-13T08:05:17Z</time>
      </trkpt>
      <trkpt lat="43.41173" lon="6.73131">
        <ele>-0.20000000298023</ele>
        <time>2018-10-13T08:05:21Z</time>
      </trkpt>
      <trkpt lat="43.41173" lon="6.73127">
        <ele>-0.20000000298023</ele>
        <time>2018-10-13T08:05:22Z</time>
      </trkpt>
      <trkpt lat="43.41175" lon="6.7312">
        <ele>-0.40000000596046</ele>
        <time>2018-10-13T08:05:24Z</time>
      </trkpt>
      <trkpt lat="43.41184" lon="6.73109">
        <ele>2</ele>
        <time>2018-10-13T08:05:28Z</time>
      </trkpt>
      <trkpt lat="43.41188" lon="6.73108">
        <ele>2</ele>
        <time>2018-10-13T08:05:29Z</time>
      </trkpt>
      <trkpt lat="43.41202" lon="6.73101">
        <ele>0.40000000596046</ele>
        <time>2018-10-13T08:05:33Z</time>
      </trkpt>
      <trkpt lat="43.4122" lon="6.73073">
        <ele>1</ele>
        <time>2018-10-13T08:05:40Z</time>
      </trkpt>
      <trkpt lat="43.4125" lon="6.73032">
        <ele>1.3999999761581</ele>
        <time>2018-10-13T08:05:49Z</time>
      </trkpt>
      <trkpt lat="43.41283" lon="6.72989">
        <ele>1.7999999523163</ele>
        <time>2018-10-13T08:05:58Z</time>
      </trkpt>
      <trkpt lat="43.41311" lon="6.72954">
        <ele>2.2000000476837</ele>
        <time>2018-10-13T08:06:05Z</time>
      </trkpt>
      <trkpt lat="43.41343" lon="6.72912">
        <ele>2.4000000953674</ele>
        <time>2018-10-13T08:06:13Z</time>
      </trkpt>
      <trkpt lat="43.41376" lon="6.7287">
        <ele>2.7999999523163</ele>
        <time>2018-10-13T08:06:21Z</time>
      </trkpt>
      <trkpt lat="43.41408" lon="6.72828">
        <ele>3</ele>
        <time>2018-10-13T08:06:29Z</time>
      </trkpt>
      <trkpt lat="43.41448" lon="6.72774">
        <ele>3.4000000953674</ele>
        <time>2018-10-13T08:06:39Z</time>
      </trkpt>
      <trkpt lat="43.4148" lon="6.72732">
        <ele>3.5999999046326</ele>
        <time>2018-10-13T08:06:47Z</time>
      </trkpt>
      <trkpt lat="43.41484" lon="6.72709">
        <ele>3.5999999046326</ele>
        <time>2018-10-13T08:06:50Z</time>
      </trkpt>
      <trkpt lat="43.4149" lon="6.72696">
        <ele>3.5999999046326</ele>
        <time>2018-10-13T08:06:52Z</time>
      </trkpt>
      <trkpt lat="43.41496" lon="6.72691">
        <ele>3.5999999046326</ele>
        <time>2018-10-13T08:06:53Z</time>
      </trkpt>
      <trkpt lat="43.41505" lon="6.72682">
        <ele>3.5999999046326</ele>
        <time>2018-10-13T08:06:55Z</time>
      </trkpt>
      <trkpt lat="43.41512" lon="6.72674">
        <ele>3.4000000953674</ele>
        <time>2018-10-13T08:06:57Z</time>
      </trkpt>
      <trkpt lat="43.41514" lon="6.72669">
        <ele>3.4000000953674</ele>
        <time>2018-10-13T08:06:58Z</time>
      </trkpt>
      <trkpt lat="43.41515" lon="6.7266">
        <ele>3.4000000953674</ele>
        <time>2018-10-13T08:07:00Z</time>
      </trkpt>
      <trkpt lat="43.41511" lon="6.72653">
        <ele>3.4000000953674</ele>
        <time>2018-10-13T08:07:02Z</time>
      </trkpt>
      <trkpt lat="43.41508" lon="6.72652">
        <ele>3.4000000953674</ele>
        <time>2018-10-13T08:07:03Z</time>
      </trkpt>
      <trkpt lat="43.415" lon="6.72651">
        <ele>3.4000000953674</ele>
        <time>2018-10-13T08:07:05Z</time>
      </trkpt>
      <trkpt lat="43.41492" lon="6.72648">
        <ele>3.2000000476837</ele>
        <time>2018-10-13T08:07:07Z</time>
      </trkpt>
      <trkpt lat="43.41471" lon="6.72633">
        <ele>3</ele>
        <time>2018-10-13T08:07:12Z</time>
      </trkpt>
      <trkpt lat="43.41463" lon="6.72627">
        <ele>2.7999999523163</ele>
        <time>2018-10-13T08:07:14Z</time>
      </trkpt>
      <trkpt lat="43.41451" lon="6.72621">
        <ele>2.4000000953674</ele>
        <time>2018-10-13T08:07:17Z</time>
      </trkpt>
      <trkpt lat="43.41448" lon="6.72619">
        <ele>2.4000000953674</ele>
        <time>2018-10-13T08:07:18Z</time>
      </trkpt>
      <trkpt lat="43.41442" lon="6.72613">
        <ele>2.2000000476837</ele>
        <time>2018-10-13T08:07:20Z</time>
      </trkpt>
      <trkpt lat="43.41441" lon="6.7261">
        <ele>2</ele>
        <time>2018-10-13T08:07:21Z</time>
      </trkpt>
      <trkpt lat="43.41439" lon="6.726">
        <ele>1.3999999761581</ele>
        <time>2018-10-13T08:07:25Z</time>
      </trkpt>
      <trkpt lat="43.41439" lon="6.72598">
        <ele>1</ele>
        <time>2018-10-13T08:07:26Z</time>
      </trkpt>
      <trkpt lat="43.41432" lon="6.72585">
        <ele>2.6</ele>
        <time>2018-10-13T08:07:30Z</time>
      </trkpt>
      <trkpt lat="43.41422" lon="6.72566">
        <ele>-1.2000000476837</ele>
        <time>2018-10-13T08:07:35Z</time>
      </trkpt>
      <trkpt lat="43.41412" lon="6.72544">
        <ele>-2</ele>
        <time>2018-10-13T08:07:40Z</time>
      </trkpt>
      <trkpt lat="43.41401" lon="6.7252">
        <ele>-3</ele>
        <time>2018-10-13T08:07:46Z</time>
      </trkpt>
      <trkpt lat="43.41384" lon="6.72496">
        <ele>-3.5999999046326</ele>
        <time>2018-10-13T08:07:53Z</time>
      </trkpt>
      <trkpt lat="43.41363" lon="6.72473">
        <ele>-3.7999999523163</ele>
        <time>2018-10-13T08:08:01Z</time>
      </trkpt>
      <trkpt lat="43.41345" lon="6.72458">
        <ele>-3.5999999046326</ele>
        <time>2018-10-13T08:08:09Z</time>
      </trkpt>
      <trkpt lat="43.41335" lon="6.72454">
        <ele>-3.4000000953674</ele>
        <time>2018-10-13T08:08:15Z</time>
      </trkpt>
      <trkpt lat="43.41325" lon="6.72455">
        <ele>-3.2000000476837</ele>
        <time>2018-10-13T08:08:20Z</time>
      </trkpt>
      <trkpt lat="43.41324" lon="6.72456">
        <ele>-3.2000000476837</ele>
        <time>2018-10-13T08:08:21Z</time>
      </trkpt>
      <trkpt lat="43.41314" lon="6.7246">
        <ele>-3.2000000476837</ele>
        <time>2018-10-13T08:08:26Z</time>
      </trkpt>
      <trkpt lat="43.4131" lon="6.72461">
        <ele>-3.2000000476837</ele>
        <time>2018-10-13T08:08:28Z</time>
      </trkpt>
      <trkpt lat="43.413" lon="6.72465">
        <ele>-3.4000000953674</ele>
        <time>2018-10-13T08:08:35Z</time>
      </trkpt>
      <trkpt lat="43.41288" lon="6.72471">
        <ele>-3.5999999046326</ele>
        <time>2018-10-13T08:08:41Z</time>
      </trkpt>
      <trkpt lat="43.41273" lon="6.72478">
        <ele>-3.2000000476837</ele>
        <time>2018-10-13T08:08:47Z</time>
      </trkpt>
      <trkpt lat="43.41254" lon="6.72478">
        <ele>-3.4000000953674</ele>
        <time>2018-10-13T08:08:54Z</time>
      </trkpt>
      <trkpt lat="43.41239" lon="6.72479">
        <ele>-3.7999999523163</ele>
        <time>2018-10-13T08:08:58Z</time>
      </trkpt>
      <trkpt lat="43.41226" lon="6.72479">
        <ele>-4.1999998092651</ele>
        <time>2018-10-13T08:09:02Z</time>
      </trkpt>
      <trkpt lat="43.41222" lon="6.72479">
        <ele>-4.1999998092651</ele>
        <time>2018-10-13T08:09:03Z</time>
      </trkpt>
      <trkpt lat="43.41215" lon="6.72476">
        <ele>-4.5999999046326</ele>
        <time>2018-10-13T08:09:06Z</time>
      </trkpt>
      <trkpt lat="43.41214" lon="6.72475">
        <ele>-4.5999999046326</ele>
        <time>2018-10-13T08:09:07Z</time>
      </trkpt>
      <trkpt lat="43.41209" lon="6.72472">
        <ele>-4.5999999046326</ele>
        <time>2018-10-13T08:09:09Z</time>
      </trkpt>
      <trkpt lat="43.41207" lon="6.72471">
        <ele>-4.5999999046326</ele>
        <time>2018-10-13T08:09:10Z</time>
      </trkpt>
      <trkpt lat="43.41202" lon="6.72472">
        <ele>-4.5999999046326</ele>
        <time>2018-10-13T08:09:14Z</time>
      </trkpt>
      <trkpt lat="43.412" lon="6.72473">
        <ele>-4.5999999046326</ele>
        <time>2018-10-13T08:09:18Z</time>
      </trkpt>
      <trkpt lat="43.41198" lon="6.72478">
        <ele>-5</ele>
        <time>2018-10-13T08:09:27Z</time>
      </trkpt>
      <trkpt lat="43.41196" lon="6.72482">
        <ele>-5</ele>
        <time>2018-10-13T08:09:29Z</time>
      </trkpt>
      <trkpt lat="43.4119" lon="6.72489">
        <ele>-4.8000001907349</ele>
        <time>2018-10-13T08:09:33Z</time>
      </trkpt>
      <trkpt lat="43.4119" lon="6.72489">
        <ele>-4.8000001907349</ele>
        <time>2018-10-13T08:09:34Z</time>
      </trkpt>
      <trkpt lat="43.41184" lon="6.72499">
        <ele>-4.5999999046326</ele>
        <time>2018-10-13T08:09:47Z</time>
      </trkpt>
      <trkpt lat="43.41182" lon="6.72505">
        <ele>-4.4000000953674</ele>
        <time>2018-10-13T08:09:49Z</time>
      </trkpt>
      <trkpt lat="43.4118" lon="6.72507">
        <ele>-4.1999998092651</ele>
        <time>2018-10-13T08:09:50Z</time>
      </trkpt>
      <trkpt lat="43.41172" lon="6.7251">
        <ele>-4.1999998092651</ele>
        <time>2018-10-13T08:09:53Z</time>
      </trkpt>
      <trkpt lat="43.41154" lon="6.72505">
        <ele>-3.4000000953674</ele>
        <time>2018-10-13T08:09:58Z</time>
      </trkpt>
      <trkpt lat="43.4113" lon="6.7249">
        <ele>-2.7999999523163</ele>
        <time>2018-10-13T08:10:04Z</time>
      </trkpt>
      <trkpt lat="43.41092" lon="6.72466">
        <ele>-2</ele>
        <time>2018-10-13T08:10:13Z</time>
      </trkpt>
      <trkpt lat="43.41082" lon="6.72459">
        <ele>-1.7999999523163</ele>
        <time>2018-10-13T08:10:15Z</time>
      </trkpt>
      <trkpt lat="43.41069" lon="6.72446">
        <ele>-1.6000000238419</ele>
        <time>2018-10-13T08:10:18Z</time>
      </trkpt>
      <trkpt lat="43.41043" lon="6.72423">
        <ele>-1</ele>
        <time>2018-10-13T08:10:23Z</time>
      </trkpt>
      <trkpt lat="43.41011" lon="6.72414">
        <ele>-0.60000002384186</ele>
        <time>2018-10-13T08:10:28Z</time>
      </trkpt>
      <trkpt lat="43.40972" lon="6.72413">
        <ele>-0.40000000596046</ele>
        <time>2018-10-13T08:10:34Z</time>
      </trkpt>
      <trkpt lat="43.40932" lon="6.72422">
        <ele>-0.20000000298023</ele>
        <time>2018-10-13T08:10:40Z</time>
      </trkpt>
      <trkpt lat="43.40925" lon="6.72423">
        <ele>3.2</ele>
        <time>2018-10-13T08:10:41Z</time>
      </trkpt>
      <trkpt lat="43.40913" lon="6.72419">
        <ele>0.20000000298023</ele>
        <time>2018-10-13T08:10:43Z</time>
      </trkpt>
      <trkpt lat="43.40906" lon="6.72401">
        <ele>0.20000000298023</ele>
        <time>2018-10-13T08:10:45Z</time>
      </trkpt>
      <trkpt lat="43.40904" lon="6.7238">
        <ele>0.40000000596046</ele>
        <time>2018-10-13T08:10:47Z</time>
      </trkpt>
      <trkpt lat="43.40901" lon="6.7237">
        <ele>0.40000000596046</ele>
        <time>2018-10-13T08:10:48Z</time>
      </trkpt>
      <trkpt lat="43.40896" lon="6.72361">
        <ele>0.40000000596046</ele>
        <time>2018-10-13T08:10:49Z</time>
      </trkpt>
      <trkpt lat="43.40884" lon="6.72349">
        <ele>0.60000002384186</ele>
        <time>2018-10-13T08:10:51Z</time>
      </trkpt>
      <trkpt lat="43.40862" lon="6.72336">
        <ele>0.60000002384186</ele>
        <time>2018-10-13T08:10:54Z</time>
      </trkpt>
      <trkpt lat="43.40846" lon="6.72333">
        <ele>0.60000002384186</ele>
        <time>2018-10-13T08:10:56Z</time>
      </trkpt>
      <trkpt lat="43.40831" lon="6.72334">
        <ele>0.80000001192093</ele>
        <time>2018-10-13T08:10:58Z</time>
      </trkpt>
      <trkpt lat="43.40815" lon="6.72332">
        <ele>0.80000001192093</ele>
        <time>2018-10-13T08:11:00Z</time>
      </trkpt>
      <trkpt lat="43.40771" lon="6.72313">
        <ele>1</ele>
        <time>2018-10-13T08:11:06Z</time>
      </trkpt>
      <trkpt lat="43.40742" lon="6.72301">
        <ele>1</ele>
        <time>2018-10-13T08:11:10Z</time>
      </trkpt>
      <trkpt lat="43.40736" lon="6.72294">
        <ele>1</ele>
        <time>2018-10-13T08:11:11Z</time>
      </trkpt>
      <trkpt lat="43.40732" lon="6.72286">
        <ele>1</ele>
        <time>2018-10-13T08:11:12Z</time>
      </trkpt>
      <trkpt lat="43.40729" lon="6.72268">
        <ele>1</ele>
        <time>2018-10-13T08:11:14Z</time>
      </trkpt>
      <trkpt lat="43.40731" lon="6.72248">
        <ele>1</ele>
        <time>2018-10-13T08:11:16Z</time>
      </trkpt>
      <trkpt lat="43.40734" lon="6.72239">
        <ele>1.2000000476837</ele>
        <time>2018-10-13T08:11:17Z</time>
      </trkpt>
      <trkpt lat="43.40739" lon="6.72232">
        <ele>1.2000000476837</ele>
        <time>2018-10-13T08:11:18Z</time>
      </trkpt>
      <trkpt lat="43.40749" lon="6.72219">
        <ele>1.2000000476837</ele>
        <time>2018-10-13T08:11:20Z</time>
      </trkpt>
      <trkpt lat="43.40758" lon="6.72204">
        <ele>1.2000000476837</ele>
        <time>2018-10-13T08:11:22Z</time>
      </trkpt>
      <trkpt lat="43.40768" lon="6.7218">
        <ele>1.3999999761581</ele>
        <time>2018-10-13T08:11:25Z</time>
      </trkpt>
      <trkpt lat="43.40786" lon="6.72133">
        <ele>1.3999999761581</ele>
        <time>2018-10-13T08:11:31Z</time>
      </trkpt>
      <trkpt lat="43.40789" lon="6.72116">
        <ele>1.3999999761581</ele>
        <time>2018-10-13T08:11:33Z</time>
      </trkpt>
      <trkpt lat="43.4079" lon="6.72099">
        <ele>1.3999999761581</ele>
        <time>2018-10-13T08:11:35Z</time>
      </trkpt>
      <trkpt lat="43.4079" lon="6.7209">
        <ele>1.3999999761581</ele>
        <time>2018-10-13T08:11:36Z</time>
      </trkpt>
      <trkpt lat="43.40793" lon="6.72049">
        <ele>1.6000000238419</ele>
        <time>2018-10-13T08:11:41Z</time>
      </trkpt>
      <trkpt lat="43.40799" lon="6.72025">
        <ele>1.6000000238419</ele>
        <time>2018-10-13T08:11:44Z</time>
      </trkpt>
      <trkpt lat="43.40803" lon="6.71999">
        <ele>1.7999999523163</ele>
        <time>2018-10-13T08:11:47Z</time>
      </trkpt>
      <trkpt lat="43.40806" lon="6.71981">
        <ele>1.7999999523163</ele>
        <time>2018-10-13T08:11:49Z</time>
      </trkpt>
      <trkpt lat="43.40814" lon="6.71956">
        <ele>1.7999999523163</ele>
        <time>2018-10-13T08:11:52Z</time>
      </trkpt>
      <trkpt lat="43.40837" lon="6.71891">
        <ele>2.2000000476837</ele>
        <time>2018-10-13T08:12:00Z</time>
      </trkpt>
      <trkpt lat="43.40862" lon="6.71838">
        <ele>2.2000000476837</ele>
        <time>2018-10-13T08:12:07Z</time>
      </trkpt>
      <trkpt lat="43.4088" lon="6.71813">
        <ele>2.4000000953674</ele>
        <time>2018-10-13T08:12:11Z</time>
      </trkpt>
      <trkpt lat="43.40888" lon="6.71798">
        <ele>2.4000000953674</ele>
        <time>2018-10-13T08:12:13Z</time>
      </trkpt>
      <trkpt lat="43.40894" lon="6.71783">
        <ele>2.4000000953674</ele>
        <time>2018-10-13T08:12:15Z</time>
      </trkpt>
      <trkpt lat="43.40897" lon="6.71766">
        <ele>2.4000000953674</ele>
        <time>2018-10-13T08:12:17Z</time>
      </trkpt>
      <trkpt lat="43.40901" lon="6.7174">
        <ele>2.2000000476837</ele>
        <time>2018-10-13T08:12:20Z</time>
      </trkpt>
      <trkpt lat="43.40907" lon="6.71715">
        <ele>2.2000000476837</ele>
        <time>2018-10-13T08:12:23Z</time>
      </trkpt>
      <trkpt lat="43.40911" lon="6.71698">
        <ele>2</ele>
        <time>2018-10-13T08:12:25Z</time>
      </trkpt>
      <trkpt lat="43.40916" lon="6.71672">
        <ele>1.7999999523163</ele>
        <time>2018-10-13T08:12:28Z</time>
      </trkpt>
      <trkpt lat="43.40924" lon="6.71628">
        <ele>1.3999999761581</ele>
        <time>2018-10-13T08:12:33Z</time>
      </trkpt>
      <trkpt lat="43.40926" lon="6.71619">
        <ele>1.2000000476837</ele>
        <time>2018-10-13T08:12:34Z</time>
      </trkpt>
      <trkpt lat="43.40936" lon="6.71577">
        <ele>0.80000001192093</ele>
        <time>2018-10-13T08:12:39Z</time>
      </trkpt>
      <trkpt lat="43.40944" lon="6.71533">
        <ele>0.40000000596046</ele>
        <time>2018-10-13T08:12:44Z</time>
      </trkpt>
      <trkpt lat="43.40945" lon="6.71524">
        <ele>0.40000000596046</ele>
        <time>2018-10-13T08:12:45Z</time>
      </trkpt>
      <trkpt lat="43.40945" lon="6.71515">
        <ele>0.20000000298023</ele>
        <time>2018-10-13T08:12:46Z</time>
      </trkpt>
      <trkpt lat="43.40942" lon="6.71499">
        <ele>0.20000000298023</ele>
        <time>2018-10-13T08:12:48Z</time>
      </trkpt>
      <trkpt lat="43.40936" lon="6.71489">
        <ele>1.7</ele>
        <time>2018-10-13T08:12:50Z</time>
      </trkpt>
      <trkpt lat="43.40935" lon="6.71483">
        <ele>1.7</ele>
        <time>2018-10-13T08:12:51Z</time>
      </trkpt>
      <trkpt lat="43.40941" lon="6.71474">
        <ele>1.9</ele>
        <time>2018-10-13T08:12:54Z</time>
      </trkpt>
      <trkpt lat="43.40943" lon="6.71471">
        <ele>1.9</ele>
        <time>2018-10-13T08:12:55Z</time>
      </trkpt>
      <trkpt lat="43.40946" lon="6.71461">
        <ele>-0.20000000298023</ele>
        <time>2018-10-13T08:12:57Z</time>
      </trkpt>
      <trkpt lat="43.40954" lon="6.71438">
        <ele>-0.20000000298023</ele>
        <time>2018-10-13T08:13:02Z</time>
      </trkpt>
      <trkpt lat="43.40958" lon="6.71434">
        <ele>-0.40000000596046</ele>
        <time>2018-10-13T08:13:04Z</time>
      </trkpt>
      <trkpt lat="43.40962" lon="6.71433">
        <ele>-0.40000000596046</ele>
        <time>2018-10-13T08:13:05Z</time>
      </trkpt>
      <trkpt lat="43.40969" lon="6.71433">
        <ele>-0.40000000596046</ele>
        <time>2018-10-13T08:13:07Z</time>
      </trkpt>
      <trkpt lat="43.40973" lon="6.71425">
        <ele>-0.60000002384186</ele>
        <time>2018-10-13T08:13:09Z</time>
      </trkpt>
      <trkpt lat="43.40973" lon="6.7142">
        <ele>-0.60000002384186</ele>
        <time>2018-10-13T08:13:10Z</time>
      </trkpt>
      <trkpt lat="43.40975" lon="6.71408">
        <ele>-0.80000001192093</ele>
        <time>2018-10-13T08:13:12Z</time>
      </trkpt>
      <trkpt lat="43.40977" lon="6.71403">
        <ele>-0.80000001192093</ele>
        <time>2018-10-13T08:13:13Z</time>
      </trkpt>
      <trkpt lat="43.40981" lon="6.714">
        <ele>-0.80000001192093</ele>
        <time>2018-10-13T08:13:14Z</time>
      </trkpt>
      <trkpt lat="43.4099" lon="6.71396">
        <ele>-1</ele>
        <time>2018-10-13T08:13:16Z</time>
      </trkpt>
      <trkpt lat="43.40994" lon="6.71394">
        <ele>-1</ele>
        <time>2018-10-13T08:13:17Z</time>
      </trkpt>
      <trkpt lat="43.41012" lon="6.71385">
        <ele>-1.2000000476837</ele>
        <time>2018-10-13T08:13:21Z</time>
      </trkpt>
      <trkpt lat="43.41027" lon="6.71378">
        <ele>-1.2000000476837</ele>
        <time>2018-10-13T08:13:24Z</time>
      </trkpt>
      <trkpt lat="43.41031" lon="6.71374">
        <ele>-1.2000000476837</ele>
        <time>2018-10-13T08:13:25Z</time>
      </trkpt>
      <trkpt lat="43.4105" lon="6.71341">
        <ele>-1.2000000476837</ele>
        <time>2018-10-13T08:13:31Z</time>
      </trkpt>
      <trkpt lat="43.41072" lon="6.71302">
        <ele>-1.2000000476837</ele>
        <time>2018-10-13T08:13:38Z</time>
      </trkpt>
      <trkpt lat="43.41083" lon="6.71286">
        <ele>-1.2000000476837</ele>
        <time>2018-10-13T08:13:41Z</time>
      </trkpt>
      <trkpt lat="43.41097" lon="6.71271">
        <ele>-1.2000000476837</ele>
        <time>2018-10-13T08:13:44Z</time>
      </trkpt>
      <trkpt lat="43.41102" lon="6.71257">
        <ele>-1.2000000476837</ele>
        <time>2018-10-13T08:13:46Z</time>
      </trkpt>
      <trkpt lat="43.41101" lon="6.71249">
        <ele>-1</ele>
        <time>2018-10-13T08:13:47Z</time>
      </trkpt>
      <trkpt lat="43.41099" lon="6.71242">
        <ele>-1</ele>
        <time>2018-10-13T08:13:48Z</time>
      </trkpt>
      <trkpt lat="43.41093" lon="6.71219">
        <ele>-1</ele>
        <time>2018-10-13T08:13:51Z</time>
      </trkpt>
      <trkpt lat="43.41084" lon="6.71189">
        <ele>-1</ele>
        <time>2018-10-13T08:13:55Z</time>
      </trkpt>
      <trkpt lat="43.41079" lon="6.71175">
        <ele>-1</ele>
        <time>2018-10-13T08:13:57Z</time>
      </trkpt>
      <trkpt lat="43.41066" lon="6.71129">
        <ele>-1.2000000476837</ele>
        <time>2018-10-13T08:14:03Z</time>
      </trkpt>
      <trkpt lat="43.41062" lon="6.71114">
        <ele>-1.2000000476837</ele>
        <time>2018-10-13T08:14:05Z</time>
      </trkpt>
      <trkpt lat="43.41055" lon="6.71101">
        <ele>-1.2000000476837</ele>
        <time>2018-10-13T08:14:07Z</time>
      </trkpt>
      <trkpt lat="43.41043" lon="6.71062">
        <ele>-1</ele>
        <time>2018-10-13T08:14:12Z</time>
      </trkpt>
      <trkpt lat="43.4104" lon="6.71046">
        <ele>-0.80000001192093</ele>
        <time>2018-10-13T08:14:14Z</time>
      </trkpt>
      <trkpt lat="43.41037" lon="6.71029">
        <ele>-0.80000001192093</ele>
        <time>2018-10-13T08:14:16Z</time>
      </trkpt>
      <trkpt lat="43.41031" lon="6.71005">
        <ele>-0.80000001192093</ele>
        <time>2018-10-13T08:14:19Z</time>
      </trkpt>
      <trkpt lat="43.41026" lon="6.70989">
        <ele>-0.80000001192093</ele>
        <time>2018-10-13T08:14:21Z</time>
      </trkpt>
      <trkpt lat="43.41018" lon="6.7096">
        <ele>-0.80000001192093</ele>
        <time>2018-10-13T08:14:25Z</time>
      </trkpt>
      <trkpt lat="43.41017" lon="6.70953">
        <ele>-0.80000001192093</ele>
        <time>2018-10-13T08:14:26Z</time>
      </trkpt>
      <trkpt lat="43.41012" lon="6.70935">
        <ele>-0.80000001192093</ele>
        <time>2018-10-13T08:14:29Z</time>
      </trkpt>
      <trkpt lat="43.41009" lon="6.70929">
        <ele>-0.80000001192093</ele>
        <time>2018-10-13T08:14:30Z</time>
      </trkpt>
      <trkpt lat="43.41004" lon="6.70911">
        <ele>-1</ele>
        <time>2018-10-13T08:14:33Z</time>
      </trkpt>
      <trkpt lat="43.41" lon="6.70887">
        <ele>-1</ele>
        <time>2018-10-13T08:14:36Z</time>
      </trkpt>
      <trkpt lat="43.40997" lon="6.7088">
        <ele>-1</ele>
        <time>2018-10-13T08:14:37Z</time>
      </trkpt>
      <trkpt lat="43.40992" lon="6.70874">
        <ele>-1</ele>
        <time>2018-10-13T08:14:38Z</time>
      </trkpt>
      <trkpt lat="43.40979" lon="6.70869">
        <ele>-1.2000000476837</ele>
        <time>2018-10-13T08:14:40Z</time>
      </trkpt>
      <trkpt lat="43.40969" lon="6.70859">
        <ele>-1</ele>
        <time>2018-10-13T08:14:42Z</time>
      </trkpt>
      <trkpt lat="43.40965" lon="6.70852">
        <ele>-0.80000001192093</ele>
        <time>2018-10-13T08:14:43Z</time>
      </trkpt>
      <trkpt lat="43.40963" lon="6.70844">
        <ele>-0.80000001192093</ele>
        <time>2018-10-13T08:14:44Z</time>
      </trkpt>
      <trkpt lat="43.40966" lon="6.7083">
        <ele>-0.40000000596046</ele>
        <time>2018-10-13T08:14:46Z</time>
      </trkpt>
      <trkpt lat="43.40973" lon="6.70822">
        <ele>-0.20000000298023</ele>
        <time>2018-10-13T08:14:48Z</time>
      </trkpt>
      <trkpt lat="43.40976" lon="6.70818">
        <ele>3.5</ele>
        <time>2018-10-13T08:14:49Z</time>
      </trkpt>
      <trkpt lat="43.4098" lon="6.70815">
        <ele>0.20000000298023</ele>
        <time>2018-10-13T08:14:50Z</time>
      </trkpt>
      <trkpt lat="43.40988" lon="6.70811">
        <ele>0.20000000298023</ele>
        <time>2018-10-13T08:14:52Z</time>
      </trkpt>
      <trkpt lat="43.41023" lon="6.70793">
        <ele>1</ele>
        <time>2018-10-13T08:15:00Z</time>
      </trkpt>
      <trkpt lat="43.41055" lon="6.70778">
        <ele>1.3999999761581</ele>
        <time>2018-10-13T08:15:07Z</time>
      </trkpt>
      <trkpt lat="43.41065" lon="6.70782">
        <ele>1.6000000238419</ele>
        <time>2018-10-13T08:15:09Z</time>
      </trkpt>
      <trkpt lat="43.4107" lon="6.70785">
        <ele>1.6000000238419</ele>
        <time>2018-10-13T08:15:10Z</time>
      </trkpt>
      <trkpt lat="43.41076" lon="6.70788">
        <ele>1.6000000238419</ele>
        <time>2018-10-13T08:15:11Z</time>
      </trkpt>
      <trkpt lat="43.41095" lon="6.70791">
        <ele>1.7999999523163</ele>
        <time>2018-10-13T08:15:14Z</time>
      </trkpt>
      <trkpt lat="43.41134" lon="6.70794">
        <ele>2</ele>
        <time>2018-10-13T08:15:20Z</time>
      </trkpt>
      <trkpt lat="43.4114" lon="6.70794">
        <ele>2</ele>
        <time>2018-10-13T08:15:21Z</time>
      </trkpt>
      <trkpt lat="43.41146" lon="6.70792">
        <ele>2.2000000476837</ele>
        <time>2018-10-13T08:15:22Z</time>
      </trkpt>
      <trkpt lat="43.41156" lon="6.70782">
        <ele>2.2000000476837</ele>
        <time>2018-10-13T08:15:24Z</time>
      </trkpt>
      <trkpt lat="43.41168" lon="6.70754">
        <ele>2.2000000476837</ele>
        <time>2018-10-13T08:15:28Z</time>
      </trkpt>
      <trkpt lat="43.41192" lon="6.70698">
        <ele>2.5999999046326</ele>
        <time>2018-10-13T08:15:36Z</time>
      </trkpt>
      <trkpt lat="43.41208" lon="6.70665">
        <ele>3</ele>
        <time>2018-10-13T08:15:41Z</time>
      </trkpt>
      <trkpt lat="43.41211" lon="6.70658">
        <ele>3</ele>
        <time>2018-10-13T08:15:42Z</time>
      </trkpt>
      <trkpt lat="43.41226" lon="6.7062">
        <ele>3.2000000476837</ele>
        <time>2018-10-13T08:15:48Z</time>
      </trkpt>
      <trkpt lat="43.41253" lon="6.70557">
        <ele>3.7999999523163</ele>
        <time>2018-10-13T08:15:57Z</time>
      </trkpt>
      <trkpt lat="43.41266" lon="6.7051">
        <ele>4</ele>
        <time>2018-10-13T08:16:03Z</time>
      </trkpt>
      <trkpt lat="43.41284" lon="6.70468">
        <ele>4.4000000953674</ele>
        <time>2018-10-13T08:16:09Z</time>
      </trkpt>
      <trkpt lat="43.41308" lon="6.70412">
        <ele>4.8000001907349</ele>
        <time>2018-10-13T08:16:17Z</time>
      </trkpt>
      <trkpt lat="43.41328" lon="6.70359">
        <ele>5</ele>
        <time>2018-10-13T08:16:24Z</time>
      </trkpt>
      <trkpt lat="43.41335" lon="6.70308">
        <ele>5.1999998092651</ele>
        <time>2018-10-13T08:16:30Z</time>
      </trkpt>
      <trkpt lat="43.41335" lon="6.7029">
        <ele>5.1999998092651</ele>
        <time>2018-10-13T08:16:32Z</time>
      </trkpt>
      <trkpt lat="43.41332" lon="6.70256">
        <ele>5.4000000953674</ele>
        <time>2018-10-13T08:16:36Z</time>
      </trkpt>
      <trkpt lat="43.41322" lon="6.702">
        <ele>5.8000001907349</ele>
        <time>2018-10-13T08:16:43Z</time>
      </trkpt>
      <trkpt lat="43.41314" lon="6.70169">
        <ele>5.8000001907349</ele>
        <time>2018-10-13T08:16:47Z</time>
      </trkpt>
      <trkpt lat="43.41308" lon="6.70156">
        <ele>6</ele>
        <time>2018-10-13T08:16:49Z</time>
      </trkpt>
      <trkpt lat="43.41297" lon="6.70141">
        <ele>6</ele>
        <time>2018-10-13T08:16:52Z</time>
      </trkpt>
      <trkpt lat="43.41295" lon="6.70135">
        <ele>6.1999998092651</ele>
        <time>2018-10-13T08:16:53Z</time>
      </trkpt>
      <trkpt lat="43.41294" lon="6.70129">
        <ele>6.1999998092651</ele>
        <time>2018-10-13T08:16:54Z</time>
      </trkpt>
      <trkpt lat="43.41292" lon="6.70117">
        <ele>6.1999998092651</ele>
        <time>2018-10-13T08:16:56Z</time>
      </trkpt>
      <trkpt lat="43.4129" lon="6.70112">
        <ele>6.4000000953674</ele>
        <time>2018-10-13T08:16:57Z</time>
      </trkpt>
      <trkpt lat="43.41279" lon="6.70088">
        <ele>6.4000000953674</ele>
        <time>2018-10-13T08:17:02Z</time>
      </trkpt>
      <trkpt lat="43.4128" lon="6.70072">
        <ele>6.8000001907349</ele>
        <time>2018-10-13T08:17:06Z</time>
      </trkpt>
      <trkpt lat="43.41281" lon="6.70063">
        <ele>6.8000001907349</ele>
        <time>2018-10-13T08:17:08Z</time>
      </trkpt>
      <trkpt lat="43.41281" lon="6.70047">
        <ele>7</ele>
        <time>2018-10-13T08:17:10Z</time>
      </trkpt>
      <trkpt lat="43.4128" lon="6.70038">
        <ele>7</ele>
        <time>2018-10-13T08:17:11Z</time>
      </trkpt>
      <trkpt lat="43.41275" lon="6.70003">
        <ele>7</ele>
        <time>2018-10-13T08:17:15Z</time>
      </trkpt>
      <trkpt lat="43.41266" lon="6.69961">
        <ele>7.1999998092651</ele>
        <time>2018-10-13T08:17:21Z</time>
      </trkpt>
      <trkpt lat="43.41256" lon="6.69913">
        <ele>7.1999998092651</ele>
        <time>2018-10-13T08:17:28Z</time>
      </trkpt>
      <trkpt lat="43.41247" lon="6.69873">
        <ele>7.4000000953674</ele>
        <time>2018-10-13T08:17:34Z</time>
      </trkpt>
      <trkpt lat="43.41243" lon="6.69861">
        <ele>7.4000000953674</ele>
        <time>2018-10-13T08:17:36Z</time>
      </trkpt>
      <trkpt lat="43.41234" lon="6.69841">
        <ele>7.4000000953674</ele>
        <time>2018-10-13T08:17:40Z</time>
      </trkpt>
      <trkpt lat="43.4122" lon="6.69821">
        <ele>7.4000000953674</ele>
        <time>2018-10-13T08:17:45Z</time>
      </trkpt>
      <trkpt lat="43.41217" lon="6.69811">
        <ele>7.4000000953674</ele>
        <time>2018-10-13T08:17:47Z</time>
      </trkpt>
      <trkpt lat="43.41215" lon="6.698">
        <ele>7.4000000953674</ele>
        <time>2018-10-13T08:17:49Z</time>
      </trkpt>
      <trkpt lat="43.41208" lon="6.69776">
        <ele>7.5999999046326</ele>
        <time>2018-10-13T08:17:54Z</time>
      </trkpt>
      <trkpt lat="43.41201" lon="6.69751">
        <ele>7.5999999046326</ele>
        <time>2018-10-13T08:17:59Z</time>
      </trkpt>
      <trkpt lat="43.41195" lon="6.69736">
        <ele>7.5999999046326</ele>
        <time>2018-10-13T08:18:02Z</time>
      </trkpt>
      <trkpt lat="43.41192" lon="6.69731">
        <ele>7.5999999046326</ele>
        <time>2018-10-13T08:18:03Z</time>
      </trkpt>
      <trkpt lat="43.41186" lon="6.6972">
        <ele>7.5999999046326</ele>
        <time>2018-10-13T08:18:05Z</time>
      </trkpt>
      <trkpt lat="43.41182" lon="6.69708">
        <ele>7.5999999046326</ele>
        <time>2018-10-13T08:18:07Z</time>
      </trkpt>
      <trkpt lat="43.41179" lon="6.69703">
        <ele>7.5999999046326</ele>
        <time>2018-10-13T08:18:08Z</time>
      </trkpt>
      <trkpt lat="43.41175" lon="6.69698">
        <ele>7.5999999046326</ele>
        <time>2018-10-13T08:18:09Z</time>
      </trkpt>
      <trkpt lat="43.41165" lon="6.69689">
        <ele>7.5999999046326</ele>
        <time>2018-10-13T08:18:12Z</time>
      </trkpt>
      <trkpt lat="43.41157" lon="6.69687">
        <ele>7.4000000953674</ele>
        <time>2018-10-13T08:18:14Z</time>
      </trkpt>
      <trkpt lat="43.41148" lon="6.69688">
        <ele>7.4000000953674</ele>
        <time>2018-10-13T08:18:16Z</time>
      </trkpt>
      <trkpt lat="43.4114" lon="6.69693">
        <ele>7.4000000953674</ele>
        <time>2018-10-13T08:18:18Z</time>
      </trkpt>
      <trkpt lat="43.41134" lon="6.69701">
        <ele>7.4000000953674</ele>
        <time>2018-10-13T08:18:20Z</time>
      </trkpt>
      <trkpt lat="43.41125" lon="6.69727">
        <ele>7.5999999046326</ele>
        <time>2018-10-13T08:18:26Z</time>
      </trkpt>
      <trkpt lat="43.41118" lon="6.69746">
        <ele>8</ele>
        <time>2018-10-13T08:18:32Z</time>
      </trkpt>
      <trkpt lat="43.41111" lon="6.6976">
        <ele>8.3999996185303</ele>
        <time>2018-10-13T08:18:37Z</time>
      </trkpt>
      <trkpt lat="43.41098" lon="6.69777">
        <ele>9</ele>
        <time>2018-10-13T08:18:45Z</time>
      </trkpt>
      <trkpt lat="43.41088" lon="6.69799">
        <ele>9.6000003814697</ele>
        <time>2018-10-13T08:18:53Z</time>
      </trkpt>
      <trkpt lat="43.4108" lon="6.69816">
        <ele>10.39999961853</ele>
        <time>2018-10-13T08:18:59Z</time>
      </trkpt>
      <trkpt lat="43.41074" lon="6.6983">
        <ele>10.800000190735</ele>
        <time>2018-10-13T08:19:04Z</time>
      </trkpt>
      <trkpt lat="43.41066" lon="6.6985">
        <ele>11.60000038147</ele>
        <time>2018-10-13T08:19:11Z</time>
      </trkpt>
      <trkpt lat="43.41063" lon="6.69868">
        <ele>12.199999809265</ele>
        <time>2018-10-13T08:19:17Z</time>
      </trkpt>
      <trkpt lat="43.41053" lon="6.6988">
        <ele>12.800000190735</ele>
        <time>2018-10-13T08:19:23Z</time>
      </trkpt>
      <trkpt lat="43.41043" lon="6.69894">
        <ele>13.800000190735</ele>
        <time>2018-10-13T08:19:30Z</time>
      </trkpt>
      <trkpt lat="43.41043" lon="6.69897">
        <ele>14</ele>
        <time>2018-10-13T08:19:31Z</time>
      </trkpt>
      <trkpt lat="43.41045" lon="6.69907">
        <ele>14.60000038147</ele>
        <time>2018-10-13T08:19:35Z</time>
      </trkpt>
      <trkpt lat="43.41048" lon="6.69918">
        <ele>15.199999809265</ele>
        <time>2018-10-13T08:19:39Z</time>
      </trkpt>
      <trkpt lat="43.41047" lon="6.69921">
        <ele>15.39999961853</ele>
        <time>2018-10-13T08:19:40Z</time>
      </trkpt>
      <trkpt lat="43.41043" lon="6.6993">
        <ele>16</ele>
        <time>2018-10-13T08:19:44Z</time>
      </trkpt>
      <trkpt lat="43.41043" lon="6.69932">
        <ele>16.200000762939</ele>
        <time>2018-10-13T08:19:45Z</time>
      </trkpt>
      <trkpt lat="43.41035" lon="6.69946">
        <ele>17.39999961853</ele>
        <time>2018-10-13T08:19:52Z</time>
      </trkpt>
      <trkpt lat="43.41031" lon="6.69963">
        <ele>18.39999961853</ele>
        <time>2018-10-13T08:19:59Z</time>
      </trkpt>
      <trkpt lat="43.4103" lon="6.69978">
        <ele>19.60000038147</ele>
        <time>2018-10-13T08:20:06Z</time>
      </trkpt>
      <trkpt lat="43.4103" lon="6.69992">
        <ele>20.39999961853</ele>
        <time>2018-10-13T08:20:12Z</time>
      </trkpt>
      <trkpt lat="43.4103" lon="6.69995">
        <ele>20.60000038147</ele>
        <time>2018-10-13T08:20:13Z</time>
      </trkpt>
      <trkpt lat="43.41031" lon="6.70001">
        <ele>21</ele>
        <time>2018-10-13T08:20:16Z</time>
      </trkpt>
      <trkpt lat="43.41032" lon="6.70007">
        <ele>21.39999961853</ele>
        <time>2018-10-13T08:20:19Z</time>
      </trkpt>
      <trkpt lat="43.41033" lon="6.70011">
        <ele>21.799999237061</ele>
        <time>2018-10-13T08:20:21Z</time>
      </trkpt>
      <trkpt lat="43.41033" lon="6.70014">
        <ele>22</ele>
        <time>2018-10-13T08:20:23Z</time>
      </trkpt>
      <trkpt lat="43.41032" lon="6.70016">
        <ele>22</ele>
        <time>2018-10-13T08:20:24Z</time>
      </trkpt>
      <trkpt lat="43.4103" lon="6.70025">
        <ele>22.799999237061</ele>
        <time>2018-10-13T08:20:29Z</time>
      </trkpt>
      <trkpt lat="43.41031" lon="6.70029">
        <ele>23</ele>
        <time>2018-10-13T08:20:31Z</time>
      </trkpt>
      <trkpt lat="43.41031" lon="6.70033">
        <ele>23.39999961853</ele>
        <time>2018-10-13T08:20:33Z</time>
      </trkpt>
      <trkpt lat="43.41034" lon="6.70041">
        <ele>24</ele>
        <time>2018-10-13T08:20:38Z</time>
      </trkpt>
      <trkpt lat="43.41036" lon="6.70053">
        <ele>24.60000038147</ele>
        <time>2018-10-13T08:20:44Z</time>
      </trkpt>
      <trkpt lat="43.41036" lon="6.70055">
        <ele>24.799999237061</ele>
        <time>2018-10-13T08:20:45Z</time>
      </trkpt>
      <trkpt lat="43.41041" lon="6.70073">
        <ele>26</ele>
        <time>2018-10-13T08:20:54Z</time>
      </trkpt>
      <trkpt lat="43.41046" lon="6.70086">
        <ele>26.60000038147</ele>
        <time>2018-10-13T08:21:00Z</time>
      </trkpt>
      <trkpt lat="43.41046" lon="6.70092">
        <ele>27</ele>
        <time>2018-10-13T08:21:03Z</time>
      </trkpt>
      <trkpt lat="43.41047" lon="6.70096">
        <ele>27.39999961853</ele>
        <time>2018-10-13T08:21:05Z</time>
      </trkpt>
      <trkpt lat="43.41048" lon="6.701">
        <ele>27.60000038147</ele>
        <time>2018-10-13T08:21:07Z</time>
      </trkpt>
      <trkpt lat="43.41047" lon="6.70104">
        <ele>27.799999237061</ele>
        <time>2018-10-13T08:21:09Z</time>
      </trkpt>
      <trkpt lat="43.41046" lon="6.70105">
        <ele>28</ele>
        <time>2018-10-13T08:21:10Z</time>
      </trkpt>
      <trkpt lat="43.41041" lon="6.70112">
        <ele>28.39999961853</ele>
        <time>2018-10-13T08:21:14Z</time>
      </trkpt>
      <trkpt lat="43.4104" lon="6.70114">
        <ele>28.60000038147</ele>
        <time>2018-10-13T08:21:15Z</time>
      </trkpt>
      <trkpt lat="43.4104" lon="6.70119">
        <ele>28.799999237061</ele>
        <time>2018-10-13T08:21:17Z</time>
      </trkpt>
      <trkpt lat="43.41036" lon="6.70128">
        <ele>29.799999237061</ele>
        <time>2018-10-13T08:21:23Z</time>
      </trkpt>
      <trkpt lat="43.41035" lon="6.70128">
        <ele>30</ele>
        <time>2018-10-13T08:21:24Z</time>
      </trkpt>
      <trkpt lat="43.4103" lon="6.70127">
        <ele>30.799999237061</ele>
        <time>2018-10-13T08:21:27Z</time>
      </trkpt>
      <trkpt lat="43.41029" lon="6.70126">
        <ele>31</ele>
        <time>2018-10-13T08:21:28Z</time>
      </trkpt>
      <trkpt lat="43.41026" lon="6.70124">
        <ele>31.39999961853</ele>
        <time>2018-10-13T08:21:30Z</time>
      </trkpt>
      <trkpt lat="43.41019" lon="6.70131">
        <ele>32.799999237061</ele>
        <time>2018-10-13T08:21:36Z</time>
      </trkpt>
      <trkpt lat="43.41014" lon="6.70135">
        <ele>33.599998474121</ele>
        <time>2018-10-13T08:21:40Z</time>
      </trkpt>
      <trkpt lat="43.41013" lon="6.70137">
        <ele>33.799999237061</ele>
        <time>2018-10-13T08:21:41Z</time>
      </trkpt>
      <trkpt lat="43.4101" lon="6.7014">
        <ele>34.200000762939</ele>
        <time>2018-10-13T08:21:43Z</time>
      </trkpt>
      <trkpt lat="43.41008" lon="6.70149">
        <ele>35</ele>
        <time>2018-10-13T08:21:47Z</time>
      </trkpt>
      <trkpt lat="43.41006" lon="6.70153">
        <ele>35.400001525879</ele>
        <time>2018-10-13T08:21:49Z</time>
      </trkpt>
      <trkpt lat="43.41003" lon="6.70155">
        <ele>35.799999237061</ele>
        <time>2018-10-13T08:21:51Z</time>
      </trkpt>
      <trkpt lat="43.41001" lon="6.70154">
        <ele>36</ele>
        <time>2018-10-13T08:21:52Z</time>
      </trkpt>
      <trkpt lat="43.4099" lon="6.70148">
        <ele>36.400001525879</ele>
        <time>2018-10-13T08:21:56Z</time>
      </trkpt>
      <trkpt lat="43.40981" lon="6.70142">
        <ele>36.599998474121</ele>
        <time>2018-10-13T08:21:58Z</time>
      </trkpt>
      <trkpt lat="43.40974" lon="6.7014">
        <ele>37</ele>
        <time>2018-10-13T08:22:00Z</time>
      </trkpt>
      <trkpt lat="43.40965" lon="6.70145">
        <ele>37.599998474121</ele>
        <time>2018-10-13T08:22:04Z</time>
      </trkpt>
      <trkpt lat="43.40956" lon="6.70151">
        <ele>38.400001525879</ele>
        <time>2018-10-13T08:22:09Z</time>
      </trkpt>
      <trkpt lat="43.40952" lon="6.70153">
        <ele>39</ele>
        <time>2018-10-13T08:22:12Z</time>
      </trkpt>
      <trkpt lat="43.40948" lon="6.70157">
        <ele>39.599998474121</ele>
        <time>2018-10-13T08:22:15Z</time>
      </trkpt>
      <trkpt lat="43.4094" lon="6.70167">
        <ele>41</ele>
        <time>2018-10-13T08:22:22Z</time>
      </trkpt>
      <trkpt lat="43.40928" lon="6.70175">
        <ele>42.799999237061</ele>
        <time>2018-10-13T08:22:30Z</time>
      </trkpt>
      <trkpt lat="43.40916" lon="6.70169">
        <ele>43.799999237061</ele>
        <time>2018-10-13T08:22:35Z</time>
      </trkpt>
      <trkpt lat="43.40913" lon="6.70168">
        <ele>44</ele>
        <time>2018-10-13T08:22:36Z</time>
      </trkpt>
      <trkpt lat="43.40903" lon="6.70167">
        <ele>44.599998474121</ele>
        <time>2018-10-13T08:22:39Z</time>
      </trkpt>
      <trkpt lat="43.40892" lon="6.70179">
        <ele>45.200000762939</ele>
        <time>2018-10-13T08:22:43Z</time>
      </trkpt>
      <trkpt lat="43.40881" lon="6.70201">
        <ele>46.200000762939</ele>
        <time>2018-10-13T08:22:48Z</time>
      </trkpt>
      <trkpt lat="43.40878" lon="6.70206">
        <ele>46.200000762939</ele>
        <time>2018-10-13T08:22:49Z</time>
      </trkpt>
      <trkpt lat="43.4087" lon="6.70213">
        <ele>46.599998474121</ele>
        <time>2018-10-13T08:22:51Z</time>
      </trkpt>
      <trkpt lat="43.40866" lon="6.70217">
        <ele>46.599998474121</ele>
        <time>2018-10-13T08:22:52Z</time>
      </trkpt>
      <trkpt lat="43.40848" lon="6.70237">
        <ele>47.200000762939</ele>
        <time>2018-10-13T08:22:56Z</time>
      </trkpt>
      <trkpt lat="43.40841" lon="6.7024">
        <ele>47.200000762939</ele>
        <time>2018-10-13T08:22:57Z</time>
      </trkpt>
      <trkpt lat="43.40834" lon="6.70243">
        <ele>47.400001525879</ele>
        <time>2018-10-13T08:22:58Z</time>
      </trkpt>
      <trkpt lat="43.40814" lon="6.70246">
        <ele>47.599998474121</ele>
        <time>2018-10-13T08:23:01Z</time>
      </trkpt>
      <trkpt lat="43.40807" lon="6.70246">
        <ele>47.799999237061</ele>
        <time>2018-10-13T08:23:02Z</time>
      </trkpt>
      <trkpt lat="43.40795" lon="6.70241">
        <ele>48</ele>
        <time>2018-10-13T08:23:04Z</time>
      </trkpt>
      <trkpt lat="43.40768" lon="6.70225">
        <ele>48.799999237061</ele>
        <time>2018-10-13T08:23:10Z</time>
      </trkpt>
      <trkpt lat="43.40754" lon="6.70207">
        <ele>49.599998474121</ele>
        <time>2018-10-13T08:23:15Z</time>
      </trkpt>
      <trkpt lat="43.40741" lon="6.70197">
        <ele>50.400001525879</ele>
        <time>2018-10-13T08:23:20Z</time>
      </trkpt>
      <trkpt lat="43.40729" lon="6.70191">
        <ele>51.599998474121</ele>
        <time>2018-10-13T08:23:26Z</time>
      </trkpt>
      <trkpt lat="43.40717" lon="6.70186">
        <ele>52.599998474121</ele>
        <time>2018-10-13T08:23:33Z</time>
      </trkpt>
      <trkpt lat="43.40706" lon="6.70178">
        <ele>54</ele>
        <time>2018-10-13T08:23:40Z</time>
      </trkpt>
      <trkpt lat="43.40692" lon="6.70168">
        <ele>55.200000762939</ele>
        <time>2018-10-13T08:23:48Z</time>
      </trkpt>
      <trkpt lat="43.40681" lon="6.70163">
        <ele>56</ele>
        <time>2018-10-13T08:23:53Z</time>
      </trkpt>
      <trkpt lat="43.40669" lon="6.7016">
        <ele>56.799999237061</ele>
        <time>2018-10-13T08:23:58Z</time>
      </trkpt>
      <trkpt lat="43.40658" lon="6.70156">
        <ele>57.799999237061</ele>
        <time>2018-10-13T08:24:03Z</time>
      </trkpt>
      <trkpt lat="43.40648" lon="6.70151">
        <ele>58.400001525879</ele>
        <time>2018-10-13T08:24:07Z</time>
      </trkpt>
      <trkpt lat="43.4063" lon="6.70143">
        <ele>59.200000762939</ele>
        <time>2018-10-13T08:24:13Z</time>
      </trkpt>
      <trkpt lat="43.40605" lon="6.70127">
        <ele>60</ele>
        <time>2018-10-13T08:24:20Z</time>
      </trkpt>
      <trkpt lat="43.406" lon="6.70125">
        <ele>60.200000762939</ele>
        <time>2018-10-13T08:24:21Z</time>
      </trkpt>
      <trkpt lat="43.40587" lon="6.70119">
        <ele>60.400001525879</ele>
        <time>2018-10-13T08:24:24Z</time>
      </trkpt>
      <trkpt lat="43.40581" lon="6.70117">
        <ele>60.599998474121</ele>
        <time>2018-10-13T08:24:25Z</time>
      </trkpt>
      <trkpt lat="43.4057" lon="6.70117">
        <ele>60.599998474121</ele>
        <time>2018-10-13T08:24:27Z</time>
      </trkpt>
      <trkpt lat="43.40564" lon="6.70116">
        <ele>60.799999237061</ele>
        <time>2018-10-13T08:24:28Z</time>
      </trkpt>
      <trkpt lat="43.40558" lon="6.70115">
        <ele>60.799999237061</ele>
        <time>2018-10-13T08:24:29Z</time>
      </trkpt>
      <trkpt lat="43.40535" lon="6.70109">
        <ele>61.200000762939</ele>
        <time>2018-10-13T08:24:33Z</time>
      </trkpt>
      <trkpt lat="43.4053" lon="6.70108">
        <ele>61.200000762939</ele>
        <time>2018-10-13T08:24:34Z</time>
      </trkpt>
      <trkpt lat="43.4052" lon="6.70106">
        <ele>61.400001525879</ele>
        <time>2018-10-13T08:24:36Z</time>
      </trkpt>
      <trkpt lat="43.40511" lon="6.70106">
        <ele>61.599998474121</ele>
        <time>2018-10-13T08:24:38Z</time>
      </trkpt>
      <trkpt lat="43.40507" lon="6.70105">
        <ele>61.599998474121</ele>
        <time>2018-10-13T08:24:39Z</time>
      </trkpt>
      <trkpt lat="43.40494" lon="6.70104">
        <ele>62</ele>
        <time>2018-10-13T08:24:43Z</time>
      </trkpt>
      <trkpt lat="43.40481" lon="6.70104">
        <ele>62.799999237061</ele>
        <time>2018-10-13T08:24:48Z</time>
      </trkpt>
      <trkpt lat="43.40473" lon="6.70107">
        <ele>63.599998474121</ele>
        <time>2018-10-13T08:24:53Z</time>
      </trkpt>
      <trkpt lat="43.40462" lon="6.70108">
        <ele>64.599998474121</ele>
        <time>2018-10-13T08:25:00Z</time>
      </trkpt>
      <trkpt lat="43.40453" lon="6.70108">
        <ele>65.400001525879</ele>
        <time>2018-10-13T08:25:06Z</time>
      </trkpt>
      <trkpt lat="43.40445" lon="6.70105">
        <ele>66.400001525879</ele>
        <time>2018-10-13T08:25:12Z</time>
      </trkpt>
      <trkpt lat="43.40438" lon="6.70099">
        <ele>67.400001525879</ele>
        <time>2018-10-13T08:25:18Z</time>
      </trkpt>
      <trkpt lat="43.4043" lon="6.70093">
        <ele>68.599998474121</ele>
        <time>2018-10-13T08:25:24Z</time>
      </trkpt>
      <trkpt lat="43.40419" lon="6.70087">
        <ele>69.400001525879</ele>
        <time>2018-10-13T08:25:31Z</time>
      </trkpt>
      <trkpt lat="43.40412" lon="6.70082">
        <ele>70.199996948242</ele>
        <time>2018-10-13T08:25:35Z</time>
      </trkpt>
      <trkpt lat="43.40401" lon="6.70077">
        <ele>71.199996948242</ele>
        <time>2018-10-13T08:25:41Z</time>
      </trkpt>
      <trkpt lat="43.4039" lon="6.70072">
        <ele>71.800003051758</ele>
        <time>2018-10-13T08:25:46Z</time>
      </trkpt>
      <trkpt lat="43.40378" lon="6.70067">
        <ele>72.599998474121</ele>
        <time>2018-10-13T08:25:51Z</time>
      </trkpt>
      <trkpt lat="43.40366" lon="6.70062">
        <ele>73.199996948242</ele>
        <time>2018-10-13T08:25:56Z</time>
      </trkpt>
      <trkpt lat="43.40353" lon="6.70056">
        <ele>73.800003051758</ele>
        <time>2018-10-13T08:26:01Z</time>
      </trkpt>
      <trkpt lat="43.40334" lon="6.70043">
        <ele>74.800003051758</ele>
        <time>2018-10-13T08:26:09Z</time>
      </trkpt>
      <trkpt lat="43.40318" lon="6.7003">
        <ele>75.199996948242</ele>
        <time>2018-10-13T08:26:15Z</time>
      </trkpt>
      <trkpt lat="43.40304" lon="6.7002">
        <ele>75.599998474121</ele>
        <time>2018-10-13T08:26:19Z</time>
      </trkpt>
      <trkpt lat="43.403" lon="6.70017">
        <ele>75.599998474121</ele>
        <time>2018-10-13T08:26:20Z</time>
      </trkpt>
      <trkpt lat="43.40286" lon="6.69999">
        <ele>75.800003051758</ele>
        <time>2018-10-13T08:26:24Z</time>
      </trkpt>
      <trkpt lat="43.40278" lon="6.69989">
        <ele>76</ele>
        <time>2018-10-13T08:26:26Z</time>
      </trkpt>
      <trkpt lat="43.40267" lon="6.69974">
        <ele>76</ele>
        <time>2018-10-13T08:26:29Z</time>
      </trkpt>
      <trkpt lat="43.40253" lon="6.6996">
        <ele>76.199996948242</ele>
        <time>2018-10-13T08:26:32Z</time>
      </trkpt>
      <trkpt lat="43.40248" lon="6.69955">
        <ele>76.199996948242</ele>
        <time>2018-10-13T08:26:33Z</time>
      </trkpt>
      <trkpt lat="43.40235" lon="6.69947">
        <ele>76</ele>
        <time>2018-10-13T08:26:35Z</time>
      </trkpt>
      <trkpt lat="43.40228" lon="6.69945">
        <ele>75.800003051758</ele>
        <time>2018-10-13T08:26:36Z</time>
      </trkpt>
      <trkpt lat="43.40219" lon="6.69947">
        <ele>75.599998474121</ele>
        <time>2018-10-13T08:26:37Z</time>
      </trkpt>
      <trkpt lat="43.40211" lon="6.69951">
        <ele>75.400001525879</ele>
        <time>2018-10-13T08:26:38Z</time>
      </trkpt>
      <trkpt lat="43.40201" lon="6.69958">
        <ele>75</ele>
        <time>2018-10-13T08:26:39Z</time>
      </trkpt>
      <trkpt lat="43.40181" lon="6.69975">
        <ele>74</ele>
        <time>2018-10-13T08:26:41Z</time>
      </trkpt>
      <trkpt lat="43.40154" lon="6.70009">
        <ele>72.800003051758</ele>
        <time>2018-10-13T08:26:44Z</time>
      </trkpt>
      <trkpt lat="43.40111" lon="6.70062">
        <ele>71.400001525879</ele>
        <time>2018-10-13T08:26:49Z</time>
      </trkpt>
      <trkpt lat="43.40096" lon="6.70086">
        <ele>71.599998474121</ele>
        <time>2018-10-13T08:26:52Z</time>
      </trkpt>
      <trkpt lat="43.40086" lon="6.70108">
        <ele>72</ele>
        <time>2018-10-13T08:26:56Z</time>
      </trkpt>
      <trkpt lat="43.4008" lon="6.70119">
        <ele>72.599998474121</ele>
        <time>2018-10-13T08:27:01Z</time>
      </trkpt>
      <trkpt lat="43.40073" lon="6.70129">
        <ele>73.199996948242</ele>
        <time>2018-10-13T08:27:08Z</time>
      </trkpt>
      <trkpt lat="43.40064" lon="6.70134">
        <ele>73.199996948242</ele>
        <time>2018-10-13T08:27:15Z</time>
      </trkpt>
      <trkpt lat="43.40052" lon="6.7013">
        <ele>73.599998474121</ele>
        <time>2018-10-13T08:27:22Z</time>
      </trkpt>
      <trkpt lat="43.40042" lon="6.70123">
        <ele>74.199996948242</ele>
        <time>2018-10-13T08:27:30Z</time>
      </trkpt>
      <trkpt lat="43.40031" lon="6.70117">
        <ele>74.800003051758</ele>
        <time>2018-10-13T08:27:38Z</time>
      </trkpt>
      <trkpt lat="43.40021" lon="6.70111">
        <ele>75.599998474121</ele>
        <time>2018-10-13T08:27:46Z</time>
      </trkpt>
      <trkpt lat="43.40009" lon="6.70109">
        <ele>76.400001525879</ele>
        <time>2018-10-13T08:27:54Z</time>
      </trkpt>
      <trkpt lat="43.4" lon="6.70109">
        <ele>77.199996948242</ele>
        <time>2018-10-13T08:28:01Z</time>
      </trkpt>
      <trkpt lat="43.3999" lon="6.70113">
        <ele>78.199996948242</ele>
        <time>2018-10-13T08:28:09Z</time>
      </trkpt>
      <trkpt lat="43.39982" lon="6.70115">
        <ele>79.199996948242</ele>
        <time>2018-10-13T08:28:15Z</time>
      </trkpt>
      <trkpt lat="43.39973" lon="6.70117">
        <ele>80</ele>
        <time>2018-10-13T08:28:21Z</time>
      </trkpt>
      <trkpt lat="43.39965" lon="6.70121">
        <ele>80.800003051758</ele>
        <time>2018-10-13T08:28:28Z</time>
      </trkpt>
      <trkpt lat="43.39957" lon="6.70126">
        <ele>81.599998474121</ele>
        <time>2018-10-13T08:28:35Z</time>
      </trkpt>
      <trkpt lat="43.39947" lon="6.70129">
        <ele>82.800003051758</ele>
        <time>2018-10-13T08:28:43Z</time>
      </trkpt>
      <trkpt lat="43.39937" lon="6.70132">
        <ele>84</ele>
        <time>2018-10-13T08:28:51Z</time>
      </trkpt>
      <trkpt lat="43.39928" lon="6.70135">
        <ele>85.400001525879</ele>
        <time>2018-10-13T08:28:59Z</time>
      </trkpt>
      <trkpt lat="43.39917" lon="6.70137">
        <ele>86.599998474121</ele>
        <time>2018-10-13T08:29:07Z</time>
      </trkpt>
      <trkpt lat="43.39905" lon="6.70141">
        <ele>88.199996948242</ele>
        <time>2018-10-13T08:29:16Z</time>
      </trkpt>
      <trkpt lat="43.39896" lon="6.70145">
        <ele>89.400001525879</ele>
        <time>2018-10-13T08:29:22Z</time>
      </trkpt>
      <trkpt lat="43.39887" lon="6.70153">
        <ele>90.599998474121</ele>
        <time>2018-10-13T08:29:29Z</time>
      </trkpt>
      <trkpt lat="43.39877" lon="6.70163">
        <ele>91.800003051758</ele>
        <time>2018-10-13T08:29:35Z</time>
      </trkpt>
      <trkpt lat="43.39864" lon="6.70179">
        <ele>92.800003051758</ele>
        <time>2018-10-13T08:29:42Z</time>
      </trkpt>
      <trkpt lat="43.39851" lon="6.70189">
        <ele>93.599998474121</ele>
        <time>2018-10-13T08:29:47Z</time>
      </trkpt>
      <trkpt lat="43.39836" lon="6.7019">
        <ele>94.199996948242</ele>
        <time>2018-10-13T08:29:51Z</time>
      </trkpt>
      <trkpt lat="43.39825" lon="6.70188">
        <ele>94.599998474121</ele>
        <time>2018-10-13T08:29:54Z</time>
      </trkpt>
      <trkpt lat="43.39821" lon="6.70187">
        <ele>94.599998474121</ele>
        <time>2018-10-13T08:29:55Z</time>
      </trkpt>
      <trkpt lat="43.398" lon="6.70185">
        <ele>95.400001525879</ele>
        <time>2018-10-13T08:30:00Z</time>
      </trkpt>
      <trkpt lat="43.39769" lon="6.70181">
        <ele>96.400001525879</ele>
        <time>2018-10-13T08:30:07Z</time>
      </trkpt>
      <trkpt lat="43.39746" lon="6.70177">
        <ele>97.199996948242</ele>
        <time>2018-10-13T08:30:12Z</time>
      </trkpt>
      <trkpt lat="43.39719" lon="6.7017">
        <ele>97.800003051758</ele>
        <time>2018-10-13T08:30:17Z</time>
      </trkpt>
      <trkpt lat="43.39688" lon="6.70158">
        <ele>98.400001525879</ele>
        <time>2018-10-13T08:30:22Z</time>
      </trkpt>
      <trkpt lat="43.39683" lon="6.70153">
        <ele>98.400001525879</ele>
        <time>2018-10-13T08:30:23Z</time>
      </trkpt>
      <trkpt lat="43.39661" lon="6.70131">
        <ele>99</ele>
        <time>2018-10-13T08:30:28Z</time>
      </trkpt>
      <trkpt lat="43.39651" lon="6.70119">
        <ele>99.599998474121</ele>
        <time>2018-10-13T08:30:32Z</time>
      </trkpt>
      <trkpt lat="43.3965" lon="6.70116">
        <ele>99.800003051758</ele>
        <time>2018-10-13T08:30:33Z</time>
      </trkpt>
      <trkpt lat="43.39642" lon="6.70104">
        <ele>100.80000305176</ele>
        <time>2018-10-13T08:30:39Z</time>
      </trkpt>
      <trkpt lat="43.39636" lon="6.70092">
        <ele>101.80000305176</ele>
        <time>2018-10-13T08:30:45Z</time>
      </trkpt>
      <trkpt lat="43.39629" lon="6.70076">
        <ele>102.80000305176</ele>
        <time>2018-10-13T08:30:52Z</time>
      </trkpt>
      <trkpt lat="43.39619" lon="6.70067">
        <ele>103.59999847412</ele>
        <time>2018-10-13T08:30:58Z</time>
      </trkpt>
      <trkpt lat="43.39617" lon="6.70066">
        <ele>103.80000305176</ele>
        <time>2018-10-13T08:30:59Z</time>
      </trkpt>
      <trkpt lat="43.39613" lon="6.70064">
        <ele>104</ele>
        <time>2018-10-13T08:31:01Z</time>
      </trkpt>
      <trkpt lat="43.39601" lon="6.70064">
        <ele>104.80000305176</ele>
        <time>2018-10-13T08:31:06Z</time>
      </trkpt>
      <trkpt lat="43.39589" lon="6.70067">
        <ele>105.59999847412</ele>
        <time>2018-10-13T08:31:11Z</time>
      </trkpt>
      <trkpt lat="43.39572" lon="6.70076">
        <ele>106.40000152588</ele>
        <time>2018-10-13T08:31:16Z</time>
      </trkpt>
      <trkpt lat="43.39555" lon="6.70085">
        <ele>107</ele>
        <time>2018-10-13T08:31:20Z</time>
      </trkpt>
      <trkpt lat="43.3955" lon="6.70087">
        <ele>107</ele>
        <time>2018-10-13T08:31:21Z</time>
      </trkpt>
      <trkpt lat="43.39533" lon="6.70098">
        <ele>107.19999694824</ele>
        <time>2018-10-13T08:31:24Z</time>
      </trkpt>
      <trkpt lat="43.39526" lon="6.70102">
        <ele>107.19999694824</ele>
        <time>2018-10-13T08:31:25Z</time>
      </trkpt>
      <trkpt lat="43.39513" lon="6.70108">
        <ele>107.40000152588</ele>
        <time>2018-10-13T08:31:27Z</time>
      </trkpt>
      <trkpt lat="43.39498" lon="6.70109">
        <ele>107.40000152588</ele>
        <time>2018-10-13T08:31:29Z</time>
      </trkpt>
      <trkpt lat="43.39468" lon="6.7011">
        <ele>107.59999847412</ele>
        <time>2018-10-13T08:31:34Z</time>
      </trkpt>
      <trkpt lat="43.39462" lon="6.70109">
        <ele>107.59999847412</ele>
        <time>2018-10-13T08:31:35Z</time>
      </trkpt>
      <trkpt lat="43.39442" lon="6.70103">
        <ele>107.40000152588</ele>
        <time>2018-10-13T08:31:38Z</time>
      </trkpt>
      <trkpt lat="43.39411" lon="6.70098">
        <ele>107.19999694824</ele>
        <time>2018-10-13T08:31:42Z</time>
      </trkpt>
      <trkpt lat="43.39403" lon="6.70095">
        <ele>107.19999694824</ele>
        <time>2018-10-13T08:31:43Z</time>
      </trkpt>
      <trkpt lat="43.39371" lon="6.7008">
        <ele>107.19999694824</ele>
        <time>2018-10-13T08:31:48Z</time>
      </trkpt>
      <trkpt lat="43.39343" lon="6.7005">
        <ele>107</ele>
        <time>2018-10-13T08:31:53Z</time>
      </trkpt>
      <trkpt lat="43.39314" lon="6.70014">
        <ele>106.59999847412</ele>
        <time>2018-10-13T08:31:58Z</time>
      </trkpt>
      <trkpt lat="43.39289" lon="6.69983">
        <ele>106.19999694824</ele>
        <time>2018-10-13T08:32:03Z</time>
      </trkpt>
      <trkpt lat="43.39275" lon="6.69964">
        <ele>106.40000152588</ele>
        <time>2018-10-13T08:32:07Z</time>
      </trkpt>
      <trkpt lat="43.39273" lon="6.6996">
        <ele>106.40000152588</ele>
        <time>2018-10-13T08:32:08Z</time>
      </trkpt>
      <trkpt lat="43.39253" lon="6.69939">
        <ele>106.40000152588</ele>
        <time>2018-10-13T08:32:15Z</time>
      </trkpt>
      <trkpt lat="43.39226" lon="6.6993">
        <ele>106.40000152588</ele>
        <time>2018-10-13T08:32:21Z</time>
      </trkpt>
      <trkpt lat="43.39216" lon="6.69921">
        <ele>106.19999694824</ele>
        <time>2018-10-13T08:32:23Z</time>
      </trkpt>
      <trkpt lat="43.39212" lon="6.69914">
        <ele>106</ele>
        <time>2018-10-13T08:32:24Z</time>
      </trkpt>
      <trkpt lat="43.39202" lon="6.69897">
        <ele>105.80000305176</ele>
        <time>2018-10-13T08:32:26Z</time>
      </trkpt>
      <trkpt lat="43.3919" lon="6.69885">
        <ele>105.59999847412</ele>
        <time>2018-10-13T08:32:28Z</time>
      </trkpt>
      <trkpt lat="43.39177" lon="6.6987">
        <ele>105.59999847412</ele>
        <time>2018-10-13T08:32:31Z</time>
      </trkpt>
      <trkpt lat="43.39173" lon="6.69868">
        <ele>105.59999847412</ele>
        <time>2018-10-13T08:32:32Z</time>
      </trkpt>
      <trkpt lat="43.39165" lon="6.69864">
        <ele>105.80000305176</ele>
        <time>2018-10-13T08:32:36Z</time>
      </trkpt>
      <trkpt lat="43.39154" lon="6.69858">
        <ele>106.40000152588</ele>
        <time>2018-10-13T08:32:44Z</time>
      </trkpt>
      <trkpt lat="43.39142" lon="6.69849">
        <ele>107</ele>
        <time>2018-10-13T08:32:52Z</time>
      </trkpt>
      <trkpt lat="43.39134" lon="6.69838">
        <ele>107.59999847412</ele>
        <time>2018-10-13T08:32:59Z</time>
      </trkpt>
      <trkpt lat="43.39133" lon="6.69832">
        <ele>107.80000305176</ele>
        <time>2018-10-13T08:33:02Z</time>
      </trkpt>
      <trkpt lat="43.39132" lon="6.69826">
        <ele>108</ele>
        <time>2018-10-13T08:33:05Z</time>
      </trkpt>
      <trkpt lat="43.3913" lon="6.69808">
        <ele>108.59999847412</ele>
        <time>2018-10-13T08:33:12Z</time>
      </trkpt>
      <trkpt lat="43.39129" lon="6.69789">
        <ele>109.19999694824</ele>
        <time>2018-10-13T08:33:20Z</time>
      </trkpt>
      <trkpt lat="43.39128" lon="6.69775">
        <ele>109.80000305176</ele>
        <time>2018-10-13T08:33:27Z</time>
      </trkpt>
      <trkpt lat="43.39129" lon="6.6976">
        <ele>110.59999847412</ele>
        <time>2018-10-13T08:33:35Z</time>
      </trkpt>
      <trkpt lat="43.39129" lon="6.69748">
        <ele>111.19999694824</ele>
        <time>2018-10-13T08:33:42Z</time>
      </trkpt>
      <trkpt lat="43.39129" lon="6.69746">
        <ele>111.40000152588</ele>
        <time>2018-10-13T08:33:43Z</time>
      </trkpt>
      <trkpt lat="43.3913" lon="6.69732">
        <ele>112.19999694824</ele>
        <time>2018-10-13T08:33:51Z</time>
      </trkpt>
      <trkpt lat="43.39128" lon="6.6972">
        <ele>113.19999694824</ele>
        <time>2018-10-13T08:33:58Z</time>
      </trkpt>
      <trkpt lat="43.39128" lon="6.69718">
        <ele>113.19999694824</ele>
        <time>2018-10-13T08:33:59Z</time>
      </trkpt>
      <trkpt lat="43.39124" lon="6.69706">
        <ele>114.19999694824</ele>
        <time>2018-10-13T08:34:06Z</time>
      </trkpt>
      <trkpt lat="43.39121" lon="6.6969">
        <ele>115.80000305176</ele>
        <time>2018-10-13T08:34:15Z</time>
      </trkpt>
      <trkpt lat="43.39116" lon="6.69675">
        <ele>117.19999694824</ele>
        <time>2018-10-13T08:34:25Z</time>
      </trkpt>
      <trkpt lat="43.39112" lon="6.69657">
        <ele>119</ele>
        <time>2018-10-13T08:34:35Z</time>
      </trkpt>
      <trkpt lat="43.39112" lon="6.69654">
        <ele>119.40000152588</ele>
        <time>2018-10-13T08:34:37Z</time>
      </trkpt>
      <trkpt lat="43.39111" lon="6.69645">
        <ele>120</ele>
        <time>2018-10-13T08:34:41Z</time>
      </trkpt>
      <trkpt lat="43.39107" lon="6.69633">
        <ele>121</ele>
        <time>2018-10-13T08:34:47Z</time>
      </trkpt>
      <trkpt lat="43.39107" lon="6.69626">
        <ele>121.59999847412</ele>
        <time>2018-10-13T08:34:51Z</time>
      </trkpt>
      <trkpt lat="43.39106" lon="6.69621">
        <ele>122</ele>
        <time>2018-10-13T08:34:54Z</time>
      </trkpt>
      <trkpt lat="43.39103" lon="6.69607">
        <ele>123.40000152588</ele>
        <time>2018-10-13T08:35:02Z</time>
      </trkpt>
      <trkpt lat="43.39103" lon="6.69604">
        <ele>123.80000305176</ele>
        <time>2018-10-13T08:35:04Z</time>
      </trkpt>
      <trkpt lat="43.391" lon="6.69597">
        <ele>124.59999847412</ele>
        <time>2018-10-13T08:35:08Z</time>
      </trkpt>
      <trkpt lat="43.39094" lon="6.69579">
        <ele>126.59999847412</ele>
        <time>2018-10-13T08:35:19Z</time>
      </trkpt>
      <trkpt lat="43.39089" lon="6.69564">
        <ele>128.80000305176</ele>
        <time>2018-10-13T08:35:29Z</time>
      </trkpt>
      <trkpt lat="43.39084" lon="6.6955">
        <ele>130.19999694824</ele>
        <time>2018-10-13T08:35:36Z</time>
      </trkpt>
      <trkpt lat="43.39077" lon="6.69542">
        <ele>131.60000610352</ele>
        <time>2018-10-13T08:35:43Z</time>
      </trkpt>
      <trkpt lat="43.3907" lon="6.69535">
        <ele>133</ele>
        <time>2018-10-13T08:35:50Z</time>
      </trkpt>
      <trkpt lat="43.3906" lon="6.69529">
        <ele>134.80000305176</ele>
        <time>2018-10-13T08:35:59Z</time>
      </trkpt>
      <trkpt lat="43.3905" lon="6.69523">
        <ele>136.60000610352</ele>
        <time>2018-10-13T08:36:08Z</time>
      </trkpt>
      <trkpt lat="43.3904" lon="6.69518">
        <ele>138</ele>
        <time>2018-10-13T08:36:16Z</time>
      </trkpt>
      <trkpt lat="43.39031" lon="6.6951">
        <ele>139.39999389648</ele>
        <time>2018-10-13T08:36:23Z</time>
      </trkpt>
      <trkpt lat="43.39023" lon="6.69501">
        <ele>141.19999694824</ele>
        <time>2018-10-13T08:36:31Z</time>
      </trkpt>
      <trkpt lat="43.39012" lon="6.69491">
        <ele>142.60000610352</ele>
        <time>2018-10-13T08:36:39Z</time>
      </trkpt>
      <trkpt lat="43.39003" lon="6.69485">
        <ele>143.80000305176</ele>
        <time>2018-10-13T08:36:46Z</time>
      </trkpt>
      <trkpt lat="43.38996" lon="6.69478">
        <ele>145.39999389648</ele>
        <time>2018-10-13T08:36:53Z</time>
      </trkpt>
      <trkpt lat="43.38985" lon="6.6947">
        <ele>147</ele>
        <time>2018-10-13T08:37:01Z</time>
      </trkpt>
      <trkpt lat="43.38976" lon="6.6946">
        <ele>149</ele>
        <time>2018-10-13T08:37:10Z</time>
      </trkpt>
      <trkpt lat="43.38967" lon="6.69447">
        <ele>151</ele>
        <time>2018-10-13T08:37:20Z</time>
      </trkpt>
      <trkpt lat="43.38962" lon="6.69435">
        <ele>152.60000610352</ele>
        <time>2018-10-13T08:37:28Z</time>
      </trkpt>
      <trkpt lat="43.38958" lon="6.69425">
        <ele>154</ele>
        <time>2018-10-13T08:37:35Z</time>
      </trkpt>
      <trkpt lat="43.38958" lon="6.69422">
        <ele>154.39999389648</ele>
        <time>2018-10-13T08:37:37Z</time>
      </trkpt>
      <trkpt lat="43.38954" lon="6.69409">
        <ele>155.80000305176</ele>
        <time>2018-10-13T08:37:45Z</time>
      </trkpt>
      <trkpt lat="43.3895" lon="6.69395">
        <ele>157.39999389648</ele>
        <time>2018-10-13T08:37:53Z</time>
      </trkpt>
      <trkpt lat="43.38944" lon="6.69379">
        <ele>159.19999694824</ele>
        <time>2018-10-13T08:38:03Z</time>
      </trkpt>
      <trkpt lat="43.38939" lon="6.69366">
        <ele>161</ele>
        <time>2018-10-13T08:38:12Z</time>
      </trkpt>
      <trkpt lat="43.38932" lon="6.69351">
        <ele>163</ele>
        <time>2018-10-13T08:38:22Z</time>
      </trkpt>
      <trkpt lat="43.38927" lon="6.6934">
        <ele>164.60000610352</ele>
        <time>2018-10-13T08:38:30Z</time>
      </trkpt>
      <trkpt lat="43.38921" lon="6.69329">
        <ele>166.39999389648</ele>
        <time>2018-10-13T08:38:39Z</time>
      </trkpt>
      <trkpt lat="43.38915" lon="6.69319">
        <ele>168.19999694824</ele>
        <time>2018-10-13T08:38:48Z</time>
      </trkpt>
      <trkpt lat="43.38907" lon="6.69312">
        <ele>169.60000610352</ele>
        <time>2018-10-13T08:38:55Z</time>
      </trkpt>
      <trkpt lat="43.38899" lon="6.69309">
        <ele>171</ele>
        <time>2018-10-13T08:39:02Z</time>
      </trkpt>
      <trkpt lat="43.38896" lon="6.69308">
        <ele>171.60000610352</ele>
        <time>2018-10-13T08:39:04Z</time>
      </trkpt>
      <trkpt lat="43.3889" lon="6.69306">
        <ele>172.60000610352</ele>
        <time>2018-10-13T08:39:09Z</time>
      </trkpt>
      <trkpt lat="43.38881" lon="6.69301">
        <ele>174.19999694824</ele>
        <time>2018-10-13T08:39:17Z</time>
      </trkpt>
      <trkpt lat="43.38874" lon="6.69295">
        <ele>175.60000610352</ele>
        <time>2018-10-13T08:39:24Z</time>
      </trkpt>
      <trkpt lat="43.38865" lon="6.69291">
        <ele>177</ele>
        <time>2018-10-13T08:39:32Z</time>
      </trkpt>
      <trkpt lat="43.38857" lon="6.69285">
        <ele>178.60000610352</ele>
        <time>2018-10-13T08:39:41Z</time>
      </trkpt>
      <trkpt lat="43.38856" lon="6.69285">
        <ele>178.80000305176</ele>
        <time>2018-10-13T08:39:42Z</time>
      </trkpt>
      <trkpt lat="43.38848" lon="6.69281">
        <ele>180.19999694824</ele>
        <time>2018-10-13T08:39:49Z</time>
      </trkpt>
      <trkpt lat="43.38843" lon="6.69278">
        <ele>181.60000610352</ele>
        <time>2018-10-13T08:39:55Z</time>
      </trkpt>
      <trkpt lat="43.38842" lon="6.69277">
        <ele>181.80000305176</ele>
        <time>2018-10-13T08:39:56Z</time>
      </trkpt>
      <trkpt lat="43.38835" lon="6.69271">
        <ele>183.19999694824</ele>
        <time>2018-10-13T08:40:03Z</time>
      </trkpt>
      <trkpt lat="43.38828" lon="6.69266">
        <ele>184.19999694824</ele>
        <time>2018-10-13T08:40:08Z</time>
      </trkpt>
      <trkpt lat="43.38827" lon="6.69265">
        <ele>184.19999694824</ele>
        <time>2018-10-13T08:40:09Z</time>
      </trkpt>
      <trkpt lat="43.38819" lon="6.69257">
        <ele>185.80000305176</ele>
        <time>2018-10-13T08:40:17Z</time>
      </trkpt>
      <trkpt lat="43.38813" lon="6.69248">
        <ele>187</ele>
        <time>2018-10-13T08:40:24Z</time>
      </trkpt>
      <trkpt lat="43.38805" lon="6.69236">
        <ele>188.80000305176</ele>
        <time>2018-10-13T08:40:33Z</time>
      </trkpt>
      <trkpt lat="43.388" lon="6.69228">
        <ele>190</ele>
        <time>2018-10-13T08:40:39Z</time>
      </trkpt>
      <trkpt lat="43.38792" lon="6.69218">
        <ele>191.39999389648</ele>
        <time>2018-10-13T08:40:47Z</time>
      </trkpt>
      <trkpt lat="43.38786" lon="6.69212">
        <ele>192.80000305176</ele>
        <time>2018-10-13T08:40:53Z</time>
      </trkpt>
      <trkpt lat="43.38777" lon="6.69205">
        <ele>194</ele>
        <time>2018-10-13T08:41:00Z</time>
      </trkpt>
      <trkpt lat="43.38771" lon="6.69199">
        <ele>194.80000305176</ele>
        <time>2018-10-13T08:41:04Z</time>
      </trkpt>
      <trkpt lat="43.38765" lon="6.69192">
        <ele>196</ele>
        <time>2018-10-13T08:41:10Z</time>
      </trkpt>
      <trkpt lat="43.38758" lon="6.69183">
        <ele>197.19999694824</ele>
        <time>2018-10-13T08:41:16Z</time>
      </trkpt>
      <trkpt lat="43.38754" lon="6.69179">
        <ele>197.60000610352</ele>
        <time>2018-10-13T08:41:19Z</time>
      </trkpt>
      <trkpt lat="43.3875" lon="6.69174">
        <ele>198</ele>
        <time>2018-10-13T08:41:22Z</time>
      </trkpt>
      <trkpt lat="43.38743" lon="6.69167">
        <ele>199</ele>
        <time>2018-10-13T08:41:28Z</time>
      </trkpt>
      <trkpt lat="43.38734" lon="6.69159">
        <ele>199.80000305176</ele>
        <time>2018-10-13T08:41:34Z</time>
      </trkpt>
      <trkpt lat="43.38721" lon="6.69149">
        <ele>200.60000610352</ele>
        <time>2018-10-13T08:41:41Z</time>
      </trkpt>
      <trkpt lat="43.38712" lon="6.69141">
        <ele>201.19999694824</ele>
        <time>2018-10-13T08:41:46Z</time>
      </trkpt>
      <trkpt lat="43.3871" lon="6.69129">
        <ele>202</ele>
        <time>2018-10-13T08:41:51Z</time>
      </trkpt>
      <trkpt lat="43.38712" lon="6.69123">
        <ele>202.80000305176</ele>
        <time>2018-10-13T08:41:54Z</time>
      </trkpt>
      <trkpt lat="43.38715" lon="6.6912">
        <ele>203.39999389648</ele>
        <time>2018-10-13T08:41:57Z</time>
      </trkpt>
      <trkpt lat="43.38719" lon="6.69117">
        <ele>204</ele>
        <time>2018-10-13T08:42:00Z</time>
      </trkpt>
      <trkpt lat="43.38723" lon="6.69115">
        <ele>204.60000610352</ele>
        <time>2018-10-13T08:42:03Z</time>
      </trkpt>
      <trkpt lat="43.3873" lon="6.69109">
        <ele>206.19999694824</ele>
        <time>2018-10-13T08:42:10Z</time>
      </trkpt>
      <trkpt lat="43.38731" lon="6.69108">
        <ele>206.39999389648</ele>
        <time>2018-10-13T08:42:11Z</time>
      </trkpt>
      <trkpt lat="43.38739" lon="6.69105">
        <ele>207.39999389648</ele>
        <time>2018-10-13T08:42:17Z</time>
      </trkpt>
      <trkpt lat="43.38748" lon="6.69106">
        <ele>208.60000610352</ele>
        <time>2018-10-13T08:42:23Z</time>
      </trkpt>
      <trkpt lat="43.38752" lon="6.69108">
        <ele>209.39999389648</ele>
        <time>2018-10-13T08:42:26Z</time>
      </trkpt>
      <trkpt lat="43.38756" lon="6.69111">
        <ele>209.80000305176</ele>
        <time>2018-10-13T08:42:29Z</time>
      </trkpt>
      <trkpt lat="43.38768" lon="6.69119">
        <ele>211.39999389648</ele>
        <time>2018-10-13T08:42:37Z</time>
      </trkpt>
      <trkpt lat="43.38779" lon="6.69121">
        <ele>212.80000305176</ele>
        <time>2018-10-13T08:42:44Z</time>
      </trkpt>
      <trkpt lat="43.3879" lon="6.69127">
        <ele>214</ele>
        <time>2018-10-13T08:42:50Z</time>
      </trkpt>
      <trkpt lat="43.38799" lon="6.69137">
        <ele>214.80000305176</ele>
        <time>2018-10-13T08:42:55Z</time>
      </trkpt>
      <trkpt lat="43.38801" lon="6.6914">
        <ele>214.80000305176</ele>
        <time>2018-10-13T08:42:56Z</time>
      </trkpt>
      <trkpt lat="43.38812" lon="6.69144">
        <ele>215.19999694824</ele>
        <time>2018-10-13T08:43:00Z</time>
      </trkpt>
      <trkpt lat="43.3882" lon="6.69137">
        <ele>215.39999389648</ele>
        <time>2018-10-13T08:43:03Z</time>
      </trkpt>
      <trkpt lat="43.38833" lon="6.69128">
        <ele>215.39999389648</ele>
        <time>2018-10-13T08:43:07Z</time>
      </trkpt>
      <trkpt lat="43.38842" lon="6.6912">
        <ele>215.39999389648</ele>
        <time>2018-10-13T08:43:09Z</time>
      </trkpt>
      <trkpt lat="43.38858" lon="6.69108">
        <ele>215.19999694824</ele>
        <time>2018-10-13T08:43:12Z</time>
      </trkpt>
      <trkpt lat="43.38868" lon="6.691">
        <ele>215.19999694824</ele>
        <time>2018-10-13T08:43:14Z</time>
      </trkpt>
      <trkpt lat="43.38884" lon="6.69092">
        <ele>215</ele>
        <time>2018-10-13T08:43:17Z</time>
      </trkpt>
      <trkpt lat="43.38907" lon="6.69071">
        <ele>214.80000305176</ele>
        <time>2018-10-13T08:43:21Z</time>
      </trkpt>
      <trkpt lat="43.38925" lon="6.69058">
        <ele>214.39999389648</ele>
        <time>2018-10-13T08:43:24Z</time>
      </trkpt>
      <trkpt lat="43.3894" lon="6.69052">
        <ele>214</ele>
        <time>2018-10-13T08:43:26Z</time>
      </trkpt>
      <trkpt lat="43.38968" lon="6.69045">
        <ele>213.19999694824</ele>
        <time>2018-10-13T08:43:30Z</time>
      </trkpt>
      <trkpt lat="43.38983" lon="6.69042">
        <ele>212.39999389648</ele>
        <time>2018-10-13T08:43:33Z</time>
      </trkpt>
      <trkpt lat="43.38987" lon="6.69041">
        <ele>212</ele>
        <time>2018-10-13T08:43:34Z</time>
      </trkpt>
      <trkpt lat="43.39004" lon="6.69036">
        <ele>211</ele>
        <time>2018-10-13T08:43:37Z</time>
      </trkpt>
      <trkpt lat="43.39017" lon="6.69032">
        <ele>210.39999389648</ele>
        <time>2018-10-13T08:43:39Z</time>
      </trkpt>
      <trkpt lat="43.39028" lon="6.69027">
        <ele>209.60000610352</ele>
        <time>2018-10-13T08:43:41Z</time>
      </trkpt>
      <trkpt lat="43.3905" lon="6.69015">
        <ele>207.19999694824</ele>
        <time>2018-10-13T08:43:46Z</time>
      </trkpt>
      <trkpt lat="43.39058" lon="6.69008">
        <ele>206.39999389648</ele>
        <time>2018-10-13T08:43:48Z</time>
      </trkpt>
      <trkpt lat="43.39067" lon="6.69">
        <ele>205.19999694824</ele>
        <time>2018-10-13T08:43:50Z</time>
      </trkpt>
      <trkpt lat="43.39071" lon="6.68999">
        <ele>204.80000305176</ele>
        <time>2018-10-13T08:43:51Z</time>
      </trkpt>
      <trkpt lat="43.39079" lon="6.68999">
        <ele>203.80000305176</ele>
        <time>2018-10-13T08:43:53Z</time>
      </trkpt>
      <trkpt lat="43.39092" lon="6.68992">
        <ele>202.39999389648</ele>
        <time>2018-10-13T08:43:56Z</time>
      </trkpt>
      <trkpt lat="43.39099" lon="6.68984">
        <ele>201.19999694824</ele>
        <time>2018-10-13T08:43:58Z</time>
      </trkpt>
      <trkpt lat="43.39102" lon="6.68978">
        <ele>200.60000610352</ele>
        <time>2018-10-13T08:43:59Z</time>
      </trkpt>
      <trkpt lat="43.39109" lon="6.68961">
        <ele>198.80000305176</ele>
        <time>2018-10-13T08:44:02Z</time>
      </trkpt>
      <trkpt lat="43.39112" lon="6.68955">
        <ele>198.39999389648</ele>
        <time>2018-10-13T08:44:03Z</time>
      </trkpt>
      <trkpt lat="43.39119" lon="6.68948">
        <ele>197.19999694824</ele>
        <time>2018-10-13T08:44:05Z</time>
      </trkpt>
      <trkpt lat="43.39123" lon="6.68946">
        <ele>196.60000610352</ele>
        <time>2018-10-13T08:44:06Z</time>
      </trkpt>
      <trkpt lat="43.39127" lon="6.68946">
        <ele>196</ele>
        <time>2018-10-13T08:44:07Z</time>
      </trkpt>
      <trkpt lat="43.39135" lon="6.6895">
        <ele>194.80000305176</ele>
        <time>2018-10-13T08:44:09Z</time>
      </trkpt>
      <trkpt lat="43.39143" lon="6.68952">
        <ele>193.60000610352</ele>
        <time>2018-10-13T08:44:11Z</time>
      </trkpt>
      <trkpt lat="43.39147" lon="6.68953">
        <ele>193.19999694824</ele>
        <time>2018-10-13T08:44:12Z</time>
      </trkpt>
      <trkpt lat="43.39155" lon="6.68951">
        <ele>192</ele>
        <time>2018-10-13T08:44:14Z</time>
      </trkpt>
      <trkpt lat="43.39158" lon="6.68947">
        <ele>191.60000610352</ele>
        <time>2018-10-13T08:44:15Z</time>
      </trkpt>
      <trkpt lat="43.39166" lon="6.68938">
        <ele>190.39999389648</ele>
        <time>2018-10-13T08:44:17Z</time>
      </trkpt>
      <trkpt lat="43.39177" lon="6.6893">
        <ele>189.19999694824</ele>
        <time>2018-10-13T08:44:19Z</time>
      </trkpt>
      <trkpt lat="43.39187" lon="6.68922">
        <ele>188</ele>
        <time>2018-10-13T08:44:21Z</time>
      </trkpt>
      <trkpt lat="43.39201" lon="6.68921">
        <ele>186.80000305176</ele>
        <time>2018-10-13T08:44:23Z</time>
      </trkpt>
      <trkpt lat="43.39224" lon="6.6892">
        <ele>185</ele>
        <time>2018-10-13T08:44:26Z</time>
      </trkpt>
      <trkpt lat="43.39248" lon="6.68919">
        <ele>183.39999389648</ele>
        <time>2018-10-13T08:44:29Z</time>
      </trkpt>
      <trkpt lat="43.39254" lon="6.6892">
        <ele>183</ele>
        <time>2018-10-13T08:44:30Z</time>
      </trkpt>
      <trkpt lat="43.39259" lon="6.68922">
        <ele>182.39999389648</ele>
        <time>2018-10-13T08:44:31Z</time>
      </trkpt>
      <trkpt lat="43.39272" lon="6.68925">
        <ele>180.60000610352</ele>
        <time>2018-10-13T08:44:34Z</time>
      </trkpt>
      <trkpt lat="43.39275" lon="6.68925">
        <ele>180</ele>
        <time>2018-10-13T08:44:35Z</time>
      </trkpt>
      <trkpt lat="43.39283" lon="6.68921">
        <ele>178.80000305176</ele>
        <time>2018-10-13T08:44:37Z</time>
      </trkpt>
      <trkpt lat="43.39291" lon="6.68916">
        <ele>177.60000610352</ele>
        <time>2018-10-13T08:44:39Z</time>
      </trkpt>
      <trkpt lat="43.393" lon="6.68909">
        <ele>176.19999694824</ele>
        <time>2018-10-13T08:44:41Z</time>
      </trkpt>
      <trkpt lat="43.39328" lon="6.68889">
        <ele>173.19999694824</ele>
        <time>2018-10-13T08:44:46Z</time>
      </trkpt>
      <trkpt lat="43.39334" lon="6.68886">
        <ele>172.39999389648</ele>
        <time>2018-10-13T08:44:47Z</time>
      </trkpt>
      <trkpt lat="43.39343" lon="6.68885">
        <ele>171.19999694824</ele>
        <time>2018-10-13T08:44:49Z</time>
      </trkpt>
      <trkpt lat="43.39361" lon="6.68893">
        <ele>169.19999694824</ele>
        <time>2018-10-13T08:44:52Z</time>
      </trkpt>
      <trkpt lat="43.39372" lon="6.68896">
        <ele>167.80000305176</ele>
        <time>2018-10-13T08:44:54Z</time>
      </trkpt>
      <trkpt lat="43.39381" lon="6.68901">
        <ele>166.60000610352</ele>
        <time>2018-10-13T08:44:56Z</time>
      </trkpt>
      <trkpt lat="43.39393" lon="6.68909">
        <ele>164.60000610352</ele>
        <time>2018-10-13T08:44:59Z</time>
      </trkpt>
      <trkpt lat="43.39397" lon="6.68911">
        <ele>164</ele>
        <time>2018-10-13T08:45:00Z</time>
      </trkpt>
      <trkpt lat="43.39402" lon="6.68913">
        <ele>163.19999694824</ele>
        <time>2018-10-13T08:45:01Z</time>
      </trkpt>
      <trkpt lat="43.39412" lon="6.68918">
        <ele>161.80000305176</ele>
        <time>2018-10-13T08:45:03Z</time>
      </trkpt>
      <trkpt lat="43.39433" lon="6.68928">
        <ele>158.39999389648</ele>
        <time>2018-10-13T08:45:08Z</time>
      </trkpt>
      <trkpt lat="43.39442" lon="6.68929">
        <ele>157.19999694824</ele>
        <time>2018-10-13T08:45:10Z</time>
      </trkpt>
      <trkpt lat="43.39448" lon="6.68926">
        <ele>156.60000610352</ele>
        <time>2018-10-13T08:45:11Z</time>
      </trkpt>
      <trkpt lat="43.39453" lon="6.68922">
        <ele>156</ele>
        <time>2018-10-13T08:45:12Z</time>
      </trkpt>
      <trkpt lat="43.39462" lon="6.68913">
        <ele>154.80000305176</ele>
        <time>2018-10-13T08:45:14Z</time>
      </trkpt>
      <trkpt lat="43.39474" lon="6.68903">
        <ele>152.80000305176</ele>
        <time>2018-10-13T08:45:17Z</time>
      </trkpt>
      <trkpt lat="43.39482" lon="6.68896">
        <ele>151.60000610352</ele>
        <time>2018-10-13T08:45:19Z</time>
      </trkpt>
      <trkpt lat="43.39503" lon="6.68881">
        <ele>148.19999694824</ele>
        <time>2018-10-13T08:45:24Z</time>
      </trkpt>
      <trkpt lat="43.39511" lon="6.68874">
        <ele>146.80000305176</ele>
        <time>2018-10-13T08:45:26Z</time>
      </trkpt>
      <trkpt lat="43.3952" lon="6.68864">
        <ele>145.39999389648</ele>
        <time>2018-10-13T08:45:28Z</time>
      </trkpt>
      <trkpt lat="43.39533" lon="6.68835">
        <ele>142.60000610352</ele>
        <time>2018-10-13T08:45:32Z</time>
      </trkpt>
      <trkpt lat="43.39536" lon="6.68825">
        <ele>141.39999389648</ele>
        <time>2018-10-13T08:45:34Z</time>
      </trkpt>
      <trkpt lat="43.39535" lon="6.68821">
        <ele>140.80000305176</ele>
        <time>2018-10-13T08:45:35Z</time>
      </trkpt>
      <trkpt lat="43.3953" lon="6.68811">
        <ele>139.60000610352</ele>
        <time>2018-10-13T08:45:37Z</time>
      </trkpt>
      <trkpt lat="43.39525" lon="6.68801">
        <ele>138.19999694824</ele>
        <time>2018-10-13T08:45:39Z</time>
      </trkpt>
      <trkpt lat="43.39515" lon="6.68782">
        <ele>136</ele>
        <time>2018-10-13T08:45:43Z</time>
      </trkpt>
      <trkpt lat="43.39508" lon="6.68774">
        <ele>135</ele>
        <time>2018-10-13T08:45:45Z</time>
      </trkpt>
      <trkpt lat="43.39487" lon="6.68753">
        <ele>132</ele>
        <time>2018-10-13T08:45:50Z</time>
      </trkpt>
      <trkpt lat="43.39483" lon="6.68749">
        <ele>131.39999389648</ele>
        <time>2018-10-13T08:45:51Z</time>
      </trkpt>
      <trkpt lat="43.39475" lon="6.68735">
        <ele>130.19999694824</ele>
        <time>2018-10-13T08:45:53Z</time>
      </trkpt>
      <trkpt lat="43.39473" lon="6.68727">
        <ele>129.60000610352</ele>
        <time>2018-10-13T08:45:54Z</time>
      </trkpt>
      <trkpt lat="43.39465" lon="6.68699">
        <ele>127.59999847412</ele>
        <time>2018-10-13T08:45:58Z</time>
      </trkpt>
      <trkpt lat="43.39464" lon="6.68689">
        <ele>126.80000305176</ele>
        <time>2018-10-13T08:46:00Z</time>
      </trkpt>
      <trkpt lat="43.39464" lon="6.68684">
        <ele>126.40000152588</ele>
        <time>2018-10-13T08:46:01Z</time>
      </trkpt>
      <trkpt lat="43.39466" lon="6.68677">
        <ele>126</ele>
        <time>2018-10-13T08:46:02Z</time>
      </trkpt>
      <trkpt lat="43.39467" lon="6.6866">
        <ele>125</ele>
        <time>2018-10-13T08:46:04Z</time>
      </trkpt>
      <trkpt lat="43.39467" lon="6.68641">
        <ele>124.19999694824</ele>
        <time>2018-10-13T08:46:06Z</time>
      </trkpt>
      <trkpt lat="43.39471" lon="6.68619">
        <ele>123.19999694824</ele>
        <time>2018-10-13T08:46:08Z</time>
      </trkpt>
      <trkpt lat="43.39481" lon="6.68553">
        <ele>120</ele>
        <time>2018-10-13T08:46:14Z</time>
      </trkpt>
      <trkpt lat="43.39479" lon="6.68533">
        <ele>118.40000152588</ele>
        <time>2018-10-13T08:46:17Z</time>
      </trkpt>
      <trkpt lat="43.3947" lon="6.68526">
        <ele>117.19999694824</ele>
        <time>2018-10-13T08:46:19Z</time>
      </trkpt>
      <trkpt lat="43.39464" lon="6.68524">
        <ele>116.59999847412</ele>
        <time>2018-10-13T08:46:20Z</time>
      </trkpt>
      <trkpt lat="43.39458" lon="6.68523">
        <ele>116</ele>
        <time>2018-10-13T08:46:21Z</time>
      </trkpt>
      <trkpt lat="43.39449" lon="6.68522">
        <ele>115</ele>
        <time>2018-10-13T08:46:23Z</time>
      </trkpt>
      <trkpt lat="43.3944" lon="6.68516">
        <ele>113.80000305176</ele>
        <time>2018-10-13T08:46:25Z</time>
      </trkpt>
      <trkpt lat="43.39435" lon="6.68511">
        <ele>113.19999694824</ele>
        <time>2018-10-13T08:46:26Z</time>
      </trkpt>
      <trkpt lat="43.3942" lon="6.68491">
        <ele>111.59999847412</ele>
        <time>2018-10-13T08:46:29Z</time>
      </trkpt>
      <trkpt lat="43.39415" lon="6.68485">
        <ele>111</ele>
        <time>2018-10-13T08:46:30Z</time>
      </trkpt>
      <trkpt lat="43.39405" lon="6.68474">
        <ele>109.80000305176</ele>
        <time>2018-10-13T08:46:32Z</time>
      </trkpt>
      <trkpt lat="43.39396" lon="6.68458">
        <ele>108.80000305176</ele>
        <time>2018-10-13T08:46:34Z</time>
      </trkpt>
      <trkpt lat="43.39385" lon="6.68432">
        <ele>107.40000152588</ele>
        <time>2018-10-13T08:46:37Z</time>
      </trkpt>
      <trkpt lat="43.3938" lon="6.68427">
        <ele>107</ele>
        <time>2018-10-13T08:46:38Z</time>
      </trkpt>
      <trkpt lat="43.39369" lon="6.68416">
        <ele>106</ele>
        <time>2018-10-13T08:46:40Z</time>
      </trkpt>
      <trkpt lat="43.39366" lon="6.68409">
        <ele>105.59999847412</ele>
        <time>2018-10-13T08:46:41Z</time>
      </trkpt>
      <trkpt lat="43.39364" lon="6.68401">
        <ele>105</ele>
        <time>2018-10-13T08:46:42Z</time>
      </trkpt>
      <trkpt lat="43.39361" lon="6.68385">
        <ele>104</ele>
        <time>2018-10-13T08:46:44Z</time>
      </trkpt>
      <trkpt lat="43.3936" lon="6.68378">
        <ele>103.40000152588</ele>
        <time>2018-10-13T08:46:45Z</time>
      </trkpt>
      <trkpt lat="43.39355" lon="6.68355">
        <ele>100.80000305176</ele>
        <time>2018-10-13T08:46:49Z</time>
      </trkpt>
      <trkpt lat="43.39352" lon="6.68349">
        <ele>100.19999694824</ele>
        <time>2018-10-13T08:46:50Z</time>
      </trkpt>
      <trkpt lat="43.39346" lon="6.68338">
        <ele>98.800003051758</ele>
        <time>2018-10-13T08:46:52Z</time>
      </trkpt>
      <trkpt lat="43.39337" lon="6.68334">
        <ele>97.800003051758</ele>
        <time>2018-10-13T08:46:54Z</time>
      </trkpt>
      <trkpt lat="43.39326" lon="6.6834">
        <ele>95.599998474121</ele>
        <time>2018-10-13T08:46:58Z</time>
      </trkpt>
      <trkpt lat="43.39317" lon="6.68339">
        <ele>94</ele>
        <time>2018-10-13T08:47:02Z</time>
      </trkpt>
      <trkpt lat="43.39311" lon="6.68337">
        <ele>93</ele>
        <time>2018-10-13T08:47:04Z</time>
      </trkpt>
      <trkpt lat="43.39309" lon="6.68333">
        <ele>92.599998474121</ele>
        <time>2018-10-13T08:47:05Z</time>
      </trkpt>
      <trkpt lat="43.39306" lon="6.68321">
        <ele>91.400001525879</ele>
        <time>2018-10-13T08:47:08Z</time>
      </trkpt>
      <trkpt lat="43.39307" lon="6.68318">
        <ele>91.199996948242</ele>
        <time>2018-10-13T08:47:09Z</time>
      </trkpt>
      <trkpt lat="43.39311" lon="6.68308">
        <ele>90.199996948242</ele>
        <time>2018-10-13T08:47:12Z</time>
      </trkpt>
      <trkpt lat="43.39319" lon="6.6829">
        <ele>88.599998474121</ele>
        <time>2018-10-13T08:47:17Z</time>
      </trkpt>
      <trkpt lat="43.39316" lon="6.68276">
        <ele>87.199996948242</ele>
        <time>2018-10-13T08:47:22Z</time>
      </trkpt>
      <trkpt lat="43.39309" lon="6.68266">
        <ele>85.800003051758</ele>
        <time>2018-10-13T08:47:29Z</time>
      </trkpt>
      <trkpt lat="43.393" lon="6.6826">
        <ele>84.800003051758</ele>
        <time>2018-10-13T08:47:36Z</time>
      </trkpt>
      <trkpt lat="43.39292" lon="6.68254">
        <ele>84</ele>
        <time>2018-10-13T08:47:42Z</time>
      </trkpt>
      <trkpt lat="43.39288" lon="6.68251">
        <ele>83.599998474121</ele>
        <time>2018-10-13T08:47:45Z</time>
      </trkpt>
      <trkpt lat="43.39284" lon="6.68246">
        <ele>83.400001525879</ele>
        <time>2018-10-13T08:47:48Z</time>
      </trkpt>
      <trkpt lat="43.39276" lon="6.68241">
        <ele>83</ele>
        <time>2018-10-13T08:47:55Z</time>
      </trkpt>
      <trkpt lat="43.39268" lon="6.68234">
        <ele>82.800003051758</ele>
        <time>2018-10-13T08:48:02Z</time>
      </trkpt>
      <trkpt lat="43.39264" lon="6.68226">
        <ele>82.599998474121</ele>
        <time>2018-10-13T08:48:07Z</time>
      </trkpt>
      <trkpt lat="43.39264" lon="6.68224">
        <ele>82.599998474121</ele>
        <time>2018-10-13T08:48:08Z</time>
      </trkpt>
      <trkpt lat="43.39264" lon="6.68222">
        <ele>82.599998474121</ele>
        <time>2018-10-13T08:48:09Z</time>
      </trkpt>
      <trkpt lat="43.39266" lon="6.68213">
        <ele>82.199996948242</ele>
        <time>2018-10-13T08:48:11Z</time>
      </trkpt>
      <trkpt lat="43.39268" lon="6.68208">
        <ele>82</ele>
        <time>2018-10-13T08:48:12Z</time>
      </trkpt>
      <trkpt lat="43.39278" lon="6.68184">
        <ele>81.599998474121</ele>
        <time>2018-10-13T08:48:16Z</time>
      </trkpt>
      <trkpt lat="43.39282" lon="6.68173">
        <ele>81.599998474121</ele>
        <time>2018-10-13T08:48:18Z</time>
      </trkpt>
      <trkpt lat="43.39285" lon="6.68163">
        <ele>81.400001525879</ele>
        <time>2018-10-13T08:48:20Z</time>
      </trkpt>
      <trkpt lat="43.39295" lon="6.68143">
        <ele>81.199996948242</ele>
        <time>2018-10-13T08:48:26Z</time>
      </trkpt>
      <trkpt lat="43.39313" lon="6.68118">
        <ele>81</ele>
        <time>2018-10-13T08:48:34Z</time>
      </trkpt>
      <trkpt lat="43.39322" lon="6.68102">
        <ele>81.199996948242</ele>
        <time>2018-10-13T08:48:41Z</time>
      </trkpt>
      <trkpt lat="43.39328" lon="6.68091">
        <ele>81.400001525879</ele>
        <time>2018-10-13T08:48:47Z</time>
      </trkpt>
      <trkpt lat="43.39327" lon="6.68079">
        <ele>81.599998474121</ele>
        <time>2018-10-13T08:48:52Z</time>
      </trkpt>
      <trkpt lat="43.39326" lon="6.68077">
        <ele>81.599998474121</ele>
        <time>2018-10-13T08:48:53Z</time>
      </trkpt>
      <trkpt lat="43.39326" lon="6.68073">
        <ele>81.800003051758</ele>
        <time>2018-10-13T08:48:55Z</time>
      </trkpt>
      <trkpt lat="43.39327" lon="6.68067">
        <ele>81.800003051758</ele>
        <time>2018-10-13T08:48:58Z</time>
      </trkpt>
      <trkpt lat="43.39326" lon="6.68056">
        <ele>82.199996948242</ele>
        <time>2018-10-13T08:49:04Z</time>
      </trkpt>
      <trkpt lat="43.39325" lon="6.6804">
        <ele>82.599998474121</ele>
        <time>2018-10-13T08:49:11Z</time>
      </trkpt>
      <trkpt lat="43.39325" lon="6.68035">
        <ele>82.599998474121</ele>
        <time>2018-10-13T08:49:15Z</time>
      </trkpt>
      <trkpt lat="43.39325" lon="6.68031">
        <ele>82.599998474121</ele>
        <time>2018-10-13T08:49:17Z</time>
      </trkpt>
      <trkpt lat="43.39333" lon="6.68016">
        <ele>82.199996948242</ele>
        <time>2018-10-13T08:49:23Z</time>
      </trkpt>
      <trkpt lat="43.39335" lon="6.67999">
        <ele>82</ele>
        <time>2018-10-13T08:49:27Z</time>
      </trkpt>
      <trkpt lat="43.39333" lon="6.67983">
        <ele>81.599998474121</ele>
        <time>2018-10-13T08:49:31Z</time>
      </trkpt>
      <trkpt lat="43.39332" lon="6.67971">
        <ele>81.199996948242</ele>
        <time>2018-10-13T08:49:35Z</time>
      </trkpt>
      <trkpt lat="43.3933" lon="6.67967">
        <ele>81</ele>
        <time>2018-10-13T08:49:36Z</time>
      </trkpt>
      <trkpt lat="43.39321" lon="6.67952">
        <ele>80.599998474121</ele>
        <time>2018-10-13T08:49:41Z</time>
      </trkpt>
      <trkpt lat="43.39318" lon="6.67938">
        <ele>80</ele>
        <time>2018-10-13T08:49:45Z</time>
      </trkpt>
      <trkpt lat="43.39316" lon="6.67925">
        <ele>79.400001525879</ele>
        <time>2018-10-13T08:49:48Z</time>
      </trkpt>
      <trkpt lat="43.39313" lon="6.67911">
        <ele>78.800003051758</ele>
        <time>2018-10-13T08:49:52Z</time>
      </trkpt>
      <trkpt lat="43.39311" lon="6.67905">
        <ele>78.400001525879</ele>
        <time>2018-10-13T08:49:54Z</time>
      </trkpt>
      <trkpt lat="43.39308" lon="6.67896">
        <ele>77.800003051758</ele>
        <time>2018-10-13T08:49:57Z</time>
      </trkpt>
      <trkpt lat="43.39305" lon="6.67889">
        <ele>77.199996948242</ele>
        <time>2018-10-13T08:50:00Z</time>
      </trkpt>
      <trkpt lat="43.39302" lon="6.67885">
        <ele>76.599998474121</ele>
        <time>2018-10-13T08:50:02Z</time>
      </trkpt>
      <trkpt lat="43.39297" lon="6.6788">
        <ele>76.199996948242</ele>
        <time>2018-10-13T08:50:05Z</time>
      </trkpt>
      <trkpt lat="43.39297" lon="6.67879">
        <ele>76</ele>
        <time>2018-10-13T08:50:06Z</time>
      </trkpt>
      <trkpt lat="43.39296" lon="6.67878">
        <ele>75.599998474121</ele>
        <time>2018-10-13T08:50:08Z</time>
      </trkpt>
      <trkpt lat="43.39299" lon="6.67876">
        <ele>74.800003051758</ele>
        <time>2018-10-13T08:50:12Z</time>
      </trkpt>
      <trkpt lat="43.393" lon="6.67873">
        <ele>74.599998474121</ele>
        <time>2018-10-13T08:50:13Z</time>
      </trkpt>
      <trkpt lat="43.39303" lon="6.67867">
        <ele>73.800003051758</ele>
        <time>2018-10-13T08:50:16Z</time>
      </trkpt>
      <trkpt lat="43.39303" lon="6.67865">
        <ele>73.599998474121</ele>
        <time>2018-10-13T08:50:17Z</time>
      </trkpt>
      <trkpt lat="43.39305" lon="6.67863">
        <ele>73.400001525879</ele>
        <time>2018-10-13T08:50:18Z</time>
      </trkpt>
      <trkpt lat="43.39309" lon="6.67856">
        <ele>72.599998474121</ele>
        <time>2018-10-13T08:50:21Z</time>
      </trkpt>
      <trkpt lat="43.39313" lon="6.67852">
        <ele>71.199996948242</ele>
        <time>2018-10-13T08:50:25Z</time>
      </trkpt>
      <trkpt lat="43.39315" lon="6.67851">
        <ele>71</ele>
        <time>2018-10-13T08:50:26Z</time>
      </trkpt>
      <trkpt lat="43.39316" lon="6.67851">
        <ele>70.800003051758</ele>
        <time>2018-10-13T08:50:27Z</time>
      </trkpt>
      <trkpt lat="43.39319" lon="6.67849">
        <ele>70.199996948242</ele>
        <time>2018-10-13T08:50:30Z</time>
      </trkpt>
      <trkpt lat="43.3932" lon="6.67847">
        <ele>70</ele>
        <time>2018-10-13T08:50:31Z</time>
      </trkpt>
      <trkpt lat="43.3932" lon="6.67843">
        <ele>69.400001525879</ele>
        <time>2018-10-13T08:50:33Z</time>
      </trkpt>
      <trkpt lat="43.39319" lon="6.67839">
        <ele>68.599998474121</ele>
        <time>2018-10-13T08:50:36Z</time>
      </trkpt>
      <trkpt lat="43.39318" lon="6.67831">
        <ele>67.400001525879</ele>
        <time>2018-10-13T08:50:41Z</time>
      </trkpt>
      <trkpt lat="43.39317" lon="6.67827">
        <ele>66.800003051758</ele>
        <time>2018-10-13T08:50:43Z</time>
      </trkpt>
      <trkpt lat="43.39318" lon="6.67823">
        <ele>66.199996948242</ele>
        <time>2018-10-13T08:50:45Z</time>
      </trkpt>
      <trkpt lat="43.39318" lon="6.67822">
        <ele>66</ele>
        <time>2018-10-13T08:50:46Z</time>
      </trkpt>
      <trkpt lat="43.39317" lon="6.6782">
        <ele>65.599998474121</ele>
        <time>2018-10-13T08:50:47Z</time>
      </trkpt>
      <trkpt lat="43.39316" lon="6.67817">
        <ele>64.800003051758</ele>
        <time>2018-10-13T08:50:50Z</time>
      </trkpt>
      <trkpt lat="43.39312" lon="6.67808">
        <ele>63.799999237061</ele>
        <time>2018-10-13T08:50:54Z</time>
      </trkpt>
      <trkpt lat="43.39311" lon="6.67806">
        <ele>63.599998474121</ele>
        <time>2018-10-13T08:50:55Z</time>
      </trkpt>
      <trkpt lat="43.39311" lon="6.67802">
        <ele>63.200000762939</ele>
        <time>2018-10-13T08:50:57Z</time>
      </trkpt>
      <trkpt lat="43.39311" lon="6.67794">
        <ele>62</ele>
        <time>2018-10-13T08:51:02Z</time>
      </trkpt>
      <trkpt lat="43.39311" lon="6.67792">
        <ele>61.599998474121</ele>
        <time>2018-10-13T08:51:03Z</time>
      </trkpt>
      <trkpt lat="43.39314" lon="6.67788">
        <ele>60.599998474121</ele>
        <time>2018-10-13T08:51:06Z</time>
      </trkpt>
      <trkpt lat="43.39314" lon="6.67787">
        <ele>60.400001525879</ele>
        <time>2018-10-13T08:51:07Z</time>
      </trkpt>
      <trkpt lat="43.39318" lon="6.67784">
        <ele>59.400001525879</ele>
        <time>2018-10-13T08:51:10Z</time>
      </trkpt>
      <trkpt lat="43.39318" lon="6.67783">
        <ele>59</ele>
        <time>2018-10-13T08:51:12Z</time>
      </trkpt>
      <trkpt lat="43.39329" lon="6.67771">
        <ele>55.599998474121</ele>
        <time>2018-10-13T08:51:28Z</time>
      </trkpt>
      <trkpt lat="43.39329" lon="6.67768">
        <ele>55.400001525879</ele>
        <time>2018-10-13T08:51:29Z</time>
      </trkpt>
      <trkpt lat="43.39329" lon="6.67767">
        <ele>55.400001525879</ele>
        <time>2018-10-13T08:51:30Z</time>
      </trkpt>
      <trkpt lat="43.3933" lon="6.67764">
        <ele>55</ele>
        <time>2018-10-13T08:51:32Z</time>
      </trkpt>
      <trkpt lat="43.3933" lon="6.67762">
        <ele>54.799999237061</ele>
        <time>2018-10-13T08:51:33Z</time>
      </trkpt>
      <trkpt lat="43.39334" lon="6.6775">
        <ele>54</ele>
        <time>2018-10-13T08:51:38Z</time>
      </trkpt>
      <trkpt lat="43.39334" lon="6.67744">
        <ele>53.599998474121</ele>
        <time>2018-10-13T08:51:41Z</time>
      </trkpt>
      <trkpt lat="43.39333" lon="6.67741">
        <ele>53.400001525879</ele>
        <time>2018-10-13T08:51:43Z</time>
      </trkpt>
      <trkpt lat="43.39331" lon="6.67736">
        <ele>53</ele>
        <time>2018-10-13T08:51:46Z</time>
      </trkpt>
      <trkpt lat="43.3933" lon="6.67733">
        <ele>52.400001525879</ele>
        <time>2018-10-13T08:51:48Z</time>
      </trkpt>
      <trkpt lat="43.39325" lon="6.67725">
        <ele>51.200000762939</ele>
        <time>2018-10-13T08:51:54Z</time>
      </trkpt>
      <trkpt lat="43.39318" lon="6.67718">
        <ele>49.400001525879</ele>
        <time>2018-10-13T08:51:59Z</time>
      </trkpt>
      <trkpt lat="43.39313" lon="6.67716">
        <ele>48.799999237061</ele>
        <time>2018-10-13T08:52:01Z</time>
      </trkpt>
      <trkpt lat="43.3931" lon="6.67716">
        <ele>48</ele>
        <time>2018-10-13T08:52:03Z</time>
      </trkpt>
      <trkpt lat="43.39304" lon="6.67715">
        <ele>47.200000762939</ele>
        <time>2018-10-13T08:52:06Z</time>
      </trkpt>
      <trkpt lat="43.39302" lon="6.67714">
        <ele>46.799999237061</ele>
        <time>2018-10-13T08:52:07Z</time>
      </trkpt>
      <trkpt lat="43.39296" lon="6.67706">
        <ele>45</ele>
        <time>2018-10-13T08:52:12Z</time>
      </trkpt>
      <trkpt lat="43.39286" lon="6.67697">
        <ele>43.599998474121</ele>
        <time>2018-10-13T08:52:16Z</time>
      </trkpt>
      <trkpt lat="43.39283" lon="6.67692">
        <ele>42.400001525879</ele>
        <time>2018-10-13T08:52:19Z</time>
      </trkpt>
      <trkpt lat="43.39281" lon="6.6769">
        <ele>41.799999237061</ele>
        <time>2018-10-13T08:52:21Z</time>
      </trkpt>
      <trkpt lat="43.39279" lon="6.67689">
        <ele>41</ele>
        <time>2018-10-13T08:52:23Z</time>
      </trkpt>
      <trkpt lat="43.39276" lon="6.67686">
        <ele>40.200000762939</ele>
        <time>2018-10-13T08:52:25Z</time>
      </trkpt>
      <trkpt lat="43.39274" lon="6.67684">
        <ele>39.799999237061</ele>
        <time>2018-10-13T08:52:26Z</time>
      </trkpt>
      <trkpt lat="43.39271" lon="6.67675">
        <ele>38.599998474121</ele>
        <time>2018-10-13T08:52:29Z</time>
      </trkpt>
      <trkpt lat="43.39268" lon="6.67663">
        <ele>37.400001525879</ele>
        <time>2018-10-13T08:52:32Z</time>
      </trkpt>
      <trkpt lat="43.39265" lon="6.67663">
        <ele>37</ele>
        <time>2018-10-13T08:52:33Z</time>
      </trkpt>
      <trkpt lat="43.39254" lon="6.67663">
        <ele>35.599998474121</ele>
        <time>2018-10-13T08:52:38Z</time>
      </trkpt>
      <trkpt lat="43.39241" lon="6.67669">
        <ele>34.599998474121</ele>
        <time>2018-10-13T08:52:43Z</time>
      </trkpt>
      <trkpt lat="43.39239" lon="6.67669">
        <ele>34.400001525879</ele>
        <time>2018-10-13T08:52:44Z</time>
      </trkpt>
      <trkpt lat="43.39235" lon="6.67669">
        <ele>34</ele>
        <time>2018-10-13T08:52:45Z</time>
      </trkpt>
      <trkpt lat="43.39231" lon="6.67671">
        <ele>33.799999237061</ele>
        <time>2018-10-13T08:52:46Z</time>
      </trkpt>
      <trkpt lat="43.39227" lon="6.6767">
        <ele>33.599998474121</ele>
        <time>2018-10-13T08:52:47Z</time>
      </trkpt>
      <trkpt lat="43.39222" lon="6.67666">
        <ele>33</ele>
        <time>2018-10-13T08:52:49Z</time>
      </trkpt>
      <trkpt lat="43.3922" lon="6.67662">
        <ele>32.799999237061</ele>
        <time>2018-10-13T08:52:50Z</time>
      </trkpt>
      <trkpt lat="43.3922" lon="6.67656">
        <ele>32.400001525879</ele>
        <time>2018-10-13T08:52:52Z</time>
      </trkpt>
      <trkpt lat="43.39224" lon="6.67651">
        <ele>31.799999237061</ele>
        <time>2018-10-13T08:52:54Z</time>
      </trkpt>
      <trkpt lat="43.39225" lon="6.67647">
        <ele>31.60000038147</ele>
        <time>2018-10-13T08:52:55Z</time>
      </trkpt>
      <trkpt lat="43.39219" lon="6.67643">
        <ele>30.799999237061</ele>
        <time>2018-10-13T08:52:58Z</time>
      </trkpt>
      <trkpt lat="43.39217" lon="6.67642">
        <ele>30.39999961853</ele>
        <time>2018-10-13T08:52:59Z</time>
      </trkpt>
      <trkpt lat="43.39217" lon="6.67639">
        <ele>29.60000038147</ele>
        <time>2018-10-13T08:53:01Z</time>
      </trkpt>
      <trkpt lat="43.39217" lon="6.67637">
        <ele>29.200000762939</ele>
        <time>2018-10-13T08:53:02Z</time>
      </trkpt>
      <trkpt lat="43.39217" lon="6.67634">
        <ele>28.39999961853</ele>
        <time>2018-10-13T08:53:04Z</time>
      </trkpt>
      <trkpt lat="43.39217" lon="6.67634">
        <ele>28</ele>
        <time>2018-10-13T08:53:05Z</time>
      </trkpt>
      <trkpt lat="43.39219" lon="6.67626">
        <ele>25.60000038147</ele>
        <time>2018-10-13T08:53:16Z</time>
      </trkpt>
      <trkpt lat="43.39222" lon="6.67626">
        <ele>25.39999961853</ele>
        <time>2018-10-13T08:53:18Z</time>
      </trkpt>
      <trkpt lat="43.39232" lon="6.67626">
        <ele>25.200000762939</ele>
        <time>2018-10-13T08:53:23Z</time>
      </trkpt>
      <trkpt lat="43.39244" lon="6.67623">
        <ele>25.200000762939</ele>
        <time>2018-10-13T08:53:28Z</time>
      </trkpt>
      <trkpt lat="43.39255" lon="6.67627">
        <ele>25</ele>
        <time>2018-10-13T08:53:32Z</time>
      </trkpt>
      <trkpt lat="43.39265" lon="6.67626">
        <ele>24.799999237061</ele>
        <time>2018-10-13T08:53:36Z</time>
      </trkpt>
      <trkpt lat="43.39267" lon="6.67624">
        <ele>24.799999237061</ele>
        <time>2018-10-13T08:53:37Z</time>
      </trkpt>
      <trkpt lat="43.3928" lon="6.67617">
        <ele>24.60000038147</ele>
        <time>2018-10-13T08:53:42Z</time>
      </trkpt>
      <trkpt lat="43.39293" lon="6.67617">
        <ele>24.39999961853</ele>
        <time>2018-10-13T08:53:46Z</time>
      </trkpt>
      <trkpt lat="43.39313" lon="6.67618">
        <ele>23.799999237061</ele>
        <time>2018-10-13T08:53:52Z</time>
      </trkpt>
      <trkpt lat="43.39328" lon="6.67614">
        <ele>23.200000762939</ele>
        <time>2018-10-13T08:53:56Z</time>
      </trkpt>
      <trkpt lat="43.39338" lon="6.67614">
        <ele>22.799999237061</ele>
        <time>2018-10-13T08:53:59Z</time>
      </trkpt>
      <trkpt lat="43.39342" lon="6.67613">
        <ele>22.60000038147</ele>
        <time>2018-10-13T08:54:00Z</time>
      </trkpt>
      <trkpt lat="43.3935" lon="6.67606">
        <ele>22.39999961853</ele>
        <time>2018-10-13T08:54:02Z</time>
      </trkpt>
      <trkpt lat="43.39355" lon="6.67603">
        <ele>22.39999961853</ele>
        <time>2018-10-13T08:54:03Z</time>
      </trkpt>
      <trkpt lat="43.39368" lon="6.67596">
        <ele>22</ele>
        <time>2018-10-13T08:54:06Z</time>
      </trkpt>
      <trkpt lat="43.39383" lon="6.67589">
        <ele>21.39999961853</ele>
        <time>2018-10-13T08:54:10Z</time>
      </trkpt>
      <trkpt lat="43.39392" lon="6.67583">
        <ele>21.200000762939</ele>
        <time>2018-10-13T08:54:14Z</time>
      </trkpt>
      <trkpt lat="43.39399" lon="6.67574">
        <ele>20.799999237061</ele>
        <time>2018-10-13T08:54:18Z</time>
      </trkpt>
      <trkpt lat="43.39402" lon="6.67574">
        <ele>20.799999237061</ele>
        <time>2018-10-13T08:54:19Z</time>
      </trkpt>
      <trkpt lat="43.39415" lon="6.67576">
        <ele>20.60000038147</ele>
        <time>2018-10-13T08:54:23Z</time>
      </trkpt>
      <trkpt lat="43.39428" lon="6.67584">
        <ele>20.200000762939</ele>
        <time>2018-10-13T08:54:27Z</time>
      </trkpt>
      <trkpt lat="43.3943" lon="6.67584">
        <ele>20</ele>
        <time>2018-10-13T08:54:28Z</time>
      </trkpt>
      <trkpt lat="43.39438" lon="6.67582">
        <ele>19.60000038147</ele>
        <time>2018-10-13T08:54:31Z</time>
      </trkpt>
      <trkpt lat="43.39442" lon="6.67583">
        <ele>19.60000038147</ele>
        <time>2018-10-13T08:54:32Z</time>
      </trkpt>
      <trkpt lat="43.3945" lon="6.67584">
        <ele>19.39999961853</ele>
        <time>2018-10-13T08:54:34Z</time>
      </trkpt>
      <trkpt lat="43.39462" lon="6.67577">
        <ele>19</ele>
        <time>2018-10-13T08:54:37Z</time>
      </trkpt>
      <trkpt lat="43.39471" lon="6.6757">
        <ele>19</ele>
        <time>2018-10-13T08:54:39Z</time>
      </trkpt>
      <trkpt lat="43.39474" lon="6.67566">
        <ele>18.799999237061</ele>
        <time>2018-10-13T08:54:40Z</time>
      </trkpt>
      <trkpt lat="43.39481" lon="6.67558">
        <ele>18.799999237061</ele>
        <time>2018-10-13T08:54:42Z</time>
      </trkpt>
      <trkpt lat="43.3949" lon="6.67554">
        <ele>18.60000038147</ele>
        <time>2018-10-13T08:54:44Z</time>
      </trkpt>
      <trkpt lat="43.39501" lon="6.67553">
        <ele>18.200000762939</ele>
        <time>2018-10-13T08:54:46Z</time>
      </trkpt>
      <trkpt lat="43.39505" lon="6.67554">
        <ele>18</ele>
        <time>2018-10-13T08:54:47Z</time>
      </trkpt>
      <trkpt lat="43.39508" lon="6.67554">
        <ele>18</ele>
        <time>2018-10-13T08:54:48Z</time>
      </trkpt>
      <trkpt lat="43.3951" lon="6.67555">
        <ele>18</ele>
        <time>2018-10-13T08:54:50Z</time>
      </trkpt>
      <trkpt lat="43.3951" lon="6.67555">
        <ele>17.799999237061</ele>
        <time>2018-10-13T08:54:51Z</time>
      </trkpt>
      <trkpt lat="43.39516" lon="6.67551">
        <ele>17.39999961853</ele>
        <time>2018-10-13T08:54:57Z</time>
      </trkpt>
      <trkpt lat="43.39517" lon="6.67548">
        <ele>17.200000762939</ele>
        <time>2018-10-13T08:54:58Z</time>
      </trkpt>
      <trkpt lat="43.39527" lon="6.67531">
        <ele>16.60000038147</ele>
        <time>2018-10-13T08:55:03Z</time>
      </trkpt>
      <trkpt lat="43.39534" lon="6.67524">
        <ele>16.60000038147</ele>
        <time>2018-10-13T08:55:05Z</time>
      </trkpt>
      <trkpt lat="43.39544" lon="6.67516">
        <ele>16.39999961853</ele>
        <time>2018-10-13T08:55:08Z</time>
      </trkpt>
      <trkpt lat="43.39557" lon="6.67508">
        <ele>15.60000038147</ele>
        <time>2018-10-13T08:55:12Z</time>
      </trkpt>
      <trkpt lat="43.39561" lon="6.67505">
        <ele>15.39999961853</ele>
        <time>2018-10-13T08:55:13Z</time>
      </trkpt>
      <trkpt lat="43.39572" lon="6.67501">
        <ele>15.199999809265</ele>
        <time>2018-10-13T08:55:15Z</time>
      </trkpt>
      <trkpt lat="43.39591" lon="6.67497">
        <ele>14.800000190735</ele>
        <time>2018-10-13T08:55:19Z</time>
      </trkpt>
      <trkpt lat="43.396" lon="6.67493">
        <ele>14.60000038147</ele>
        <time>2018-10-13T08:55:21Z</time>
      </trkpt>
      <trkpt lat="43.39617" lon="6.67489">
        <ele>14.39999961853</ele>
        <time>2018-10-13T08:55:25Z</time>
      </trkpt>
      <trkpt lat="43.39625" lon="6.67486">
        <ele>14.199999809265</ele>
        <time>2018-10-13T08:55:27Z</time>
      </trkpt>
      <trkpt lat="43.39631" lon="6.67484">
        <ele>14.199999809265</ele>
        <time>2018-10-13T08:55:28Z</time>
      </trkpt>
      <trkpt lat="43.39652" lon="6.6748">
        <ele>14</ele>
        <time>2018-10-13T08:55:32Z</time>
      </trkpt>
      <trkpt lat="43.39655" lon="6.6748">
        <ele>14</ele>
        <time>2018-10-13T08:55:33Z</time>
      </trkpt>
      <trkpt lat="43.39674" lon="6.67471">
        <ele>14</ele>
        <time>2018-10-13T08:55:38Z</time>
      </trkpt>
      <trkpt lat="43.39684" lon="6.67448">
        <ele>14.39999961853</ele>
        <time>2018-10-13T08:55:44Z</time>
      </trkpt>
      <trkpt lat="43.39695" lon="6.67434">
        <ele>14.60000038147</ele>
        <time>2018-10-13T08:55:48Z</time>
      </trkpt>
      <trkpt lat="43.39699" lon="6.67432">
        <ele>14.60000038147</ele>
        <time>2018-10-13T08:55:49Z</time>
      </trkpt>
      <trkpt lat="43.39705" lon="6.67432">
        <ele>14.60000038147</ele>
        <time>2018-10-13T08:55:50Z</time>
      </trkpt>
      <trkpt lat="43.39716" lon="6.67431">
        <ele>14.60000038147</ele>
        <time>2018-10-13T08:55:52Z</time>
      </trkpt>
      <trkpt lat="43.39721" lon="6.67429">
        <ele>14.60000038147</ele>
        <time>2018-10-13T08:55:53Z</time>
      </trkpt>
      <trkpt lat="43.39726" lon="6.67425">
        <ele>14.60000038147</ele>
        <time>2018-10-13T08:55:54Z</time>
      </trkpt>
      <trkpt lat="43.39734" lon="6.67415">
        <ele>14.60000038147</ele>
        <time>2018-10-13T08:55:56Z</time>
      </trkpt>
      <trkpt lat="43.39741" lon="6.67401">
        <ele>14.60000038147</ele>
        <time>2018-10-13T08:55:58Z</time>
      </trkpt>
      <trkpt lat="43.39743" lon="6.67393">
        <ele>14.39999961853</ele>
        <time>2018-10-13T08:55:59Z</time>
      </trkpt>
      <trkpt lat="43.39749" lon="6.67369">
        <ele>14.60000038147</ele>
        <time>2018-10-13T08:56:02Z</time>
      </trkpt>
      <trkpt lat="43.39749" lon="6.67352">
        <ele>14.60000038147</ele>
        <time>2018-10-13T08:56:04Z</time>
      </trkpt>
      <trkpt lat="43.39747" lon="6.67319">
        <ele>14.60000038147</ele>
        <time>2018-10-13T08:56:08Z</time>
      </trkpt>
      <trkpt lat="43.39746" lon="6.67311">
        <ele>14.60000038147</ele>
        <time>2018-10-13T08:56:09Z</time>
      </trkpt>
      <trkpt lat="43.39743" lon="6.67296">
        <ele>14.800000190735</ele>
        <time>2018-10-13T08:56:11Z</time>
      </trkpt>
      <trkpt lat="43.3974" lon="6.67282">
        <ele>14.800000190735</ele>
        <time>2018-10-13T08:56:13Z</time>
      </trkpt>
      <trkpt lat="43.39737" lon="6.67277">
        <ele>14.800000190735</ele>
        <time>2018-10-13T08:56:14Z</time>
      </trkpt>
      <trkpt lat="43.39732" lon="6.67266">
        <ele>14.800000190735</ele>
        <time>2018-10-13T08:56:16Z</time>
      </trkpt>
      <trkpt lat="43.39726" lon="6.67256">
        <ele>14.800000190735</ele>
        <time>2018-10-13T08:56:18Z</time>
      </trkpt>
      <trkpt lat="43.39722" lon="6.67252">
        <ele>14.800000190735</ele>
        <time>2018-10-13T08:56:19Z</time>
      </trkpt>
      <trkpt lat="43.39717" lon="6.67248">
        <ele>14.800000190735</ele>
        <time>2018-10-13T08:56:20Z</time>
      </trkpt>
      <trkpt lat="43.3971" lon="6.67243">
        <ele>14.39999961853</ele>
        <time>2018-10-13T08:56:22Z</time>
      </trkpt>
      <trkpt lat="43.39698" lon="6.67231">
        <ele>14</ele>
        <time>2018-10-13T08:56:26Z</time>
      </trkpt>
      <trkpt lat="43.3969" lon="6.67222">
        <ele>13.800000190735</ele>
        <time>2018-10-13T08:56:29Z</time>
      </trkpt>
      <trkpt lat="43.39678" lon="6.67209">
        <ele>13.60000038147</ele>
        <time>2018-10-13T08:56:32Z</time>
      </trkpt>
      <trkpt lat="43.39664" lon="6.67201">
        <ele>13.39999961853</ele>
        <time>2018-10-13T08:56:34Z</time>
      </trkpt>
      <trkpt lat="43.39657" lon="6.672">
        <ele>13.39999961853</ele>
        <time>2018-10-13T08:56:35Z</time>
      </trkpt>
      <trkpt lat="43.3965" lon="6.672">
        <ele>13.39999961853</ele>
        <time>2018-10-13T08:56:36Z</time>
      </trkpt>
      <trkpt lat="43.39637" lon="6.67201">
        <ele>13.199999809265</ele>
        <time>2018-10-13T08:56:38Z</time>
      </trkpt>
      <trkpt lat="43.39631" lon="6.67203">
        <ele>13.199999809265</ele>
        <time>2018-10-13T08:56:39Z</time>
      </trkpt>
      <trkpt lat="43.3962" lon="6.67208">
        <ele>13</ele>
        <time>2018-10-13T08:56:41Z</time>
      </trkpt>
      <trkpt lat="43.39604" lon="6.67214">
        <ele>12.60000038147</ele>
        <time>2018-10-13T08:56:44Z</time>
      </trkpt>
      <trkpt lat="43.39585" lon="6.67225">
        <ele>12.39999961853</ele>
        <time>2018-10-13T08:56:48Z</time>
      </trkpt>
      <trkpt lat="43.3958" lon="6.67226">
        <ele>12.199999809265</ele>
        <time>2018-10-13T08:56:49Z</time>
      </trkpt>
      <trkpt lat="43.39574" lon="6.67226">
        <ele>12.199999809265</ele>
        <time>2018-10-13T08:56:50Z</time>
      </trkpt>
      <trkpt lat="43.39566" lon="6.6722">
        <ele>12</ele>
        <time>2018-10-13T08:56:52Z</time>
      </trkpt>
      <trkpt lat="43.39556" lon="6.67207">
        <ele>12</ele>
        <time>2018-10-13T08:56:55Z</time>
      </trkpt>
      <trkpt lat="43.39551" lon="6.67197">
        <ele>11.800000190735</ele>
        <time>2018-10-13T08:56:57Z</time>
      </trkpt>
      <trkpt lat="43.39547" lon="6.67186">
        <ele>11.800000190735</ele>
        <time>2018-10-13T08:56:59Z</time>
      </trkpt>
      <trkpt lat="43.39539" lon="6.67169">
        <ele>11.60000038147</ele>
        <time>2018-10-13T08:57:02Z</time>
      </trkpt>
      <trkpt lat="43.39536" lon="6.67164">
        <ele>11.60000038147</ele>
        <time>2018-10-13T08:57:03Z</time>
      </trkpt>
      <trkpt lat="43.39522" lon="6.67148">
        <ele>11.800000190735</ele>
        <time>2018-10-13T08:57:07Z</time>
      </trkpt>
      <trkpt lat="43.39504" lon="6.67141">
        <ele>12.199999809265</ele>
        <time>2018-10-13T08:57:11Z</time>
      </trkpt>
      <trkpt lat="43.39496" lon="6.6713">
        <ele>12.199999809265</ele>
        <time>2018-10-13T08:57:14Z</time>
      </trkpt>
      <trkpt lat="43.3949" lon="6.67113">
        <ele>12</ele>
        <time>2018-10-13T08:57:18Z</time>
      </trkpt>
      <trkpt lat="43.39483" lon="6.67105">
        <ele>12</ele>
        <time>2018-10-13T08:57:22Z</time>
      </trkpt>
      <trkpt lat="43.3947" lon="6.67101">
        <ele>12.39999961853</ele>
        <time>2018-10-13T08:57:28Z</time>
      </trkpt>
      <trkpt lat="43.39457" lon="6.67091">
        <ele>12.60000038147</ele>
        <time>2018-10-13T08:57:34Z</time>
      </trkpt>
      <trkpt lat="43.39455" lon="6.67089">
        <ele>12.60000038147</ele>
        <time>2018-10-13T08:57:35Z</time>
      </trkpt>
      <trkpt lat="43.39452" lon="6.67085">
        <ele>12.800000190735</ele>
        <time>2018-10-13T08:57:37Z</time>
      </trkpt>
      <trkpt lat="43.39448" lon="6.67075">
        <ele>13.199999809265</ele>
        <time>2018-10-13T08:57:41Z</time>
      </trkpt>
      <trkpt lat="43.39445" lon="6.67069">
        <ele>13.199999809265</ele>
        <time>2018-10-13T08:57:43Z</time>
      </trkpt>
      <trkpt lat="43.39443" lon="6.67057">
        <ele>13.39999961853</ele>
        <time>2018-10-13T08:57:46Z</time>
      </trkpt>
      <trkpt lat="43.39441" lon="6.67054">
        <ele>13.39999961853</ele>
        <time>2018-10-13T08:57:47Z</time>
      </trkpt>
      <trkpt lat="43.39435" lon="6.67047">
        <ele>13.199999809265</ele>
        <time>2018-10-13T08:57:49Z</time>
      </trkpt>
      <trkpt lat="43.39421" lon="6.67031">
        <ele>12.800000190735</ele>
        <time>2018-10-13T08:57:54Z</time>
      </trkpt>
      <trkpt lat="43.39418" lon="6.67026">
        <ele>13</ele>
        <time>2018-10-13T08:57:55Z</time>
      </trkpt>
      <trkpt lat="43.39417" lon="6.67023">
        <ele>13</ele>
        <time>2018-10-13T08:57:56Z</time>
      </trkpt>
      <trkpt lat="43.39419" lon="6.67016">
        <ele>13.199999809265</ele>
        <time>2018-10-13T08:57:58Z</time>
      </trkpt>
      <trkpt lat="43.39414" lon="6.67001">
        <ele>13.199999809265</ele>
        <time>2018-10-13T08:58:01Z</time>
      </trkpt>
      <trkpt lat="43.3941" lon="6.66995">
        <ele>13.199999809265</ele>
        <time>2018-10-13T08:58:02Z</time>
      </trkpt>
      <trkpt lat="43.39409" lon="6.6699">
        <ele>13.39999961853</ele>
        <time>2018-10-13T08:58:03Z</time>
      </trkpt>
      <trkpt lat="43.39403" lon="6.66981">
        <ele>13.199999809265</ele>
        <time>2018-10-13T08:58:05Z</time>
      </trkpt>
      <trkpt lat="43.394" lon="6.66977">
        <ele>13.199999809265</ele>
        <time>2018-10-13T08:58:06Z</time>
      </trkpt>
      <trkpt lat="43.39382" lon="6.66957">
        <ele>13.199999809265</ele>
        <time>2018-10-13T08:58:11Z</time>
      </trkpt>
      <trkpt lat="43.39366" lon="6.66946">
        <ele>13.199999809265</ele>
        <time>2018-10-13T08:58:15Z</time>
      </trkpt>
      <trkpt lat="43.3935" lon="6.66933">
        <ele>13.199999809265</ele>
        <time>2018-10-13T08:58:19Z</time>
      </trkpt>
      <trkpt lat="43.39337" lon="6.66924">
        <ele>13.199999809265</ele>
        <time>2018-10-13T08:58:22Z</time>
      </trkpt>
      <trkpt lat="43.39329" lon="6.6692">
        <ele>13.39999961853</ele>
        <time>2018-10-13T08:58:24Z</time>
      </trkpt>
      <trkpt lat="43.39307" lon="6.66903">
        <ele>13.39999961853</ele>
        <time>2018-10-13T08:58:30Z</time>
      </trkpt>
      <trkpt lat="43.39302" lon="6.66901">
        <ele>13.39999961853</ele>
        <time>2018-10-13T08:58:31Z</time>
      </trkpt>
      <trkpt lat="43.39291" lon="6.66898">
        <ele>13.199999809265</ele>
        <time>2018-10-13T08:58:33Z</time>
      </trkpt>
      <trkpt lat="43.39285" lon="6.66895">
        <ele>13.199999809265</ele>
        <time>2018-10-13T08:58:34Z</time>
      </trkpt>
      <trkpt lat="43.3928" lon="6.6689">
        <ele>13.199999809265</ele>
        <time>2018-10-13T08:58:35Z</time>
      </trkpt>
      <trkpt lat="43.3927" lon="6.66877">
        <ele>13</ele>
        <time>2018-10-13T08:58:37Z</time>
      </trkpt>
      <trkpt lat="43.39256" lon="6.66848">
        <ele>12.800000190735</ele>
        <time>2018-10-13T08:58:41Z</time>
      </trkpt>
      <trkpt lat="43.39251" lon="6.66831">
        <ele>12.60000038147</ele>
        <time>2018-10-13T08:58:45Z</time>
      </trkpt>
      <trkpt lat="43.39247" lon="6.66822">
        <ele>12.60000038147</ele>
        <time>2018-10-13T08:58:49Z</time>
      </trkpt>
      <trkpt lat="43.39245" lon="6.66819">
        <ele>12.60000038147</ele>
        <time>2018-10-13T08:58:51Z</time>
      </trkpt>
      <trkpt lat="43.39244" lon="6.66816">
        <ele>12.800000190735</ele>
        <time>2018-10-13T08:58:53Z</time>
      </trkpt>
      <trkpt lat="43.39244" lon="6.66814">
        <ele>13</ele>
        <time>2018-10-13T08:58:54Z</time>
      </trkpt>
      <trkpt lat="43.39247" lon="6.66803">
        <ele>13.39999961853</ele>
        <time>2018-10-13T08:58:58Z</time>
      </trkpt>
      <trkpt lat="43.39249" lon="6.66801">
        <ele>13.60000038147</ele>
        <time>2018-10-13T08:58:59Z</time>
      </trkpt>
      <trkpt lat="43.39255" lon="6.66789">
        <ele>14</ele>
        <time>2018-10-13T08:59:03Z</time>
      </trkpt>
      <trkpt lat="43.39256" lon="6.66785">
        <ele>14</ele>
        <time>2018-10-13T08:59:04Z</time>
      </trkpt>
      <trkpt lat="43.39257" lon="6.66773">
        <ele>14</ele>
        <time>2018-10-13T08:59:07Z</time>
      </trkpt>
      <trkpt lat="43.39258" lon="6.66769">
        <ele>14.199999809265</ele>
        <time>2018-10-13T08:59:08Z</time>
      </trkpt>
      <trkpt lat="43.39266" lon="6.66752">
        <ele>14.199999809265</ele>
        <time>2018-10-13T08:59:13Z</time>
      </trkpt>
      <trkpt lat="43.39275" lon="6.66733">
        <ele>14.199999809265</ele>
        <time>2018-10-13T08:59:19Z</time>
      </trkpt>
      <trkpt lat="43.39282" lon="6.66719">
        <ele>14.800000190735</ele>
        <time>2018-10-13T08:59:25Z</time>
      </trkpt>
      <trkpt lat="43.39283" lon="6.66708">
        <ele>15.39999961853</ele>
        <time>2018-10-13T08:59:30Z</time>
      </trkpt>
      <trkpt lat="43.3928" lon="6.66697">
        <ele>16.200000762939</ele>
        <time>2018-10-13T08:59:36Z</time>
      </trkpt>
      <trkpt lat="43.39277" lon="6.66683">
        <ele>17.200000762939</ele>
        <time>2018-10-13T08:59:44Z</time>
      </trkpt>
      <trkpt lat="43.39276" lon="6.66681">
        <ele>17.39999961853</ele>
        <time>2018-10-13T08:59:45Z</time>
      </trkpt>
      <trkpt lat="43.39271" lon="6.66676">
        <ele>18</ele>
        <time>2018-10-13T08:59:49Z</time>
      </trkpt>
      <trkpt lat="43.39266" lon="6.66664">
        <ele>19.200000762939</ele>
        <time>2018-10-13T08:59:56Z</time>
      </trkpt>
      <trkpt lat="43.39264" lon="6.66657">
        <ele>19.39999961853</ele>
        <time>2018-10-13T08:59:59Z</time>
      </trkpt>
      <trkpt lat="43.39265" lon="6.66649">
        <ele>19.60000038147</ele>
        <time>2018-10-13T09:00:01Z</time>
      </trkpt>
      <trkpt lat="43.39271" lon="6.66634">
        <ele>20</ele>
        <time>2018-10-13T09:00:05Z</time>
      </trkpt>
      <trkpt lat="43.39285" lon="6.66608">
        <ele>21.39999961853</ele>
        <time>2018-10-13T09:00:14Z</time>
      </trkpt>
      <trkpt lat="43.39289" lon="6.66597">
        <ele>21.60000038147</ele>
        <time>2018-10-13T09:00:17Z</time>
      </trkpt>
      <trkpt lat="43.3929" lon="6.66593">
        <ele>21.60000038147</ele>
        <time>2018-10-13T09:00:18Z</time>
      </trkpt>
      <trkpt lat="43.39292" lon="6.66579">
        <ele>21.799999237061</ele>
        <time>2018-10-13T09:00:22Z</time>
      </trkpt>
      <trkpt lat="43.39291" lon="6.66568">
        <ele>22.60000038147</ele>
        <time>2018-10-13T09:00:28Z</time>
      </trkpt>
      <trkpt lat="43.39292" lon="6.66565">
        <ele>23</ele>
        <time>2018-10-13T09:00:30Z</time>
      </trkpt>
      <trkpt lat="43.39293" lon="6.6656">
        <ele>23.39999961853</ele>
        <time>2018-10-13T09:00:33Z</time>
      </trkpt>
      <trkpt lat="43.39293" lon="6.66555">
        <ele>24</ele>
        <time>2018-10-13T09:00:36Z</time>
      </trkpt>
      <trkpt lat="43.39293" lon="6.66552">
        <ele>24.200000762939</ele>
        <time>2018-10-13T09:00:38Z</time>
      </trkpt>
      <trkpt lat="43.39293" lon="6.66549">
        <ele>24.60000038147</ele>
        <time>2018-10-13T09:00:40Z</time>
      </trkpt>
      <trkpt lat="43.39292" lon="6.66542">
        <ele>25</ele>
        <time>2018-10-13T09:00:43Z</time>
      </trkpt>
      <trkpt lat="43.39291" lon="6.66533">
        <ele>25.60000038147</ele>
        <time>2018-10-13T09:00:48Z</time>
      </trkpt>
      <trkpt lat="43.39291" lon="6.66532">
        <ele>25.60000038147</ele>
        <time>2018-10-13T09:00:49Z</time>
      </trkpt>
      <trkpt lat="43.3929" lon="6.66523">
        <ele>26.60000038147</ele>
        <time>2018-10-13T09:00:54Z</time>
      </trkpt>
      <trkpt lat="43.3929" lon="6.66517">
        <ele>27.39999961853</ele>
        <time>2018-10-13T09:00:58Z</time>
      </trkpt>
      <trkpt lat="43.39289" lon="6.66513">
        <ele>27.799999237061</ele>
        <time>2018-10-13T09:01:00Z</time>
      </trkpt>
      <trkpt lat="43.39288" lon="6.66502">
        <ele>29.200000762939</ele>
        <time>2018-10-13T09:01:07Z</time>
      </trkpt>
      <trkpt lat="43.39287" lon="6.66497">
        <ele>29.799999237061</ele>
        <time>2018-10-13T09:01:10Z</time>
      </trkpt>
      <trkpt lat="43.39287" lon="6.66492">
        <ele>30.60000038147</ele>
        <time>2018-10-13T09:01:13Z</time>
      </trkpt>
      <trkpt lat="43.39285" lon="6.66483">
        <ele>31.799999237061</ele>
        <time>2018-10-13T09:01:19Z</time>
      </trkpt>
      <trkpt lat="43.39284" lon="6.66482">
        <ele>32</ele>
        <time>2018-10-13T09:01:20Z</time>
      </trkpt>
      <trkpt lat="43.39283" lon="6.66479">
        <ele>32.400001525879</ele>
        <time>2018-10-13T09:01:22Z</time>
      </trkpt>
      <trkpt lat="43.39281" lon="6.66476">
        <ele>32.799999237061</ele>
        <time>2018-10-13T09:01:24Z</time>
      </trkpt>
      <trkpt lat="43.3928" lon="6.66474">
        <ele>33.200000762939</ele>
        <time>2018-10-13T09:01:26Z</time>
      </trkpt>
      <trkpt lat="43.3928" lon="6.66473">
        <ele>33.400001525879</ele>
        <time>2018-10-13T09:01:27Z</time>
      </trkpt>
      <trkpt lat="43.39274" lon="6.6647">
        <ele>34.400001525879</ele>
        <time>2018-10-13T09:01:32Z</time>
      </trkpt>
      <trkpt lat="43.3927" lon="6.66469">
        <ele>35.200000762939</ele>
        <time>2018-10-13T09:01:37Z</time>
      </trkpt>
      <trkpt lat="43.39268" lon="6.66468">
        <ele>35.599998474121</ele>
        <time>2018-10-13T09:01:39Z</time>
      </trkpt>
      <trkpt lat="43.3926" lon="6.66466">
        <ele>36.599998474121</ele>
        <time>2018-10-13T09:01:45Z</time>
      </trkpt>
      <trkpt lat="43.39258" lon="6.66465">
        <ele>37</ele>
        <time>2018-10-13T09:01:47Z</time>
      </trkpt>
      <trkpt lat="43.39255" lon="6.66464">
        <ele>37.599998474121</ele>
        <time>2018-10-13T09:01:50Z</time>
      </trkpt>
      <trkpt lat="43.39247" lon="6.66461">
        <ele>38.799999237061</ele>
        <time>2018-10-13T09:01:57Z</time>
      </trkpt>
      <trkpt lat="43.39235" lon="6.66452">
        <ele>40</ele>
        <time>2018-10-13T09:02:04Z</time>
      </trkpt>
      <trkpt lat="43.39228" lon="6.66438">
        <ele>40.599998474121</ele>
        <time>2018-10-13T09:02:09Z</time>
      </trkpt>
      <trkpt lat="43.39222" lon="6.6642">
        <ele>41.599998474121</ele>
        <time>2018-10-13T09:02:16Z</time>
      </trkpt>
      <trkpt lat="43.39215" lon="6.66403">
        <ele>42.599998474121</ele>
        <time>2018-10-13T09:02:22Z</time>
      </trkpt>
      <trkpt lat="43.39211" lon="6.66389">
        <ele>43.400001525879</ele>
        <time>2018-10-13T09:02:27Z</time>
      </trkpt>
      <trkpt lat="43.39203" lon="6.66372">
        <ele>44.599998474121</ele>
        <time>2018-10-13T09:02:34Z</time>
      </trkpt>
      <trkpt lat="43.39194" lon="6.66355">
        <ele>45.400001525879</ele>
        <time>2018-10-13T09:02:39Z</time>
      </trkpt>
      <trkpt lat="43.39186" lon="6.66343">
        <ele>45.599998474121</ele>
        <time>2018-10-13T09:02:42Z</time>
      </trkpt>
      <trkpt lat="43.39179" lon="6.66339">
        <ele>45.799999237061</ele>
        <time>2018-10-13T09:02:44Z</time>
      </trkpt>
      <trkpt lat="43.39162" lon="6.66332">
        <ele>46.400001525879</ele>
        <time>2018-10-13T09:02:49Z</time>
      </trkpt>
      <trkpt lat="43.3915" lon="6.66328">
        <ele>47</ele>
        <time>2018-10-13T09:02:53Z</time>
      </trkpt>
      <trkpt lat="43.39138" lon="6.66321">
        <ele>47.799999237061</ele>
        <time>2018-10-13T09:02:58Z</time>
      </trkpt>
      <trkpt lat="43.39127" lon="6.66314">
        <ele>48.400001525879</ele>
        <time>2018-10-13T09:03:03Z</time>
      </trkpt>
      <trkpt lat="43.39118" lon="6.66306">
        <ele>49</ele>
        <time>2018-10-13T09:03:08Z</time>
      </trkpt>
      <trkpt lat="43.39109" lon="6.66296">
        <ele>49.599998474121</ele>
        <time>2018-10-13T09:03:13Z</time>
      </trkpt>
      <trkpt lat="43.39098" lon="6.6628">
        <ele>50.200000762939</ele>
        <time>2018-10-13T09:03:20Z</time>
      </trkpt>
      <trkpt lat="43.39086" lon="6.66264">
        <ele>51</ele>
        <time>2018-10-13T09:03:27Z</time>
      </trkpt>
      <trkpt lat="43.39076" lon="6.66249">
        <ele>51.799999237061</ele>
        <time>2018-10-13T09:03:33Z</time>
      </trkpt>
      <trkpt lat="43.39066" lon="6.66239">
        <ele>52.400001525879</ele>
        <time>2018-10-13T09:03:39Z</time>
      </trkpt>
      <trkpt lat="43.39057" lon="6.66232">
        <ele>53.200000762939</ele>
        <time>2018-10-13T09:03:45Z</time>
      </trkpt>
      <trkpt lat="43.39051" lon="6.66226">
        <ele>53.599998474121</ele>
        <time>2018-10-13T09:03:49Z</time>
      </trkpt>
      <trkpt lat="43.39044" lon="6.66221">
        <ele>54.400001525879</ele>
        <time>2018-10-13T09:03:55Z</time>
      </trkpt>
      <trkpt lat="43.39035" lon="6.6622">
        <ele>55.400001525879</ele>
        <time>2018-10-13T09:04:01Z</time>
      </trkpt>
      <trkpt lat="43.39026" lon="6.66221">
        <ele>56.400001525879</ele>
        <time>2018-10-13T09:04:07Z</time>
      </trkpt>
      <trkpt lat="43.39018" lon="6.6621">
        <ele>57.400001525879</ele>
        <time>2018-10-13T09:04:14Z</time>
      </trkpt>
      <trkpt lat="43.39012" lon="6.66197">
        <ele>58.599998474121</ele>
        <time>2018-10-13T09:04:22Z</time>
      </trkpt>
      <trkpt lat="43.39009" lon="6.6619">
        <ele>59.200000762939</ele>
        <time>2018-10-13T09:04:26Z</time>
      </trkpt>
      <trkpt lat="43.3901" lon="6.66185">
        <ele>59.599998474121</ele>
        <time>2018-10-13T09:04:28Z</time>
      </trkpt>
      <trkpt lat="43.39011" lon="6.66176">
        <ele>60</ele>
        <time>2018-10-13T09:04:31Z</time>
      </trkpt>
      <trkpt lat="43.39011" lon="6.66172">
        <ele>60</ele>
        <time>2018-10-13T09:04:32Z</time>
      </trkpt>
      <trkpt lat="43.39012" lon="6.66155">
        <ele>60.799999237061</ele>
        <time>2018-10-13T09:04:38Z</time>
      </trkpt>
      <trkpt lat="43.39014" lon="6.66133">
        <ele>61.799999237061</ele>
        <time>2018-10-13T09:04:45Z</time>
      </trkpt>
      <trkpt lat="43.39013" lon="6.66118">
        <ele>62.400001525879</ele>
        <time>2018-10-13T09:04:50Z</time>
      </trkpt>
      <trkpt lat="43.39013" lon="6.661">
        <ele>63.200000762939</ele>
        <time>2018-10-13T09:04:56Z</time>
      </trkpt>
      <trkpt lat="43.39016" lon="6.66081">
        <ele>63.799999237061</ele>
        <time>2018-10-13T09:05:02Z</time>
      </trkpt>
      <trkpt lat="43.39018" lon="6.66064">
        <ele>64.400001525879</ele>
        <time>2018-10-13T09:05:07Z</time>
      </trkpt>
      <trkpt lat="43.39018" lon="6.66049">
        <ele>64.800003051758</ele>
        <time>2018-10-13T09:05:11Z</time>
      </trkpt>
      <trkpt lat="43.39014" lon="6.66031">
        <ele>65.400001525879</ele>
        <time>2018-10-13T09:05:16Z</time>
      </trkpt>
      <trkpt lat="43.39006" lon="6.66023">
        <ele>65.800003051758</ele>
        <time>2018-10-13T09:05:20Z</time>
      </trkpt>
      <trkpt lat="43.38992" lon="6.66015">
        <ele>66.400001525879</ele>
        <time>2018-10-13T09:05:26Z</time>
      </trkpt>
      <trkpt lat="43.38977" lon="6.66011">
        <ele>67</ele>
        <time>2018-10-13T09:05:31Z</time>
      </trkpt>
      <trkpt lat="43.38966" lon="6.66008">
        <ele>67.199996948242</ele>
        <time>2018-10-13T09:05:35Z</time>
      </trkpt>
      <trkpt lat="43.38954" lon="6.66">
        <ele>67.599998474121</ele>
        <time>2018-10-13T09:05:40Z</time>
      </trkpt>
      <trkpt lat="43.38942" lon="6.65984">
        <ele>68</ele>
        <time>2018-10-13T09:05:46Z</time>
      </trkpt>
      <trkpt lat="43.38932" lon="6.65971">
        <ele>68.800003051758</ele>
        <time>2018-10-13T09:05:52Z</time>
      </trkpt>
      <trkpt lat="43.38918" lon="6.65958">
        <ele>69.800003051758</ele>
        <time>2018-10-13T09:06:00Z</time>
      </trkpt>
      <trkpt lat="43.38908" lon="6.65952">
        <ele>70.199996948242</ele>
        <time>2018-10-13T09:06:05Z</time>
      </trkpt>
      <trkpt lat="43.389" lon="6.65946">
        <ele>70.400001525879</ele>
        <time>2018-10-13T09:06:09Z</time>
      </trkpt>
      <trkpt lat="43.38889" lon="6.65935">
        <ele>71</ele>
        <time>2018-10-13T09:06:14Z</time>
      </trkpt>
      <trkpt lat="43.38881" lon="6.65928">
        <ele>71.199996948242</ele>
        <time>2018-10-13T09:06:18Z</time>
      </trkpt>
      <trkpt lat="43.38866" lon="6.65915">
        <ele>71.599998474121</ele>
        <time>2018-10-13T09:06:24Z</time>
      </trkpt>
      <trkpt lat="43.38852" lon="6.65912">
        <ele>72</ele>
        <time>2018-10-13T09:06:28Z</time>
      </trkpt>
      <trkpt lat="43.38833" lon="6.65911">
        <ele>72.400001525879</ele>
        <time>2018-10-13T09:06:34Z</time>
      </trkpt>
      <trkpt lat="43.38816" lon="6.65906">
        <ele>72.800003051758</ele>
        <time>2018-10-13T09:06:40Z</time>
      </trkpt>
      <trkpt lat="43.38803" lon="6.65911">
        <ele>73.199996948242</ele>
        <time>2018-10-13T09:06:44Z</time>
      </trkpt>
      <trkpt lat="43.38792" lon="6.65919">
        <ele>73.400001525879</ele>
        <time>2018-10-13T09:06:47Z</time>
      </trkpt>
      <trkpt lat="43.38785" lon="6.65926">
        <ele>73.599998474121</ele>
        <time>2018-10-13T09:06:49Z</time>
      </trkpt>
      <trkpt lat="43.38782" lon="6.65931">
        <ele>73.599998474121</ele>
        <time>2018-10-13T09:06:50Z</time>
      </trkpt>
      <trkpt lat="43.38776" lon="6.65945">
        <ele>73.599998474121</ele>
        <time>2018-10-13T09:06:52Z</time>
      </trkpt>
      <trkpt lat="43.38773" lon="6.65964">
        <ele>73.400001525879</ele>
        <time>2018-10-13T09:06:55Z</time>
      </trkpt>
      <trkpt lat="43.38764" lon="6.65986">
        <ele>73.199996948242</ele>
        <time>2018-10-13T09:07:00Z</time>
      </trkpt>
      <trkpt lat="43.38762" lon="6.6599">
        <ele>73</ele>
        <time>2018-10-13T09:07:01Z</time>
      </trkpt>
      <trkpt lat="43.38753" lon="6.66002">
        <ele>72.800003051758</ele>
        <time>2018-10-13T09:07:04Z</time>
      </trkpt>
      <trkpt lat="43.38736" lon="6.66021">
        <ele>72.400001525879</ele>
        <time>2018-10-13T09:07:10Z</time>
      </trkpt>
      <trkpt lat="43.38723" lon="6.6604">
        <ele>72.400001525879</ele>
        <time>2018-10-13T09:07:15Z</time>
      </trkpt>
      <trkpt lat="43.38714" lon="6.66057">
        <ele>72.599998474121</ele>
        <time>2018-10-13T09:07:20Z</time>
      </trkpt>
      <trkpt lat="43.38701" lon="6.66075">
        <ele>73</ele>
        <time>2018-10-13T09:07:26Z</time>
      </trkpt>
      <trkpt lat="43.38689" lon="6.66097">
        <ele>73</ele>
        <time>2018-10-13T09:07:32Z</time>
      </trkpt>
      <trkpt lat="43.38681" lon="6.66118">
        <ele>73.199996948242</ele>
        <time>2018-10-13T09:07:38Z</time>
      </trkpt>
      <trkpt lat="43.38672" lon="6.66138">
        <ele>73.599998474121</ele>
        <time>2018-10-13T09:07:44Z</time>
      </trkpt>
      <trkpt lat="43.38663" lon="6.66162">
        <ele>74</ele>
        <time>2018-10-13T09:07:51Z</time>
      </trkpt>
      <trkpt lat="43.38656" lon="6.66182">
        <ele>74.199996948242</ele>
        <time>2018-10-13T09:07:58Z</time>
      </trkpt>
      <trkpt lat="43.38647" lon="6.66194">
        <ele>74.400001525879</ele>
        <time>2018-10-13T09:08:04Z</time>
      </trkpt>
      <trkpt lat="43.38633" lon="6.66198">
        <ele>74.599998474121</ele>
        <time>2018-10-13T09:08:10Z</time>
      </trkpt>
      <trkpt lat="43.38619" lon="6.662">
        <ele>74.800003051758</ele>
        <time>2018-10-13T09:08:15Z</time>
      </trkpt>
      <trkpt lat="43.38599" lon="6.66196">
        <ele>75</ele>
        <time>2018-10-13T09:08:21Z</time>
      </trkpt>
      <trkpt lat="43.38584" lon="6.66185">
        <ele>75</ele>
        <time>2018-10-13T09:08:25Z</time>
      </trkpt>
      <trkpt lat="43.38578" lon="6.66178">
        <ele>75.199996948242</ele>
        <time>2018-10-13T09:08:27Z</time>
      </trkpt>
      <trkpt lat="43.38569" lon="6.66164">
        <ele>75.199996948242</ele>
        <time>2018-10-13T09:08:30Z</time>
      </trkpt>
      <trkpt lat="43.38566" lon="6.66151">
        <ele>75.199996948242</ele>
        <time>2018-10-13T09:08:32Z</time>
      </trkpt>
      <trkpt lat="43.38557" lon="6.66112">
        <ele>75.199996948242</ele>
        <time>2018-10-13T09:08:37Z</time>
      </trkpt>
      <trkpt lat="43.38555" lon="6.66097">
        <ele>75.199996948242</ele>
        <time>2018-10-13T09:08:39Z</time>
      </trkpt>
      <trkpt lat="43.38558" lon="6.66082">
        <ele>75.199996948242</ele>
        <time>2018-10-13T09:08:41Z</time>
      </trkpt>
      <trkpt lat="43.38569" lon="6.66065">
        <ele>75.199996948242</ele>
        <time>2018-10-13T09:08:44Z</time>
      </trkpt>
      <trkpt lat="43.38571" lon="6.66052">
        <ele>75.199996948242</ele>
        <time>2018-10-13T09:08:46Z</time>
      </trkpt>
      <trkpt lat="43.3857" lon="6.66046">
        <ele>75.199996948242</ele>
        <time>2018-10-13T09:08:47Z</time>
      </trkpt>
      <trkpt lat="43.38568" lon="6.66041">
        <ele>75.199996948242</ele>
        <time>2018-10-13T09:08:48Z</time>
      </trkpt>
      <trkpt lat="43.3856" lon="6.66036">
        <ele>75.199996948242</ele>
        <time>2018-10-13T09:08:50Z</time>
      </trkpt>
      <trkpt lat="43.38545" lon="6.66026">
        <ele>75.599998474121</ele>
        <time>2018-10-13T09:08:55Z</time>
      </trkpt>
      <trkpt lat="43.38531" lon="6.66011">
        <ele>75.800003051758</ele>
        <time>2018-10-13T09:09:00Z</time>
      </trkpt>
      <trkpt lat="43.38517" lon="6.65992">
        <ele>75.800003051758</ele>
        <time>2018-10-13T09:09:05Z</time>
      </trkpt>
      <trkpt lat="43.38495" lon="6.65967">
        <ele>75.599998474121</ele>
        <time>2018-10-13T09:09:10Z</time>
      </trkpt>
      <trkpt lat="43.3849" lon="6.6595">
        <ele>75.400001525879</ele>
        <time>2018-10-13T09:09:12Z</time>
      </trkpt>
      <trkpt lat="43.38488" lon="6.65931">
        <ele>75.199996948242</ele>
        <time>2018-10-13T09:09:14Z</time>
      </trkpt>
      <trkpt lat="43.38483" lon="6.65885">
        <ele>75</ele>
        <time>2018-10-13T09:09:19Z</time>
      </trkpt>
      <trkpt lat="43.38487" lon="6.65871">
        <ele>75</ele>
        <time>2018-10-13T09:09:21Z</time>
      </trkpt>
      <trkpt lat="43.3849" lon="6.65865">
        <ele>74.800003051758</ele>
        <time>2018-10-13T09:09:22Z</time>
      </trkpt>
      <trkpt lat="43.38494" lon="6.6586">
        <ele>74.800003051758</ele>
        <time>2018-10-13T09:09:23Z</time>
      </trkpt>
      <trkpt lat="43.38503" lon="6.65853">
        <ele>74.800003051758</ele>
        <time>2018-10-13T09:09:25Z</time>
      </trkpt>
      <trkpt lat="43.38508" lon="6.65851">
        <ele>74.599998474121</ele>
        <time>2018-10-13T09:09:26Z</time>
      </trkpt>
      <trkpt lat="43.38513" lon="6.65849">
        <ele>74.400001525879</ele>
        <time>2018-10-13T09:09:27Z</time>
      </trkpt>
      <trkpt lat="43.38518" lon="6.65838">
        <ele>74.199996948242</ele>
        <time>2018-10-13T09:09:29Z</time>
      </trkpt>
      <trkpt lat="43.38514" lon="6.65828">
        <ele>74</ele>
        <time>2018-10-13T09:09:31Z</time>
      </trkpt>
      <trkpt lat="43.38511" lon="6.65826">
        <ele>73.800003051758</ele>
        <time>2018-10-13T09:09:32Z</time>
      </trkpt>
      <trkpt lat="43.38494" lon="6.65822">
        <ele>73.599998474121</ele>
        <time>2018-10-13T09:09:37Z</time>
      </trkpt>
      <trkpt lat="43.38477" lon="6.65816">
        <ele>73.599998474121</ele>
        <time>2018-10-13T09:09:43Z</time>
      </trkpt>
      <trkpt lat="43.38465" lon="6.65816">
        <ele>73.599998474121</ele>
        <time>2018-10-13T09:09:47Z</time>
      </trkpt>
      <trkpt lat="43.38444" lon="6.65816">
        <ele>73.400001525879</ele>
        <time>2018-10-13T09:09:52Z</time>
      </trkpt>
      <trkpt lat="43.3844" lon="6.65812">
        <ele>73.400001525879</ele>
        <time>2018-10-13T09:09:53Z</time>
      </trkpt>
      <trkpt lat="43.38438" lon="6.658">
        <ele>73.199996948242</ele>
        <time>2018-10-13T09:09:55Z</time>
      </trkpt>
      <trkpt lat="43.38438" lon="6.65793">
        <ele>73</ele>
        <time>2018-10-13T09:09:56Z</time>
      </trkpt>
      <trkpt lat="43.38439" lon="6.65786">
        <ele>72.800003051758</ele>
        <time>2018-10-13T09:09:57Z</time>
      </trkpt>
      <trkpt lat="43.38441" lon="6.65769">
        <ele>72.400001525879</ele>
        <time>2018-10-13T09:09:59Z</time>
      </trkpt>
      <trkpt lat="43.3844" lon="6.65753">
        <ele>72</ele>
        <time>2018-10-13T09:10:01Z</time>
      </trkpt>
      <trkpt lat="43.38441" lon="6.65746">
        <ele>71.800003051758</ele>
        <time>2018-10-13T09:10:02Z</time>
      </trkpt>
      <trkpt lat="43.38443" lon="6.65737">
        <ele>71.400001525879</ele>
        <time>2018-10-13T09:10:05Z</time>
      </trkpt>
      <trkpt lat="43.38451" lon="6.65726">
        <ele>71</ele>
        <time>2018-10-13T09:10:09Z</time>
      </trkpt>
      <trkpt lat="43.38465" lon="6.65708">
        <ele>70.599998474121</ele>
        <time>2018-10-13T09:10:14Z</time>
      </trkpt>
      <trkpt lat="43.38468" lon="6.65703">
        <ele>70.599998474121</ele>
        <time>2018-10-13T09:10:15Z</time>
      </trkpt>
      <trkpt lat="43.38477" lon="6.65689">
        <ele>70.199996948242</ele>
        <time>2018-10-13T09:10:18Z</time>
      </trkpt>
      <trkpt lat="43.38483" lon="6.65677">
        <ele>70</ele>
        <time>2018-10-13T09:10:20Z</time>
      </trkpt>
      <trkpt lat="43.38487" lon="6.65665">
        <ele>69.800003051758</ele>
        <time>2018-10-13T09:10:22Z</time>
      </trkpt>
      <trkpt lat="43.38488" lon="6.65659">
        <ele>69.599998474121</ele>
        <time>2018-10-13T09:10:23Z</time>
      </trkpt>
      <trkpt lat="43.3849" lon="6.65653">
        <ele>69.599998474121</ele>
        <time>2018-10-13T09:10:24Z</time>
      </trkpt>
      <trkpt lat="43.38492" lon="6.65636">
        <ele>69.400001525879</ele>
        <time>2018-10-13T09:10:27Z</time>
      </trkpt>
      <trkpt lat="43.38492" lon="6.65629">
        <ele>69.199996948242</ele>
        <time>2018-10-13T09:10:28Z</time>
      </trkpt>
      <trkpt lat="43.38494" lon="6.65606">
        <ele>68.800003051758</ele>
        <time>2018-10-13T09:10:31Z</time>
      </trkpt>
      <trkpt lat="43.38493" lon="6.65599">
        <ele>68.800003051758</ele>
        <time>2018-10-13T09:10:32Z</time>
      </trkpt>
      <trkpt lat="43.38492" lon="6.65583">
        <ele>68.599998474121</ele>
        <time>2018-10-13T09:10:34Z</time>
      </trkpt>
      <trkpt lat="43.38494" lon="6.6557">
        <ele>68.199996948242</ele>
        <time>2018-10-13T09:10:36Z</time>
      </trkpt>
      <trkpt lat="43.38501" lon="6.65555">
        <ele>67.800003051758</ele>
        <time>2018-10-13T09:10:40Z</time>
      </trkpt>
      <trkpt lat="43.38507" lon="6.65536">
        <ele>67.599998474121</ele>
        <time>2018-10-13T09:10:44Z</time>
      </trkpt>
      <trkpt lat="43.38517" lon="6.65527">
        <ele>67</ele>
        <time>2018-10-13T09:10:48Z</time>
      </trkpt>
      <trkpt lat="43.38519" lon="6.65524">
        <ele>66.800003051758</ele>
        <time>2018-10-13T09:10:49Z</time>
      </trkpt>
      <trkpt lat="43.38517" lon="6.65518">
        <ele>66.599998474121</ele>
        <time>2018-10-13T09:10:51Z</time>
      </trkpt>
      <trkpt lat="43.38513" lon="6.65514">
        <ele>66.400001525879</ele>
        <time>2018-10-13T09:10:53Z</time>
      </trkpt>
      <trkpt lat="43.38508" lon="6.65515">
        <ele>66.400001525879</ele>
        <time>2018-10-13T09:10:55Z</time>
      </trkpt>
      <trkpt lat="43.38493" lon="6.6552">
        <ele>66.199996948242</ele>
        <time>2018-10-13T09:11:01Z</time>
      </trkpt>
      <trkpt lat="43.38479" lon="6.65521">
        <ele>65.800003051758</ele>
        <time>2018-10-13T09:11:07Z</time>
      </trkpt>
      <trkpt lat="43.38463" lon="6.6552">
        <ele>66</ele>
        <time>2018-10-13T09:11:15Z</time>
      </trkpt>
      <trkpt lat="43.3846" lon="6.6551">
        <ele>66</ele>
        <time>2018-10-13T09:11:20Z</time>
      </trkpt>
      <trkpt lat="43.38466" lon="6.65496">
        <ele>66.199996948242</ele>
        <time>2018-10-13T09:11:27Z</time>
      </trkpt>
      <trkpt lat="43.38474" lon="6.65487">
        <ele>66.400001525879</ele>
        <time>2018-10-13T09:11:33Z</time>
      </trkpt>
      <trkpt lat="43.38487" lon="6.65472">
        <ele>66.599998474121</ele>
        <time>2018-10-13T09:11:42Z</time>
      </trkpt>
      <trkpt lat="43.38498" lon="6.65459">
        <ele>67</ele>
        <time>2018-10-13T09:11:50Z</time>
      </trkpt>
      <trkpt lat="43.38507" lon="6.65449">
        <ele>67</ele>
        <time>2018-10-13T09:11:56Z</time>
      </trkpt>
      <trkpt lat="43.38516" lon="6.65439">
        <ele>67</ele>
        <time>2018-10-13T09:12:00Z</time>
      </trkpt>
      <trkpt lat="43.38519" lon="6.65435">
        <ele>67</ele>
        <time>2018-10-13T09:12:01Z</time>
      </trkpt>
      <trkpt lat="43.38521" lon="6.6543">
        <ele>66.800003051758</ele>
        <time>2018-10-13T09:12:02Z</time>
      </trkpt>
      <trkpt lat="43.38524" lon="6.65418">
        <ele>66.800003051758</ele>
        <time>2018-10-13T09:12:04Z</time>
      </trkpt>
      <trkpt lat="43.38524" lon="6.65412">
        <ele>66.800003051758</ele>
        <time>2018-10-13T09:12:05Z</time>
      </trkpt>
      <trkpt lat="43.38516" lon="6.65401">
        <ele>66.800003051758</ele>
        <time>2018-10-13T09:12:08Z</time>
      </trkpt>
      <trkpt lat="43.38496" lon="6.65385">
        <ele>66.599998474121</ele>
        <time>2018-10-13T09:12:14Z</time>
      </trkpt>
      <trkpt lat="43.38474" lon="6.65366">
        <ele>66.800003051758</ele>
        <time>2018-10-13T09:12:21Z</time>
      </trkpt>
      <trkpt lat="43.38468" lon="6.65356">
        <ele>66.599998474121</ele>
        <time>2018-10-13T09:12:23Z</time>
      </trkpt>
      <trkpt lat="43.38464" lon="6.65342">
        <ele>66.599998474121</ele>
        <time>2018-10-13T09:12:25Z</time>
      </trkpt>
      <trkpt lat="43.38451" lon="6.65303">
        <ele>66</ele>
        <time>2018-10-13T09:12:30Z</time>
      </trkpt>
      <trkpt lat="43.38444" lon="6.65269">
        <ele>65.599998474121</ele>
        <time>2018-10-13T09:12:34Z</time>
      </trkpt>
      <trkpt lat="43.3844" lon="6.65256">
        <ele>65.599998474121</ele>
        <time>2018-10-13T09:12:36Z</time>
      </trkpt>
      <trkpt lat="43.38432" lon="6.65239">
        <ele>65.400001525879</ele>
        <time>2018-10-13T09:12:39Z</time>
      </trkpt>
      <trkpt lat="43.38431" lon="6.65227">
        <ele>65.400001525879</ele>
        <time>2018-10-13T09:12:41Z</time>
      </trkpt>
      <trkpt lat="43.38431" lon="6.65203">
        <ele>65.400001525879</ele>
        <time>2018-10-13T09:12:45Z</time>
      </trkpt>
      <trkpt lat="43.38431" lon="6.65197">
        <ele>65.400001525879</ele>
        <time>2018-10-13T09:12:46Z</time>
      </trkpt>
      <trkpt lat="43.38426" lon="6.65172">
        <ele>65.199996948242</ele>
        <time>2018-10-13T09:12:50Z</time>
      </trkpt>
      <trkpt lat="43.38423" lon="6.65158">
        <ele>65</ele>
        <time>2018-10-13T09:12:52Z</time>
      </trkpt>
      <trkpt lat="43.38421" lon="6.65144">
        <ele>64.800003051758</ele>
        <time>2018-10-13T09:12:54Z</time>
      </trkpt>
      <trkpt lat="43.3842" lon="6.65129">
        <ele>64.599998474121</ele>
        <time>2018-10-13T09:12:56Z</time>
      </trkpt>
      <trkpt lat="43.3842" lon="6.6512">
        <ele>64.599998474121</ele>
        <time>2018-10-13T09:12:57Z</time>
      </trkpt>
      <trkpt lat="43.38422" lon="6.65094">
        <ele>64.199996948242</ele>
        <time>2018-10-13T09:13:00Z</time>
      </trkpt>
      <trkpt lat="43.38421" lon="6.65086">
        <ele>64</ele>
        <time>2018-10-13T09:13:01Z</time>
      </trkpt>
      <trkpt lat="43.38419" lon="6.65079">
        <ele>63.799999237061</ele>
        <time>2018-10-13T09:13:02Z</time>
      </trkpt>
      <trkpt lat="43.38413" lon="6.65069">
        <ele>63.599998474121</ele>
        <time>2018-10-13T09:13:04Z</time>
      </trkpt>
      <trkpt lat="43.38407" lon="6.6506">
        <ele>63.400001525879</ele>
        <time>2018-10-13T09:13:06Z</time>
      </trkpt>
      <trkpt lat="43.38404" lon="6.65049">
        <ele>63.200000762939</ele>
        <time>2018-10-13T09:13:08Z</time>
      </trkpt>
      <trkpt lat="43.384" lon="6.65028">
        <ele>63.200000762939</ele>
        <time>2018-10-13T09:13:12Z</time>
      </trkpt>
      <trkpt lat="43.38383" lon="6.65001">
        <ele>63.200000762939</ele>
        <time>2018-10-13T09:13:18Z</time>
      </trkpt>
      <trkpt lat="43.38375" lon="6.64993">
        <ele>63</ele>
        <time>2018-10-13T09:13:20Z</time>
      </trkpt>
      <trkpt lat="43.38369" lon="6.64985">
        <ele>62.799999237061</ele>
        <time>2018-10-13T09:13:22Z</time>
      </trkpt>
      <trkpt lat="43.38366" lon="6.64979">
        <ele>62.799999237061</ele>
        <time>2018-10-13T09:13:23Z</time>
      </trkpt>
      <trkpt lat="43.38359" lon="6.64961">
        <ele>62.200000762939</ele>
        <time>2018-10-13T09:13:26Z</time>
      </trkpt>
      <trkpt lat="43.38354" lon="6.64929">
        <ele>61.200000762939</ele>
        <time>2018-10-13T09:13:30Z</time>
      </trkpt>
      <trkpt lat="43.38347" lon="6.64919">
        <ele>60.799999237061</ele>
        <time>2018-10-13T09:13:32Z</time>
      </trkpt>
      <trkpt lat="43.38331" lon="6.64915">
        <ele>60</ele>
        <time>2018-10-13T09:13:35Z</time>
      </trkpt>
      <trkpt lat="43.38323" lon="6.64906">
        <ele>59.400001525879</ele>
        <time>2018-10-13T09:13:38Z</time>
      </trkpt>
      <trkpt lat="43.38323" lon="6.64891">
        <ele>58.599998474121</ele>
        <time>2018-10-13T09:13:42Z</time>
      </trkpt>
      <trkpt lat="43.3832" lon="6.64873">
        <ele>58</ele>
        <time>2018-10-13T09:13:46Z</time>
      </trkpt>
      <trkpt lat="43.3832" lon="6.64864">
        <ele>57.799999237061</ele>
        <time>2018-10-13T09:13:48Z</time>
      </trkpt>
      <trkpt lat="43.38319" lon="6.64858">
        <ele>57.599998474121</ele>
        <time>2018-10-13T09:13:49Z</time>
      </trkpt>
      <trkpt lat="43.38315" lon="6.64848">
        <ele>57.200000762939</ele>
        <time>2018-10-13T09:13:51Z</time>
      </trkpt>
      <trkpt lat="43.38311" lon="6.64838">
        <ele>56.599998474121</ele>
        <time>2018-10-13T09:13:55Z</time>
      </trkpt>
      <trkpt lat="43.3831" lon="6.64834">
        <ele>56.200000762939</ele>
        <time>2018-10-13T09:13:59Z</time>
      </trkpt>
      <trkpt lat="43.38312" lon="6.64824">
        <ele>55.200000762939</ele>
        <time>2018-10-13T09:14:08Z</time>
      </trkpt>
      <trkpt lat="43.38311" lon="6.64819">
        <ele>55</ele>
        <time>2018-10-13T09:14:10Z</time>
      </trkpt>
      <trkpt lat="43.38309" lon="6.64814">
        <ele>55.200000762939</ele>
        <time>2018-10-13T09:14:12Z</time>
      </trkpt>
      <trkpt lat="43.38297" lon="6.64811">
        <ele>54.799999237061</ele>
        <time>2018-10-13T09:14:18Z</time>
      </trkpt>
      <trkpt lat="43.38296" lon="6.6481">
        <ele>54.799999237061</ele>
        <time>2018-10-13T09:14:19Z</time>
      </trkpt>
      <trkpt lat="43.38293" lon="6.64809">
        <ele>54.799999237061</ele>
        <time>2018-10-13T09:14:21Z</time>
      </trkpt>
      <trkpt lat="43.3829" lon="6.64808">
        <ele>54.599998474121</ele>
        <time>2018-10-13T09:14:23Z</time>
      </trkpt>
      <trkpt lat="43.38286" lon="6.64806">
        <ele>54.599998474121</ele>
        <time>2018-10-13T09:14:28Z</time>
      </trkpt>
      <trkpt lat="43.38271" lon="6.6479">
        <ele>55.200000762939</ele>
        <time>2018-10-13T09:14:54Z</time>
      </trkpt>
      <trkpt lat="43.38269" lon="6.64787">
        <ele>55.400001525879</ele>
        <time>2018-10-13T09:14:56Z</time>
      </trkpt>
      <trkpt lat="43.38263" lon="6.64783">
        <ele>55.400001525879</ele>
        <time>2018-10-13T09:15:00Z</time>
      </trkpt>
      <trkpt lat="43.38249" lon="6.64776">
        <ele>55.400001525879</ele>
        <time>2018-10-13T09:15:05Z</time>
      </trkpt>
      <trkpt lat="43.38231" lon="6.64771">
        <ele>55.599998474121</ele>
        <time>2018-10-13T09:15:11Z</time>
      </trkpt>
      <trkpt lat="43.38221" lon="6.6477">
        <ele>55.799999237061</ele>
        <time>2018-10-13T09:15:16Z</time>
      </trkpt>
      <trkpt lat="43.38208" lon="6.6477">
        <ele>56.400001525879</ele>
        <time>2018-10-13T09:15:25Z</time>
      </trkpt>
      <trkpt lat="43.38204" lon="6.64769">
        <ele>56.599998474121</ele>
        <time>2018-10-13T09:15:28Z</time>
      </trkpt>
      <trkpt lat="43.382" lon="6.64768">
        <ele>56.599998474121</ele>
        <time>2018-10-13T09:15:31Z</time>
      </trkpt>
      <trkpt lat="43.38198" lon="6.64769">
        <ele>56.799999237061</ele>
        <time>2018-10-13T09:15:33Z</time>
      </trkpt>
      <trkpt lat="43.38195" lon="6.64768">
        <ele>57</ele>
        <time>2018-10-13T09:15:35Z</time>
      </trkpt>
      <trkpt lat="43.38185" lon="6.64769">
        <ele>57.799999237061</ele>
        <time>2018-10-13T09:15:42Z</time>
      </trkpt>
      <trkpt lat="43.38177" lon="6.64769">
        <ele>58.400001525879</ele>
        <time>2018-10-13T09:15:48Z</time>
      </trkpt>
      <trkpt lat="43.38175" lon="6.64767">
        <ele>58.799999237061</ele>
        <time>2018-10-13T09:15:50Z</time>
      </trkpt>
      <trkpt lat="43.38173" lon="6.64766">
        <ele>58.599998474121</ele>
        <time>2018-10-13T09:15:55Z</time>
      </trkpt>
      <trkpt lat="43.38169" lon="6.64766">
        <ele>59</ele>
        <time>2018-10-13T09:16:01Z</time>
      </trkpt>
      <trkpt lat="43.38168" lon="6.64765">
        <ele>59.400001525879</ele>
        <time>2018-10-13T09:16:04Z</time>
      </trkpt>
      <trkpt lat="43.38146" lon="6.64757">
        <ele>63.200000762939</ele>
        <time>2018-10-13T09:16:34Z</time>
      </trkpt>
      <trkpt lat="43.38137" lon="6.64756">
        <ele>64.199996948242</ele>
        <time>2018-10-13T09:16:41Z</time>
      </trkpt>
      <trkpt lat="43.3813" lon="6.64754">
        <ele>65</ele>
        <time>2018-10-13T09:16:48Z</time>
      </trkpt>
      <trkpt lat="43.38125" lon="6.64753">
        <ele>65.599998474121</ele>
        <time>2018-10-13T09:16:54Z</time>
      </trkpt>
      <trkpt lat="43.38123" lon="6.64755">
        <ele>65.800003051758</ele>
        <time>2018-10-13T09:16:56Z</time>
      </trkpt>
      <trkpt lat="43.38118" lon="6.64755">
        <ele>66.599998474121</ele>
        <time>2018-10-13T09:17:02Z</time>
      </trkpt>
      <trkpt lat="43.38111" lon="6.64757">
        <ele>67.199996948242</ele>
        <time>2018-10-13T09:17:09Z</time>
      </trkpt>
      <trkpt lat="43.381" lon="6.64758">
        <ele>68</ele>
        <time>2018-10-13T09:17:17Z</time>
      </trkpt>
      <trkpt lat="43.38097" lon="6.64757">
        <ele>68.599998474121</ele>
        <time>2018-10-13T09:17:23Z</time>
      </trkpt>
      <trkpt lat="43.38095" lon="6.64756">
        <ele>68.800003051758</ele>
        <time>2018-10-13T09:17:25Z</time>
      </trkpt>
      <trkpt lat="43.38093" lon="6.64752">
        <ele>69</ele>
        <time>2018-10-13T09:17:27Z</time>
      </trkpt>
      <trkpt lat="43.38091" lon="6.6475">
        <ele>69.199996948242</ele>
        <time>2018-10-13T09:17:28Z</time>
      </trkpt>
      <trkpt lat="43.38085" lon="6.64737">
        <ele>69.599998474121</ele>
        <time>2018-10-13T09:17:33Z</time>
      </trkpt>
      <trkpt lat="43.38079" lon="6.64715">
        <ele>70</ele>
        <time>2018-10-13T09:17:39Z</time>
      </trkpt>
      <trkpt lat="43.3808" lon="6.64691">
        <ele>70.199996948242</ele>
        <time>2018-10-13T09:17:44Z</time>
      </trkpt>
      <trkpt lat="43.38083" lon="6.64673">
        <ele>70.599998474121</ele>
        <time>2018-10-13T09:17:48Z</time>
      </trkpt>
      <trkpt lat="43.38086" lon="6.64665">
        <ele>70.599998474121</ele>
        <time>2018-10-13T09:17:50Z</time>
      </trkpt>
      <trkpt lat="43.38089" lon="6.64656">
        <ele>70.800003051758</ele>
        <time>2018-10-13T09:17:52Z</time>
      </trkpt>
      <trkpt lat="43.38093" lon="6.64641">
        <ele>71</ele>
        <time>2018-10-13T09:17:57Z</time>
      </trkpt>
      <trkpt lat="43.38096" lon="6.64631">
        <ele>71.199996948242</ele>
        <time>2018-10-13T09:18:01Z</time>
      </trkpt>
      <trkpt lat="43.38097" lon="6.64625">
        <ele>71.599998474121</ele>
        <time>2018-10-13T09:18:04Z</time>
      </trkpt>
      <trkpt lat="43.38099" lon="6.64619">
        <ele>71.800003051758</ele>
        <time>2018-10-13T09:18:06Z</time>
      </trkpt>
      <trkpt lat="43.38099" lon="6.64603">
        <ele>72.199996948242</ele>
        <time>2018-10-13T09:18:11Z</time>
      </trkpt>
      <trkpt lat="43.38099" lon="6.64599">
        <ele>72.199996948242</ele>
        <time>2018-10-13T09:18:12Z</time>
      </trkpt>
      <trkpt lat="43.38101" lon="6.64592">
        <ele>72.199996948242</ele>
        <time>2018-10-13T09:18:14Z</time>
      </trkpt>
      <trkpt lat="43.38103" lon="6.64589">
        <ele>72.199996948242</ele>
        <time>2018-10-13T09:18:15Z</time>
      </trkpt>
      <trkpt lat="43.38111" lon="6.64587">
        <ele>72.599998474121</ele>
        <time>2018-10-13T09:18:19Z</time>
      </trkpt>
      <trkpt lat="43.38121" lon="6.6459">
        <ele>73.400001525879</ele>
        <time>2018-10-13T09:18:25Z</time>
      </trkpt>
      <trkpt lat="43.38129" lon="6.64592">
        <ele>74.199996948242</ele>
        <time>2018-10-13T09:18:31Z</time>
      </trkpt>
      <trkpt lat="43.38131" lon="6.64591">
        <ele>74.199996948242</ele>
        <time>2018-10-13T09:18:33Z</time>
      </trkpt>
      <trkpt lat="43.38135" lon="6.64584">
        <ele>74.599998474121</ele>
        <time>2018-10-13T09:18:37Z</time>
      </trkpt>
      <trkpt lat="43.38143" lon="6.64578">
        <ele>75</ele>
        <time>2018-10-13T09:18:43Z</time>
      </trkpt>
      <trkpt lat="43.38151" lon="6.64575">
        <ele>75.599998474121</ele>
        <time>2018-10-13T09:18:49Z</time>
      </trkpt>
      <trkpt lat="43.38157" lon="6.64568">
        <ele>76.599998474121</ele>
        <time>2018-10-13T09:18:55Z</time>
      </trkpt>
      <trkpt lat="43.38163" lon="6.64559">
        <ele>77.800003051758</ele>
        <time>2018-10-13T09:19:02Z</time>
      </trkpt>
      <trkpt lat="43.3817" lon="6.64552">
        <ele>79.199996948242</ele>
        <time>2018-10-13T09:19:10Z</time>
      </trkpt>
      <trkpt lat="43.38173" lon="6.64547">
        <ele>79.599998474121</ele>
        <time>2018-10-13T09:19:14Z</time>
      </trkpt>
      <trkpt lat="43.38174" lon="6.64543">
        <ele>79.800003051758</ele>
        <time>2018-10-13T09:19:16Z</time>
      </trkpt>
      <trkpt lat="43.38175" lon="6.64534">
        <ele>80.400001525879</ele>
        <time>2018-10-13T09:19:20Z</time>
      </trkpt>
      <trkpt lat="43.38177" lon="6.64528">
        <ele>80.599998474121</ele>
        <time>2018-10-13T09:19:23Z</time>
      </trkpt>
      <trkpt lat="43.3818" lon="6.64526">
        <ele>81.199996948242</ele>
        <time>2018-10-13T09:19:26Z</time>
      </trkpt>
      <trkpt lat="43.38186" lon="6.64519">
        <ele>82.400001525879</ele>
        <time>2018-10-13T09:19:33Z</time>
      </trkpt>
      <trkpt lat="43.38186" lon="6.64518">
        <ele>82.400001525879</ele>
        <time>2018-10-13T09:19:34Z</time>
      </trkpt>
      <trkpt lat="43.38186" lon="6.6451">
        <ele>83.199996948242</ele>
        <time>2018-10-13T09:19:39Z</time>
      </trkpt>
      <trkpt lat="43.38186" lon="6.64507">
        <ele>83.599998474121</ele>
        <time>2018-10-13T09:19:41Z</time>
      </trkpt>
      <trkpt lat="43.3819" lon="6.64498">
        <ele>84.800003051758</ele>
        <time>2018-10-13T09:19:48Z</time>
      </trkpt>
      <trkpt lat="43.38194" lon="6.64495">
        <ele>85.400001525879</ele>
        <time>2018-10-13T09:19:51Z</time>
      </trkpt>
      <trkpt lat="43.38196" lon="6.64495">
        <ele>85.599998474121</ele>
        <time>2018-10-13T09:19:53Z</time>
      </trkpt>
      <trkpt lat="43.38197" lon="6.64495">
        <ele>85.800003051758</ele>
        <time>2018-10-13T09:19:54Z</time>
      </trkpt>
      <trkpt lat="43.38204" lon="6.64491">
        <ele>86.800003051758</ele>
        <time>2018-10-13T09:20:00Z</time>
      </trkpt>
      <trkpt lat="43.38204" lon="6.64482">
        <ele>87.400001525879</ele>
        <time>2018-10-13T09:20:04Z</time>
      </trkpt>
      <trkpt lat="43.38207" lon="6.64469">
        <ele>88</ele>
        <time>2018-10-13T09:20:09Z</time>
      </trkpt>
      <trkpt lat="43.38208" lon="6.64454">
        <ele>88.400001525879</ele>
        <time>2018-10-13T09:20:13Z</time>
      </trkpt>
      <trkpt lat="43.38204" lon="6.6443">
        <ele>89.599998474121</ele>
        <time>2018-10-13T09:20:21Z</time>
      </trkpt>
      <trkpt lat="43.38201" lon="6.64408">
        <ele>90</ele>
        <time>2018-10-13T09:20:26Z</time>
      </trkpt>
      <trkpt lat="43.38201" lon="6.64402">
        <ele>90.199996948242</ele>
        <time>2018-10-13T09:20:27Z</time>
      </trkpt>
      <trkpt lat="43.38206" lon="6.64384">
        <ele>90.400001525879</ele>
        <time>2018-10-13T09:20:30Z</time>
      </trkpt>
      <trkpt lat="43.38208" lon="6.64378">
        <ele>90.400001525879</ele>
        <time>2018-10-13T09:20:31Z</time>
      </trkpt>
      <trkpt lat="43.38216" lon="6.64359">
        <ele>90.599998474121</ele>
        <time>2018-10-13T09:20:34Z</time>
      </trkpt>
      <trkpt lat="43.38218" lon="6.64351">
        <ele>90.599998474121</ele>
        <time>2018-10-13T09:20:35Z</time>
      </trkpt>
      <trkpt lat="43.38217" lon="6.64343">
        <ele>90.800003051758</ele>
        <time>2018-10-13T09:20:36Z</time>
      </trkpt>
      <trkpt lat="43.38214" lon="6.64338">
        <ele>90.800003051758</ele>
        <time>2018-10-13T09:20:37Z</time>
      </trkpt>
      <trkpt lat="43.38209" lon="6.64334">
        <ele>90.800003051758</ele>
        <time>2018-10-13T09:20:38Z</time>
      </trkpt>
      <trkpt lat="43.38203" lon="6.64333">
        <ele>90.800003051758</ele>
        <time>2018-10-13T09:20:39Z</time>
      </trkpt>
      <trkpt lat="43.38197" lon="6.64335">
        <ele>90.800003051758</ele>
        <time>2018-10-13T09:20:40Z</time>
      </trkpt>
      <trkpt lat="43.38185" lon="6.64345">
        <ele>90.599998474121</ele>
        <time>2018-10-13T09:20:42Z</time>
      </trkpt>
      <trkpt lat="43.3816" lon="6.6437">
        <ele>90.199996948242</ele>
        <time>2018-10-13T09:20:46Z</time>
      </trkpt>
      <trkpt lat="43.38144" lon="6.64406">
        <ele>90</ele>
        <time>2018-10-13T09:20:50Z</time>
      </trkpt>
      <trkpt lat="43.38136" lon="6.64425">
        <ele>89.800003051758</ele>
        <time>2018-10-13T09:20:52Z</time>
      </trkpt>
      <trkpt lat="43.38125" lon="6.64438">
        <ele>89.400001525879</ele>
        <time>2018-10-13T09:20:54Z</time>
      </trkpt>
      <trkpt lat="43.3811" lon="6.64442">
        <ele>89</ele>
        <time>2018-10-13T09:20:56Z</time>
      </trkpt>
      <trkpt lat="43.38103" lon="6.64439">
        <ele>88.800003051758</ele>
        <time>2018-10-13T09:20:57Z</time>
      </trkpt>
      <trkpt lat="43.38096" lon="6.64433">
        <ele>88.800003051758</ele>
        <time>2018-10-13T09:20:58Z</time>
      </trkpt>
      <trkpt lat="43.3808" lon="6.64424">
        <ele>88.400001525879</ele>
        <time>2018-10-13T09:21:00Z</time>
      </trkpt>
      <trkpt lat="43.38063" lon="6.64422">
        <ele>88</ele>
        <time>2018-10-13T09:21:02Z</time>
      </trkpt>
      <trkpt lat="43.38055" lon="6.64425">
        <ele>88</ele>
        <time>2018-10-13T09:21:03Z</time>
      </trkpt>
      <trkpt lat="43.38048" lon="6.6443">
        <ele>88</ele>
        <time>2018-10-13T09:21:04Z</time>
      </trkpt>
      <trkpt lat="43.38036" lon="6.64445">
        <ele>87.800003051758</ele>
        <time>2018-10-13T09:21:06Z</time>
      </trkpt>
      <trkpt lat="43.38022" lon="6.64455">
        <ele>87.599998474121</ele>
        <time>2018-10-13T09:21:08Z</time>
      </trkpt>
      <trkpt lat="43.38015" lon="6.64456">
        <ele>87.599998474121</ele>
        <time>2018-10-13T09:21:09Z</time>
      </trkpt>
      <trkpt lat="43.38008" lon="6.64455">
        <ele>87.599998474121</ele>
        <time>2018-10-13T09:21:10Z</time>
      </trkpt>
      <trkpt lat="43.37979" lon="6.64449">
        <ele>87.400001525879</ele>
        <time>2018-10-13T09:21:14Z</time>
      </trkpt>
      <trkpt lat="43.37951" lon="6.64445">
        <ele>87</ele>
        <time>2018-10-13T09:21:18Z</time>
      </trkpt>
      <trkpt lat="43.37945" lon="6.64447">
        <ele>87</ele>
        <time>2018-10-13T09:21:19Z</time>
      </trkpt>
      <trkpt lat="43.37915" lon="6.64451">
        <ele>86.599998474121</ele>
        <time>2018-10-13T09:21:24Z</time>
      </trkpt>
      <trkpt lat="43.37897" lon="6.64456">
        <ele>86.400001525879</ele>
        <time>2018-10-13T09:21:28Z</time>
      </trkpt>
      <trkpt lat="43.37893" lon="6.64457">
        <ele>86.400001525879</ele>
        <time>2018-10-13T09:21:29Z</time>
      </trkpt>
      <trkpt lat="43.37879" lon="6.64455">
        <ele>85.800003051758</ele>
        <time>2018-10-13T09:21:34Z</time>
      </trkpt>
      <trkpt lat="43.37871" lon="6.64459">
        <ele>85.599998474121</ele>
        <time>2018-10-13T09:21:38Z</time>
      </trkpt>
      <trkpt lat="43.37858" lon="6.64468">
        <ele>85.199996948242</ele>
        <time>2018-10-13T09:21:44Z</time>
      </trkpt>
      <trkpt lat="43.37844" lon="6.64481">
        <ele>84.800003051758</ele>
        <time>2018-10-13T09:21:50Z</time>
      </trkpt>
      <trkpt lat="43.37828" lon="6.64489">
        <ele>84.400001525879</ele>
        <time>2018-10-13T09:21:56Z</time>
      </trkpt>
      <trkpt lat="43.37815" lon="6.64496">
        <ele>84</ele>
        <time>2018-10-13T09:22:03Z</time>
      </trkpt>
      <trkpt lat="43.37812" lon="6.64499">
        <ele>84</ele>
        <time>2018-10-13T09:22:05Z</time>
      </trkpt>
      <trkpt lat="43.37808" lon="6.64503">
        <ele>83.800003051758</ele>
        <time>2018-10-13T09:22:08Z</time>
      </trkpt>
      <trkpt lat="43.37804" lon="6.64506">
        <ele>83.599998474121</ele>
        <time>2018-10-13T09:22:14Z</time>
      </trkpt>
      <trkpt lat="43.37791" lon="6.64512">
        <ele>83.800003051758</ele>
        <time>2018-10-13T09:22:35Z</time>
      </trkpt>
      <trkpt lat="43.37787" lon="6.64512">
        <ele>83.800003051758</ele>
        <time>2018-10-13T09:22:37Z</time>
      </trkpt>
      <trkpt lat="43.37786" lon="6.64513">
        <ele>83.800003051758</ele>
        <time>2018-10-13T09:22:38Z</time>
      </trkpt>
      <trkpt lat="43.37779" lon="6.64517">
        <ele>83.800003051758</ele>
        <time>2018-10-13T09:22:42Z</time>
      </trkpt>
      <trkpt lat="43.37767" lon="6.64524">
        <ele>83.800003051758</ele>
        <time>2018-10-13T09:22:48Z</time>
      </trkpt>
      <trkpt lat="43.37765" lon="6.64529">
        <ele>83.800003051758</ele>
        <time>2018-10-13T09:22:50Z</time>
      </trkpt>
      <trkpt lat="43.37761" lon="6.64534">
        <ele>83.800003051758</ele>
        <time>2018-10-13T09:22:53Z</time>
      </trkpt>
      <trkpt lat="43.37756" lon="6.64545">
        <ele>84</ele>
        <time>2018-10-13T09:22:59Z</time>
      </trkpt>
      <trkpt lat="43.37754" lon="6.64548">
        <ele>84</ele>
        <time>2018-10-13T09:23:01Z</time>
      </trkpt>
      <trkpt lat="43.37753" lon="6.64555">
        <ele>84.199996948242</ele>
        <time>2018-10-13T09:23:05Z</time>
      </trkpt>
      <trkpt lat="43.37751" lon="6.6456">
        <ele>84.599998474121</ele>
        <time>2018-10-13T09:23:08Z</time>
      </trkpt>
      <trkpt lat="43.37747" lon="6.64567">
        <ele>85</ele>
        <time>2018-10-13T09:23:12Z</time>
      </trkpt>
      <trkpt lat="43.37743" lon="6.64573">
        <ele>85.400001525879</ele>
        <time>2018-10-13T09:23:16Z</time>
      </trkpt>
      <trkpt lat="43.37741" lon="6.64576">
        <ele>85.400001525879</ele>
        <time>2018-10-13T09:23:18Z</time>
      </trkpt>
      <trkpt lat="43.37734" lon="6.64584">
        <ele>85.599998474121</ele>
        <time>2018-10-13T09:23:24Z</time>
      </trkpt>
      <trkpt lat="43.37723" lon="6.64591">
        <ele>86.199996948242</ele>
        <time>2018-10-13T09:23:31Z</time>
      </trkpt>
      <trkpt lat="43.37706" lon="6.64596">
        <ele>86.599998474121</ele>
        <time>2018-10-13T09:23:39Z</time>
      </trkpt>
      <trkpt lat="43.37688" lon="6.64601">
        <ele>87</ele>
        <time>2018-10-13T09:23:46Z</time>
      </trkpt>
      <trkpt lat="43.37672" lon="6.64596">
        <ele>87.400001525879</ele>
        <time>2018-10-13T09:23:53Z</time>
      </trkpt>
      <trkpt lat="43.37657" lon="6.6459">
        <ele>88.199996948242</ele>
        <time>2018-10-13T09:24:00Z</time>
      </trkpt>
      <trkpt lat="43.37644" lon="6.64581">
        <ele>88.599998474121</ele>
        <time>2018-10-13T09:24:06Z</time>
      </trkpt>
      <trkpt lat="43.37627" lon="6.64577">
        <ele>88.599998474121</ele>
        <time>2018-10-13T09:24:11Z</time>
      </trkpt>
      <trkpt lat="43.37601" lon="6.64582">
        <ele>89</ele>
        <time>2018-10-13T09:24:18Z</time>
      </trkpt>
      <trkpt lat="43.3758" lon="6.64591">
        <ele>89</ele>
        <time>2018-10-13T09:24:24Z</time>
      </trkpt>
      <trkpt lat="43.3756" lon="6.64605">
        <ele>89.199996948242</ele>
        <time>2018-10-13T09:24:30Z</time>
      </trkpt>
      <trkpt lat="43.37543" lon="6.64618">
        <ele>89</ele>
        <time>2018-10-13T09:24:36Z</time>
      </trkpt>
      <trkpt lat="43.37523" lon="6.64636">
        <ele>89</ele>
        <time>2018-10-13T09:24:43Z</time>
      </trkpt>
      <trkpt lat="43.37507" lon="6.64649">
        <ele>89.199996948242</ele>
        <time>2018-10-13T09:24:49Z</time>
      </trkpt>
      <trkpt lat="43.37491" lon="6.64661">
        <ele>89.400001525879</ele>
        <time>2018-10-13T09:24:55Z</time>
      </trkpt>
      <trkpt lat="43.37481" lon="6.6467">
        <ele>89.800003051758</ele>
        <time>2018-10-13T09:25:00Z</time>
      </trkpt>
      <trkpt lat="43.37467" lon="6.6468">
        <ele>90</ele>
        <time>2018-10-13T09:25:06Z</time>
      </trkpt>
      <trkpt lat="43.3745" lon="6.64694">
        <ele>90.199996948242</ele>
        <time>2018-10-13T09:25:13Z</time>
      </trkpt>
      <trkpt lat="43.37437" lon="6.64705">
        <ele>90.400001525879</ele>
        <time>2018-10-13T09:25:19Z</time>
      </trkpt>
      <trkpt lat="43.3742" lon="6.64719">
        <ele>90.400001525879</ele>
        <time>2018-10-13T09:25:26Z</time>
      </trkpt>
      <trkpt lat="43.374" lon="6.64735">
        <ele>90.800003051758</ele>
        <time>2018-10-13T09:25:34Z</time>
      </trkpt>
      <trkpt lat="43.3738" lon="6.64754">
        <ele>91</ele>
        <time>2018-10-13T09:25:41Z</time>
      </trkpt>
      <trkpt lat="43.37366" lon="6.64766">
        <ele>91.199996948242</ele>
        <time>2018-10-13T09:25:46Z</time>
      </trkpt>
      <trkpt lat="43.37347" lon="6.64768">
        <ele>91.400001525879</ele>
        <time>2018-10-13T09:25:51Z</time>
      </trkpt>
      <trkpt lat="43.37326" lon="6.64767">
        <ele>91.800003051758</ele>
        <time>2018-10-13T09:25:57Z</time>
      </trkpt>
      <trkpt lat="43.37306" lon="6.6477">
        <ele>91.800003051758</ele>
        <time>2018-10-13T09:26:03Z</time>
      </trkpt>
      <trkpt lat="43.37289" lon="6.64772">
        <ele>91.800003051758</ele>
        <time>2018-10-13T09:26:08Z</time>
      </trkpt>
      <trkpt lat="43.37286" lon="6.64772">
        <ele>92</ele>
        <time>2018-10-13T09:26:09Z</time>
      </trkpt>
      <trkpt lat="43.3728" lon="6.64769">
        <ele>92.199996948242</ele>
        <time>2018-10-13T09:26:12Z</time>
      </trkpt>
      <trkpt lat="43.37276" lon="6.64764">
        <ele>92.400001525879</ele>
        <time>2018-10-13T09:26:15Z</time>
      </trkpt>
      <trkpt lat="43.37273" lon="6.64762">
        <ele>92.599998474121</ele>
        <time>2018-10-13T09:26:17Z</time>
      </trkpt>
      <trkpt lat="43.37266" lon="6.64756">
        <ele>93</ele>
        <time>2018-10-13T09:26:22Z</time>
      </trkpt>
      <trkpt lat="43.37265" lon="6.64754">
        <ele>93.199996948242</ele>
        <time>2018-10-13T09:26:23Z</time>
      </trkpt>
      <trkpt lat="43.37261" lon="6.64748">
        <ele>93.599998474121</ele>
        <time>2018-10-13T09:26:27Z</time>
      </trkpt>
      <trkpt lat="43.37251" lon="6.64733">
        <ele>94.199996948242</ele>
        <time>2018-10-13T09:26:34Z</time>
      </trkpt>
      <trkpt lat="43.37239" lon="6.64714">
        <ele>94.599998474121</ele>
        <time>2018-10-13T09:26:41Z</time>
      </trkpt>
      <trkpt lat="43.37232" lon="6.64701">
        <ele>94.800003051758</ele>
        <time>2018-10-13T09:26:45Z</time>
      </trkpt>
      <trkpt lat="43.3722" lon="6.64694">
        <ele>95.400001525879</ele>
        <time>2018-10-13T09:26:50Z</time>
      </trkpt>
      <trkpt lat="43.3721" lon="6.64698">
        <ele>95.599998474121</ele>
        <time>2018-10-13T09:26:54Z</time>
      </trkpt>
      <trkpt lat="43.37197" lon="6.64701">
        <ele>95.800003051758</ele>
        <time>2018-10-13T09:27:00Z</time>
      </trkpt>
      <trkpt lat="43.37184" lon="6.64704">
        <ele>96</ele>
        <time>2018-10-13T09:27:06Z</time>
      </trkpt>
      <trkpt lat="43.37172" lon="6.64712">
        <ele>96.199996948242</ele>
        <time>2018-10-13T09:27:12Z</time>
      </trkpt>
      <trkpt lat="43.37157" lon="6.64719">
        <ele>96.800003051758</ele>
        <time>2018-10-13T09:27:19Z</time>
      </trkpt>
      <trkpt lat="43.37139" lon="6.64727">
        <ele>97.199996948242</ele>
        <time>2018-10-13T09:27:26Z</time>
      </trkpt>
      <trkpt lat="43.37123" lon="6.64734">
        <ele>97.400001525879</ele>
        <time>2018-10-13T09:27:32Z</time>
      </trkpt>
      <trkpt lat="43.37104" lon="6.64743">
        <ele>97.599998474121</ele>
        <time>2018-10-13T09:27:39Z</time>
      </trkpt>
      <trkpt lat="43.37086" lon="6.64754">
        <ele>97.800003051758</ele>
        <time>2018-10-13T09:27:46Z</time>
      </trkpt>
      <trkpt lat="43.3707" lon="6.64766">
        <ele>98.400001525879</ele>
        <time>2018-10-13T09:27:53Z</time>
      </trkpt>
      <trkpt lat="43.37056" lon="6.6477">
        <ele>98.599998474121</ele>
        <time>2018-10-13T09:27:58Z</time>
      </trkpt>
      <trkpt lat="43.37045" lon="6.64774">
        <ele>99</ele>
        <time>2018-10-13T09:28:02Z</time>
      </trkpt>
      <trkpt lat="43.37029" lon="6.64775">
        <ele>99.400001525879</ele>
        <time>2018-10-13T09:28:08Z</time>
      </trkpt>
      <trkpt lat="43.37009" lon="6.64772">
        <ele>100</ele>
        <time>2018-10-13T09:28:15Z</time>
      </trkpt>
      <trkpt lat="43.36993" lon="6.64763">
        <ele>100.40000152588</ele>
        <time>2018-10-13T09:28:20Z</time>
      </trkpt>
      <trkpt lat="43.36971" lon="6.64759">
        <ele>100.80000305176</ele>
        <time>2018-10-13T09:28:27Z</time>
      </trkpt>
      <trkpt lat="43.36953" lon="6.6476">
        <ele>101</ele>
        <time>2018-10-13T09:28:33Z</time>
      </trkpt>
      <trkpt lat="43.36934" lon="6.64765">
        <ele>101.40000152588</ele>
        <time>2018-10-13T09:28:39Z</time>
      </trkpt>
      <trkpt lat="43.36916" lon="6.6477">
        <ele>101.40000152588</ele>
        <time>2018-10-13T09:28:45Z</time>
      </trkpt>
      <trkpt lat="43.36899" lon="6.64782">
        <ele>101.80000305176</ele>
        <time>2018-10-13T09:28:52Z</time>
      </trkpt>
      <trkpt lat="43.36886" lon="6.64794">
        <ele>102.40000152588</ele>
        <time>2018-10-13T09:28:59Z</time>
      </trkpt>
      <trkpt lat="43.36874" lon="6.64815">
        <ele>103.19999694824</ele>
        <time>2018-10-13T09:29:06Z</time>
      </trkpt>
      <trkpt lat="43.36873" lon="6.64818">
        <ele>103.19999694824</ele>
        <time>2018-10-13T09:29:07Z</time>
      </trkpt>
      <trkpt lat="43.36874" lon="6.64831">
        <ele>103.40000152588</ele>
        <time>2018-10-13T09:29:11Z</time>
      </trkpt>
      <trkpt lat="43.36869" lon="6.64847">
        <ele>104</ele>
        <time>2018-10-13T09:29:17Z</time>
      </trkpt>
      <trkpt lat="43.36863" lon="6.6486">
        <ele>104.59999847412</ele>
        <time>2018-10-13T09:29:23Z</time>
      </trkpt>
      <trkpt lat="43.36852" lon="6.64864">
        <ele>105</ele>
        <time>2018-10-13T09:29:28Z</time>
      </trkpt>
      <trkpt lat="43.36835" lon="6.64866">
        <ele>105.19999694824</ele>
        <time>2018-10-13T09:29:34Z</time>
      </trkpt>
      <trkpt lat="43.36815" lon="6.64873">
        <ele>105.40000152588</ele>
        <time>2018-10-13T09:29:42Z</time>
      </trkpt>
      <trkpt lat="43.368" lon="6.64876">
        <ele>105.80000305176</ele>
        <time>2018-10-13T09:29:48Z</time>
      </trkpt>
      <trkpt lat="43.36787" lon="6.64878">
        <ele>106</ele>
        <time>2018-10-13T09:29:54Z</time>
      </trkpt>
      <trkpt lat="43.36764" lon="6.64879">
        <ele>106.19999694824</ele>
        <time>2018-10-13T09:30:03Z</time>
      </trkpt>
      <trkpt lat="43.36747" lon="6.64879">
        <ele>106.59999847412</ele>
        <time>2018-10-13T09:30:09Z</time>
      </trkpt>
      <trkpt lat="43.36735" lon="6.64881">
        <ele>107.19999694824</ele>
        <time>2018-10-13T09:30:14Z</time>
      </trkpt>
      <trkpt lat="43.36714" lon="6.64888">
        <ele>107.59999847412</ele>
        <time>2018-10-13T09:30:22Z</time>
      </trkpt>
      <trkpt lat="43.36699" lon="6.64895">
        <ele>108</ele>
        <time>2018-10-13T09:30:29Z</time>
      </trkpt>
      <trkpt lat="43.3668" lon="6.64905">
        <ele>108.40000152588</ele>
        <time>2018-10-13T09:30:37Z</time>
      </trkpt>
      <trkpt lat="43.36662" lon="6.64912">
        <ele>109</ele>
        <time>2018-10-13T09:30:44Z</time>
      </trkpt>
      <trkpt lat="43.36646" lon="6.64921">
        <ele>109.40000152588</ele>
        <time>2018-10-13T09:30:51Z</time>
      </trkpt>
      <trkpt lat="43.36627" lon="6.6493">
        <ele>109.59999847412</ele>
        <time>2018-10-13T09:30:57Z</time>
      </trkpt>
      <trkpt lat="43.36608" lon="6.64941">
        <ele>109.80000305176</ele>
        <time>2018-10-13T09:31:03Z</time>
      </trkpt>
      <trkpt lat="43.36586" lon="6.64959">
        <ele>110</ele>
        <time>2018-10-13T09:31:11Z</time>
      </trkpt>
      <trkpt lat="43.36572" lon="6.64975">
        <ele>110.80000305176</ele>
        <time>2018-10-13T09:31:19Z</time>
      </trkpt>
      <trkpt lat="43.36567" lon="6.64989">
        <ele>111.40000152588</ele>
        <time>2018-10-13T09:31:25Z</time>
      </trkpt>
      <trkpt lat="43.36566" lon="6.65009">
        <ele>112</ele>
        <time>2018-10-13T09:31:31Z</time>
      </trkpt>
      <trkpt lat="43.36567" lon="6.65031">
        <ele>112.59999847412</ele>
        <time>2018-10-13T09:31:37Z</time>
      </trkpt>
      <trkpt lat="43.36569" lon="6.65057">
        <ele>113.19999694824</ele>
        <time>2018-10-13T09:31:44Z</time>
      </trkpt>
      <trkpt lat="43.36571" lon="6.65081">
        <ele>113.80000305176</ele>
        <time>2018-10-13T09:31:50Z</time>
      </trkpt>
      <trkpt lat="43.36575" lon="6.65103">
        <ele>114.19999694824</ele>
        <time>2018-10-13T09:31:56Z</time>
      </trkpt>
      <trkpt lat="43.36582" lon="6.65124">
        <ele>115</ele>
        <time>2018-10-13T09:32:02Z</time>
      </trkpt>
      <trkpt lat="43.36585" lon="6.65146">
        <ele>115.59999847412</ele>
        <time>2018-10-13T09:32:08Z</time>
      </trkpt>
      <trkpt lat="43.36588" lon="6.6517">
        <ele>116.59999847412</ele>
        <time>2018-10-13T09:32:15Z</time>
      </trkpt>
      <trkpt lat="43.36591" lon="6.65197">
        <ele>117.40000152588</ele>
        <time>2018-10-13T09:32:23Z</time>
      </trkpt>
      <trkpt lat="43.36588" lon="6.65216">
        <ele>118.40000152588</ele>
        <time>2018-10-13T09:32:28Z</time>
      </trkpt>
      <trkpt lat="43.36587" lon="6.65242">
        <ele>119</ele>
        <time>2018-10-13T09:32:35Z</time>
      </trkpt>
      <trkpt lat="43.36583" lon="6.65264">
        <ele>119.59999847412</ele>
        <time>2018-10-13T09:32:42Z</time>
      </trkpt>
      <trkpt lat="43.36582" lon="6.65287">
        <ele>120</ele>
        <time>2018-10-13T09:32:49Z</time>
      </trkpt>
      <trkpt lat="43.36584" lon="6.65303">
        <ele>120.40000152588</ele>
        <time>2018-10-13T09:32:54Z</time>
      </trkpt>
      <trkpt lat="43.36593" lon="6.65327">
        <ele>121.59999847412</ele>
        <time>2018-10-13T09:33:02Z</time>
      </trkpt>
      <trkpt lat="43.36597" lon="6.65344">
        <ele>122.19999694824</ele>
        <time>2018-10-13T09:33:07Z</time>
      </trkpt>
      <trkpt lat="43.36596" lon="6.65356">
        <ele>122.19999694824</ele>
        <time>2018-10-13T09:33:10Z</time>
      </trkpt>
      <trkpt lat="43.36596" lon="6.6536">
        <ele>122.40000152588</ele>
        <time>2018-10-13T09:33:11Z</time>
      </trkpt>
      <trkpt lat="43.36597" lon="6.65363">
        <ele>122.40000152588</ele>
        <time>2018-10-13T09:33:12Z</time>
      </trkpt>
      <trkpt lat="43.36596" lon="6.65374">
        <ele>122.80000305176</ele>
        <time>2018-10-13T09:33:15Z</time>
      </trkpt>
      <trkpt lat="43.36597" lon="6.6539">
        <ele>123.19999694824</ele>
        <time>2018-10-13T09:33:20Z</time>
      </trkpt>
      <trkpt lat="43.36596" lon="6.65401">
        <ele>123.80000305176</ele>
        <time>2018-10-13T09:33:25Z</time>
      </trkpt>
      <trkpt lat="43.36599" lon="6.65427">
        <ele>124.40000152588</ele>
        <time>2018-10-13T09:33:32Z</time>
      </trkpt>
      <trkpt lat="43.36599" lon="6.65447">
        <ele>124.59999847412</ele>
        <time>2018-10-13T09:33:37Z</time>
      </trkpt>
      <trkpt lat="43.36599" lon="6.6545">
        <ele>124.80000305176</ele>
        <time>2018-10-13T09:33:38Z</time>
      </trkpt>
      <trkpt lat="43.36601" lon="6.65469">
        <ele>125.40000152588</ele>
        <time>2018-10-13T09:33:44Z</time>
      </trkpt>
      <trkpt lat="43.36608" lon="6.65486">
        <ele>126.40000152588</ele>
        <time>2018-10-13T09:33:51Z</time>
      </trkpt>
      <trkpt lat="43.3661" lon="6.65494">
        <ele>127</ele>
        <time>2018-10-13T09:33:54Z</time>
      </trkpt>
      <trkpt lat="43.36611" lon="6.65496">
        <ele>127</ele>
        <time>2018-10-13T09:33:55Z</time>
      </trkpt>
      <trkpt lat="43.36613" lon="6.65504">
        <ele>127.59999847412</ele>
        <time>2018-10-13T09:33:59Z</time>
      </trkpt>
      <trkpt lat="43.36616" lon="6.65516">
        <ele>128.60000610352</ele>
        <time>2018-10-13T09:34:05Z</time>
      </trkpt>
      <trkpt lat="43.36618" lon="6.65522">
        <ele>128.80000305176</ele>
        <time>2018-10-13T09:34:08Z</time>
      </trkpt>
      <trkpt lat="43.36618" lon="6.65526">
        <ele>129.19999694824</ele>
        <time>2018-10-13T09:34:10Z</time>
      </trkpt>
      <trkpt lat="43.36614" lon="6.65546">
        <ele>129.80000305176</ele>
        <time>2018-10-13T09:34:17Z</time>
      </trkpt>
      <trkpt lat="43.36611" lon="6.65571">
        <ele>130.39999389648</ele>
        <time>2018-10-13T09:34:23Z</time>
      </trkpt>
      <trkpt lat="43.36615" lon="6.65596">
        <ele>130.80000305176</ele>
        <time>2018-10-13T09:34:29Z</time>
      </trkpt>
      <trkpt lat="43.36618" lon="6.65607">
        <ele>131.80000305176</ele>
        <time>2018-10-13T09:34:34Z</time>
      </trkpt>
      <trkpt lat="43.36625" lon="6.65618">
        <ele>132.80000305176</ele>
        <time>2018-10-13T09:34:40Z</time>
      </trkpt>
      <trkpt lat="43.3663" lon="6.65632">
        <ele>133.60000610352</ele>
        <time>2018-10-13T09:34:47Z</time>
      </trkpt>
      <trkpt lat="43.36631" lon="6.65635">
        <ele>133.80000305176</ele>
        <time>2018-10-13T09:34:48Z</time>
      </trkpt>
      <trkpt lat="43.36634" lon="6.65641">
        <ele>134.19999694824</ele>
        <time>2018-10-13T09:34:51Z</time>
      </trkpt>
      <trkpt lat="43.36637" lon="6.65654">
        <ele>135</ele>
        <time>2018-10-13T09:34:57Z</time>
      </trkpt>
      <trkpt lat="43.3664" lon="6.65665">
        <ele>135.80000305176</ele>
        <time>2018-10-13T09:35:02Z</time>
      </trkpt>
      <trkpt lat="43.36646" lon="6.65674">
        <ele>136.39999389648</ele>
        <time>2018-10-13T09:35:07Z</time>
      </trkpt>
      <trkpt lat="43.36647" lon="6.65679">
        <ele>136.80000305176</ele>
        <time>2018-10-13T09:35:09Z</time>
      </trkpt>
      <trkpt lat="43.36651" lon="6.65687">
        <ele>137.19999694824</ele>
        <time>2018-10-13T09:35:13Z</time>
      </trkpt>
      <trkpt lat="43.36657" lon="6.65702">
        <ele>138</ele>
        <time>2018-10-13T09:35:19Z</time>
      </trkpt>
      <trkpt lat="43.36662" lon="6.65714">
        <ele>138.60000610352</ele>
        <time>2018-10-13T09:35:24Z</time>
      </trkpt>
      <trkpt lat="43.36663" lon="6.65716">
        <ele>138.60000610352</ele>
        <time>2018-10-13T09:35:25Z</time>
      </trkpt>
      <trkpt lat="43.3667" lon="6.65727">
        <ele>139.19999694824</ele>
        <time>2018-10-13T09:35:30Z</time>
      </trkpt>
      <trkpt lat="43.36676" lon="6.65739">
        <ele>140</ele>
        <time>2018-10-13T09:35:35Z</time>
      </trkpt>
      <trkpt lat="43.36677" lon="6.65741">
        <ele>140.19999694824</ele>
        <time>2018-10-13T09:35:36Z</time>
      </trkpt>
      <trkpt lat="43.36679" lon="6.65743">
        <ele>140.39999389648</ele>
        <time>2018-10-13T09:35:38Z</time>
      </trkpt>
      <trkpt lat="43.3668" lon="6.65745">
        <ele>140.60000610352</ele>
        <time>2018-10-13T09:35:39Z</time>
      </trkpt>
      <trkpt lat="43.3668" lon="6.65747">
        <ele>140.80000305176</ele>
        <time>2018-10-13T09:35:40Z</time>
      </trkpt>
      <trkpt lat="43.36683" lon="6.65755">
        <ele>141.39999389648</ele>
        <time>2018-10-13T09:35:44Z</time>
      </trkpt>
      <trkpt lat="43.36683" lon="6.65761">
        <ele>141.80000305176</ele>
        <time>2018-10-13T09:35:47Z</time>
      </trkpt>
      <trkpt lat="43.36683" lon="6.65768">
        <ele>142</ele>
        <time>2018-10-13T09:35:50Z</time>
      </trkpt>
      <trkpt lat="43.36679" lon="6.65784">
        <ele>142.60000610352</ele>
        <time>2018-10-13T09:35:57Z</time>
      </trkpt>
      <trkpt lat="43.36672" lon="6.658">
        <ele>143.19999694824</ele>
        <time>2018-10-13T09:36:04Z</time>
      </trkpt>
      <trkpt lat="43.36663" lon="6.65811">
        <ele>144</ele>
        <time>2018-10-13T09:36:12Z</time>
      </trkpt>
      <trkpt lat="43.36656" lon="6.65819">
        <ele>144.80000305176</ele>
        <time>2018-10-13T09:36:17Z</time>
      </trkpt>
      <trkpt lat="43.36656" lon="6.65822">
        <ele>145</ele>
        <time>2018-10-13T09:36:18Z</time>
      </trkpt>
      <trkpt lat="43.36655" lon="6.6583">
        <ele>145.39999389648</ele>
        <time>2018-10-13T09:36:22Z</time>
      </trkpt>
      <trkpt lat="43.36653" lon="6.65841">
        <ele>145.60000610352</ele>
        <time>2018-10-13T09:36:26Z</time>
      </trkpt>
      <trkpt lat="43.36652" lon="6.65848">
        <ele>145.60000610352</ele>
        <time>2018-10-13T09:36:28Z</time>
      </trkpt>
      <trkpt lat="43.36652" lon="6.65867">
        <ele>146.19999694824</ele>
        <time>2018-10-13T09:36:34Z</time>
      </trkpt>
      <trkpt lat="43.36657" lon="6.65874">
        <ele>146.80000305176</ele>
        <time>2018-10-13T09:36:37Z</time>
      </trkpt>
      <trkpt lat="43.36659" lon="6.65875">
        <ele>147</ele>
        <time>2018-10-13T09:36:38Z</time>
      </trkpt>
      <trkpt lat="43.36668" lon="6.65873">
        <ele>147.60000610352</ele>
        <time>2018-10-13T09:36:44Z</time>
      </trkpt>
      <trkpt lat="43.36678" lon="6.65869">
        <ele>148.39999389648</ele>
        <time>2018-10-13T09:36:50Z</time>
      </trkpt>
      <trkpt lat="43.36688" lon="6.65863">
        <ele>149</ele>
        <time>2018-10-13T09:36:56Z</time>
      </trkpt>
      <trkpt lat="43.36689" lon="6.65862">
        <ele>149</ele>
        <time>2018-10-13T09:36:57Z</time>
      </trkpt>
      <trkpt lat="43.36692" lon="6.6586">
        <ele>149.19999694824</ele>
        <time>2018-10-13T09:36:59Z</time>
      </trkpt>
      <trkpt lat="43.36697" lon="6.65858">
        <ele>149.39999389648</ele>
        <time>2018-10-13T09:37:02Z</time>
      </trkpt>
      <trkpt lat="43.36702" lon="6.65857">
        <ele>149.80000305176</ele>
        <time>2018-10-13T09:37:05Z</time>
      </trkpt>
      <trkpt lat="43.36705" lon="6.65858">
        <ele>150</ele>
        <time>2018-10-13T09:37:07Z</time>
      </trkpt>
      <trkpt lat="43.36713" lon="6.65867">
        <ele>151</ele>
        <time>2018-10-13T09:37:13Z</time>
      </trkpt>
      <trkpt lat="43.36718" lon="6.65877">
        <ele>151.80000305176</ele>
        <time>2018-10-13T09:37:19Z</time>
      </trkpt>
      <trkpt lat="43.36721" lon="6.65887">
        <ele>152.80000305176</ele>
        <time>2018-10-13T09:37:24Z</time>
      </trkpt>
      <trkpt lat="43.36726" lon="6.65903">
        <ele>154</ele>
        <time>2018-10-13T09:37:33Z</time>
      </trkpt>
      <trkpt lat="43.3673" lon="6.65914">
        <ele>154.80000305176</ele>
        <time>2018-10-13T09:37:39Z</time>
      </trkpt>
      <trkpt lat="43.36731" lon="6.6592">
        <ele>155.39999389648</ele>
        <time>2018-10-13T09:37:42Z</time>
      </trkpt>
      <trkpt lat="43.36732" lon="6.65924">
        <ele>155.60000610352</ele>
        <time>2018-10-13T09:37:44Z</time>
      </trkpt>
      <trkpt lat="43.36736" lon="6.65933">
        <ele>156.39999389648</ele>
        <time>2018-10-13T09:37:49Z</time>
      </trkpt>
      <trkpt lat="43.36737" lon="6.65936">
        <ele>156.60000610352</ele>
        <time>2018-10-13T09:37:51Z</time>
      </trkpt>
      <trkpt lat="43.36738" lon="6.65941">
        <ele>157.19999694824</ele>
        <time>2018-10-13T09:37:54Z</time>
      </trkpt>
      <trkpt lat="43.36739" lon="6.65945">
        <ele>157.39999389648</ele>
        <time>2018-10-13T09:37:56Z</time>
      </trkpt>
      <trkpt lat="43.36739" lon="6.6595">
        <ele>157.80000305176</ele>
        <time>2018-10-13T09:37:59Z</time>
      </trkpt>
      <trkpt lat="43.36741" lon="6.6596">
        <ele>158.39999389648</ele>
        <time>2018-10-13T09:38:04Z</time>
      </trkpt>
      <trkpt lat="43.36742" lon="6.65962">
        <ele>158.60000610352</ele>
        <time>2018-10-13T09:38:05Z</time>
      </trkpt>
      <trkpt lat="43.36745" lon="6.65976">
        <ele>159.60000610352</ele>
        <time>2018-10-13T09:38:12Z</time>
      </trkpt>
      <trkpt lat="43.36747" lon="6.65984">
        <ele>160.39999389648</ele>
        <time>2018-10-13T09:38:16Z</time>
      </trkpt>
      <trkpt lat="43.36749" lon="6.65988">
        <ele>160.60000610352</ele>
        <time>2018-10-13T09:38:18Z</time>
      </trkpt>
      <trkpt lat="43.3675" lon="6.65999">
        <ele>161.19999694824</ele>
        <time>2018-10-13T09:38:23Z</time>
      </trkpt>
      <trkpt lat="43.36751" lon="6.66001">
        <ele>161.39999389648</ele>
        <time>2018-10-13T09:38:24Z</time>
      </trkpt>
      <trkpt lat="43.36752" lon="6.66005">
        <ele>161.60000610352</ele>
        <time>2018-10-13T09:38:26Z</time>
      </trkpt>
      <trkpt lat="43.36753" lon="6.66007">
        <ele>161.80000305176</ele>
        <time>2018-10-13T09:38:27Z</time>
      </trkpt>
      <trkpt lat="43.36753" lon="6.66009">
        <ele>161.80000305176</ele>
        <time>2018-10-13T09:38:28Z</time>
      </trkpt>
      <trkpt lat="43.36754" lon="6.66013">
        <ele>162.19999694824</ele>
        <time>2018-10-13T09:38:31Z</time>
      </trkpt>
      <trkpt lat="43.36757" lon="6.66022">
        <ele>163.80000305176</ele>
        <time>2018-10-13T09:38:49Z</time>
      </trkpt>
      <trkpt lat="43.36758" lon="6.66028">
        <ele>164</ele>
        <time>2018-10-13T09:38:52Z</time>
      </trkpt>
      <trkpt lat="43.36759" lon="6.66033">
        <ele>164.60000610352</ele>
        <time>2018-10-13T09:38:55Z</time>
      </trkpt>
      <trkpt lat="43.3676" lon="6.66036">
        <ele>165</ele>
        <time>2018-10-13T09:38:57Z</time>
      </trkpt>
      <trkpt lat="43.36761" lon="6.66038">
        <ele>165.19999694824</ele>
        <time>2018-10-13T09:38:58Z</time>
      </trkpt>
      <trkpt lat="43.36761" lon="6.66042">
        <ele>165.39999389648</ele>
        <time>2018-10-13T09:39:00Z</time>
      </trkpt>
      <trkpt lat="43.3676" lon="6.66047">
        <ele>165.80000305176</ele>
        <time>2018-10-13T09:39:02Z</time>
      </trkpt>
      <trkpt lat="43.36761" lon="6.66058">
        <ele>166.39999389648</ele>
        <time>2018-10-13T09:39:07Z</time>
      </trkpt>
      <trkpt lat="43.3676" lon="6.66068">
        <ele>167.19999694824</ele>
        <time>2018-10-13T09:39:12Z</time>
      </trkpt>
      <trkpt lat="43.36759" lon="6.66073">
        <ele>167.19999694824</ele>
        <time>2018-10-13T09:39:14Z</time>
      </trkpt>
      <trkpt lat="43.36757" lon="6.66077">
        <ele>167.39999389648</ele>
        <time>2018-10-13T09:39:16Z</time>
      </trkpt>
      <trkpt lat="43.36757" lon="6.6608">
        <ele>167.39999389648</ele>
        <time>2018-10-13T09:39:17Z</time>
      </trkpt>
      <trkpt lat="43.36758" lon="6.66088">
        <ele>167.60000610352</ele>
        <time>2018-10-13T09:39:21Z</time>
      </trkpt>
      <trkpt lat="43.36758" lon="6.6609">
        <ele>167.60000610352</ele>
        <time>2018-10-13T09:39:22Z</time>
      </trkpt>
      <trkpt lat="43.3676" lon="6.66105">
        <ele>168.80000305176</ele>
        <time>2018-10-13T09:39:30Z</time>
      </trkpt>
      <trkpt lat="43.36759" lon="6.66115">
        <ele>169.39999389648</ele>
        <time>2018-10-13T09:39:35Z</time>
      </trkpt>
      <trkpt lat="43.36759" lon="6.66116">
        <ele>169.60000610352</ele>
        <time>2018-10-13T09:39:36Z</time>
      </trkpt>
      <trkpt lat="43.36764" lon="6.66131">
        <ele>170.39999389648</ele>
        <time>2018-10-13T09:39:43Z</time>
      </trkpt>
      <trkpt lat="43.36765" lon="6.66137">
        <ele>171</ele>
        <time>2018-10-13T09:39:46Z</time>
      </trkpt>
      <trkpt lat="43.36765" lon="6.66143">
        <ele>171.39999389648</ele>
        <time>2018-10-13T09:39:49Z</time>
      </trkpt>
      <trkpt lat="43.36765" lon="6.66146">
        <ele>171.39999389648</ele>
        <time>2018-10-13T09:39:50Z</time>
      </trkpt>
      <trkpt lat="43.36763" lon="6.66153">
        <ele>171.80000305176</ele>
        <time>2018-10-13T09:39:53Z</time>
      </trkpt>
      <trkpt lat="43.3676" lon="6.66168">
        <ele>172.39999389648</ele>
        <time>2018-10-13T09:39:59Z</time>
      </trkpt>
      <trkpt lat="43.36755" lon="6.66185">
        <ele>173.39999389648</ele>
        <time>2018-10-13T09:40:06Z</time>
      </trkpt>
      <trkpt lat="43.36745" lon="6.6621">
        <ele>175</ele>
        <time>2018-10-13T09:40:17Z</time>
      </trkpt>
      <trkpt lat="43.36738" lon="6.66225">
        <ele>176</ele>
        <time>2018-10-13T09:40:24Z</time>
      </trkpt>
      <trkpt lat="43.36728" lon="6.66236">
        <ele>176.80000305176</ele>
        <time>2018-10-13T09:40:31Z</time>
      </trkpt>
      <trkpt lat="43.36726" lon="6.6624">
        <ele>177.19999694824</ele>
        <time>2018-10-13T09:40:35Z</time>
      </trkpt>
      <trkpt lat="43.36723" lon="6.66246">
        <ele>185</ele>
        <time>2018-10-13T09:43:16Z</time>
      </trkpt>
      <trkpt lat="43.36716" lon="6.66253">
        <ele>185.19999694824</ele>
        <time>2018-10-13T09:43:23Z</time>
      </trkpt>
      <trkpt lat="43.36711" lon="6.66252">
        <ele>185</ele>
        <time>2018-10-13T09:43:29Z</time>
      </trkpt>
      <trkpt lat="43.36711" lon="6.66252">
        <ele>185</ele>
        <time>2018-10-13T09:43:30Z</time>
      </trkpt>
      <trkpt lat="43.36707" lon="6.6625">
        <ele>185.19999694824</ele>
        <time>2018-10-13T09:44:05Z</time>
      </trkpt>
      <trkpt lat="43.36703" lon="6.66247">
        <ele>185.19999694824</ele>
        <time>2018-10-13T09:44:07Z</time>
      </trkpt>
      <trkpt lat="43.36697" lon="6.66249">
        <ele>185.19999694824</ele>
        <time>2018-10-13T09:44:10Z</time>
      </trkpt>
      <trkpt lat="43.36696" lon="6.66252">
        <ele>185.19999694824</ele>
        <time>2018-10-13T09:44:11Z</time>
      </trkpt>
      <trkpt lat="43.36696" lon="6.66255">
        <ele>185.19999694824</ele>
        <time>2018-10-13T09:44:12Z</time>
      </trkpt>
      <trkpt lat="43.36696" lon="6.66266">
        <ele>185.19999694824</ele>
        <time>2018-10-13T09:44:15Z</time>
      </trkpt>
      <trkpt lat="43.36695" lon="6.66277">
        <ele>184.80000305176</ele>
        <time>2018-10-13T09:44:19Z</time>
      </trkpt>
      <trkpt lat="43.36694" lon="6.66284">
        <ele>184.19999694824</ele>
        <time>2018-10-13T09:44:22Z</time>
      </trkpt>
      <trkpt lat="43.36693" lon="6.66286">
        <ele>184</ele>
        <time>2018-10-13T09:44:23Z</time>
      </trkpt>
      <trkpt lat="43.36691" lon="6.66288">
        <ele>183.80000305176</ele>
        <time>2018-10-13T09:44:24Z</time>
      </trkpt>
      <trkpt lat="43.36688" lon="6.66289">
        <ele>183.39999389648</ele>
        <time>2018-10-13T09:44:27Z</time>
      </trkpt>
      <trkpt lat="43.36681" lon="6.66288">
        <ele>183.39999389648</ele>
        <time>2018-10-13T09:44:42Z</time>
      </trkpt>
      <trkpt lat="43.36678" lon="6.66289">
        <ele>183.19999694824</ele>
        <time>2018-10-13T09:44:44Z</time>
      </trkpt>
      <trkpt lat="43.36674" lon="6.66296">
        <ele>183</ele>
        <time>2018-10-13T09:44:49Z</time>
      </trkpt>
      <trkpt lat="43.36674" lon="6.66296">
        <ele>182.80000305176</ele>
        <time>2018-10-13T09:44:50Z</time>
      </trkpt>
      <trkpt lat="43.36673" lon="6.663">
        <ele>182.60000610352</ele>
        <time>2018-10-13T09:44:55Z</time>
      </trkpt>
      <trkpt lat="43.36674" lon="6.66306">
        <ele>182.19999694824</ele>
        <time>2018-10-13T09:44:57Z</time>
      </trkpt>
      <trkpt lat="43.36672" lon="6.66319">
        <ele>181.60000610352</ele>
        <time>2018-10-13T09:45:01Z</time>
      </trkpt>
      <trkpt lat="43.36671" lon="6.66325">
        <ele>181.39999389648</ele>
        <time>2018-10-13T09:45:03Z</time>
      </trkpt>
      <trkpt lat="43.36673" lon="6.66335">
        <ele>180.80000305176</ele>
        <time>2018-10-13T09:45:05Z</time>
      </trkpt>
      <trkpt lat="43.36671" lon="6.66357">
        <ele>179.60000610352</ele>
        <time>2018-10-13T09:45:09Z</time>
      </trkpt>
      <trkpt lat="43.36672" lon="6.66385">
        <ele>178</ele>
        <time>2018-10-13T09:45:14Z</time>
      </trkpt>
      <trkpt lat="43.36674" lon="6.66406">
        <ele>176.80000305176</ele>
        <time>2018-10-13T09:45:19Z</time>
      </trkpt>
      <trkpt lat="43.36677" lon="6.66421">
        <ele>175.60000610352</ele>
        <time>2018-10-13T09:45:24Z</time>
      </trkpt>
      <trkpt lat="43.36678" lon="6.66426">
        <ele>175.19999694824</ele>
        <time>2018-10-13T09:45:26Z</time>
      </trkpt>
      <trkpt lat="43.3668" lon="6.66432">
        <ele>174.60000610352</ele>
        <time>2018-10-13T09:45:28Z</time>
      </trkpt>
      <trkpt lat="43.3668" lon="6.66435">
        <ele>174.19999694824</ele>
        <time>2018-10-13T09:45:29Z</time>
      </trkpt>
      <trkpt lat="43.36682" lon="6.66451">
        <ele>172.80000305176</ele>
        <time>2018-10-13T09:45:33Z</time>
      </trkpt>
      <trkpt lat="43.36683" lon="6.66462">
        <ele>171.60000610352</ele>
        <time>2018-10-13T09:45:36Z</time>
      </trkpt>
      <trkpt lat="43.36683" lon="6.66463">
        <ele>171</ele>
        <time>2018-10-13T09:45:38Z</time>
      </trkpt>
      <trkpt lat="43.36692" lon="6.6652">
        <ele>158.80000305176</ele>
        <time>2018-10-13T09:46:24Z</time>
      </trkpt>
      <trkpt lat="43.36693" lon="6.66529">
        <ele>157.80000305176</ele>
        <time>2018-10-13T09:46:29Z</time>
      </trkpt>
      <trkpt lat="43.36697" lon="6.66541">
        <ele>156.39999389648</ele>
        <time>2018-10-13T09:46:35Z</time>
      </trkpt>
      <trkpt lat="43.36697" lon="6.66546">
        <ele>156</ele>
        <time>2018-10-13T09:46:37Z</time>
      </trkpt>
      <trkpt lat="43.36697" lon="6.66551">
        <ele>155.80000305176</ele>
        <time>2018-10-13T09:46:39Z</time>
      </trkpt>
      <trkpt lat="43.367" lon="6.66556">
        <ele>155.39999389648</ele>
        <time>2018-10-13T09:46:42Z</time>
      </trkpt>
      <trkpt lat="43.36701" lon="6.66557">
        <ele>155</ele>
        <time>2018-10-13T09:46:44Z</time>
      </trkpt>
      <trkpt lat="43.36702" lon="6.66563">
        <ele>153.60000610352</ele>
        <time>2018-10-13T09:46:52Z</time>
      </trkpt>
      <trkpt lat="43.36704" lon="6.66571">
        <ele>153.39999389648</ele>
        <time>2018-10-13T09:46:55Z</time>
      </trkpt>
      <trkpt lat="43.36705" lon="6.66576">
        <ele>152.80000305176</ele>
        <time>2018-10-13T09:46:59Z</time>
      </trkpt>
      <trkpt lat="43.36706" lon="6.66578">
        <ele>152.80000305176</ele>
        <time>2018-10-13T09:47:00Z</time>
      </trkpt>
      <trkpt lat="43.36708" lon="6.66586">
        <ele>152.19999694824</ele>
        <time>2018-10-13T09:47:03Z</time>
      </trkpt>
      <trkpt lat="43.36711" lon="6.66591">
        <ele>152</ele>
        <time>2018-10-13T09:47:05Z</time>
      </trkpt>
      <trkpt lat="43.36715" lon="6.66598">
        <ele>151.60000610352</ele>
        <time>2018-10-13T09:47:08Z</time>
      </trkpt>
      <trkpt lat="43.3672" lon="6.66609">
        <ele>151</ele>
        <time>2018-10-13T09:47:12Z</time>
      </trkpt>
      <trkpt lat="43.36721" lon="6.66613">
        <ele>150.80000305176</ele>
        <time>2018-10-13T09:47:13Z</time>
      </trkpt>
      <trkpt lat="43.36725" lon="6.66631">
        <ele>149.19999694824</ele>
        <time>2018-10-13T09:47:19Z</time>
      </trkpt>
      <trkpt lat="43.36726" lon="6.66641">
        <ele>148</ele>
        <time>2018-10-13T09:47:23Z</time>
      </trkpt>
      <trkpt lat="43.36727" lon="6.66641">
        <ele>147.39999389648</ele>
        <time>2018-10-13T09:47:25Z</time>
      </trkpt>
      <trkpt lat="43.36727" lon="6.66653">
        <ele>141</ele>
        <time>2018-10-13T09:47:58Z</time>
      </trkpt>
      <trkpt lat="43.36728" lon="6.66655">
        <ele>140.80000305176</ele>
        <time>2018-10-13T09:47:59Z</time>
      </trkpt>
      <trkpt lat="43.3673" lon="6.66662">
        <ele>139.60000610352</ele>
        <time>2018-10-13T09:48:04Z</time>
      </trkpt>
      <trkpt lat="43.36729" lon="6.66669">
        <ele>137.80000305176</ele>
        <time>2018-10-13T09:48:13Z</time>
      </trkpt>
      <trkpt lat="43.36732" lon="6.66682">
        <ele>136.80000305176</ele>
        <time>2018-10-13T09:48:19Z</time>
      </trkpt>
      <trkpt lat="43.36732" lon="6.66684">
        <ele>136.60000610352</ele>
        <time>2018-10-13T09:48:20Z</time>
      </trkpt>
      <trkpt lat="43.36732" lon="6.66688">
        <ele>136</ele>
        <time>2018-10-13T09:48:23Z</time>
      </trkpt>
      <trkpt lat="43.36732" lon="6.66692">
        <ele>135.60000610352</ele>
        <time>2018-10-13T09:48:25Z</time>
      </trkpt>
      <trkpt lat="43.36732" lon="6.66696">
        <ele>135.39999389648</ele>
        <time>2018-10-13T09:48:27Z</time>
      </trkpt>
      <trkpt lat="43.36732" lon="6.66702">
        <ele>135.19999694824</ele>
        <time>2018-10-13T09:48:31Z</time>
      </trkpt>
      <trkpt lat="43.36732" lon="6.66704">
        <ele>135</ele>
        <time>2018-10-13T09:48:32Z</time>
      </trkpt>
      <trkpt lat="43.36732" lon="6.66709">
        <ele>134.19999694824</ele>
        <time>2018-10-13T09:48:36Z</time>
      </trkpt>
      <trkpt lat="43.36732" lon="6.6671">
        <ele>134</ele>
        <time>2018-10-13T09:48:37Z</time>
      </trkpt>
      <trkpt lat="43.36732" lon="6.66716">
        <ele>132.80000305176</ele>
        <time>2018-10-13T09:48:44Z</time>
      </trkpt>
      <trkpt lat="43.36732" lon="6.66721">
        <ele>132.39999389648</ele>
        <time>2018-10-13T09:48:46Z</time>
      </trkpt>
      <trkpt lat="43.36731" lon="6.66726">
        <ele>131.80000305176</ele>
        <time>2018-10-13T09:48:48Z</time>
      </trkpt>
      <trkpt lat="43.36731" lon="6.66732">
        <ele>131</ele>
        <time>2018-10-13T09:48:51Z</time>
      </trkpt>
      <trkpt lat="43.3673" lon="6.66736">
        <ele>130.39999389648</ele>
        <time>2018-10-13T09:48:55Z</time>
      </trkpt>
      <trkpt lat="43.3673" lon="6.66747">
        <ele>129.39999389648</ele>
        <time>2018-10-13T09:49:05Z</time>
      </trkpt>
      <trkpt lat="43.36731" lon="6.66755">
        <ele>129</ele>
        <time>2018-10-13T09:49:07Z</time>
      </trkpt>
      <trkpt lat="43.36729" lon="6.66776">
        <ele>127.59999847412</ele>
        <time>2018-10-13T09:49:12Z</time>
      </trkpt>
      <trkpt lat="43.36726" lon="6.66783">
        <ele>127</ele>
        <time>2018-10-13T09:49:14Z</time>
      </trkpt>
      <trkpt lat="43.36727" lon="6.66792">
        <ele>126.40000152588</ele>
        <time>2018-10-13T09:49:16Z</time>
      </trkpt>
      <trkpt lat="43.36732" lon="6.66813">
        <ele>125.59999847412</ele>
        <time>2018-10-13T09:49:20Z</time>
      </trkpt>
      <trkpt lat="43.36732" lon="6.66821">
        <ele>125</ele>
        <time>2018-10-13T09:49:22Z</time>
      </trkpt>
      <trkpt lat="43.36733" lon="6.66836">
        <ele>124.19999694824</ele>
        <time>2018-10-13T09:49:25Z</time>
      </trkpt>
      <trkpt lat="43.36733" lon="6.66841">
        <ele>124</ele>
        <time>2018-10-13T09:49:26Z</time>
      </trkpt>
      <trkpt lat="43.3673" lon="6.66851">
        <ele>123.59999847412</ele>
        <time>2018-10-13T09:49:28Z</time>
      </trkpt>
      <trkpt lat="43.36728" lon="6.66857">
        <ele>123.40000152588</ele>
        <time>2018-10-13T09:49:29Z</time>
      </trkpt>
      <trkpt lat="43.36721" lon="6.66866">
        <ele>123</ele>
        <time>2018-10-13T09:49:31Z</time>
      </trkpt>
      <trkpt lat="43.36716" lon="6.66868">
        <ele>122.59999847412</ele>
        <time>2018-10-13T09:49:32Z</time>
      </trkpt>
      <trkpt lat="43.36712" lon="6.66867">
        <ele>122.40000152588</ele>
        <time>2018-10-13T09:49:33Z</time>
      </trkpt>
      <trkpt lat="43.36703" lon="6.66864">
        <ele>122</ele>
        <time>2018-10-13T09:49:35Z</time>
      </trkpt>
      <trkpt lat="43.367" lon="6.66865">
        <ele>121.80000305176</ele>
        <time>2018-10-13T09:49:36Z</time>
      </trkpt>
      <trkpt lat="43.36699" lon="6.66868">
        <ele>121.40000152588</ele>
        <time>2018-10-13T09:49:37Z</time>
      </trkpt>
      <trkpt lat="43.36698" lon="6.66872">
        <ele>121.19999694824</ele>
        <time>2018-10-13T09:49:38Z</time>
      </trkpt>
      <trkpt lat="43.367" lon="6.66879">
        <ele>120.59999847412</ele>
        <time>2018-10-13T09:49:40Z</time>
      </trkpt>
      <trkpt lat="43.36702" lon="6.66885">
        <ele>120</ele>
        <time>2018-10-13T09:49:44Z</time>
      </trkpt>
      <trkpt lat="43.36706" lon="6.66903">
        <ele>116.19999694824</ele>
        <time>2018-10-13T09:50:39Z</time>
      </trkpt>
      <trkpt lat="43.36707" lon="6.66906">
        <ele>116.19999694824</ele>
        <time>2018-10-13T09:50:41Z</time>
      </trkpt>
      <trkpt lat="43.36709" lon="6.66918">
        <ele>116.19999694824</ele>
        <time>2018-10-13T09:50:47Z</time>
      </trkpt>
      <trkpt lat="43.36711" lon="6.6693">
        <ele>116.59999847412</ele>
        <time>2018-10-13T09:50:53Z</time>
      </trkpt>
      <trkpt lat="43.36712" lon="6.66933">
        <ele>116.80000305176</ele>
        <time>2018-10-13T09:50:55Z</time>
      </trkpt>
      <trkpt lat="43.3671" lon="6.66937">
        <ele>116.80000305176</ele>
        <time>2018-10-13T09:50:57Z</time>
      </trkpt>
      <trkpt lat="43.3671" lon="6.66948">
        <ele>117</ele>
        <time>2018-10-13T09:51:03Z</time>
      </trkpt>
      <trkpt lat="43.36711" lon="6.66952">
        <ele>117</ele>
        <time>2018-10-13T09:51:05Z</time>
      </trkpt>
      <trkpt lat="43.36711" lon="6.66962">
        <ele>117</ele>
        <time>2018-10-13T09:51:10Z</time>
      </trkpt>
      <trkpt lat="43.36711" lon="6.66964">
        <ele>117</ele>
        <time>2018-10-13T09:51:11Z</time>
      </trkpt>
      <trkpt lat="43.36711" lon="6.66967">
        <ele>117</ele>
        <time>2018-10-13T09:51:13Z</time>
      </trkpt>
      <trkpt lat="43.36711" lon="6.66973">
        <ele>117</ele>
        <time>2018-10-13T09:51:16Z</time>
      </trkpt>
      <trkpt lat="43.36709" lon="6.66994">
        <ele>116.80000305176</ele>
        <time>2018-10-13T09:51:24Z</time>
      </trkpt>
      <trkpt lat="43.36704" lon="6.67012">
        <ele>116.80000305176</ele>
        <time>2018-10-13T09:51:31Z</time>
      </trkpt>
      <trkpt lat="43.36704" lon="6.67015">
        <ele>116.80000305176</ele>
        <time>2018-10-13T09:51:32Z</time>
      </trkpt>
      <trkpt lat="43.36702" lon="6.67027">
        <ele>116.40000152588</ele>
        <time>2018-10-13T09:51:35Z</time>
      </trkpt>
      <trkpt lat="43.36696" lon="6.67045">
        <ele>116</ele>
        <time>2018-10-13T09:51:39Z</time>
      </trkpt>
      <trkpt lat="43.36694" lon="6.67051">
        <ele>116</ele>
        <time>2018-10-13T09:51:40Z</time>
      </trkpt>
      <trkpt lat="43.36692" lon="6.67056">
        <ele>115.80000305176</ele>
        <time>2018-10-13T09:51:41Z</time>
      </trkpt>
      <trkpt lat="43.36687" lon="6.67076">
        <ele>115.59999847412</ele>
        <time>2018-10-13T09:51:45Z</time>
      </trkpt>
      <trkpt lat="43.36684" lon="6.67091">
        <ele>115.40000152588</ele>
        <time>2018-10-13T09:51:49Z</time>
      </trkpt>
      <trkpt lat="43.36688" lon="6.67106">
        <ele>114.80000305176</ele>
        <time>2018-10-13T09:51:53Z</time>
      </trkpt>
      <trkpt lat="43.36694" lon="6.67126">
        <ele>114.19999694824</ele>
        <time>2018-10-13T09:51:57Z</time>
      </trkpt>
      <trkpt lat="43.36695" lon="6.67132">
        <ele>114</ele>
        <time>2018-10-13T09:51:58Z</time>
      </trkpt>
      <trkpt lat="43.36697" lon="6.67151">
        <ele>113.40000152588</ele>
        <time>2018-10-13T09:52:01Z</time>
      </trkpt>
      <trkpt lat="43.36696" lon="6.67159">
        <ele>113.19999694824</ele>
        <time>2018-10-13T09:52:02Z</time>
      </trkpt>
      <trkpt lat="43.36695" lon="6.67188">
        <ele>112.19999694824</ele>
        <time>2018-10-13T09:52:06Z</time>
      </trkpt>
      <trkpt lat="43.36693" lon="6.67203">
        <ele>111.80000305176</ele>
        <time>2018-10-13T09:52:08Z</time>
      </trkpt>
      <trkpt lat="43.36688" lon="6.67214">
        <ele>111.40000152588</ele>
        <time>2018-10-13T09:52:10Z</time>
      </trkpt>
      <trkpt lat="43.36675" lon="6.6722">
        <ele>111.19999694824</ele>
        <time>2018-10-13T09:52:13Z</time>
      </trkpt>
      <trkpt lat="43.36671" lon="6.67221">
        <ele>111</ele>
        <time>2018-10-13T09:52:14Z</time>
      </trkpt>
      <trkpt lat="43.36666" lon="6.67228">
        <ele>110.80000305176</ele>
        <time>2018-10-13T09:52:16Z</time>
      </trkpt>
      <trkpt lat="43.36665" lon="6.6724">
        <ele>110.59999847412</ele>
        <time>2018-10-13T09:52:18Z</time>
      </trkpt>
      <trkpt lat="43.36661" lon="6.6725">
        <ele>110.19999694824</ele>
        <time>2018-10-13T09:52:20Z</time>
      </trkpt>
      <trkpt lat="43.3666" lon="6.6726">
        <ele>110</ele>
        <time>2018-10-13T09:52:22Z</time>
      </trkpt>
      <trkpt lat="43.36662" lon="6.67264">
        <ele>109.80000305176</ele>
        <time>2018-10-13T09:52:23Z</time>
      </trkpt>
      <trkpt lat="43.36663" lon="6.67269">
        <ele>109.80000305176</ele>
        <time>2018-10-13T09:52:24Z</time>
      </trkpt>
      <trkpt lat="43.36662" lon="6.67276">
        <ele>109.40000152588</ele>
        <time>2018-10-13T09:52:26Z</time>
      </trkpt>
      <trkpt lat="43.36656" lon="6.67288">
        <ele>108.40000152588</ele>
        <time>2018-10-13T09:52:30Z</time>
      </trkpt>
      <trkpt lat="43.36655" lon="6.67292">
        <ele>108.19999694824</ele>
        <time>2018-10-13T09:52:31Z</time>
      </trkpt>
      <trkpt lat="43.36657" lon="6.67306">
        <ele>107.59999847412</ele>
        <time>2018-10-13T09:52:34Z</time>
      </trkpt>
      <trkpt lat="43.36659" lon="6.6731">
        <ele>107.59999847412</ele>
        <time>2018-10-13T09:52:35Z</time>
      </trkpt>
      <trkpt lat="43.36667" lon="6.67318">
        <ele>107.40000152588</ele>
        <time>2018-10-13T09:52:38Z</time>
      </trkpt>
      <trkpt lat="43.3668" lon="6.67328">
        <ele>107.40000152588</ele>
        <time>2018-10-13T09:52:43Z</time>
      </trkpt>
      <trkpt lat="43.36693" lon="6.67341">
        <ele>107.59999847412</ele>
        <time>2018-10-13T09:52:50Z</time>
      </trkpt>
      <trkpt lat="43.36702" lon="6.67354">
        <ele>108</ele>
        <time>2018-10-13T09:52:56Z</time>
      </trkpt>
      <trkpt lat="43.36706" lon="6.67369">
        <ele>108.19999694824</ele>
        <time>2018-10-13T09:53:01Z</time>
      </trkpt>
      <trkpt lat="43.36708" lon="6.67389">
        <ele>108.19999694824</ele>
        <time>2018-10-13T09:53:07Z</time>
      </trkpt>
      <trkpt lat="43.36708" lon="6.67407">
        <ele>108.40000152588</ele>
        <time>2018-10-13T09:53:13Z</time>
      </trkpt>
      <trkpt lat="43.36711" lon="6.67426">
        <ele>108.40000152588</ele>
        <time>2018-10-13T09:53:18Z</time>
      </trkpt>
      <trkpt lat="43.36721" lon="6.67455">
        <ele>108.40000152588</ele>
        <time>2018-10-13T09:53:24Z</time>
      </trkpt>
      <trkpt lat="43.36728" lon="6.67482">
        <ele>108.40000152588</ele>
        <time>2018-10-13T09:53:29Z</time>
      </trkpt>
      <trkpt lat="43.3673" lon="6.67487">
        <ele>108.40000152588</ele>
        <time>2018-10-13T09:53:30Z</time>
      </trkpt>
      <trkpt lat="43.36739" lon="6.67508">
        <ele>108.40000152588</ele>
        <time>2018-10-13T09:53:34Z</time>
      </trkpt>
      <trkpt lat="43.36742" lon="6.67513">
        <ele>108.40000152588</ele>
        <time>2018-10-13T09:53:35Z</time>
      </trkpt>
      <trkpt lat="43.36751" lon="6.67534">
        <ele>108.40000152588</ele>
        <time>2018-10-13T09:53:40Z</time>
      </trkpt>
      <trkpt lat="43.36758" lon="6.67553">
        <ele>108.80000305176</ele>
        <time>2018-10-13T09:53:46Z</time>
      </trkpt>
      <trkpt lat="43.36762" lon="6.67576">
        <ele>109.19999694824</ele>
        <time>2018-10-13T09:53:52Z</time>
      </trkpt>
      <trkpt lat="43.36766" lon="6.67585">
        <ele>109.40000152588</ele>
        <time>2018-10-13T09:53:55Z</time>
      </trkpt>
      <trkpt lat="43.36767" lon="6.67592">
        <ele>109.40000152588</ele>
        <time>2018-10-13T09:53:57Z</time>
      </trkpt>
      <trkpt lat="43.36765" lon="6.67605">
        <ele>109.40000152588</ele>
        <time>2018-10-13T09:54:02Z</time>
      </trkpt>
      <trkpt lat="43.36765" lon="6.67607">
        <ele>109.40000152588</ele>
        <time>2018-10-13T09:54:03Z</time>
      </trkpt>
      <trkpt lat="43.36764" lon="6.67611">
        <ele>109.40000152588</ele>
        <time>2018-10-13T09:54:05Z</time>
      </trkpt>
      <trkpt lat="43.36763" lon="6.67614">
        <ele>109.40000152588</ele>
        <time>2018-10-13T09:54:06Z</time>
      </trkpt>
      <trkpt lat="43.36761" lon="6.67626">
        <ele>109.80000305176</ele>
        <time>2018-10-13T09:54:12Z</time>
      </trkpt>
      <trkpt lat="43.3676" lon="6.6763">
        <ele>109.80000305176</ele>
        <time>2018-10-13T09:54:14Z</time>
      </trkpt>
      <trkpt lat="43.36756" lon="6.67637">
        <ele>110</ele>
        <time>2018-10-13T09:54:18Z</time>
      </trkpt>
      <trkpt lat="43.36753" lon="6.67648">
        <ele>110.19999694824</ele>
        <time>2018-10-13T09:54:24Z</time>
      </trkpt>
      <trkpt lat="43.36753" lon="6.67651">
        <ele>110.19999694824</ele>
        <time>2018-10-13T09:54:25Z</time>
      </trkpt>
      <trkpt lat="43.36751" lon="6.67658">
        <ele>110.80000305176</ele>
        <time>2018-10-13T09:54:29Z</time>
      </trkpt>
      <trkpt lat="43.3675" lon="6.67662">
        <ele>111</ele>
        <time>2018-10-13T09:54:32Z</time>
      </trkpt>
      <trkpt lat="43.3675" lon="6.67669">
        <ele>111</ele>
        <time>2018-10-13T09:54:35Z</time>
      </trkpt>
      <trkpt lat="43.36751" lon="6.67676">
        <ele>111.80000305176</ele>
        <time>2018-10-13T09:54:39Z</time>
      </trkpt>
      <trkpt lat="43.36751" lon="6.6768">
        <ele>112</ele>
        <time>2018-10-13T09:54:41Z</time>
      </trkpt>
      <trkpt lat="43.36746" lon="6.67697">
        <ele>113</ele>
        <time>2018-10-13T09:54:49Z</time>
      </trkpt>
      <trkpt lat="43.36747" lon="6.67707">
        <ele>113.19999694824</ele>
        <time>2018-10-13T09:54:54Z</time>
      </trkpt>
      <trkpt lat="43.36748" lon="6.67712">
        <ele>113.40000152588</ele>
        <time>2018-10-13T09:54:56Z</time>
      </trkpt>
      <trkpt lat="43.36749" lon="6.67718">
        <ele>113.80000305176</ele>
        <time>2018-10-13T09:54:59Z</time>
      </trkpt>
      <trkpt lat="43.36751" lon="6.67732">
        <ele>115</ele>
        <time>2018-10-13T09:55:06Z</time>
      </trkpt>
      <trkpt lat="43.36753" lon="6.67747">
        <ele>116.19999694824</ele>
        <time>2018-10-13T09:55:14Z</time>
      </trkpt>
      <trkpt lat="43.36757" lon="6.67765">
        <ele>117.80000305176</ele>
        <time>2018-10-13T09:55:23Z</time>
      </trkpt>
      <trkpt lat="43.3676" lon="6.67778">
        <ele>119.19999694824</ele>
        <time>2018-10-13T09:55:30Z</time>
      </trkpt>
      <trkpt lat="43.36762" lon="6.67788">
        <ele>120.40000152588</ele>
        <time>2018-10-13T09:55:36Z</time>
      </trkpt>
      <trkpt lat="43.36763" lon="6.67791">
        <ele>120.80000305176</ele>
        <time>2018-10-13T09:55:38Z</time>
      </trkpt>
      <trkpt lat="43.36763" lon="6.67799">
        <ele>121.40000152588</ele>
        <time>2018-10-13T09:55:42Z</time>
      </trkpt>
      <trkpt lat="43.36766" lon="6.67811">
        <ele>122.40000152588</ele>
        <time>2018-10-13T09:55:48Z</time>
      </trkpt>
      <trkpt lat="43.36768" lon="6.67825">
        <ele>124.19999694824</ele>
        <time>2018-10-13T09:55:56Z</time>
      </trkpt>
      <trkpt lat="43.36769" lon="6.67837">
        <ele>125.59999847412</ele>
        <time>2018-10-13T09:56:03Z</time>
      </trkpt>
      <trkpt lat="43.36768" lon="6.6785">
        <ele>127.19999694824</ele>
        <time>2018-10-13T09:56:10Z</time>
      </trkpt>
      <trkpt lat="43.36767" lon="6.67855">
        <ele>127.80000305176</ele>
        <time>2018-10-13T09:56:13Z</time>
      </trkpt>
      <trkpt lat="43.36766" lon="6.67862">
        <ele>128.60000610352</ele>
        <time>2018-10-13T09:56:17Z</time>
      </trkpt>
      <trkpt lat="43.36765" lon="6.67873">
        <ele>130</ele>
        <time>2018-10-13T09:56:24Z</time>
      </trkpt>
      <trkpt lat="43.36765" lon="6.67885">
        <ele>131.80000305176</ele>
        <time>2018-10-13T09:56:31Z</time>
      </trkpt>
      <trkpt lat="43.36766" lon="6.67897">
        <ele>134</ele>
        <time>2018-10-13T09:56:39Z</time>
      </trkpt>
      <trkpt lat="43.36768" lon="6.67907">
        <ele>135.60000610352</ele>
        <time>2018-10-13T09:56:46Z</time>
      </trkpt>
      <trkpt lat="43.36768" lon="6.67911">
        <ele>136.19999694824</ele>
        <time>2018-10-13T09:56:49Z</time>
      </trkpt>
      <trkpt lat="43.3677" lon="6.67916">
        <ele>137</ele>
        <time>2018-10-13T09:56:52Z</time>
      </trkpt>
      <trkpt lat="43.36771" lon="6.67926">
        <ele>138.39999389648</ele>
        <time>2018-10-13T09:56:58Z</time>
      </trkpt>
      <trkpt lat="43.36771" lon="6.67928">
        <ele>138.60000610352</ele>
        <time>2018-10-13T09:56:59Z</time>
      </trkpt>
      <trkpt lat="43.36772" lon="6.67938">
        <ele>139.80000305176</ele>
        <time>2018-10-13T09:57:04Z</time>
      </trkpt>
      <trkpt lat="43.36771" lon="6.67947">
        <ele>140.80000305176</ele>
        <time>2018-10-13T09:57:09Z</time>
      </trkpt>
      <trkpt lat="43.36769" lon="6.67951">
        <ele>141</ele>
        <time>2018-10-13T09:57:11Z</time>
      </trkpt>
      <trkpt lat="43.36759" lon="6.67972">
        <ele>142.39999389648</ele>
        <time>2018-10-13T09:57:20Z</time>
      </trkpt>
      <trkpt lat="43.36752" lon="6.67993">
        <ele>143.39999389648</ele>
        <time>2018-10-13T09:57:27Z</time>
      </trkpt>
      <trkpt lat="43.36741" lon="6.68">
        <ele>144</ele>
        <time>2018-10-13T09:57:32Z</time>
      </trkpt>
      <trkpt lat="43.36724" lon="6.68002">
        <ele>144.80000305176</ele>
        <time>2018-10-13T09:57:39Z</time>
      </trkpt>
      <trkpt lat="43.36708" lon="6.68006">
        <ele>145.60000610352</ele>
        <time>2018-10-13T09:57:46Z</time>
      </trkpt>
      <trkpt lat="43.36706" lon="6.68008">
        <ele>145.60000610352</ele>
        <time>2018-10-13T09:57:47Z</time>
      </trkpt>
      <trkpt lat="43.36698" lon="6.68027">
        <ele>146.39999389648</ele>
        <time>2018-10-13T09:57:54Z</time>
      </trkpt>
      <trkpt lat="43.36697" lon="6.68048">
        <ele>147.19999694824</ele>
        <time>2018-10-13T09:58:01Z</time>
      </trkpt>
      <trkpt lat="43.36702" lon="6.68069">
        <ele>148</ele>
        <time>2018-10-13T09:58:08Z</time>
      </trkpt>
      <trkpt lat="43.3671" lon="6.68088">
        <ele>148.60000610352</ele>
        <time>2018-10-13T09:58:15Z</time>
      </trkpt>
      <trkpt lat="43.36719" lon="6.68107">
        <ele>149.39999389648</ele>
        <time>2018-10-13T09:58:21Z</time>
      </trkpt>
      <trkpt lat="43.36722" lon="6.68133">
        <ele>149.80000305176</ele>
        <time>2018-10-13T09:58:27Z</time>
      </trkpt>
      <trkpt lat="43.36717" lon="6.68158">
        <ele>150.19999694824</ele>
        <time>2018-10-13T09:58:32Z</time>
      </trkpt>
      <trkpt lat="43.36714" lon="6.68168">
        <ele>150.39999389648</ele>
        <time>2018-10-13T09:58:34Z</time>
      </trkpt>
      <trkpt lat="43.36705" lon="6.68188">
        <ele>150.80000305176</ele>
        <time>2018-10-13T09:58:38Z</time>
      </trkpt>
      <trkpt lat="43.36702" lon="6.68192">
        <ele>150.80000305176</ele>
        <time>2018-10-13T09:58:39Z</time>
      </trkpt>
      <trkpt lat="43.36687" lon="6.68208">
        <ele>151</ele>
        <time>2018-10-13T09:58:43Z</time>
      </trkpt>
      <trkpt lat="43.36684" lon="6.68212">
        <ele>151</ele>
        <time>2018-10-13T09:58:44Z</time>
      </trkpt>
      <trkpt lat="43.36666" lon="6.68232">
        <ele>151.39999389648</ele>
        <time>2018-10-13T09:58:49Z</time>
      </trkpt>
      <trkpt lat="43.36662" lon="6.68235">
        <ele>151.39999389648</ele>
        <time>2018-10-13T09:58:50Z</time>
      </trkpt>
      <trkpt lat="43.36649" lon="6.68244">
        <ele>151.60000610352</ele>
        <time>2018-10-13T09:58:53Z</time>
      </trkpt>
      <trkpt lat="43.36639" lon="6.68244">
        <ele>151.60000610352</ele>
        <time>2018-10-13T09:58:55Z</time>
      </trkpt>
      <trkpt lat="43.3662" lon="6.68234">
        <ele>151.80000305176</ele>
        <time>2018-10-13T09:58:59Z</time>
      </trkpt>
      <trkpt lat="43.36611" lon="6.68227">
        <ele>152</ele>
        <time>2018-10-13T09:59:01Z</time>
      </trkpt>
      <trkpt lat="43.36598" lon="6.68218">
        <ele>152.19999694824</ele>
        <time>2018-10-13T09:59:04Z</time>
      </trkpt>
      <trkpt lat="43.36593" lon="6.68216">
        <ele>152.19999694824</ele>
        <time>2018-10-13T09:59:05Z</time>
      </trkpt>
      <trkpt lat="43.36589" lon="6.68214">
        <ele>152.19999694824</ele>
        <time>2018-10-13T09:59:06Z</time>
      </trkpt>
      <trkpt lat="43.3657" lon="6.68203">
        <ele>152.39999389648</ele>
        <time>2018-10-13T09:59:10Z</time>
      </trkpt>
      <trkpt lat="43.36562" lon="6.68195">
        <ele>152.39999389648</ele>
        <time>2018-10-13T09:59:12Z</time>
      </trkpt>
      <trkpt lat="43.36551" lon="6.68182">
        <ele>152.60000610352</ele>
        <time>2018-10-13T09:59:15Z</time>
      </trkpt>
      <trkpt lat="43.36548" lon="6.68177">
        <ele>152.60000610352</ele>
        <time>2018-10-13T09:59:16Z</time>
      </trkpt>
      <trkpt lat="43.36543" lon="6.68166">
        <ele>152.80000305176</ele>
        <time>2018-10-13T09:59:18Z</time>
      </trkpt>
      <trkpt lat="43.36536" lon="6.6815">
        <ele>152.80000305176</ele>
        <time>2018-10-13T09:59:21Z</time>
      </trkpt>
      <trkpt lat="43.36534" lon="6.68146">
        <ele>152.80000305176</ele>
        <time>2018-10-13T09:59:22Z</time>
      </trkpt>
      <trkpt lat="43.36526" lon="6.68139">
        <ele>153</ele>
        <time>2018-10-13T09:59:24Z</time>
      </trkpt>
      <trkpt lat="43.36522" lon="6.68138">
        <ele>153</ele>
        <time>2018-10-13T09:59:25Z</time>
      </trkpt>
      <trkpt lat="43.36517" lon="6.68136">
        <ele>153</ele>
        <time>2018-10-13T09:59:26Z</time>
      </trkpt>
      <trkpt lat="43.36499" lon="6.68134">
        <ele>153</ele>
        <time>2018-10-13T09:59:30Z</time>
      </trkpt>
      <trkpt lat="43.36475" lon="6.68123">
        <ele>153.19999694824</ele>
        <time>2018-10-13T09:59:35Z</time>
      </trkpt>
      <trkpt lat="43.36459" lon="6.68116">
        <ele>153.19999694824</ele>
        <time>2018-10-13T09:59:38Z</time>
      </trkpt>
      <trkpt lat="43.36448" lon="6.6812">
        <ele>153.19999694824</ele>
        <time>2018-10-13T09:59:40Z</time>
      </trkpt>
      <trkpt lat="43.36442" lon="6.68133">
        <ele>153.19999694824</ele>
        <time>2018-10-13T09:59:42Z</time>
      </trkpt>
      <trkpt lat="43.3644" lon="6.6814">
        <ele>153.19999694824</ele>
        <time>2018-10-13T09:59:43Z</time>
      </trkpt>
      <trkpt lat="43.36439" lon="6.68148">
        <ele>153.39999389648</ele>
        <time>2018-10-13T09:59:44Z</time>
      </trkpt>
      <trkpt lat="43.3644" lon="6.68162">
        <ele>153.39999389648</ele>
        <time>2018-10-13T09:59:46Z</time>
      </trkpt>
      <trkpt lat="43.36442" lon="6.682">
        <ele>153.80000305176</ele>
        <time>2018-10-13T09:59:51Z</time>
      </trkpt>
      <trkpt lat="43.36443" lon="6.68207">
        <ele>154</ele>
        <time>2018-10-13T09:59:52Z</time>
      </trkpt>
      <trkpt lat="43.36448" lon="6.68243">
        <ele>154.19999694824</ele>
        <time>2018-10-13T09:59:57Z</time>
      </trkpt>
      <trkpt lat="43.36449" lon="6.68251">
        <ele>154.19999694824</ele>
        <time>2018-10-13T09:59:58Z</time>
      </trkpt>
      <trkpt lat="43.36449" lon="6.68258">
        <ele>154.19999694824</ele>
        <time>2018-10-13T09:59:59Z</time>
      </trkpt>
      <trkpt lat="43.36448" lon="6.68283">
        <ele>154.19999694824</ele>
        <time>2018-10-13T10:00:02Z</time>
      </trkpt>
      <trkpt lat="43.36447" lon="6.6829">
        <ele>154.19999694824</ele>
        <time>2018-10-13T10:00:03Z</time>
      </trkpt>
      <trkpt lat="43.36444" lon="6.68298">
        <ele>154.39999389648</ele>
        <time>2018-10-13T10:00:04Z</time>
      </trkpt>
      <trkpt lat="43.36434" lon="6.68319">
        <ele>154.39999389648</ele>
        <time>2018-10-13T10:00:07Z</time>
      </trkpt>
      <trkpt lat="43.36425" lon="6.6833">
        <ele>154.39999389648</ele>
        <time>2018-10-13T10:00:09Z</time>
      </trkpt>
      <trkpt lat="43.36413" lon="6.68339">
        <ele>154.60000610352</ele>
        <time>2018-10-13T10:00:11Z</time>
      </trkpt>
      <trkpt lat="43.36408" lon="6.68343">
        <ele>154.60000610352</ele>
        <time>2018-10-13T10:00:12Z</time>
      </trkpt>
      <trkpt lat="43.36389" lon="6.68352">
        <ele>154.60000610352</ele>
        <time>2018-10-13T10:00:15Z</time>
      </trkpt>
      <trkpt lat="43.36382" lon="6.68354">
        <ele>154.60000610352</ele>
        <time>2018-10-13T10:00:16Z</time>
      </trkpt>
      <trkpt lat="43.3637" lon="6.68359">
        <ele>154.60000610352</ele>
        <time>2018-10-13T10:00:18Z</time>
      </trkpt>
      <trkpt lat="43.36359" lon="6.6837">
        <ele>154.80000305176</ele>
        <time>2018-10-13T10:00:20Z</time>
      </trkpt>
      <trkpt lat="43.36352" lon="6.68384">
        <ele>154.80000305176</ele>
        <time>2018-10-13T10:00:22Z</time>
      </trkpt>
      <trkpt lat="43.36346" lon="6.684">
        <ele>154.80000305176</ele>
        <time>2018-10-13T10:00:24Z</time>
      </trkpt>
      <trkpt lat="43.36343" lon="6.68408">
        <ele>154.80000305176</ele>
        <time>2018-10-13T10:00:25Z</time>
      </trkpt>
      <trkpt lat="43.36338" lon="6.68432">
        <ele>154.80000305176</ele>
        <time>2018-10-13T10:00:28Z</time>
      </trkpt>
      <trkpt lat="43.36339" lon="6.68442">
        <ele>154.80000305176</ele>
        <time>2018-10-13T10:00:31Z</time>
      </trkpt>
      <trkpt lat="43.36339" lon="6.68441">
        <ele>154.80000305176</ele>
        <time>2018-10-13T10:00:32Z</time>
      </trkpt>
      <trkpt lat="43.36344" lon="6.68453">
        <ele>155.60000610352</ele>
        <time>2018-10-13T10:00:48Z</time>
      </trkpt>
      <trkpt lat="43.36346" lon="6.68456">
        <ele>155.60000610352</ele>
        <time>2018-10-13T10:00:50Z</time>
      </trkpt>
      <trkpt lat="43.36348" lon="6.68458">
        <ele>155.80000305176</ele>
        <time>2018-10-13T10:00:55Z</time>
      </trkpt>
      <trkpt lat="43.36348" lon="6.68458">
        <ele>155.80000305176</ele>
        <time>2018-10-13T10:00:56Z</time>
      </trkpt>
      <trkpt lat="43.3635" lon="6.68461">
        <ele>156</ele>
        <time>2018-10-13T10:00:59Z</time>
      </trkpt>
      <trkpt lat="43.36353" lon="6.68463">
        <ele>156</ele>
        <time>2018-10-13T10:01:01Z</time>
      </trkpt>
      <trkpt lat="43.36361" lon="6.68471">
        <ele>156.19999694824</ele>
        <time>2018-10-13T10:01:06Z</time>
      </trkpt>
      <trkpt lat="43.36374" lon="6.68485">
        <ele>156.80000305176</ele>
        <time>2018-10-13T10:01:14Z</time>
      </trkpt>
      <trkpt lat="43.36384" lon="6.68502">
        <ele>157.19999694824</ele>
        <time>2018-10-13T10:01:21Z</time>
      </trkpt>
      <trkpt lat="43.36389" lon="6.68509">
        <ele>157.39999389648</ele>
        <time>2018-10-13T10:01:24Z</time>
      </trkpt>
      <trkpt lat="43.36391" lon="6.68514">
        <ele>157.60000610352</ele>
        <time>2018-10-13T10:01:26Z</time>
      </trkpt>
      <trkpt lat="43.36404" lon="6.6853">
        <ele>157.80000305176</ele>
        <time>2018-10-13T10:01:33Z</time>
      </trkpt>
      <trkpt lat="43.36414" lon="6.6854">
        <ele>158.19999694824</ele>
        <time>2018-10-13T10:01:38Z</time>
      </trkpt>
      <trkpt lat="43.36416" lon="6.6854">
        <ele>158.19999694824</ele>
        <time>2018-10-13T10:01:39Z</time>
      </trkpt>
      <trkpt lat="43.36433" lon="6.68549">
        <ele>159</ele>
        <time>2018-10-13T10:01:47Z</time>
      </trkpt>
      <trkpt lat="43.36443" lon="6.68559">
        <ele>159.39999389648</ele>
        <time>2018-10-13T10:01:53Z</time>
      </trkpt>
      <trkpt lat="43.36455" lon="6.68572">
        <ele>160</ele>
        <time>2018-10-13T10:02:00Z</time>
      </trkpt>
      <trkpt lat="43.36466" lon="6.68594">
        <ele>160.19999694824</ele>
        <time>2018-10-13T10:02:07Z</time>
      </trkpt>
      <trkpt lat="43.3648" lon="6.68621">
        <ele>160.19999694824</ele>
        <time>2018-10-13T10:02:14Z</time>
      </trkpt>
      <trkpt lat="43.36485" lon="6.68631">
        <ele>160.19999694824</ele>
        <time>2018-10-13T10:02:16Z</time>
      </trkpt>
      <trkpt lat="43.36491" lon="6.68642">
        <ele>160.19999694824</ele>
        <time>2018-10-13T10:02:18Z</time>
      </trkpt>
      <trkpt lat="43.36499" lon="6.6866">
        <ele>160</ele>
        <time>2018-10-13T10:02:21Z</time>
      </trkpt>
      <trkpt lat="43.36506" lon="6.68672">
        <ele>160</ele>
        <time>2018-10-13T10:02:23Z</time>
      </trkpt>
      <trkpt lat="43.36517" lon="6.68699">
        <ele>159.60000610352</ele>
        <time>2018-10-13T10:02:27Z</time>
      </trkpt>
      <trkpt lat="43.36521" lon="6.68715">
        <ele>159.39999389648</ele>
        <time>2018-10-13T10:02:29Z</time>
      </trkpt>
      <trkpt lat="43.36523" lon="6.68732">
        <ele>159</ele>
        <time>2018-10-13T10:02:31Z</time>
      </trkpt>
      <trkpt lat="43.36522" lon="6.68747">
        <ele>158.80000305176</ele>
        <time>2018-10-13T10:02:33Z</time>
      </trkpt>
      <trkpt lat="43.36521" lon="6.68753">
        <ele>158.80000305176</ele>
        <time>2018-10-13T10:02:34Z</time>
      </trkpt>
      <trkpt lat="43.36517" lon="6.68775">
        <ele>158.39999389648</ele>
        <time>2018-10-13T10:02:38Z</time>
      </trkpt>
      <trkpt lat="43.36515" lon="6.68781">
        <ele>158.19999694824</ele>
        <time>2018-10-13T10:02:39Z</time>
      </trkpt>
      <trkpt lat="43.3651" lon="6.68791">
        <ele>158</ele>
        <time>2018-10-13T10:02:41Z</time>
      </trkpt>
      <trkpt lat="43.36505" lon="6.688">
        <ele>157.80000305176</ele>
        <time>2018-10-13T10:02:43Z</time>
      </trkpt>
      <trkpt lat="43.36502" lon="6.68804">
        <ele>157.80000305176</ele>
        <time>2018-10-13T10:02:44Z</time>
      </trkpt>
      <trkpt lat="43.36494" lon="6.68807">
        <ele>157.80000305176</ele>
        <time>2018-10-13T10:02:46Z</time>
      </trkpt>
      <trkpt lat="43.36478" lon="6.68806">
        <ele>157.19999694824</ele>
        <time>2018-10-13T10:02:51Z</time>
      </trkpt>
      <trkpt lat="43.36471" lon="6.68808">
        <ele>156.60000610352</ele>
        <time>2018-10-13T10:02:54Z</time>
      </trkpt>
      <trkpt lat="43.36468" lon="6.68811">
        <ele>156.39999389648</ele>
        <time>2018-10-13T10:02:55Z</time>
      </trkpt>
      <trkpt lat="43.36462" lon="6.68822">
        <ele>155.80000305176</ele>
        <time>2018-10-13T10:02:57Z</time>
      </trkpt>
      <trkpt lat="43.36457" lon="6.68827">
        <ele>155.39999389648</ele>
        <time>2018-10-13T10:02:58Z</time>
      </trkpt>
      <trkpt lat="43.36451" lon="6.68831">
        <ele>155</ele>
        <time>2018-10-13T10:02:59Z</time>
      </trkpt>
      <trkpt lat="43.36441" lon="6.68837">
        <ele>154.39999389648</ele>
        <time>2018-10-13T10:03:01Z</time>
      </trkpt>
      <trkpt lat="43.36429" lon="6.68835">
        <ele>153.80000305176</ele>
        <time>2018-10-13T10:03:04Z</time>
      </trkpt>
      <trkpt lat="43.36426" lon="6.68835">
        <ele>153.60000610352</ele>
        <time>2018-10-13T10:03:05Z</time>
      </trkpt>
      <trkpt lat="43.36414" lon="6.68835">
        <ele>153</ele>
        <time>2018-10-13T10:03:08Z</time>
      </trkpt>
      <trkpt lat="43.36401" lon="6.68835">
        <ele>152.39999389648</ele>
        <time>2018-10-13T10:03:12Z</time>
      </trkpt>
      <trkpt lat="43.36395" lon="6.68839">
        <ele>152</ele>
        <time>2018-10-13T10:03:16Z</time>
      </trkpt>
      <trkpt lat="43.36393" lon="6.68839">
        <ele>151.80000305176</ele>
        <time>2018-10-13T10:03:17Z</time>
      </trkpt>
      <trkpt lat="43.36389" lon="6.6884">
        <ele>151.80000305176</ele>
        <time>2018-10-13T10:03:20Z</time>
      </trkpt>
      <trkpt lat="43.36388" lon="6.68841">
        <ele>151.80000305176</ele>
        <time>2018-10-13T10:03:21Z</time>
      </trkpt>
      <trkpt lat="43.36379" lon="6.68847">
        <ele>151.19999694824</ele>
        <time>2018-10-13T10:03:28Z</time>
      </trkpt>
      <trkpt lat="43.36374" lon="6.68855">
        <ele>150.19999694824</ele>
        <time>2018-10-13T10:03:35Z</time>
      </trkpt>
      <trkpt lat="43.36366" lon="6.68873">
        <ele>149.19999694824</ele>
        <time>2018-10-13T10:03:43Z</time>
      </trkpt>
      <trkpt lat="43.36358" lon="6.68894">
        <ele>148.60000610352</ele>
        <time>2018-10-13T10:03:50Z</time>
      </trkpt>
      <trkpt lat="43.36356" lon="6.68899">
        <ele>148.60000610352</ele>
        <time>2018-10-13T10:03:52Z</time>
      </trkpt>
      <trkpt lat="43.36351" lon="6.68907">
        <ele>148.39999389648</ele>
        <time>2018-10-13T10:03:55Z</time>
      </trkpt>
      <trkpt lat="43.3634" lon="6.68923">
        <ele>148.19999694824</ele>
        <time>2018-10-13T10:04:01Z</time>
      </trkpt>
      <trkpt lat="43.36328" lon="6.6894">
        <ele>148</ele>
        <time>2018-10-13T10:04:07Z</time>
      </trkpt>
      <trkpt lat="43.36314" lon="6.6895">
        <ele>147.60000610352</ele>
        <time>2018-10-13T10:04:12Z</time>
      </trkpt>
      <trkpt lat="43.3631" lon="6.68953">
        <ele>147.39999389648</ele>
        <time>2018-10-13T10:04:13Z</time>
      </trkpt>
      <trkpt lat="43.36301" lon="6.6896">
        <ele>147</ele>
        <time>2018-10-13T10:04:15Z</time>
      </trkpt>
      <trkpt lat="43.36296" lon="6.68973">
        <ele>146.60000610352</ele>
        <time>2018-10-13T10:04:18Z</time>
      </trkpt>
      <trkpt lat="43.36295" lon="6.68981">
        <ele>146</ele>
        <time>2018-10-13T10:04:22Z</time>
      </trkpt>
      <trkpt lat="43.36292" lon="6.68989">
        <ele>145.80000305176</ele>
        <time>2018-10-13T10:04:27Z</time>
      </trkpt>
      <trkpt lat="43.36292" lon="6.68989">
        <ele>145.80000305176</ele>
        <time>2018-10-13T10:04:28Z</time>
      </trkpt>
      <trkpt lat="43.36275" lon="6.69059">
        <ele>154.60000610352</ele>
        <time>2018-10-13T10:05:40Z</time>
      </trkpt>
      <trkpt lat="43.36274" lon="6.69064">
        <ele>154.80000305176</ele>
        <time>2018-10-13T10:05:42Z</time>
      </trkpt>
      <trkpt lat="43.36274" lon="6.69086">
        <ele>155.19999694824</ele>
        <time>2018-10-13T10:05:47Z</time>
      </trkpt>
      <trkpt lat="43.3627" lon="6.69111">
        <ele>155.39999389648</ele>
        <time>2018-10-13T10:05:52Z</time>
      </trkpt>
      <trkpt lat="43.3627" lon="6.69117">
        <ele>155.39999389648</ele>
        <time>2018-10-13T10:05:53Z</time>
      </trkpt>
      <trkpt lat="43.36274" lon="6.69128">
        <ele>155.39999389648</ele>
        <time>2018-10-13T10:05:55Z</time>
      </trkpt>
      <trkpt lat="43.36276" lon="6.69132">
        <ele>155.60000610352</ele>
        <time>2018-10-13T10:05:56Z</time>
      </trkpt>
      <trkpt lat="43.36284" lon="6.69145">
        <ele>155.80000305176</ele>
        <time>2018-10-13T10:06:00Z</time>
      </trkpt>
      <trkpt lat="43.3629" lon="6.6915">
        <ele>156</ele>
        <time>2018-10-13T10:06:01Z</time>
      </trkpt>
      <trkpt lat="43.36294" lon="6.69154">
        <ele>156.19999694824</ele>
        <time>2018-10-13T10:06:02Z</time>
      </trkpt>
      <trkpt lat="43.3629" lon="6.6918">
        <ele>156.39999389648</ele>
        <time>2018-10-13T10:06:07Z</time>
      </trkpt>
      <trkpt lat="43.3629" lon="6.69197">
        <ele>156.39999389648</ele>
        <time>2018-10-13T10:06:09Z</time>
      </trkpt>
      <trkpt lat="43.36291" lon="6.69214">
        <ele>156.39999389648</ele>
        <time>2018-10-13T10:06:11Z</time>
      </trkpt>
      <trkpt lat="43.36298" lon="6.69224">
        <ele>156.39999389648</ele>
        <time>2018-10-13T10:06:13Z</time>
      </trkpt>
      <trkpt lat="43.36304" lon="6.69226">
        <ele>156.39999389648</ele>
        <time>2018-10-13T10:06:14Z</time>
      </trkpt>
      <trkpt lat="43.36323" lon="6.69227">
        <ele>156.19999694824</ele>
        <time>2018-10-13T10:06:17Z</time>
      </trkpt>
      <trkpt lat="43.36331" lon="6.6923">
        <ele>156</ele>
        <time>2018-10-13T10:06:18Z</time>
      </trkpt>
      <trkpt lat="43.36339" lon="6.69235">
        <ele>155.80000305176</ele>
        <time>2018-10-13T10:06:19Z</time>
      </trkpt>
      <trkpt lat="43.36354" lon="6.69253">
        <ele>155.39999389648</ele>
        <time>2018-10-13T10:06:21Z</time>
      </trkpt>
      <trkpt lat="43.3637" lon="6.6927">
        <ele>154.80000305176</ele>
        <time>2018-10-13T10:06:23Z</time>
      </trkpt>
      <trkpt lat="43.36388" lon="6.69283">
        <ele>154.39999389648</ele>
        <time>2018-10-13T10:06:25Z</time>
      </trkpt>
      <trkpt lat="43.36414" lon="6.69293">
        <ele>153.60000610352</ele>
        <time>2018-10-13T10:06:28Z</time>
      </trkpt>
      <trkpt lat="43.36421" lon="6.69295">
        <ele>153.19999694824</ele>
        <time>2018-10-13T10:06:29Z</time>
      </trkpt>
      <trkpt lat="43.36434" lon="6.69302">
        <ele>152.39999389648</ele>
        <time>2018-10-13T10:06:31Z</time>
      </trkpt>
      <trkpt lat="43.3644" lon="6.69307">
        <ele>152</ele>
        <time>2018-10-13T10:06:32Z</time>
      </trkpt>
      <trkpt lat="43.36446" lon="6.69313">
        <ele>151.60000610352</ele>
        <time>2018-10-13T10:06:33Z</time>
      </trkpt>
      <trkpt lat="43.36454" lon="6.69329">
        <ele>151</ele>
        <time>2018-10-13T10:06:35Z</time>
      </trkpt>
      <trkpt lat="43.36458" lon="6.69347">
        <ele>150.60000610352</ele>
        <time>2018-10-13T10:06:37Z</time>
      </trkpt>
      <trkpt lat="43.36461" lon="6.69374">
        <ele>150.19999694824</ele>
        <time>2018-10-13T10:06:40Z</time>
      </trkpt>
      <trkpt lat="43.36459" lon="6.69406">
        <ele>149.60000610352</ele>
        <time>2018-10-13T10:06:44Z</time>
      </trkpt>
      <trkpt lat="43.36458" lon="6.69414">
        <ele>149.39999389648</ele>
        <time>2018-10-13T10:06:45Z</time>
      </trkpt>
      <trkpt lat="43.36455" lon="6.69431">
        <ele>148.80000305176</ele>
        <time>2018-10-13T10:06:47Z</time>
      </trkpt>
      <trkpt lat="43.36455" lon="6.69442">
        <ele>148.39999389648</ele>
        <time>2018-10-13T10:06:48Z</time>
      </trkpt>
      <trkpt lat="43.36457" lon="6.69453">
        <ele>148</ele>
        <time>2018-10-13T10:06:49Z</time>
      </trkpt>
      <trkpt lat="43.36467" lon="6.69474">
        <ele>147.19999694824</ele>
        <time>2018-10-13T10:06:51Z</time>
      </trkpt>
      <trkpt lat="43.36482" lon="6.69488">
        <ele>146.39999389648</ele>
        <time>2018-10-13T10:06:53Z</time>
      </trkpt>
      <trkpt lat="43.36491" lon="6.69494">
        <ele>146</ele>
        <time>2018-10-13T10:06:54Z</time>
      </trkpt>
      <trkpt lat="43.36504" lon="6.69511">
        <ele>145</ele>
        <time>2018-10-13T10:06:56Z</time>
      </trkpt>
      <trkpt lat="43.36519" lon="6.69554">
        <ele>143.80000305176</ele>
        <time>2018-10-13T10:07:00Z</time>
      </trkpt>
      <trkpt lat="43.36524" lon="6.69565">
        <ele>143.60000610352</ele>
        <time>2018-10-13T10:07:01Z</time>
      </trkpt>
      <trkpt lat="43.36542" lon="6.69606">
        <ele>142.60000610352</ele>
        <time>2018-10-13T10:07:05Z</time>
      </trkpt>
      <trkpt lat="43.36551" lon="6.69649">
        <ele>141.19999694824</ele>
        <time>2018-10-13T10:07:09Z</time>
      </trkpt>
      <trkpt lat="43.36568" lon="6.69692">
        <ele>139.19999694824</ele>
        <time>2018-10-13T10:07:14Z</time>
      </trkpt>
      <trkpt lat="43.36575" lon="6.69711">
        <ele>137.80000305176</ele>
        <time>2018-10-13T10:07:17Z</time>
      </trkpt>
      <trkpt lat="43.36577" lon="6.69716">
        <ele>137.39999389648</ele>
        <time>2018-10-13T10:07:18Z</time>
      </trkpt>
      <trkpt lat="43.36579" lon="6.6973">
        <ele>135.60000610352</ele>
        <time>2018-10-13T10:07:22Z</time>
      </trkpt>
      <trkpt lat="43.36575" lon="6.69731">
        <ele>134.60000610352</ele>
        <time>2018-10-13T10:07:24Z</time>
      </trkpt>
      <trkpt lat="43.36571" lon="6.69728">
        <ele>134</ele>
        <time>2018-10-13T10:07:26Z</time>
      </trkpt>
      <trkpt lat="43.36562" lon="6.69715">
        <ele>132.39999389648</ele>
        <time>2018-10-13T10:07:32Z</time>
      </trkpt>
      <trkpt lat="43.36553" lon="6.69704">
        <ele>131.19999694824</ele>
        <time>2018-10-13T10:07:39Z</time>
      </trkpt>
      <trkpt lat="43.36541" lon="6.69689">
        <ele>129.80000305176</ele>
        <time>2018-10-13T10:07:47Z</time>
      </trkpt>
      <trkpt lat="43.3653" lon="6.69679">
        <ele>128.80000305176</ele>
        <time>2018-10-13T10:07:54Z</time>
      </trkpt>
      <trkpt lat="43.36526" lon="6.69676">
        <ele>128.39999389648</ele>
        <time>2018-10-13T10:07:57Z</time>
      </trkpt>
      <trkpt lat="43.3652" lon="6.69674">
        <ele>128.19999694824</ele>
        <time>2018-10-13T10:08:00Z</time>
      </trkpt>
      <trkpt lat="43.36507" lon="6.69668">
        <ele>128</ele>
        <time>2018-10-13T10:08:08Z</time>
      </trkpt>
      <trkpt lat="43.36497" lon="6.69672">
        <ele>127.40000152588</ele>
        <time>2018-10-13T10:08:14Z</time>
      </trkpt>
      <trkpt lat="43.36488" lon="6.69689">
        <ele>126</ele>
        <time>2018-10-13T10:08:21Z</time>
      </trkpt>
      <trkpt lat="43.36475" lon="6.69707">
        <ele>125</ele>
        <time>2018-10-13T10:08:28Z</time>
      </trkpt>
      <trkpt lat="43.36459" lon="6.69722">
        <ele>124.40000152588</ele>
        <time>2018-10-13T10:08:37Z</time>
      </trkpt>
      <trkpt lat="43.36446" lon="6.69725">
        <ele>124.59999847412</ele>
        <time>2018-10-13T10:08:45Z</time>
      </trkpt>
      <trkpt lat="43.36438" lon="6.69725">
        <ele>125</ele>
        <time>2018-10-13T10:08:51Z</time>
      </trkpt>
      <trkpt lat="43.36428" lon="6.69723">
        <ele>125.40000152588</ele>
        <time>2018-10-13T10:08:58Z</time>
      </trkpt>
      <trkpt lat="43.36418" lon="6.69719">
        <ele>125.80000305176</ele>
        <time>2018-10-13T10:09:05Z</time>
      </trkpt>
      <trkpt lat="43.36405" lon="6.69713">
        <ele>126.80000305176</ele>
        <time>2018-10-13T10:09:15Z</time>
      </trkpt>
      <trkpt lat="43.36397" lon="6.69706">
        <ele>127.59999847412</ele>
        <time>2018-10-13T10:09:22Z</time>
      </trkpt>
      <trkpt lat="43.36391" lon="6.697">
        <ele>128.39999389648</ele>
        <time>2018-10-13T10:09:28Z</time>
      </trkpt>
      <trkpt lat="43.36383" lon="6.69694">
        <ele>129</ele>
        <time>2018-10-13T10:09:35Z</time>
      </trkpt>
      <trkpt lat="43.36376" lon="6.69687">
        <ele>130</ele>
        <time>2018-10-13T10:09:42Z</time>
      </trkpt>
      <trkpt lat="43.36369" lon="6.69681">
        <ele>130.80000305176</ele>
        <time>2018-10-13T10:09:49Z</time>
      </trkpt>
      <trkpt lat="43.36366" lon="6.69679">
        <ele>131.39999389648</ele>
        <time>2018-10-13T10:09:52Z</time>
      </trkpt>
      <trkpt lat="43.36363" lon="6.69679">
        <ele>131.60000610352</ele>
        <time>2018-10-13T10:09:54Z</time>
      </trkpt>
      <trkpt lat="43.36359" lon="6.69677">
        <ele>132.39999389648</ele>
        <time>2018-10-13T10:09:58Z</time>
      </trkpt>
      <trkpt lat="43.36356" lon="6.69678">
        <ele>132.60000610352</ele>
        <time>2018-10-13T10:10:00Z</time>
      </trkpt>
      <trkpt lat="43.36348" lon="6.69676">
        <ele>133.60000610352</ele>
        <time>2018-10-13T10:10:07Z</time>
      </trkpt>
      <trkpt lat="43.36341" lon="6.69675">
        <ele>134.60000610352</ele>
        <time>2018-10-13T10:10:14Z</time>
      </trkpt>
      <trkpt lat="43.36333" lon="6.69675">
        <ele>135.80000305176</ele>
        <time>2018-10-13T10:10:21Z</time>
      </trkpt>
      <trkpt lat="43.36332" lon="6.69675">
        <ele>135.80000305176</ele>
        <time>2018-10-13T10:10:22Z</time>
      </trkpt>
      <trkpt lat="43.36327" lon="6.69672">
        <ele>136.80000305176</ele>
        <time>2018-10-13T10:10:27Z</time>
      </trkpt>
      <trkpt lat="43.3632" lon="6.69672">
        <ele>137.80000305176</ele>
        <time>2018-10-13T10:10:33Z</time>
      </trkpt>
      <trkpt lat="43.36319" lon="6.69672">
        <ele>138</ele>
        <time>2018-10-13T10:10:34Z</time>
      </trkpt>
      <trkpt lat="43.36317" lon="6.69671">
        <ele>138.19999694824</ele>
        <time>2018-10-13T10:10:36Z</time>
      </trkpt>
      <trkpt lat="43.36315" lon="6.6967">
        <ele>138.60000610352</ele>
        <time>2018-10-13T10:10:38Z</time>
      </trkpt>
      <trkpt lat="43.36308" lon="6.69666">
        <ele>140</ele>
        <time>2018-10-13T10:10:46Z</time>
      </trkpt>
      <trkpt lat="43.363" lon="6.69662">
        <ele>141.39999389648</ele>
        <time>2018-10-13T10:10:53Z</time>
      </trkpt>
      <trkpt lat="43.36295" lon="6.69656">
        <ele>142.39999389648</ele>
        <time>2018-10-13T10:10:59Z</time>
      </trkpt>
      <trkpt lat="43.36293" lon="6.69655">
        <ele>142.80000305176</ele>
        <time>2018-10-13T10:11:01Z</time>
      </trkpt>
      <trkpt lat="43.36285" lon="6.69647">
        <ele>144.39999389648</ele>
        <time>2018-10-13T10:11:10Z</time>
      </trkpt>
      <trkpt lat="43.36284" lon="6.69645">
        <ele>144.80000305176</ele>
        <time>2018-10-13T10:11:12Z</time>
      </trkpt>
      <trkpt lat="43.36281" lon="6.69643">
        <ele>145.39999389648</ele>
        <time>2018-10-13T10:11:15Z</time>
      </trkpt>
      <trkpt lat="43.36275" lon="6.69635">
        <ele>146.80000305176</ele>
        <time>2018-10-13T10:11:23Z</time>
      </trkpt>
      <trkpt lat="43.36274" lon="6.69634">
        <ele>147</ele>
        <time>2018-10-13T10:11:24Z</time>
      </trkpt>
      <trkpt lat="43.3627" lon="6.69628">
        <ele>148</ele>
        <time>2018-10-13T10:11:29Z</time>
      </trkpt>
      <trkpt lat="43.36267" lon="6.69623">
        <ele>148.80000305176</ele>
        <time>2018-10-13T10:11:33Z</time>
      </trkpt>
      <trkpt lat="43.36265" lon="6.6962">
        <ele>149</ele>
        <time>2018-10-13T10:11:35Z</time>
      </trkpt>
      <trkpt lat="43.36261" lon="6.69614">
        <ele>150.19999694824</ele>
        <time>2018-10-13T10:11:41Z</time>
      </trkpt>
      <trkpt lat="43.36259" lon="6.69612">
        <ele>150.60000610352</ele>
        <time>2018-10-13T10:11:43Z</time>
      </trkpt>
      <trkpt lat="43.36258" lon="6.69611">
        <ele>150.80000305176</ele>
        <time>2018-10-13T10:11:44Z</time>
      </trkpt>
      <trkpt lat="43.36255" lon="6.69608">
        <ele>151.60000610352</ele>
        <time>2018-10-13T10:11:48Z</time>
      </trkpt>
      <trkpt lat="43.36247" lon="6.69601">
        <ele>152.80000305176</ele>
        <time>2018-10-13T10:11:55Z</time>
      </trkpt>
      <trkpt lat="43.36246" lon="6.696">
        <ele>153</ele>
        <time>2018-10-13T10:11:56Z</time>
      </trkpt>
      <trkpt lat="43.3624" lon="6.69592">
        <ele>154.39999389648</ele>
        <time>2018-10-13T10:12:03Z</time>
      </trkpt>
      <trkpt lat="43.36233" lon="6.69584">
        <ele>155.60000610352</ele>
        <time>2018-10-13T10:12:10Z</time>
      </trkpt>
      <trkpt lat="43.36226" lon="6.69572">
        <ele>157.19999694824</ele>
        <time>2018-10-13T10:12:19Z</time>
      </trkpt>
      <trkpt lat="43.36221" lon="6.69564">
        <ele>158.19999694824</ele>
        <time>2018-10-13T10:12:25Z</time>
      </trkpt>
      <trkpt lat="43.36219" lon="6.69554">
        <ele>159.39999389648</ele>
        <time>2018-10-13T10:12:31Z</time>
      </trkpt>
      <trkpt lat="43.36215" lon="6.69544">
        <ele>160.80000305176</ele>
        <time>2018-10-13T10:12:39Z</time>
      </trkpt>
      <trkpt lat="43.36211" lon="6.69537">
        <ele>161.80000305176</ele>
        <time>2018-10-13T10:12:45Z</time>
      </trkpt>
      <trkpt lat="43.36206" lon="6.69532">
        <ele>162.80000305176</ele>
        <time>2018-10-13T10:12:51Z</time>
      </trkpt>
      <trkpt lat="43.36204" lon="6.69532">
        <ele>163.19999694824</ele>
        <time>2018-10-13T10:12:53Z</time>
      </trkpt>
      <trkpt lat="43.36197" lon="6.69527">
        <ele>164.60000610352</ele>
        <time>2018-10-13T10:12:59Z</time>
      </trkpt>
      <trkpt lat="43.36188" lon="6.69521">
        <ele>166</ele>
        <time>2018-10-13T10:13:07Z</time>
      </trkpt>
      <trkpt lat="43.36177" lon="6.69513">
        <ele>167.60000610352</ele>
        <time>2018-10-13T10:13:17Z</time>
      </trkpt>
      <trkpt lat="43.36176" lon="6.69513">
        <ele>167.80000305176</ele>
        <time>2018-10-13T10:13:18Z</time>
      </trkpt>
      <trkpt lat="43.36172" lon="6.69507">
        <ele>168.60000610352</ele>
        <time>2018-10-13T10:13:23Z</time>
      </trkpt>
      <trkpt lat="43.36166" lon="6.695">
        <ele>169.80000305176</ele>
        <time>2018-10-13T10:13:30Z</time>
      </trkpt>
      <trkpt lat="43.36165" lon="6.69499">
        <ele>170</ele>
        <time>2018-10-13T10:13:31Z</time>
      </trkpt>
      <trkpt lat="43.36164" lon="6.69497">
        <ele>170.39999389648</ele>
        <time>2018-10-13T10:13:33Z</time>
      </trkpt>
      <trkpt lat="43.36159" lon="6.69493">
        <ele>171</ele>
        <time>2018-10-13T10:13:37Z</time>
      </trkpt>
      <trkpt lat="43.36151" lon="6.69486">
        <ele>172.19999694824</ele>
        <time>2018-10-13T10:13:45Z</time>
      </trkpt>
      <trkpt lat="43.3615" lon="6.69485">
        <ele>172.39999389648</ele>
        <time>2018-10-13T10:13:46Z</time>
      </trkpt>
      <trkpt lat="43.36148" lon="6.69483">
        <ele>172.80000305176</ele>
        <time>2018-10-13T10:13:48Z</time>
      </trkpt>
      <trkpt lat="43.36147" lon="6.69481">
        <ele>173.19999694824</ele>
        <time>2018-10-13T10:13:50Z</time>
      </trkpt>
      <trkpt lat="43.36141" lon="6.69476">
        <ele>174.19999694824</ele>
        <time>2018-10-13T10:13:55Z</time>
      </trkpt>
      <trkpt lat="43.36138" lon="6.69476">
        <ele>174.39999389648</ele>
        <time>2018-10-13T10:13:57Z</time>
      </trkpt>
      <trkpt lat="43.36128" lon="6.69472">
        <ele>175.60000610352</ele>
        <time>2018-10-13T10:14:05Z</time>
      </trkpt>
      <trkpt lat="43.3612" lon="6.69472">
        <ele>176.60000610352</ele>
        <time>2018-10-13T10:14:12Z</time>
      </trkpt>
      <trkpt lat="43.36117" lon="6.69472">
        <ele>176.80000305176</ele>
        <time>2018-10-13T10:14:14Z</time>
      </trkpt>
      <trkpt lat="43.36112" lon="6.69472">
        <ele>177.39999389648</ele>
        <time>2018-10-13T10:14:18Z</time>
      </trkpt>
      <trkpt lat="43.36101" lon="6.69473">
        <ele>178.19999694824</ele>
        <time>2018-10-13T10:14:25Z</time>
      </trkpt>
      <trkpt lat="43.36087" lon="6.69473">
        <ele>179</ele>
        <time>2018-10-13T10:14:32Z</time>
      </trkpt>
      <trkpt lat="43.36075" lon="6.69471">
        <ele>179.19999694824</ele>
        <time>2018-10-13T10:14:36Z</time>
      </trkpt>
      <trkpt lat="43.36071" lon="6.69474">
        <ele>179.19999694824</ele>
        <time>2018-10-13T10:14:37Z</time>
      </trkpt>
      <trkpt lat="43.36069" lon="6.69479">
        <ele>179.19999694824</ele>
        <time>2018-10-13T10:14:38Z</time>
      </trkpt>
      <trkpt lat="43.36064" lon="6.69491">
        <ele>179.19999694824</ele>
        <time>2018-10-13T10:14:40Z</time>
      </trkpt>
      <trkpt lat="43.36062" lon="6.69495">
        <ele>179.19999694824</ele>
        <time>2018-10-13T10:14:41Z</time>
      </trkpt>
      <trkpt lat="43.36057" lon="6.69508">
        <ele>179.19999694824</ele>
        <time>2018-10-13T10:14:44Z</time>
      </trkpt>
      <trkpt lat="43.36057" lon="6.69515">
        <ele>179.19999694824</ele>
        <time>2018-10-13T10:14:45Z</time>
      </trkpt>
      <trkpt lat="43.36056" lon="6.69522">
        <ele>179</ele>
        <time>2018-10-13T10:14:46Z</time>
      </trkpt>
      <trkpt lat="43.36057" lon="6.6954">
        <ele>179</ele>
        <time>2018-10-13T10:14:48Z</time>
      </trkpt>
      <trkpt lat="43.3606" lon="6.6956">
        <ele>178.60000610352</ele>
        <time>2018-10-13T10:14:50Z</time>
      </trkpt>
      <trkpt lat="43.36066" lon="6.69579">
        <ele>178</ele>
        <time>2018-10-13T10:14:52Z</time>
      </trkpt>
      <trkpt lat="43.36071" lon="6.69588">
        <ele>177.60000610352</ele>
        <time>2018-10-13T10:14:53Z</time>
      </trkpt>
      <trkpt lat="43.36079" lon="6.69603">
        <ele>177</ele>
        <time>2018-10-13T10:14:55Z</time>
      </trkpt>
      <trkpt lat="43.36084" lon="6.69619">
        <ele>176.19999694824</ele>
        <time>2018-10-13T10:14:57Z</time>
      </trkpt>
      <trkpt lat="43.36084" lon="6.69627">
        <ele>175.80000305176</ele>
        <time>2018-10-13T10:14:58Z</time>
      </trkpt>
      <trkpt lat="43.36084" lon="6.69636">
        <ele>175.39999389648</ele>
        <time>2018-10-13T10:14:59Z</time>
      </trkpt>
      <trkpt lat="43.36083" lon="6.69658">
        <ele>174.60000610352</ele>
        <time>2018-10-13T10:15:01Z</time>
      </trkpt>
      <trkpt lat="43.36083" lon="6.69671">
        <ele>174.19999694824</ele>
        <time>2018-10-13T10:15:02Z</time>
      </trkpt>
      <trkpt lat="43.36087" lon="6.69693">
        <ele>173.39999389648</ele>
        <time>2018-10-13T10:15:04Z</time>
      </trkpt>
      <trkpt lat="43.36105" lon="6.69716">
        <ele>172.60000610352</ele>
        <time>2018-10-13T10:15:07Z</time>
      </trkpt>
      <trkpt lat="43.36127" lon="6.69753">
        <ele>171.60000610352</ele>
        <time>2018-10-13T10:15:11Z</time>
      </trkpt>
      <trkpt lat="43.36131" lon="6.69773">
        <ele>170.80000305176</ele>
        <time>2018-10-13T10:15:13Z</time>
      </trkpt>
      <trkpt lat="43.36133" lon="6.69784">
        <ele>170.39999389648</ele>
        <time>2018-10-13T10:15:14Z</time>
      </trkpt>
      <trkpt lat="43.36137" lon="6.69822">
        <ele>168.60000610352</ele>
        <time>2018-10-13T10:15:18Z</time>
      </trkpt>
      <trkpt lat="43.36134" lon="6.69838">
        <ele>167.19999694824</ele>
        <time>2018-10-13T10:15:21Z</time>
      </trkpt>
      <trkpt lat="43.36131" lon="6.69841">
        <ele>166.60000610352</ele>
        <time>2018-10-13T10:15:22Z</time>
      </trkpt>
      <trkpt lat="43.36127" lon="6.69842">
        <ele>166</ele>
        <time>2018-10-13T10:15:23Z</time>
      </trkpt>
      <trkpt lat="43.36117" lon="6.69838">
        <ele>165.19999694824</ele>
        <time>2018-10-13T10:15:25Z</time>
      </trkpt>
      <trkpt lat="43.36097" lon="6.69818">
        <ele>163.39999389648</ele>
        <time>2018-10-13T10:15:29Z</time>
      </trkpt>
      <trkpt lat="43.36074" lon="6.69798">
        <ele>161.60000610352</ele>
        <time>2018-10-13T10:15:33Z</time>
      </trkpt>
      <trkpt lat="43.36051" lon="6.69779">
        <ele>160</ele>
        <time>2018-10-13T10:15:37Z</time>
      </trkpt>
      <trkpt lat="43.36047" lon="6.69775">
        <ele>159.60000610352</ele>
        <time>2018-10-13T10:15:38Z</time>
      </trkpt>
      <trkpt lat="43.36039" lon="6.6977">
        <ele>158.60000610352</ele>
        <time>2018-10-13T10:15:40Z</time>
      </trkpt>
      <trkpt lat="43.36026" lon="6.69759">
        <ele>156.80000305176</ele>
        <time>2018-10-13T10:15:44Z</time>
      </trkpt>
      <trkpt lat="43.36013" lon="6.69754">
        <ele>154</ele>
        <time>2018-10-13T10:15:49Z</time>
      </trkpt>
      <trkpt lat="43.36002" lon="6.69744">
        <ele>151.39999389648</ele>
        <time>2018-10-13T10:15:54Z</time>
      </trkpt>
      <trkpt lat="43.35995" lon="6.69728">
        <ele>149.19999694824</ele>
        <time>2018-10-13T10:15:58Z</time>
      </trkpt>
      <trkpt lat="43.35987" lon="6.69727">
        <ele>148</ele>
        <time>2018-10-13T10:16:00Z</time>
      </trkpt>
      <trkpt lat="43.35972" lon="6.6972">
        <ele>145.80000305176</ele>
        <time>2018-10-13T10:16:04Z</time>
      </trkpt>
      <trkpt lat="43.35968" lon="6.69718">
        <ele>145.39999389648</ele>
        <time>2018-10-13T10:16:05Z</time>
      </trkpt>
      <trkpt lat="43.35959" lon="6.6971">
        <ele>143.80000305176</ele>
        <time>2018-10-13T10:16:08Z</time>
      </trkpt>
      <trkpt lat="43.35953" lon="6.69704">
        <ele>141.80000305176</ele>
        <time>2018-10-13T10:16:12Z</time>
      </trkpt>
      <trkpt lat="43.35952" lon="6.69707">
        <ele>140.39999389648</ele>
        <time>2018-10-13T10:16:15Z</time>
      </trkpt>
      <trkpt lat="43.35952" lon="6.69708">
        <ele>139.39999389648</ele>
        <time>2018-10-13T10:16:17Z</time>
      </trkpt>
      <trkpt lat="43.35955" lon="6.69714">
        <ele>135</ele>
        <time>2018-10-13T10:16:29Z</time>
      </trkpt>
      <trkpt lat="43.35957" lon="6.69718">
        <ele>134.60000610352</ele>
        <time>2018-10-13T10:16:30Z</time>
      </trkpt>
      <trkpt lat="43.35964" lon="6.69736">
        <ele>132.80000305176</ele>
        <time>2018-10-13T10:16:35Z</time>
      </trkpt>
      <trkpt lat="43.35968" lon="6.69743">
        <ele>131.80000305176</ele>
        <time>2018-10-13T10:16:37Z</time>
      </trkpt>
      <trkpt lat="43.35972" lon="6.69754">
        <ele>131</ele>
        <time>2018-10-13T10:16:39Z</time>
      </trkpt>
      <trkpt lat="43.35972" lon="6.69766">
        <ele>130.19999694824</ele>
        <time>2018-10-13T10:16:41Z</time>
      </trkpt>
      <trkpt lat="43.35972" lon="6.69773">
        <ele>129.60000610352</ele>
        <time>2018-10-13T10:16:42Z</time>
      </trkpt>
      <trkpt lat="43.35974" lon="6.6978">
        <ele>129.19999694824</ele>
        <time>2018-10-13T10:16:43Z</time>
      </trkpt>
      <trkpt lat="43.35982" lon="6.69802">
        <ele>127.80000305176</ele>
        <time>2018-10-13T10:16:46Z</time>
      </trkpt>
      <trkpt lat="43.35995" lon="6.69817">
        <ele>126.40000152588</ele>
        <time>2018-10-13T10:16:49Z</time>
      </trkpt>
      <trkpt lat="43.36008" lon="6.69835">
        <ele>125.19999694824</ele>
        <time>2018-10-13T10:16:52Z</time>
      </trkpt>
      <trkpt lat="43.36012" lon="6.69843">
        <ele>124.80000305176</ele>
        <time>2018-10-13T10:16:53Z</time>
      </trkpt>
      <trkpt lat="43.36016" lon="6.6985">
        <ele>124.40000152588</ele>
        <time>2018-10-13T10:16:54Z</time>
      </trkpt>
      <trkpt lat="43.36024" lon="6.69866">
        <ele>123.59999847412</ele>
        <time>2018-10-13T10:16:56Z</time>
      </trkpt>
      <trkpt lat="43.36028" lon="6.69875">
        <ele>123.19999694824</ele>
        <time>2018-10-13T10:16:57Z</time>
      </trkpt>
      <trkpt lat="43.36032" lon="6.69884">
        <ele>122.80000305176</ele>
        <time>2018-10-13T10:16:58Z</time>
      </trkpt>
      <trkpt lat="43.3604" lon="6.69899">
        <ele>122</ele>
        <time>2018-10-13T10:17:00Z</time>
      </trkpt>
      <trkpt lat="43.36042" lon="6.69909">
        <ele>121.59999847412</ele>
        <time>2018-10-13T10:17:01Z</time>
      </trkpt>
      <trkpt lat="43.36045" lon="6.69929">
        <ele>120.59999847412</ele>
        <time>2018-10-13T10:17:03Z</time>
      </trkpt>
      <trkpt lat="43.36051" lon="6.69948">
        <ele>119.80000305176</ele>
        <time>2018-10-13T10:17:05Z</time>
      </trkpt>
      <trkpt lat="43.36059" lon="6.69962">
        <ele>118.80000305176</ele>
        <time>2018-10-13T10:17:07Z</time>
      </trkpt>
      <trkpt lat="43.36061" lon="6.69976">
        <ele>118</ele>
        <time>2018-10-13T10:17:09Z</time>
      </trkpt>
      <trkpt lat="43.36062" lon="6.69998">
        <ele>116.59999847412</ele>
        <time>2018-10-13T10:17:12Z</time>
      </trkpt>
      <trkpt lat="43.36067" lon="6.70012">
        <ele>115.59999847412</ele>
        <time>2018-10-13T10:17:14Z</time>
      </trkpt>
      <trkpt lat="43.36072" lon="6.70025">
        <ele>114.80000305176</ele>
        <time>2018-10-13T10:17:16Z</time>
      </trkpt>
      <trkpt lat="43.36079" lon="6.70035">
        <ele>113.80000305176</ele>
        <time>2018-10-13T10:17:18Z</time>
      </trkpt>
      <trkpt lat="43.36083" lon="6.70045">
        <ele>112.80000305176</ele>
        <time>2018-10-13T10:17:21Z</time>
      </trkpt>
      <trkpt lat="43.36083" lon="6.70045">
        <ele>112</ele>
        <time>2018-10-13T10:17:23Z</time>
      </trkpt>
      <trkpt lat="43.36085" lon="6.70053">
        <ele>108.80000305176</ele>
        <time>2018-10-13T10:17:33Z</time>
      </trkpt>
      <trkpt lat="43.36085" lon="6.70057">
        <ele>108.40000152588</ele>
        <time>2018-10-13T10:17:34Z</time>
      </trkpt>
      <trkpt lat="43.3609" lon="6.70073">
        <ele>106.80000305176</ele>
        <time>2018-10-13T10:17:38Z</time>
      </trkpt>
      <trkpt lat="43.361" lon="6.70092">
        <ele>105.59999847412</ele>
        <time>2018-10-13T10:17:42Z</time>
      </trkpt>
      <trkpt lat="43.36105" lon="6.7011">
        <ele>104.59999847412</ele>
        <time>2018-10-13T10:17:45Z</time>
      </trkpt>
      <trkpt lat="43.3611" lon="6.70121">
        <ele>103.80000305176</ele>
        <time>2018-10-13T10:17:47Z</time>
      </trkpt>
      <trkpt lat="43.36113" lon="6.70133">
        <ele>103.40000152588</ele>
        <time>2018-10-13T10:17:49Z</time>
      </trkpt>
      <trkpt lat="43.36116" lon="6.70139">
        <ele>103.19999694824</ele>
        <time>2018-10-13T10:17:50Z</time>
      </trkpt>
      <trkpt lat="43.36119" lon="6.70144">
        <ele>102.80000305176</ele>
        <time>2018-10-13T10:17:51Z</time>
      </trkpt>
      <trkpt lat="43.36129" lon="6.70152">
        <ele>102.19999694824</ele>
        <time>2018-10-13T10:17:53Z</time>
      </trkpt>
      <trkpt lat="43.36134" lon="6.70154">
        <ele>102</ele>
        <time>2018-10-13T10:17:54Z</time>
      </trkpt>
      <trkpt lat="43.36139" lon="6.70156">
        <ele>101.59999847412</ele>
        <time>2018-10-13T10:17:55Z</time>
      </trkpt>
      <trkpt lat="43.36151" lon="6.70161">
        <ele>100.80000305176</ele>
        <time>2018-10-13T10:17:57Z</time>
      </trkpt>
      <trkpt lat="43.36157" lon="6.70162">
        <ele>100.59999847412</ele>
        <time>2018-10-13T10:17:58Z</time>
      </trkpt>
      <trkpt lat="43.36164" lon="6.70161">
        <ele>100</ele>
        <time>2018-10-13T10:17:59Z</time>
      </trkpt>
      <trkpt lat="43.36173" lon="6.70154">
        <ele>99.199996948242</ele>
        <time>2018-10-13T10:18:01Z</time>
      </trkpt>
      <trkpt lat="43.36185" lon="6.70147">
        <ele>97.599998474121</ele>
        <time>2018-10-13T10:18:05Z</time>
      </trkpt>
      <trkpt lat="43.36188" lon="6.70147">
        <ele>97.199996948242</ele>
        <time>2018-10-13T10:18:06Z</time>
      </trkpt>
      <trkpt lat="43.36193" lon="6.70151">
        <ele>96.599998474121</ele>
        <time>2018-10-13T10:18:08Z</time>
      </trkpt>
      <trkpt lat="43.36208" lon="6.70165">
        <ele>95</ele>
        <time>2018-10-13T10:18:13Z</time>
      </trkpt>
      <trkpt lat="43.36213" lon="6.70182">
        <ele>93.599998474121</ele>
        <time>2018-10-13T10:18:17Z</time>
      </trkpt>
      <trkpt lat="43.3622" lon="6.70198">
        <ele>92.400001525879</ele>
        <time>2018-10-13T10:18:21Z</time>
      </trkpt>
      <trkpt lat="43.36228" lon="6.70207">
        <ele>91.800003051758</ele>
        <time>2018-10-13T10:18:23Z</time>
      </trkpt>
      <trkpt lat="43.36232" lon="6.70219">
        <ele>91.199996948242</ele>
        <time>2018-10-13T10:18:25Z</time>
      </trkpt>
      <trkpt lat="43.36233" lon="6.70225">
        <ele>90.800003051758</ele>
        <time>2018-10-13T10:18:26Z</time>
      </trkpt>
      <trkpt lat="43.36237" lon="6.70248">
        <ele>89.599998474121</ele>
        <time>2018-10-13T10:18:30Z</time>
      </trkpt>
      <trkpt lat="43.36245" lon="6.70264">
        <ele>88.400001525879</ele>
        <time>2018-10-13T10:18:33Z</time>
      </trkpt>
      <trkpt lat="43.36245" lon="6.70269">
        <ele>88</ele>
        <time>2018-10-13T10:18:34Z</time>
      </trkpt>
      <trkpt lat="43.36245" lon="6.70275">
        <ele>87.599998474121</ele>
        <time>2018-10-13T10:18:35Z</time>
      </trkpt>
      <trkpt lat="43.36248" lon="6.70288">
        <ele>86.599998474121</ele>
        <time>2018-10-13T10:18:37Z</time>
      </trkpt>
      <trkpt lat="43.36255" lon="6.70298">
        <ele>85.800003051758</ele>
        <time>2018-10-13T10:18:39Z</time>
      </trkpt>
      <trkpt lat="43.36265" lon="6.70306">
        <ele>85.199996948242</ele>
        <time>2018-10-13T10:18:41Z</time>
      </trkpt>
      <trkpt lat="43.36278" lon="6.70313">
        <ele>84.199996948242</ele>
        <time>2018-10-13T10:18:44Z</time>
      </trkpt>
      <trkpt lat="43.36281" lon="6.70312">
        <ele>84</ele>
        <time>2018-10-13T10:18:45Z</time>
      </trkpt>
      <trkpt lat="43.36289" lon="6.70306">
        <ele>83</ele>
        <time>2018-10-13T10:18:48Z</time>
      </trkpt>
      <trkpt lat="43.36302" lon="6.7029">
        <ele>81.400001525879</ele>
        <time>2018-10-13T10:18:53Z</time>
      </trkpt>
      <trkpt lat="43.3631" lon="6.7028">
        <ele>80.400001525879</ele>
        <time>2018-10-13T10:18:56Z</time>
      </trkpt>
      <trkpt lat="43.36313" lon="6.70279">
        <ele>80</ele>
        <time>2018-10-13T10:18:57Z</time>
      </trkpt>
      <trkpt lat="43.36315" lon="6.70279">
        <ele>79.599998474121</ele>
        <time>2018-10-13T10:18:58Z</time>
      </trkpt>
      <trkpt lat="43.36319" lon="6.70285">
        <ele>78.800003051758</ele>
        <time>2018-10-13T10:19:01Z</time>
      </trkpt>
      <trkpt lat="43.36323" lon="6.70291">
        <ele>77.599998474121</ele>
        <time>2018-10-13T10:19:05Z</time>
      </trkpt>
      <trkpt lat="43.36329" lon="6.70296">
        <ele>76.400001525879</ele>
        <time>2018-10-13T10:19:09Z</time>
      </trkpt>
      <trkpt lat="43.36334" lon="6.70302">
        <ele>75.599998474121</ele>
        <time>2018-10-13T10:19:12Z</time>
      </trkpt>
      <trkpt lat="43.36335" lon="6.70304">
        <ele>75.199996948242</ele>
        <time>2018-10-13T10:19:13Z</time>
      </trkpt>
      <trkpt lat="43.36336" lon="6.70317">
        <ele>73.599998474121</ele>
        <time>2018-10-13T10:19:17Z</time>
      </trkpt>
      <trkpt lat="43.36339" lon="6.70338">
        <ele>71.599998474121</ele>
        <time>2018-10-13T10:19:22Z</time>
      </trkpt>
      <trkpt lat="43.36339" lon="6.70358">
        <ele>69.800003051758</ele>
        <time>2018-10-13T10:19:27Z</time>
      </trkpt>
      <trkpt lat="43.36341" lon="6.70382">
        <ele>68.199996948242</ele>
        <time>2018-10-13T10:19:32Z</time>
      </trkpt>
      <trkpt lat="43.3634" lon="6.70393">
        <ele>67.800003051758</ele>
        <time>2018-10-13T10:19:34Z</time>
      </trkpt>
      <trkpt lat="43.36335" lon="6.70404">
        <ele>67.199996948242</ele>
        <time>2018-10-13T10:19:36Z</time>
      </trkpt>
      <trkpt lat="43.36333" lon="6.70422">
        <ele>66.400001525879</ele>
        <time>2018-10-13T10:19:39Z</time>
      </trkpt>
      <trkpt lat="43.36334" lon="6.70427">
        <ele>66</ele>
        <time>2018-10-13T10:19:40Z</time>
      </trkpt>
      <trkpt lat="43.36334" lon="6.70433">
        <ele>65.800003051758</ele>
        <time>2018-10-13T10:19:41Z</time>
      </trkpt>
      <trkpt lat="43.36333" lon="6.70452">
        <ele>64.800003051758</ele>
        <time>2018-10-13T10:19:44Z</time>
      </trkpt>
      <trkpt lat="43.36331" lon="6.70464">
        <ele>64</ele>
        <time>2018-10-13T10:19:46Z</time>
      </trkpt>
      <trkpt lat="43.36331" lon="6.70492">
        <ele>62.599998474121</ele>
        <time>2018-10-13T10:19:50Z</time>
      </trkpt>
      <trkpt lat="43.36337" lon="6.70503">
        <ele>62</ele>
        <time>2018-10-13T10:19:52Z</time>
      </trkpt>
      <trkpt lat="43.36342" lon="6.70506">
        <ele>61.599998474121</ele>
        <time>2018-10-13T10:19:53Z</time>
      </trkpt>
      <trkpt lat="43.36346" lon="6.70508">
        <ele>61.200000762939</ele>
        <time>2018-10-13T10:19:54Z</time>
      </trkpt>
      <trkpt lat="43.36359" lon="6.70509">
        <ele>60.200000762939</ele>
        <time>2018-10-13T10:19:57Z</time>
      </trkpt>
      <trkpt lat="43.36363" lon="6.70511">
        <ele>60</ele>
        <time>2018-10-13T10:19:58Z</time>
      </trkpt>
      <trkpt lat="43.36374" lon="6.70516">
        <ele>59</ele>
        <time>2018-10-13T10:20:01Z</time>
      </trkpt>
      <trkpt lat="43.36388" lon="6.7052">
        <ele>58</ele>
        <time>2018-10-13T10:20:05Z</time>
      </trkpt>
      <trkpt lat="43.36395" lon="6.70511">
        <ele>57.400001525879</ele>
        <time>2018-10-13T10:20:08Z</time>
      </trkpt>
      <trkpt lat="43.36397" lon="6.70509">
        <ele>57.200000762939</ele>
        <time>2018-10-13T10:20:09Z</time>
      </trkpt>
      <trkpt lat="43.36401" lon="6.70511">
        <ele>56.599998474121</ele>
        <time>2018-10-13T10:20:11Z</time>
      </trkpt>
      <trkpt lat="43.36413" lon="6.70517">
        <ele>55.400001525879</ele>
        <time>2018-10-13T10:20:15Z</time>
      </trkpt>
      <trkpt lat="43.36424" lon="6.7052">
        <ele>54.599998474121</ele>
        <time>2018-10-13T10:20:18Z</time>
      </trkpt>
      <trkpt lat="43.36428" lon="6.70519">
        <ele>54.400001525879</ele>
        <time>2018-10-13T10:20:19Z</time>
      </trkpt>
      <trkpt lat="43.36442" lon="6.70518">
        <ele>53.400001525879</ele>
        <time>2018-10-13T10:20:23Z</time>
      </trkpt>
      <trkpt lat="43.36456" lon="6.70511">
        <ele>52.400001525879</ele>
        <time>2018-10-13T10:20:27Z</time>
      </trkpt>
      <trkpt lat="43.36471" lon="6.70503">
        <ele>51.400001525879</ele>
        <time>2018-10-13T10:20:31Z</time>
      </trkpt>
      <trkpt lat="43.36475" lon="6.70499">
        <ele>51</ele>
        <time>2018-10-13T10:20:32Z</time>
      </trkpt>
      <trkpt lat="43.36477" lon="6.70494">
        <ele>50.799999237061</ele>
        <time>2018-10-13T10:20:33Z</time>
      </trkpt>
      <trkpt lat="43.36479" lon="6.70484">
        <ele>50.200000762939</ele>
        <time>2018-10-13T10:20:35Z</time>
      </trkpt>
      <trkpt lat="43.36481" lon="6.70481">
        <ele>50</ele>
        <time>2018-10-13T10:20:36Z</time>
      </trkpt>
      <trkpt lat="43.36486" lon="6.70479">
        <ele>49.400001525879</ele>
        <time>2018-10-13T10:20:38Z</time>
      </trkpt>
      <trkpt lat="43.36491" lon="6.70485">
        <ele>49.400001525879</ele>
        <time>2018-10-13T10:20:40Z</time>
      </trkpt>
      <trkpt lat="43.36495" lon="6.70492">
        <ele>49</ele>
        <time>2018-10-13T10:20:42Z</time>
      </trkpt>
      <trkpt lat="43.36498" lon="6.70494">
        <ele>49</ele>
        <time>2018-10-13T10:20:43Z</time>
      </trkpt>
      <trkpt lat="43.36506" lon="6.70497">
        <ele>48.400001525879</ele>
        <time>2018-10-13T10:20:46Z</time>
      </trkpt>
      <trkpt lat="43.36511" lon="6.70496">
        <ele>47.799999237061</ele>
        <time>2018-10-13T10:20:48Z</time>
      </trkpt>
      <trkpt lat="43.36517" lon="6.70496">
        <ele>47.200000762939</ele>
        <time>2018-10-13T10:20:50Z</time>
      </trkpt>
      <trkpt lat="43.36522" lon="6.70497">
        <ele>46.599998474121</ele>
        <time>2018-10-13T10:20:52Z</time>
      </trkpt>
      <trkpt lat="43.36525" lon="6.70501">
        <ele>46</ele>
        <time>2018-10-13T10:20:54Z</time>
      </trkpt>
      <trkpt lat="43.36535" lon="6.70508">
        <ele>45</ele>
        <time>2018-10-13T10:20:57Z</time>
      </trkpt>
      <trkpt lat="43.36549" lon="6.70507">
        <ele>43.799999237061</ele>
        <time>2018-10-13T10:21:01Z</time>
      </trkpt>
      <trkpt lat="43.36557" lon="6.70502">
        <ele>43.200000762939</ele>
        <time>2018-10-13T10:21:03Z</time>
      </trkpt>
      <trkpt lat="43.36564" lon="6.70495">
        <ele>42.599998474121</ele>
        <time>2018-10-13T10:21:05Z</time>
      </trkpt>
      <trkpt lat="43.36567" lon="6.70494">
        <ele>42.200000762939</ele>
        <time>2018-10-13T10:21:06Z</time>
      </trkpt>
      <trkpt lat="43.36572" lon="6.70499">
        <ele>42</ele>
        <time>2018-10-13T10:21:08Z</time>
      </trkpt>
      <trkpt lat="43.36572" lon="6.70514">
        <ele>40.599998474121</ele>
        <time>2018-10-13T10:21:12Z</time>
      </trkpt>
      <trkpt lat="43.36567" lon="6.70535">
        <ele>38.599998474121</ele>
        <time>2018-10-13T10:21:16Z</time>
      </trkpt>
      <trkpt lat="43.36566" lon="6.70546">
        <ele>37.400001525879</ele>
        <time>2018-10-13T10:21:18Z</time>
      </trkpt>
      <trkpt lat="43.36567" lon="6.70559">
        <ele>36.400001525879</ele>
        <time>2018-10-13T10:21:20Z</time>
      </trkpt>
      <trkpt lat="43.36572" lon="6.7058">
        <ele>34.799999237061</ele>
        <time>2018-10-13T10:21:24Z</time>
      </trkpt>
      <trkpt lat="43.36573" lon="6.70586">
        <ele>34.799999237061</ele>
        <time>2018-10-13T10:21:25Z</time>
      </trkpt>
      <trkpt lat="43.36575" lon="6.70592">
        <ele>34.599998474121</ele>
        <time>2018-10-13T10:21:26Z</time>
      </trkpt>
      <trkpt lat="43.36583" lon="6.70611">
        <ele>34.200000762939</ele>
        <time>2018-10-13T10:21:30Z</time>
      </trkpt>
      <trkpt lat="43.36586" lon="6.70615">
        <ele>34</ele>
        <time>2018-10-13T10:21:31Z</time>
      </trkpt>
      <trkpt lat="43.36593" lon="6.70619">
        <ele>33.799999237061</ele>
        <time>2018-10-13T10:21:33Z</time>
      </trkpt>
      <trkpt lat="43.36601" lon="6.70626">
        <ele>33.599998474121</ele>
        <time>2018-10-13T10:21:35Z</time>
      </trkpt>
      <trkpt lat="43.3661" lon="6.70632">
        <ele>33.400001525879</ele>
        <time>2018-10-13T10:21:37Z</time>
      </trkpt>
      <trkpt lat="43.36617" lon="6.70639">
        <ele>33.200000762939</ele>
        <time>2018-10-13T10:21:39Z</time>
      </trkpt>
      <trkpt lat="43.36619" lon="6.70645">
        <ele>33</ele>
        <time>2018-10-13T10:21:40Z</time>
      </trkpt>
      <trkpt lat="43.36622" lon="6.7065">
        <ele>33</ele>
        <time>2018-10-13T10:21:41Z</time>
      </trkpt>
      <trkpt lat="43.3663" lon="6.70661">
        <ele>32.400001525879</ele>
        <time>2018-10-13T10:21:44Z</time>
      </trkpt>
      <trkpt lat="43.36637" lon="6.70671">
        <ele>32</ele>
        <time>2018-10-13T10:21:47Z</time>
      </trkpt>
      <trkpt lat="43.3664" lon="6.70673">
        <ele>31.799999237061</ele>
        <time>2018-10-13T10:21:48Z</time>
      </trkpt>
      <trkpt lat="43.36646" lon="6.70673">
        <ele>31.60000038147</ele>
        <time>2018-10-13T10:21:50Z</time>
      </trkpt>
      <trkpt lat="43.36651" lon="6.70669">
        <ele>31.60000038147</ele>
        <time>2018-10-13T10:21:52Z</time>
      </trkpt>
      <trkpt lat="43.36658" lon="6.70665">
        <ele>31.200000762939</ele>
        <time>2018-10-13T10:21:54Z</time>
      </trkpt>
      <trkpt lat="43.36667" lon="6.70661">
        <ele>31</ele>
        <time>2018-10-13T10:21:56Z</time>
      </trkpt>
      <trkpt lat="43.36684" lon="6.70657">
        <ele>30.60000038147</ele>
        <time>2018-10-13T10:21:59Z</time>
      </trkpt>
      <trkpt lat="43.36689" lon="6.7066">
        <ele>30.60000038147</ele>
        <time>2018-10-13T10:22:00Z</time>
      </trkpt>
      <trkpt lat="43.36694" lon="6.70664">
        <ele>30.39999961853</ele>
        <time>2018-10-13T10:22:01Z</time>
      </trkpt>
      <trkpt lat="43.36702" lon="6.70676">
        <ele>30</ele>
        <time>2018-10-13T10:22:03Z</time>
      </trkpt>
      <trkpt lat="43.36706" lon="6.70683">
        <ele>29.799999237061</ele>
        <time>2018-10-13T10:22:04Z</time>
      </trkpt>
      <trkpt lat="43.3671" lon="6.70691">
        <ele>29.39999961853</ele>
        <time>2018-10-13T10:22:05Z</time>
      </trkpt>
      <trkpt lat="43.36715" lon="6.70705">
        <ele>28.799999237061</ele>
        <time>2018-10-13T10:22:07Z</time>
      </trkpt>
      <trkpt lat="43.36718" lon="6.70708">
        <ele>28.39999961853</ele>
        <time>2018-10-13T10:22:08Z</time>
      </trkpt>
      <trkpt lat="43.36722" lon="6.70708">
        <ele>28.200000762939</ele>
        <time>2018-10-13T10:22:09Z</time>
      </trkpt>
      <trkpt lat="43.36724" lon="6.70704">
        <ele>27.799999237061</ele>
        <time>2018-10-13T10:22:10Z</time>
      </trkpt>
      <trkpt lat="43.36724" lon="6.70684">
        <ele>27</ele>
        <time>2018-10-13T10:22:13Z</time>
      </trkpt>
      <trkpt lat="43.36725" lon="6.70672">
        <ele>26.39999961853</ele>
        <time>2018-10-13T10:22:15Z</time>
      </trkpt>
      <trkpt lat="43.36726" lon="6.7065">
        <ele>25.60000038147</ele>
        <time>2018-10-13T10:22:18Z</time>
      </trkpt>
      <trkpt lat="43.36732" lon="6.70635">
        <ele>25</ele>
        <time>2018-10-13T10:22:20Z</time>
      </trkpt>
      <trkpt lat="43.36737" lon="6.7063">
        <ele>24.60000038147</ele>
        <time>2018-10-13T10:22:21Z</time>
      </trkpt>
      <trkpt lat="43.36743" lon="6.70628">
        <ele>24.39999961853</ele>
        <time>2018-10-13T10:22:22Z</time>
      </trkpt>
      <trkpt lat="43.36758" lon="6.70633">
        <ele>23.60000038147</ele>
        <time>2018-10-13T10:22:24Z</time>
      </trkpt>
      <trkpt lat="43.36768" lon="6.70649">
        <ele>23.200000762939</ele>
        <time>2018-10-13T10:22:26Z</time>
      </trkpt>
      <trkpt lat="43.36777" lon="6.70653">
        <ele>22.39999961853</ele>
        <time>2018-10-13T10:22:28Z</time>
      </trkpt>
      <trkpt lat="43.3678" lon="6.7065">
        <ele>22.200000762939</ele>
        <time>2018-10-13T10:22:29Z</time>
      </trkpt>
      <trkpt lat="43.36782" lon="6.70643">
        <ele>21.799999237061</ele>
        <time>2018-10-13T10:22:30Z</time>
      </trkpt>
      <trkpt lat="43.36783" lon="6.70636">
        <ele>21.60000038147</ele>
        <time>2018-10-13T10:22:31Z</time>
      </trkpt>
      <trkpt lat="43.3679" lon="6.70619">
        <ele>20.39999961853</ele>
        <time>2018-10-13T10:22:34Z</time>
      </trkpt>
      <trkpt lat="43.36792" lon="6.70613">
        <ele>20</ele>
        <time>2018-10-13T10:22:35Z</time>
      </trkpt>
      <trkpt lat="43.36793" lon="6.70599">
        <ele>19.39999961853</ele>
        <time>2018-10-13T10:22:37Z</time>
      </trkpt>
      <trkpt lat="43.36789" lon="6.7058">
        <ele>18.60000038147</ele>
        <time>2018-10-13T10:22:40Z</time>
      </trkpt>
      <trkpt lat="43.36788" lon="6.70575">
        <ele>18.39999961853</ele>
        <time>2018-10-13T10:22:41Z</time>
      </trkpt>
      <trkpt lat="43.36787" lon="6.7057">
        <ele>18</ele>
        <time>2018-10-13T10:22:42Z</time>
      </trkpt>
      <trkpt lat="43.36792" lon="6.7056">
        <ele>17.60000038147</ele>
        <time>2018-10-13T10:22:44Z</time>
      </trkpt>
      <trkpt lat="43.36795" lon="6.70549">
        <ele>17</ele>
        <time>2018-10-13T10:22:46Z</time>
      </trkpt>
      <trkpt lat="43.36794" lon="6.70543">
        <ele>16.799999237061</ele>
        <time>2018-10-13T10:22:47Z</time>
      </trkpt>
      <trkpt lat="43.36789" lon="6.70523">
        <ele>16</ele>
        <time>2018-10-13T10:22:50Z</time>
      </trkpt>
      <trkpt lat="43.36789" lon="6.70509">
        <ele>15.800000190735</ele>
        <time>2018-10-13T10:22:52Z</time>
      </trkpt>
      <trkpt lat="43.36792" lon="6.70464">
        <ele>14.60000038147</ele>
        <time>2018-10-13T10:22:59Z</time>
      </trkpt>
      <trkpt lat="43.36795" lon="6.70452">
        <ele>14.39999961853</ele>
        <time>2018-10-13T10:23:01Z</time>
      </trkpt>
      <trkpt lat="43.36799" lon="6.70436">
        <ele>13.800000190735</ele>
        <time>2018-10-13T10:23:04Z</time>
      </trkpt>
      <trkpt lat="43.36802" lon="6.70432">
        <ele>13.60000038147</ele>
        <time>2018-10-13T10:23:05Z</time>
      </trkpt>
      <trkpt lat="43.36805" lon="6.7043">
        <ele>13.60000038147</ele>
        <time>2018-10-13T10:23:06Z</time>
      </trkpt>
      <trkpt lat="43.36813" lon="6.70431">
        <ele>13.39999961853</ele>
        <time>2018-10-13T10:23:08Z</time>
      </trkpt>
      <trkpt lat="43.36826" lon="6.70436">
        <ele>13.199999809265</ele>
        <time>2018-10-13T10:23:13Z</time>
      </trkpt>
      <trkpt lat="43.3684" lon="6.70444">
        <ele>13.39999961853</ele>
        <time>2018-10-13T10:23:22Z</time>
      </trkpt>
      <trkpt lat="43.36849" lon="6.70454">
        <ele>13.60000038147</ele>
        <time>2018-10-13T10:23:29Z</time>
      </trkpt>
      <trkpt lat="43.36855" lon="6.70463">
        <ele>13.800000190735</ele>
        <time>2018-10-13T10:23:35Z</time>
      </trkpt>
      <trkpt lat="43.36863" lon="6.70473">
        <ele>14</ele>
        <time>2018-10-13T10:23:42Z</time>
      </trkpt>
      <trkpt lat="43.36869" lon="6.70487">
        <ele>14.199999809265</ele>
        <time>2018-10-13T10:23:49Z</time>
      </trkpt>
      <trkpt lat="43.36874" lon="6.70496">
        <ele>14.199999809265</ele>
        <time>2018-10-13T10:23:54Z</time>
      </trkpt>
      <trkpt lat="43.36879" lon="6.70512">
        <ele>14.800000190735</ele>
        <time>2018-10-13T10:24:02Z</time>
      </trkpt>
      <trkpt lat="43.3688" lon="6.70527">
        <ele>15.39999961853</ele>
        <time>2018-10-13T10:24:10Z</time>
      </trkpt>
      <trkpt lat="43.36882" lon="6.70537">
        <ele>16.39999961853</ele>
        <time>2018-10-13T10:24:17Z</time>
      </trkpt>
      <trkpt lat="43.36883" lon="6.7055">
        <ele>17</ele>
        <time>2018-10-13T10:24:25Z</time>
      </trkpt>
      <trkpt lat="43.36886" lon="6.70555">
        <ele>17.200000762939</ele>
        <time>2018-10-13T10:24:29Z</time>
      </trkpt>
      <trkpt lat="43.36888" lon="6.70556">
        <ele>17.39999961853</ele>
        <time>2018-10-13T10:24:31Z</time>
      </trkpt>
      <trkpt lat="43.3689" lon="6.70555">
        <ele>17.60000038147</ele>
        <time>2018-10-13T10:24:33Z</time>
      </trkpt>
      <trkpt lat="43.36894" lon="6.70551">
        <ele>18.200000762939</ele>
        <time>2018-10-13T10:24:37Z</time>
      </trkpt>
      <trkpt lat="43.36901" lon="6.70549">
        <ele>19.200000762939</ele>
        <time>2018-10-13T10:24:44Z</time>
      </trkpt>
      <trkpt lat="43.36904" lon="6.70548">
        <ele>19.60000038147</ele>
        <time>2018-10-13T10:24:48Z</time>
      </trkpt>
      <trkpt lat="43.36906" lon="6.70548">
        <ele>19.799999237061</ele>
        <time>2018-10-13T10:24:50Z</time>
      </trkpt>
      <trkpt lat="43.36907" lon="6.70547">
        <ele>20</ele>
        <time>2018-10-13T10:24:51Z</time>
      </trkpt>
      <trkpt lat="43.36912" lon="6.70544">
        <ele>20.799999237061</ele>
        <time>2018-10-13T10:24:58Z</time>
      </trkpt>
      <trkpt lat="43.36919" lon="6.70543">
        <ele>21.60000038147</ele>
        <time>2018-10-13T10:25:05Z</time>
      </trkpt>
      <trkpt lat="43.36921" lon="6.70542">
        <ele>22</ele>
        <time>2018-10-13T10:25:08Z</time>
      </trkpt>
      <trkpt lat="43.36923" lon="6.70539">
        <ele>22.60000038147</ele>
        <time>2018-10-13T10:25:11Z</time>
      </trkpt>
      <trkpt lat="43.36926" lon="6.70536">
        <ele>23.200000762939</ele>
        <time>2018-10-13T10:25:15Z</time>
      </trkpt>
      <trkpt lat="43.36927" lon="6.70536">
        <ele>23.60000038147</ele>
        <time>2018-10-13T10:25:17Z</time>
      </trkpt>
      <trkpt lat="43.36929" lon="6.70535">
        <ele>23.799999237061</ele>
        <time>2018-10-13T10:25:19Z</time>
      </trkpt>
      <trkpt lat="43.36931" lon="6.70534">
        <ele>24.200000762939</ele>
        <time>2018-10-13T10:25:21Z</time>
      </trkpt>
      <trkpt lat="43.36933" lon="6.70533">
        <ele>24.60000038147</ele>
        <time>2018-10-13T10:25:23Z</time>
      </trkpt>
      <trkpt lat="43.36935" lon="6.7053">
        <ele>25.39999961853</ele>
        <time>2018-10-13T10:25:27Z</time>
      </trkpt>
      <trkpt lat="43.36937" lon="6.70529">
        <ele>25.60000038147</ele>
        <time>2018-10-13T10:25:29Z</time>
      </trkpt>
      <trkpt lat="43.36945" lon="6.70525">
        <ele>27</ele>
        <time>2018-10-13T10:25:37Z</time>
      </trkpt>
      <trkpt lat="43.36951" lon="6.70524">
        <ele>28</ele>
        <time>2018-10-13T10:25:43Z</time>
      </trkpt>
      <trkpt lat="43.36952" lon="6.70521">
        <ele>28.60000038147</ele>
        <time>2018-10-13T10:25:46Z</time>
      </trkpt>
      <trkpt lat="43.36954" lon="6.70519">
        <ele>28.799999237061</ele>
        <time>2018-10-13T10:25:48Z</time>
      </trkpt>
      <trkpt lat="43.36955" lon="6.70518">
        <ele>29</ele>
        <time>2018-10-13T10:25:49Z</time>
      </trkpt>
      <trkpt lat="43.36964" lon="6.70517">
        <ele>30.39999961853</ele>
        <time>2018-10-13T10:25:57Z</time>
      </trkpt>
      <trkpt lat="43.36968" lon="6.70515">
        <ele>31</ele>
        <time>2018-10-13T10:26:02Z</time>
      </trkpt>
      <trkpt lat="43.36971" lon="6.70513">
        <ele>31.39999961853</ele>
        <time>2018-10-13T10:26:05Z</time>
      </trkpt>
      <trkpt lat="43.36977" lon="6.70511">
        <ele>32.200000762939</ele>
        <time>2018-10-13T10:26:10Z</time>
      </trkpt>
      <trkpt lat="43.36979" lon="6.7051">
        <ele>32.400001525879</ele>
        <time>2018-10-13T10:26:12Z</time>
      </trkpt>
      <trkpt lat="43.36987" lon="6.70504">
        <ele>33.400001525879</ele>
        <time>2018-10-13T10:26:20Z</time>
      </trkpt>
      <trkpt lat="43.36994" lon="6.70496">
        <ele>34.400001525879</ele>
        <time>2018-10-13T10:26:28Z</time>
      </trkpt>
      <trkpt lat="43.37" lon="6.7049">
        <ele>35.200000762939</ele>
        <time>2018-10-13T10:26:34Z</time>
      </trkpt>
      <trkpt lat="43.37001" lon="6.70488">
        <ele>35.599998474121</ele>
        <time>2018-10-13T10:26:36Z</time>
      </trkpt>
      <trkpt lat="43.37004" lon="6.70485">
        <ele>36</ele>
        <time>2018-10-13T10:26:39Z</time>
      </trkpt>
      <trkpt lat="43.37004" lon="6.70483">
        <ele>36.200000762939</ele>
        <time>2018-10-13T10:26:40Z</time>
      </trkpt>
      <trkpt lat="43.37011" lon="6.70474">
        <ele>37</ele>
        <time>2018-10-13T10:26:48Z</time>
      </trkpt>
      <trkpt lat="43.37017" lon="6.70467">
        <ele>37.599998474121</ele>
        <time>2018-10-13T10:26:55Z</time>
      </trkpt>
      <trkpt lat="43.37022" lon="6.70461">
        <ele>38.200000762939</ele>
        <time>2018-10-13T10:27:00Z</time>
      </trkpt>
      <trkpt lat="43.37023" lon="6.70459">
        <ele>38.200000762939</ele>
        <time>2018-10-13T10:27:01Z</time>
      </trkpt>
      <trkpt lat="43.37025" lon="6.70455">
        <ele>38.400001525879</ele>
        <time>2018-10-13T10:27:04Z</time>
      </trkpt>
      <trkpt lat="43.37026" lon="6.70452">
        <ele>38.799999237061</ele>
        <time>2018-10-13T10:27:06Z</time>
      </trkpt>
      <trkpt lat="43.37027" lon="6.70451">
        <ele>38.799999237061</ele>
        <time>2018-10-13T10:27:07Z</time>
      </trkpt>
      <trkpt lat="43.37028" lon="6.7045">
        <ele>38.799999237061</ele>
        <time>2018-10-13T10:27:08Z</time>
      </trkpt>
      <trkpt lat="43.37033" lon="6.70443">
        <ele>39.400001525879</ele>
        <time>2018-10-13T10:27:13Z</time>
      </trkpt>
      <trkpt lat="43.37038" lon="6.70433">
        <ele>40</ele>
        <time>2018-10-13T10:27:20Z</time>
      </trkpt>
      <trkpt lat="43.37045" lon="6.70424">
        <ele>40.799999237061</ele>
        <time>2018-10-13T10:27:27Z</time>
      </trkpt>
      <trkpt lat="43.37049" lon="6.70418">
        <ele>41.200000762939</ele>
        <time>2018-10-13T10:27:31Z</time>
      </trkpt>
      <trkpt lat="43.37052" lon="6.70415">
        <ele>41.200000762939</ele>
        <time>2018-10-13T10:27:33Z</time>
      </trkpt>
      <trkpt lat="43.37058" lon="6.70405">
        <ele>41.599998474121</ele>
        <time>2018-10-13T10:27:40Z</time>
      </trkpt>
      <trkpt lat="43.37063" lon="6.70395">
        <ele>42</ele>
        <time>2018-10-13T10:27:46Z</time>
      </trkpt>
      <trkpt lat="43.37074" lon="6.7038">
        <ele>43</ele>
        <time>2018-10-13T10:27:56Z</time>
      </trkpt>
      <trkpt lat="43.37087" lon="6.7036">
        <ele>44</ele>
        <time>2018-10-13T10:28:07Z</time>
      </trkpt>
      <trkpt lat="43.37098" lon="6.70336">
        <ele>44.799999237061</ele>
        <time>2018-10-13T10:28:15Z</time>
      </trkpt>
      <trkpt lat="43.37103" lon="6.70313">
        <ele>45</ele>
        <time>2018-10-13T10:28:21Z</time>
      </trkpt>
      <trkpt lat="43.37114" lon="6.7029">
        <ele>45.400001525879</ele>
        <time>2018-10-13T10:28:27Z</time>
      </trkpt>
      <trkpt lat="43.37118" lon="6.70278">
        <ele>45.599998474121</ele>
        <time>2018-10-13T10:28:31Z</time>
      </trkpt>
      <trkpt lat="43.3712" lon="6.70263">
        <ele>46.200000762939</ele>
        <time>2018-10-13T10:28:37Z</time>
      </trkpt>
      <trkpt lat="43.37125" lon="6.70243">
        <ele>46.799999237061</ele>
        <time>2018-10-13T10:28:46Z</time>
      </trkpt>
      <trkpt lat="43.3713" lon="6.7023">
        <ele>47.599998474121</ele>
        <time>2018-10-13T10:28:53Z</time>
      </trkpt>
      <trkpt lat="43.37136" lon="6.70213">
        <ele>48.799999237061</ele>
        <time>2018-10-13T10:29:02Z</time>
      </trkpt>
      <trkpt lat="43.37142" lon="6.70202">
        <ele>49.400001525879</ele>
        <time>2018-10-13T10:29:08Z</time>
      </trkpt>
      <trkpt lat="43.37153" lon="6.70192">
        <ele>50.200000762939</ele>
        <time>2018-10-13T10:29:15Z</time>
      </trkpt>
      <trkpt lat="43.37165" lon="6.70186">
        <ele>51</ele>
        <time>2018-10-13T10:29:23Z</time>
      </trkpt>
      <trkpt lat="43.37182" lon="6.70181">
        <ele>52</ele>
        <time>2018-10-13T10:29:33Z</time>
      </trkpt>
      <trkpt lat="43.37193" lon="6.70178">
        <ele>52.799999237061</ele>
        <time>2018-10-13T10:29:40Z</time>
      </trkpt>
      <trkpt lat="43.37204" lon="6.70172">
        <ele>53.799999237061</ele>
        <time>2018-10-13T10:29:48Z</time>
      </trkpt>
      <trkpt lat="43.37214" lon="6.70168">
        <ele>54.799999237061</ele>
        <time>2018-10-13T10:29:56Z</time>
      </trkpt>
      <trkpt lat="43.37224" lon="6.70166">
        <ele>55.599998474121</ele>
        <time>2018-10-13T10:30:04Z</time>
      </trkpt>
      <trkpt lat="43.37228" lon="6.70165">
        <ele>56</ele>
        <time>2018-10-13T10:30:07Z</time>
      </trkpt>
      <trkpt lat="43.37231" lon="6.70163">
        <ele>56.400001525879</ele>
        <time>2018-10-13T10:30:10Z</time>
      </trkpt>
      <trkpt lat="43.3724" lon="6.70163">
        <ele>57.200000762939</ele>
        <time>2018-10-13T10:30:18Z</time>
      </trkpt>
      <trkpt lat="43.37248" lon="6.70162">
        <ele>58.599998474121</ele>
        <time>2018-10-13T10:30:26Z</time>
      </trkpt>
      <trkpt lat="43.37257" lon="6.70159">
        <ele>59.599998474121</ele>
        <time>2018-10-13T10:30:33Z</time>
      </trkpt>
      <trkpt lat="43.37258" lon="6.70159">
        <ele>59.599998474121</ele>
        <time>2018-10-13T10:30:34Z</time>
      </trkpt>
      <trkpt lat="43.37267" lon="6.7016">
        <ele>60.400001525879</ele>
        <time>2018-10-13T10:30:41Z</time>
      </trkpt>
      <trkpt lat="43.37269" lon="6.7016">
        <ele>60.599998474121</ele>
        <time>2018-10-13T10:30:42Z</time>
      </trkpt>
      <trkpt lat="43.37279" lon="6.70158">
        <ele>61.400001525879</ele>
        <time>2018-10-13T10:30:50Z</time>
      </trkpt>
      <trkpt lat="43.3729" lon="6.70153">
        <ele>62.400001525879</ele>
        <time>2018-10-13T10:30:58Z</time>
      </trkpt>
      <trkpt lat="43.37298" lon="6.70148">
        <ele>63</ele>
        <time>2018-10-13T10:31:05Z</time>
      </trkpt>
      <trkpt lat="43.37303" lon="6.70144">
        <ele>63.799999237061</ele>
        <time>2018-10-13T10:31:11Z</time>
      </trkpt>
      <trkpt lat="43.37305" lon="6.70142">
        <ele>64</ele>
        <time>2018-10-13T10:31:13Z</time>
      </trkpt>
      <trkpt lat="43.37306" lon="6.70137">
        <ele>64.599998474121</ele>
        <time>2018-10-13T10:31:17Z</time>
      </trkpt>
      <trkpt lat="43.37309" lon="6.70125">
        <ele>66.199996948242</ele>
        <time>2018-10-13T10:31:26Z</time>
      </trkpt>
      <trkpt lat="43.37312" lon="6.70118">
        <ele>67.599998474121</ele>
        <time>2018-10-13T10:31:33Z</time>
      </trkpt>
      <trkpt lat="43.37316" lon="6.70111">
        <ele>68.599998474121</ele>
        <time>2018-10-13T10:31:40Z</time>
      </trkpt>
      <trkpt lat="43.37317" lon="6.70109">
        <ele>69</ele>
        <time>2018-10-13T10:31:42Z</time>
      </trkpt>
      <trkpt lat="43.37319" lon="6.70107">
        <ele>69.599998474121</ele>
        <time>2018-10-13T10:31:45Z</time>
      </trkpt>
      <trkpt lat="43.3732" lon="6.70106">
        <ele>69.800003051758</ele>
        <time>2018-10-13T10:31:46Z</time>
      </trkpt>
      <trkpt lat="43.37323" lon="6.701">
        <ele>70.599998474121</ele>
        <time>2018-10-13T10:31:51Z</time>
      </trkpt>
      <trkpt lat="43.37323" lon="6.70096">
        <ele>71.199996948242</ele>
        <time>2018-10-13T10:31:54Z</time>
      </trkpt>
      <trkpt lat="43.37325" lon="6.70092">
        <ele>71.800003051758</ele>
        <time>2018-10-13T10:31:57Z</time>
      </trkpt>
      <trkpt lat="43.37326" lon="6.70091">
        <ele>72.400001525879</ele>
        <time>2018-10-13T10:31:59Z</time>
      </trkpt>
      <trkpt lat="43.37328" lon="6.70087">
        <ele>73</ele>
        <time>2018-10-13T10:32:02Z</time>
      </trkpt>
      <trkpt lat="43.37328" lon="6.70086">
        <ele>73.199996948242</ele>
        <time>2018-10-13T10:32:03Z</time>
      </trkpt>
      <trkpt lat="43.37334" lon="6.70081">
        <ele>74.199996948242</ele>
        <time>2018-10-13T10:32:09Z</time>
      </trkpt>
      <trkpt lat="43.3734" lon="6.70077">
        <ele>75</ele>
        <time>2018-10-13T10:32:15Z</time>
      </trkpt>
      <trkpt lat="43.3734" lon="6.70074">
        <ele>75.199996948242</ele>
        <time>2018-10-13T10:32:17Z</time>
      </trkpt>
      <trkpt lat="43.37341" lon="6.7007">
        <ele>75.599998474121</ele>
        <time>2018-10-13T10:32:20Z</time>
      </trkpt>
      <trkpt lat="43.37343" lon="6.70063">
        <ele>76.400001525879</ele>
        <time>2018-10-13T10:32:25Z</time>
      </trkpt>
      <trkpt lat="43.37344" lon="6.7006">
        <ele>76.599998474121</ele>
        <time>2018-10-13T10:32:27Z</time>
      </trkpt>
      <trkpt lat="43.37346" lon="6.70055">
        <ele>77.599998474121</ele>
        <time>2018-10-13T10:32:32Z</time>
      </trkpt>
      <trkpt lat="43.37347" lon="6.70053">
        <ele>78</ele>
        <time>2018-10-13T10:32:34Z</time>
      </trkpt>
      <trkpt lat="43.37351" lon="6.70048">
        <ele>78.800003051758</ele>
        <time>2018-10-13T10:32:39Z</time>
      </trkpt>
      <trkpt lat="43.37354" lon="6.70045">
        <ele>79.599998474121</ele>
        <time>2018-10-13T10:32:43Z</time>
      </trkpt>
      <trkpt lat="43.37354" lon="6.70044">
        <ele>79.800003051758</ele>
        <time>2018-10-13T10:32:44Z</time>
      </trkpt>
      <trkpt lat="43.37355" lon="6.70039">
        <ele>80.400001525879</ele>
        <time>2018-10-13T10:32:47Z</time>
      </trkpt>
      <trkpt lat="43.37355" lon="6.70036">
        <ele>80.800003051758</ele>
        <time>2018-10-13T10:32:49Z</time>
      </trkpt>
      <trkpt lat="43.37359" lon="6.70027">
        <ele>82</ele>
        <time>2018-10-13T10:32:58Z</time>
      </trkpt>
      <trkpt lat="43.37361" lon="6.70023">
        <ele>82.599998474121</ele>
        <time>2018-10-13T10:33:01Z</time>
      </trkpt>
      <trkpt lat="43.37363" lon="6.7002">
        <ele>83.199996948242</ele>
        <time>2018-10-13T10:33:04Z</time>
      </trkpt>
      <trkpt lat="43.37367" lon="6.70012">
        <ele>85</ele>
        <time>2018-10-13T10:33:12Z</time>
      </trkpt>
      <trkpt lat="43.37367" lon="6.70011">
        <ele>85.199996948242</ele>
        <time>2018-10-13T10:33:13Z</time>
      </trkpt>
      <trkpt lat="43.37371" lon="6.70006">
        <ele>86.199996948242</ele>
        <time>2018-10-13T10:33:18Z</time>
      </trkpt>
      <trkpt lat="43.37373" lon="6.70005">
        <ele>86.400001525879</ele>
        <time>2018-10-13T10:33:20Z</time>
      </trkpt>
      <trkpt lat="43.37376" lon="6.70005">
        <ele>87</ele>
        <time>2018-10-13T10:33:22Z</time>
      </trkpt>
      <trkpt lat="43.37378" lon="6.70006">
        <ele>87.199996948242</ele>
        <time>2018-10-13T10:33:24Z</time>
      </trkpt>
      <trkpt lat="43.37384" lon="6.70013">
        <ele>88.400001525879</ele>
        <time>2018-10-13T10:33:30Z</time>
      </trkpt>
      <trkpt lat="43.37387" lon="6.70022">
        <ele>89.599998474121</ele>
        <time>2018-10-13T10:33:36Z</time>
      </trkpt>
      <trkpt lat="43.37389" lon="6.70026">
        <ele>90.400001525879</ele>
        <time>2018-10-13T10:33:41Z</time>
      </trkpt>
      <trkpt lat="43.37389" lon="6.70026">
        <ele>90.599998474121</ele>
        <time>2018-10-13T10:33:42Z</time>
      </trkpt>
      <trkpt lat="43.37418" lon="6.70036">
        <ele>105.40000152588</ele>
        <time>2018-10-13T10:37:18Z</time>
      </trkpt>
      <trkpt lat="43.3742" lon="6.70034">
        <ele>105.59999847412</ele>
        <time>2018-10-13T10:37:20Z</time>
      </trkpt>
      <trkpt lat="43.37421" lon="6.70032">
        <ele>105.59999847412</ele>
        <time>2018-10-13T10:37:21Z</time>
      </trkpt>
      <trkpt lat="43.37422" lon="6.7003">
        <ele>105.80000305176</ele>
        <time>2018-10-13T10:37:22Z</time>
      </trkpt>
      <trkpt lat="43.37429" lon="6.70024">
        <ele>106</ele>
        <time>2018-10-13T10:37:27Z</time>
      </trkpt>
      <trkpt lat="43.37438" lon="6.70011">
        <ele>106</ele>
        <time>2018-10-13T10:37:34Z</time>
      </trkpt>
      <trkpt lat="43.37448" lon="6.69999">
        <ele>106</ele>
        <time>2018-10-13T10:37:40Z</time>
      </trkpt>
      <trkpt lat="43.37461" lon="6.69983">
        <ele>106.59999847412</ele>
        <time>2018-10-13T10:37:49Z</time>
      </trkpt>
      <trkpt lat="43.37471" lon="6.69972">
        <ele>106.80000305176</ele>
        <time>2018-10-13T10:37:55Z</time>
      </trkpt>
      <trkpt lat="43.37474" lon="6.69967">
        <ele>107</ele>
        <time>2018-10-13T10:37:58Z</time>
      </trkpt>
      <trkpt lat="43.37476" lon="6.69965">
        <ele>107</ele>
        <time>2018-10-13T10:38:00Z</time>
      </trkpt>
      <trkpt lat="43.37477" lon="6.69964">
        <ele>107</ele>
        <time>2018-10-13T10:38:01Z</time>
      </trkpt>
      <trkpt lat="43.37485" lon="6.69954">
        <ele>107.80000305176</ele>
        <time>2018-10-13T10:38:09Z</time>
      </trkpt>
      <trkpt lat="43.37495" lon="6.69945">
        <ele>108.19999694824</ele>
        <time>2018-10-13T10:38:16Z</time>
      </trkpt>
      <trkpt lat="43.37499" lon="6.69944">
        <ele>108.40000152588</ele>
        <time>2018-10-13T10:38:19Z</time>
      </trkpt>
      <trkpt lat="43.37504" lon="6.69943">
        <ele>108.59999847412</ele>
        <time>2018-10-13T10:38:22Z</time>
      </trkpt>
      <trkpt lat="43.37509" lon="6.69945">
        <ele>108.80000305176</ele>
        <time>2018-10-13T10:38:26Z</time>
      </trkpt>
      <trkpt lat="43.37512" lon="6.69947">
        <ele>109</ele>
        <time>2018-10-13T10:38:28Z</time>
      </trkpt>
      <trkpt lat="43.37521" lon="6.69959">
        <ele>109.59999847412</ele>
        <time>2018-10-13T10:38:35Z</time>
      </trkpt>
      <trkpt lat="43.37528" lon="6.6998">
        <ele>110.59999847412</ele>
        <time>2018-10-13T10:38:44Z</time>
      </trkpt>
      <trkpt lat="43.37536" lon="6.69992">
        <ele>111.40000152588</ele>
        <time>2018-10-13T10:38:52Z</time>
      </trkpt>
      <trkpt lat="43.37543" lon="6.69999">
        <ele>112</ele>
        <time>2018-10-13T10:38:58Z</time>
      </trkpt>
      <trkpt lat="43.37551" lon="6.70003">
        <ele>112.80000305176</ele>
        <time>2018-10-13T10:39:05Z</time>
      </trkpt>
      <trkpt lat="43.37562" lon="6.70005">
        <ele>113.59999847412</ele>
        <time>2018-10-13T10:39:13Z</time>
      </trkpt>
      <trkpt lat="43.37573" lon="6.70002">
        <ele>114.80000305176</ele>
        <time>2018-10-13T10:39:22Z</time>
      </trkpt>
      <trkpt lat="43.37583" lon="6.69999">
        <ele>115.59999847412</ele>
        <time>2018-10-13T10:39:29Z</time>
      </trkpt>
      <trkpt lat="43.37592" lon="6.70001">
        <ele>116</ele>
        <time>2018-10-13T10:39:34Z</time>
      </trkpt>
      <trkpt lat="43.37606" lon="6.69996">
        <ele>116.59999847412</ele>
        <time>2018-10-13T10:39:41Z</time>
      </trkpt>
      <trkpt lat="43.37615" lon="6.69988">
        <ele>116.80000305176</ele>
        <time>2018-10-13T10:39:45Z</time>
      </trkpt>
      <trkpt lat="43.37632" lon="6.69981">
        <ele>117</ele>
        <time>2018-10-13T10:39:49Z</time>
      </trkpt>
      <trkpt lat="43.37636" lon="6.69981">
        <ele>117</ele>
        <time>2018-10-13T10:39:50Z</time>
      </trkpt>
      <trkpt lat="43.37652" lon="6.69978">
        <ele>117</ele>
        <time>2018-10-13T10:39:54Z</time>
      </trkpt>
      <trkpt lat="43.3767" lon="6.69968">
        <ele>116.80000305176</ele>
        <time>2018-10-13T10:39:58Z</time>
      </trkpt>
      <trkpt lat="43.37681" lon="6.69961">
        <ele>116.59999847412</ele>
        <time>2018-10-13T10:40:00Z</time>
      </trkpt>
      <trkpt lat="43.37688" lon="6.69954">
        <ele>116.19999694824</ele>
        <time>2018-10-13T10:40:02Z</time>
      </trkpt>
      <trkpt lat="43.37692" lon="6.69951">
        <ele>116.19999694824</ele>
        <time>2018-10-13T10:40:03Z</time>
      </trkpt>
      <trkpt lat="43.377" lon="6.69942">
        <ele>115.80000305176</ele>
        <time>2018-10-13T10:40:05Z</time>
      </trkpt>
      <trkpt lat="43.3771" lon="6.69933">
        <ele>115.40000152588</ele>
        <time>2018-10-13T10:40:07Z</time>
      </trkpt>
      <trkpt lat="43.37718" lon="6.69933">
        <ele>115.19999694824</ele>
        <time>2018-10-13T10:40:09Z</time>
      </trkpt>
      <trkpt lat="43.3772" lon="6.69936">
        <ele>115</ele>
        <time>2018-10-13T10:40:10Z</time>
      </trkpt>
      <trkpt lat="43.37723" lon="6.69943">
        <ele>115</ele>
        <time>2018-10-13T10:40:12Z</time>
      </trkpt>
      <trkpt lat="43.37725" lon="6.69947">
        <ele>114.80000305176</ele>
        <time>2018-10-13T10:40:14Z</time>
      </trkpt>
      <trkpt lat="43.37727" lon="6.6995">
        <ele>115</ele>
        <time>2018-10-13T10:40:16Z</time>
      </trkpt>
      <trkpt lat="43.37728" lon="6.69955">
        <ele>115</ele>
        <time>2018-10-13T10:40:19Z</time>
      </trkpt>
      <trkpt lat="43.3773" lon="6.69958">
        <ele>115</ele>
        <time>2018-10-13T10:40:21Z</time>
      </trkpt>
      <trkpt lat="43.37735" lon="6.69966">
        <ele>115.19999694824</ele>
        <time>2018-10-13T10:40:26Z</time>
      </trkpt>
      <trkpt lat="43.37736" lon="6.69967">
        <ele>115.19999694824</ele>
        <time>2018-10-13T10:40:27Z</time>
      </trkpt>
      <trkpt lat="43.37744" lon="6.69977">
        <ele>115.19999694824</ele>
        <time>2018-10-13T10:40:34Z</time>
      </trkpt>
      <trkpt lat="43.37747" lon="6.69981">
        <ele>115.19999694824</ele>
        <time>2018-10-13T10:40:37Z</time>
      </trkpt>
      <trkpt lat="43.3775" lon="6.69985">
        <ele>115.40000152588</ele>
        <time>2018-10-13T10:40:40Z</time>
      </trkpt>
      <trkpt lat="43.37751" lon="6.69986">
        <ele>115.40000152588</ele>
        <time>2018-10-13T10:40:43Z</time>
      </trkpt>
      <trkpt lat="43.37776" lon="6.70006">
        <ele>116.40000152588</ele>
        <time>2018-10-13T10:41:21Z</time>
      </trkpt>
      <trkpt lat="43.37777" lon="6.70008">
        <ele>116.59999847412</ele>
        <time>2018-10-13T10:41:22Z</time>
      </trkpt>
      <trkpt lat="43.3778" lon="6.70013">
        <ele>117</ele>
        <time>2018-10-13T10:41:26Z</time>
      </trkpt>
      <trkpt lat="43.37782" lon="6.70013">
        <ele>117.19999694824</ele>
        <time>2018-10-13T10:41:28Z</time>
      </trkpt>
      <trkpt lat="43.37789" lon="6.70016">
        <ele>117.80000305176</ele>
        <time>2018-10-13T10:41:34Z</time>
      </trkpt>
      <trkpt lat="43.37797" lon="6.70021">
        <ele>118.19999694824</ele>
        <time>2018-10-13T10:41:40Z</time>
      </trkpt>
      <trkpt lat="43.37803" lon="6.70026">
        <ele>118.59999847412</ele>
        <time>2018-10-13T10:41:45Z</time>
      </trkpt>
      <trkpt lat="43.37808" lon="6.7003">
        <ele>119</ele>
        <time>2018-10-13T10:41:50Z</time>
      </trkpt>
      <trkpt lat="43.37809" lon="6.70031">
        <ele>119.19999694824</ele>
        <time>2018-10-13T10:41:51Z</time>
      </trkpt>
      <trkpt lat="43.37818" lon="6.7003">
        <ele>119.80000305176</ele>
        <time>2018-10-13T10:41:57Z</time>
      </trkpt>
      <trkpt lat="43.3783" lon="6.70031">
        <ele>120.59999847412</ele>
        <time>2018-10-13T10:42:04Z</time>
      </trkpt>
      <trkpt lat="43.37837" lon="6.70032">
        <ele>121</ele>
        <time>2018-10-13T10:42:09Z</time>
      </trkpt>
      <trkpt lat="43.37847" lon="6.70035">
        <ele>121.59999847412</ele>
        <time>2018-10-13T10:42:17Z</time>
      </trkpt>
      <trkpt lat="43.37858" lon="6.70041">
        <ele>122.40000152588</ele>
        <time>2018-10-13T10:42:25Z</time>
      </trkpt>
      <trkpt lat="43.37871" lon="6.70053">
        <ele>123.19999694824</ele>
        <time>2018-10-13T10:42:32Z</time>
      </trkpt>
      <trkpt lat="43.37882" lon="6.70064">
        <ele>123.59999847412</ele>
        <time>2018-10-13T10:42:37Z</time>
      </trkpt>
      <trkpt lat="43.37888" lon="6.70071">
        <ele>123.80000305176</ele>
        <time>2018-10-13T10:42:39Z</time>
      </trkpt>
      <trkpt lat="43.37891" lon="6.70076">
        <ele>123.80000305176</ele>
        <time>2018-10-13T10:42:40Z</time>
      </trkpt>
      <trkpt lat="43.37893" lon="6.70081">
        <ele>124</ele>
        <time>2018-10-13T10:42:41Z</time>
      </trkpt>
      <trkpt lat="43.37898" lon="6.70099">
        <ele>124.19999694824</ele>
        <time>2018-10-13T10:42:44Z</time>
      </trkpt>
      <trkpt lat="43.37908" lon="6.70137">
        <ele>124.19999694824</ele>
        <time>2018-10-13T10:42:49Z</time>
      </trkpt>
      <trkpt lat="43.37914" lon="6.70166">
        <ele>124</ele>
        <time>2018-10-13T10:42:52Z</time>
      </trkpt>
      <trkpt lat="43.37918" lon="6.70175">
        <ele>124</ele>
        <time>2018-10-13T10:42:53Z</time>
      </trkpt>
      <trkpt lat="43.3793" lon="6.70197">
        <ele>123.80000305176</ele>
        <time>2018-10-13T10:42:57Z</time>
      </trkpt>
      <trkpt lat="43.37934" lon="6.70204">
        <ele>124</ele>
        <time>2018-10-13T10:42:59Z</time>
      </trkpt>
      <trkpt lat="43.37939" lon="6.70207">
        <ele>124</ele>
        <time>2018-10-13T10:43:01Z</time>
      </trkpt>
      <trkpt lat="43.37949" lon="6.70215">
        <ele>124.40000152588</ele>
        <time>2018-10-13T10:43:07Z</time>
      </trkpt>
      <trkpt lat="43.37955" lon="6.7022">
        <ele>124.80000305176</ele>
        <time>2018-10-13T10:43:12Z</time>
      </trkpt>
      <trkpt lat="43.37956" lon="6.70222">
        <ele>124.80000305176</ele>
        <time>2018-10-13T10:43:13Z</time>
      </trkpt>
      <trkpt lat="43.37959" lon="6.70232">
        <ele>125.80000305176</ele>
        <time>2018-10-13T10:43:20Z</time>
      </trkpt>
      <trkpt lat="43.37958" lon="6.70241">
        <ele>126.40000152588</ele>
        <time>2018-10-13T10:43:27Z</time>
      </trkpt>
      <trkpt lat="43.37957" lon="6.70243">
        <ele>126.59999847412</ele>
        <time>2018-10-13T10:43:28Z</time>
      </trkpt>
      <trkpt lat="43.37955" lon="6.7025">
        <ele>127.40000152588</ele>
        <time>2018-10-13T10:43:33Z</time>
      </trkpt>
      <trkpt lat="43.37954" lon="6.70252">
        <ele>127.59999847412</ele>
        <time>2018-10-13T10:43:34Z</time>
      </trkpt>
      <trkpt lat="43.37954" lon="6.70253">
        <ele>127.80000305176</ele>
        <time>2018-10-13T10:43:35Z</time>
      </trkpt>
      <trkpt lat="43.37954" lon="6.70256">
        <ele>128.19999694824</ele>
        <time>2018-10-13T10:43:38Z</time>
      </trkpt>
      <trkpt lat="43.37956" lon="6.70269">
        <ele>129.39999389648</ele>
        <time>2018-10-13T10:43:45Z</time>
      </trkpt>
      <trkpt lat="43.37956" lon="6.7027">
        <ele>129.60000610352</ele>
        <time>2018-10-13T10:43:46Z</time>
      </trkpt>
      <trkpt lat="43.37959" lon="6.70279">
        <ele>130.60000610352</ele>
        <time>2018-10-13T10:43:51Z</time>
      </trkpt>
      <trkpt lat="43.37961" lon="6.70288">
        <ele>131.80000305176</ele>
        <time>2018-10-13T10:43:57Z</time>
      </trkpt>
      <trkpt lat="43.37962" lon="6.70293">
        <ele>132.39999389648</ele>
        <time>2018-10-13T10:44:00Z</time>
      </trkpt>
      <trkpt lat="43.37964" lon="6.70297">
        <ele>133</ele>
        <time>2018-10-13T10:44:03Z</time>
      </trkpt>
      <trkpt lat="43.37968" lon="6.70304">
        <ele>134.39999389648</ele>
        <time>2018-10-13T10:44:10Z</time>
      </trkpt>
      <trkpt lat="43.37976" lon="6.70304">
        <ele>135.39999389648</ele>
        <time>2018-10-13T10:44:16Z</time>
      </trkpt>
      <trkpt lat="43.37983" lon="6.70303">
        <ele>136.19999694824</ele>
        <time>2018-10-13T10:44:22Z</time>
      </trkpt>
      <trkpt lat="43.37993" lon="6.703">
        <ele>136.60000610352</ele>
        <time>2018-10-13T10:44:27Z</time>
      </trkpt>
      <trkpt lat="43.38011" lon="6.70293">
        <ele>137.19999694824</ele>
        <time>2018-10-13T10:44:33Z</time>
      </trkpt>
      <trkpt lat="43.38024" lon="6.70294">
        <ele>137.60000610352</ele>
        <time>2018-10-13T10:44:37Z</time>
      </trkpt>
      <trkpt lat="43.38042" lon="6.70293">
        <ele>138</ele>
        <time>2018-10-13T10:44:42Z</time>
      </trkpt>
      <trkpt lat="43.3806" lon="6.70297">
        <ele>138.39999389648</ele>
        <time>2018-10-13T10:44:48Z</time>
      </trkpt>
      <trkpt lat="43.38083" lon="6.70299">
        <ele>138.60000610352</ele>
        <time>2018-10-13T10:44:53Z</time>
      </trkpt>
      <trkpt lat="43.38094" lon="6.703">
        <ele>138.80000305176</ele>
        <time>2018-10-13T10:44:55Z</time>
      </trkpt>
      <trkpt lat="43.38111" lon="6.70308">
        <ele>138.80000305176</ele>
        <time>2018-10-13T10:44:58Z</time>
      </trkpt>
      <trkpt lat="43.38145" lon="6.70324">
        <ele>138.60000610352</ele>
        <time>2018-10-13T10:45:03Z</time>
      </trkpt>
      <trkpt lat="43.38158" lon="6.70332">
        <ele>138.80000305176</ele>
        <time>2018-10-13T10:45:05Z</time>
      </trkpt>
      <trkpt lat="43.38172" lon="6.70341">
        <ele>138.80000305176</ele>
        <time>2018-10-13T10:45:07Z</time>
      </trkpt>
      <trkpt lat="43.38178" lon="6.70347">
        <ele>138.80000305176</ele>
        <time>2018-10-13T10:45:08Z</time>
      </trkpt>
      <trkpt lat="43.38189" lon="6.70361">
        <ele>138.60000610352</ele>
        <time>2018-10-13T10:45:10Z</time>
      </trkpt>
      <trkpt lat="43.38202" lon="6.70367">
        <ele>138.19999694824</ele>
        <time>2018-10-13T10:45:12Z</time>
      </trkpt>
      <trkpt lat="43.38207" lon="6.70368">
        <ele>138</ele>
        <time>2018-10-13T10:45:13Z</time>
      </trkpt>
      <trkpt lat="43.38213" lon="6.7037">
        <ele>137.60000610352</ele>
        <time>2018-10-13T10:45:14Z</time>
      </trkpt>
      <trkpt lat="43.38222" lon="6.7038">
        <ele>137.19999694824</ele>
        <time>2018-10-13T10:45:16Z</time>
      </trkpt>
      <trkpt lat="43.38231" lon="6.70392">
        <ele>136.80000305176</ele>
        <time>2018-10-13T10:45:18Z</time>
      </trkpt>
      <trkpt lat="43.38244" lon="6.70401">
        <ele>136.39999389648</ele>
        <time>2018-10-13T10:45:20Z</time>
      </trkpt>
      <trkpt lat="43.38276" lon="6.70409">
        <ele>135.60000610352</ele>
        <time>2018-10-13T10:45:24Z</time>
      </trkpt>
      <trkpt lat="43.38288" lon="6.70422">
        <ele>135.19999694824</ele>
        <time>2018-10-13T10:45:26Z</time>
      </trkpt>
      <trkpt lat="43.38296" lon="6.70437">
        <ele>135.19999694824</ele>
        <time>2018-10-13T10:45:28Z</time>
      </trkpt>
      <trkpt lat="43.38304" lon="6.70449">
        <ele>135.19999694824</ele>
        <time>2018-10-13T10:45:30Z</time>
      </trkpt>
      <trkpt lat="43.38313" lon="6.70459">
        <ele>135.19999694824</ele>
        <time>2018-10-13T10:45:32Z</time>
      </trkpt>
      <trkpt lat="43.38322" lon="6.70467">
        <ele>135</ele>
        <time>2018-10-13T10:45:34Z</time>
      </trkpt>
      <trkpt lat="43.38328" lon="6.7047">
        <ele>135</ele>
        <time>2018-10-13T10:45:35Z</time>
      </trkpt>
      <trkpt lat="43.38346" lon="6.70481">
        <ele>134.39999389648</ele>
        <time>2018-10-13T10:45:38Z</time>
      </trkpt>
      <trkpt lat="43.38351" lon="6.70487">
        <ele>134.19999694824</ele>
        <time>2018-10-13T10:45:39Z</time>
      </trkpt>
      <trkpt lat="43.38355" lon="6.70494">
        <ele>134</ele>
        <time>2018-10-13T10:45:40Z</time>
      </trkpt>
      <trkpt lat="43.38359" lon="6.70509">
        <ele>133.60000610352</ele>
        <time>2018-10-13T10:45:42Z</time>
      </trkpt>
      <trkpt lat="43.38368" lon="6.70515">
        <ele>133.19999694824</ele>
        <time>2018-10-13T10:45:44Z</time>
      </trkpt>
      <trkpt lat="43.38374" lon="6.70515">
        <ele>133</ele>
        <time>2018-10-13T10:45:45Z</time>
      </trkpt>
      <trkpt lat="43.38383" lon="6.70513">
        <ele>132.60000610352</ele>
        <time>2018-10-13T10:45:47Z</time>
      </trkpt>
      <trkpt lat="43.38387" lon="6.70512">
        <ele>132.19999694824</ele>
        <time>2018-10-13T10:45:48Z</time>
      </trkpt>
      <trkpt lat="43.384" lon="6.7052">
        <ele>131</ele>
        <time>2018-10-13T10:45:52Z</time>
      </trkpt>
      <trkpt lat="43.38411" lon="6.70535">
        <ele>129.60000610352</ele>
        <time>2018-10-13T10:45:56Z</time>
      </trkpt>
      <trkpt lat="43.38413" lon="6.70538">
        <ele>129.19999694824</ele>
        <time>2018-10-13T10:45:57Z</time>
      </trkpt>
      <trkpt lat="43.38417" lon="6.70544">
        <ele>128.60000610352</ele>
        <time>2018-10-13T10:45:59Z</time>
      </trkpt>
      <trkpt lat="43.38421" lon="6.70549">
        <ele>128.19999694824</ele>
        <time>2018-10-13T10:46:00Z</time>
      </trkpt>
      <trkpt lat="43.38428" lon="6.70561">
        <ele>127.40000152588</ele>
        <time>2018-10-13T10:46:02Z</time>
      </trkpt>
      <trkpt lat="43.38431" lon="6.70567">
        <ele>127</ele>
        <time>2018-10-13T10:46:03Z</time>
      </trkpt>
      <trkpt lat="43.38435" lon="6.70574">
        <ele>126.59999847412</ele>
        <time>2018-10-13T10:46:04Z</time>
      </trkpt>
      <trkpt lat="43.38447" lon="6.70583">
        <ele>125.59999847412</ele>
        <time>2018-10-13T10:46:06Z</time>
      </trkpt>
      <trkpt lat="43.38477" lon="6.70583">
        <ele>123.80000305176</ele>
        <time>2018-10-13T10:46:10Z</time>
      </trkpt>
      <trkpt lat="43.38484" lon="6.70583">
        <ele>123.19999694824</ele>
        <time>2018-10-13T10:46:11Z</time>
      </trkpt>
      <trkpt lat="43.38488" lon="6.70586">
        <ele>122.80000305176</ele>
        <time>2018-10-13T10:46:12Z</time>
      </trkpt>
      <trkpt lat="43.38492" lon="6.70592">
        <ele>122.40000152588</ele>
        <time>2018-10-13T10:46:13Z</time>
      </trkpt>
      <trkpt lat="43.38498" lon="6.70603">
        <ele>121.40000152588</ele>
        <time>2018-10-13T10:46:15Z</time>
      </trkpt>
      <trkpt lat="43.38503" lon="6.70609">
        <ele>121</ele>
        <time>2018-10-13T10:46:16Z</time>
      </trkpt>
      <trkpt lat="43.38522" lon="6.70638">
        <ele>119.19999694824</ele>
        <time>2018-10-13T10:46:20Z</time>
      </trkpt>
      <trkpt lat="43.38546" lon="6.70678">
        <ele>116.80000305176</ele>
        <time>2018-10-13T10:46:25Z</time>
      </trkpt>
      <trkpt lat="43.38555" lon="6.70693">
        <ele>115.80000305176</ele>
        <time>2018-10-13T10:46:28Z</time>
      </trkpt>
      <trkpt lat="43.3856" lon="6.70701">
        <ele>114.19999694824</ele>
        <time>2018-10-13T10:46:33Z</time>
      </trkpt>
      <trkpt lat="43.38561" lon="6.70704">
        <ele>113.40000152588</ele>
        <time>2018-10-13T10:46:36Z</time>
      </trkpt>
      <trkpt lat="43.38562" lon="6.70706">
        <ele>113</ele>
        <time>2018-10-13T10:46:38Z</time>
      </trkpt>
      <trkpt lat="43.38562" lon="6.70706">
        <ele>112.80000305176</ele>
        <time>2018-10-13T10:46:39Z</time>
      </trkpt>
      <trkpt lat="43.38562" lon="6.70707">
        <ele>112.19999694824</ele>
        <time>2018-10-13T10:46:41Z</time>
      </trkpt>
      <trkpt lat="43.38597" lon="6.7073">
        <ele>107.40000152588</ele>
        <time>2018-10-13T10:47:36Z</time>
      </trkpt>
      <trkpt lat="43.38605" lon="6.70732">
        <ele>107.19999694824</ele>
        <time>2018-10-13T10:47:41Z</time>
      </trkpt>
      <trkpt lat="43.38621" lon="6.70735">
        <ele>107</ele>
        <time>2018-10-13T10:47:47Z</time>
      </trkpt>
      <trkpt lat="43.38637" lon="6.70738">
        <ele>106.59999847412</ele>
        <time>2018-10-13T10:47:52Z</time>
      </trkpt>
      <trkpt lat="43.3865" lon="6.70735">
        <ele>105.40000152588</ele>
        <time>2018-10-13T10:47:58Z</time>
      </trkpt>
      <trkpt lat="43.38653" lon="6.70727">
        <ele>104.80000305176</ele>
        <time>2018-10-13T10:48:01Z</time>
      </trkpt>
      <trkpt lat="43.38654" lon="6.70725">
        <ele>104.40000152588</ele>
        <time>2018-10-13T10:48:02Z</time>
      </trkpt>
      <trkpt lat="43.38658" lon="6.70723">
        <ele>104</ele>
        <time>2018-10-13T10:48:04Z</time>
      </trkpt>
      <trkpt lat="43.38662" lon="6.70724">
        <ele>103.59999847412</ele>
        <time>2018-10-13T10:48:05Z</time>
      </trkpt>
      <trkpt lat="43.38666" lon="6.70726">
        <ele>103.40000152588</ele>
        <time>2018-10-13T10:48:06Z</time>
      </trkpt>
      <trkpt lat="43.38676" lon="6.70732">
        <ele>102.80000305176</ele>
        <time>2018-10-13T10:48:08Z</time>
      </trkpt>
      <trkpt lat="43.38686" lon="6.70726">
        <ele>102</ele>
        <time>2018-10-13T10:48:11Z</time>
      </trkpt>
      <trkpt lat="43.38694" lon="6.70719">
        <ele>101.19999694824</ele>
        <time>2018-10-13T10:48:16Z</time>
      </trkpt>
      <trkpt lat="43.38698" lon="6.70718">
        <ele>100.80000305176</ele>
        <time>2018-10-13T10:48:20Z</time>
      </trkpt>
      <trkpt lat="43.38698" lon="6.70718">
        <ele>100.80000305176</ele>
        <time>2018-10-13T10:48:21Z</time>
      </trkpt>
      <trkpt lat="43.38725" lon="6.70723">
        <ele>99.400001525879</ele>
        <time>2018-10-13T10:49:12Z</time>
      </trkpt>
      <trkpt lat="43.38729" lon="6.70721">
        <ele>99.599998474121</ele>
        <time>2018-10-13T10:49:14Z</time>
      </trkpt>
      <trkpt lat="43.38741" lon="6.70718">
        <ele>99.599998474121</ele>
        <time>2018-10-13T10:49:20Z</time>
      </trkpt>
      <trkpt lat="43.38754" lon="6.70709">
        <ele>99.400001525879</ele>
        <time>2018-10-13T10:49:24Z</time>
      </trkpt>
      <trkpt lat="43.38762" lon="6.70703">
        <ele>99.199996948242</ele>
        <time>2018-10-13T10:49:26Z</time>
      </trkpt>
      <trkpt lat="43.38776" lon="6.70694">
        <ele>98.800003051758</ele>
        <time>2018-10-13T10:49:29Z</time>
      </trkpt>
      <trkpt lat="43.38791" lon="6.70689">
        <ele>98.400001525879</ele>
        <time>2018-10-13T10:49:32Z</time>
      </trkpt>
      <trkpt lat="43.38795" lon="6.70686">
        <ele>98.400001525879</ele>
        <time>2018-10-13T10:49:33Z</time>
      </trkpt>
      <trkpt lat="43.38799" lon="6.70683">
        <ele>98.199996948242</ele>
        <time>2018-10-13T10:49:34Z</time>
      </trkpt>
      <trkpt lat="43.38808" lon="6.70679">
        <ele>97.800003051758</ele>
        <time>2018-10-13T10:49:36Z</time>
      </trkpt>
      <trkpt lat="43.38817" lon="6.70674">
        <ele>97.400001525879</ele>
        <time>2018-10-13T10:49:38Z</time>
      </trkpt>
      <trkpt lat="43.38826" lon="6.70672">
        <ele>97</ele>
        <time>2018-10-13T10:49:40Z</time>
      </trkpt>
      <trkpt lat="43.38837" lon="6.7067">
        <ele>96.199996948242</ele>
        <time>2018-10-13T10:49:44Z</time>
      </trkpt>
      <trkpt lat="43.38846" lon="6.70663">
        <ele>95.400001525879</ele>
        <time>2018-10-13T10:49:48Z</time>
      </trkpt>
      <trkpt lat="43.38863" lon="6.70652">
        <ele>94</ele>
        <time>2018-10-13T10:49:53Z</time>
      </trkpt>
      <trkpt lat="43.38871" lon="6.7064">
        <ele>93.400001525879</ele>
        <time>2018-10-13T10:49:56Z</time>
      </trkpt>
      <trkpt lat="43.38878" lon="6.70627">
        <ele>92.599998474121</ele>
        <time>2018-10-13T10:50:01Z</time>
      </trkpt>
      <trkpt lat="43.38884" lon="6.70615">
        <ele>92.199996948242</ele>
        <time>2018-10-13T10:50:09Z</time>
      </trkpt>
      <trkpt lat="43.38888" lon="6.70605">
        <ele>92</ele>
        <time>2018-10-13T10:50:14Z</time>
      </trkpt>
      <trkpt lat="43.38891" lon="6.70603">
        <ele>92</ele>
        <time>2018-10-13T10:50:16Z</time>
      </trkpt>
      <trkpt lat="43.38895" lon="6.706">
        <ele>92.199996948242</ele>
        <time>2018-10-13T10:50:20Z</time>
      </trkpt>
      <trkpt lat="43.38902" lon="6.70602">
        <ele>92.199996948242</ele>
        <time>2018-10-13T10:50:25Z</time>
      </trkpt>
      <trkpt lat="43.38903" lon="6.70602">
        <ele>92.199996948242</ele>
        <time>2018-10-13T10:50:26Z</time>
      </trkpt>
      <trkpt lat="43.38911" lon="6.70602">
        <ele>92.599998474121</ele>
        <time>2018-10-13T10:50:32Z</time>
      </trkpt>
      <trkpt lat="43.38914" lon="6.70599">
        <ele>92.800003051758</ele>
        <time>2018-10-13T10:50:35Z</time>
      </trkpt>
      <trkpt lat="43.38916" lon="6.70595">
        <ele>92.800003051758</ele>
        <time>2018-10-13T10:50:38Z</time>
      </trkpt>
      <trkpt lat="43.38925" lon="6.70582">
        <ele>92.800003051758</ele>
        <time>2018-10-13T10:50:43Z</time>
      </trkpt>
      <trkpt lat="43.38931" lon="6.70576">
        <ele>92.599998474121</ele>
        <time>2018-10-13T10:50:45Z</time>
      </trkpt>
      <trkpt lat="43.38939" lon="6.70569">
        <ele>92.599998474121</ele>
        <time>2018-10-13T10:50:47Z</time>
      </trkpt>
      <trkpt lat="43.3895" lon="6.7056">
        <ele>92.199996948242</ele>
        <time>2018-10-13T10:50:50Z</time>
      </trkpt>
      <trkpt lat="43.38954" lon="6.7056">
        <ele>92</ele>
        <time>2018-10-13T10:50:51Z</time>
      </trkpt>
      <trkpt lat="43.38956" lon="6.70562">
        <ele>91.800003051758</ele>
        <time>2018-10-13T10:50:52Z</time>
      </trkpt>
      <trkpt lat="43.3896" lon="6.70567">
        <ele>91.400001525879</ele>
        <time>2018-10-13T10:50:54Z</time>
      </trkpt>
      <trkpt lat="43.38973" lon="6.70581">
        <ele>90.199996948242</ele>
        <time>2018-10-13T10:50:59Z</time>
      </trkpt>
      <trkpt lat="43.38975" lon="6.70582">
        <ele>89.800003051758</ele>
        <time>2018-10-13T10:51:00Z</time>
      </trkpt>
      <trkpt lat="43.38978" lon="6.70581">
        <ele>89.199996948242</ele>
        <time>2018-10-13T10:51:02Z</time>
      </trkpt>
      <trkpt lat="43.38982" lon="6.70565">
        <ele>88</ele>
        <time>2018-10-13T10:51:06Z</time>
      </trkpt>
      <trkpt lat="43.38989" lon="6.70549">
        <ele>87.199996948242</ele>
        <time>2018-10-13T10:51:10Z</time>
      </trkpt>
      <trkpt lat="43.38997" lon="6.70542">
        <ele>86.400001525879</ele>
        <time>2018-10-13T10:51:13Z</time>
      </trkpt>
      <trkpt lat="43.39" lon="6.70541">
        <ele>86</ele>
        <time>2018-10-13T10:51:14Z</time>
      </trkpt>
      <trkpt lat="43.39009" lon="6.70534">
        <ele>84.400001525879</ele>
        <time>2018-10-13T10:51:18Z</time>
      </trkpt>
      <trkpt lat="43.39012" lon="6.70534">
        <ele>84</ele>
        <time>2018-10-13T10:51:19Z</time>
      </trkpt>
      <trkpt lat="43.39022" lon="6.70535">
        <ele>82.199996948242</ele>
        <time>2018-10-13T10:51:23Z</time>
      </trkpt>
      <trkpt lat="43.39024" lon="6.70534">
        <ele>81.800003051758</ele>
        <time>2018-10-13T10:51:24Z</time>
      </trkpt>
      <trkpt lat="43.39026" lon="6.70531">
        <ele>81</ele>
        <time>2018-10-13T10:51:26Z</time>
      </trkpt>
      <trkpt lat="43.39026" lon="6.70528">
        <ele>80.599998474121</ele>
        <time>2018-10-13T10:51:27Z</time>
      </trkpt>
      <trkpt lat="43.39025" lon="6.70519">
        <ele>79.400001525879</ele>
        <time>2018-10-13T10:51:30Z</time>
      </trkpt>
      <trkpt lat="43.39027" lon="6.70514">
        <ele>78.599998474121</ele>
        <time>2018-10-13T10:51:32Z</time>
      </trkpt>
      <trkpt lat="43.39029" lon="6.70513">
        <ele>78.199996948242</ele>
        <time>2018-10-13T10:51:33Z</time>
      </trkpt>
      <trkpt lat="43.39032" lon="6.70514">
        <ele>77.599998474121</ele>
        <time>2018-10-13T10:51:35Z</time>
      </trkpt>
      <trkpt lat="43.39034" lon="6.7052">
        <ele>76.599998474121</ele>
        <time>2018-10-13T10:51:37Z</time>
      </trkpt>
      <trkpt lat="43.39038" lon="6.70522">
        <ele>76</ele>
        <time>2018-10-13T10:51:39Z</time>
      </trkpt>
      <trkpt lat="43.39048" lon="6.70527">
        <ele>74.400001525879</ele>
        <time>2018-10-13T10:51:43Z</time>
      </trkpt>
      <trkpt lat="43.39053" lon="6.70534">
        <ele>73.800003051758</ele>
        <time>2018-10-13T10:51:45Z</time>
      </trkpt>
      <trkpt lat="43.39053" lon="6.70539">
        <ele>73.400001525879</ele>
        <time>2018-10-13T10:51:46Z</time>
      </trkpt>
      <trkpt lat="43.39053" lon="6.70556">
        <ele>72.400001525879</ele>
        <time>2018-10-13T10:51:49Z</time>
      </trkpt>
      <trkpt lat="43.39054" lon="6.70564">
        <ele>72</ele>
        <time>2018-10-13T10:51:50Z</time>
      </trkpt>
      <trkpt lat="43.39056" lon="6.70572">
        <ele>71.800003051758</ele>
        <time>2018-10-13T10:51:51Z</time>
      </trkpt>
      <trkpt lat="43.39063" lon="6.70584">
        <ele>71.199996948242</ele>
        <time>2018-10-13T10:51:53Z</time>
      </trkpt>
      <trkpt lat="43.39073" lon="6.70594">
        <ele>70.400001525879</ele>
        <time>2018-10-13T10:51:56Z</time>
      </trkpt>
      <trkpt lat="43.39077" lon="6.70606">
        <ele>69.400001525879</ele>
        <time>2018-10-13T10:52:00Z</time>
      </trkpt>
      <trkpt lat="43.39078" lon="6.70607">
        <ele>68.800003051758</ele>
        <time>2018-10-13T10:52:02Z</time>
      </trkpt>
      <trkpt lat="43.39081" lon="6.70606">
        <ele>58.400001525879</ele>
        <time>2018-10-13T10:55:48Z</time>
      </trkpt>
      <trkpt lat="43.39094" lon="6.70602">
        <ele>58.200000762939</ele>
        <time>2018-10-13T10:55:53Z</time>
      </trkpt>
      <trkpt lat="43.39101" lon="6.70603">
        <ele>57.799999237061</ele>
        <time>2018-10-13T10:55:55Z</time>
      </trkpt>
      <trkpt lat="43.39105" lon="6.70606">
        <ele>57.799999237061</ele>
        <time>2018-10-13T10:55:56Z</time>
      </trkpt>
      <trkpt lat="43.39116" lon="6.70619">
        <ele>57.200000762939</ele>
        <time>2018-10-13T10:55:59Z</time>
      </trkpt>
      <trkpt lat="43.39119" lon="6.70625">
        <ele>57</ele>
        <time>2018-10-13T10:56:00Z</time>
      </trkpt>
      <trkpt lat="43.39123" lon="6.7063">
        <ele>57</ele>
        <time>2018-10-13T10:56:01Z</time>
      </trkpt>
      <trkpt lat="43.3913" lon="6.70634">
        <ele>56.799999237061</ele>
        <time>2018-10-13T10:56:03Z</time>
      </trkpt>
      <trkpt lat="43.39137" lon="6.70637">
        <ele>56.599998474121</ele>
        <time>2018-10-13T10:56:05Z</time>
      </trkpt>
      <trkpt lat="43.39139" lon="6.70641">
        <ele>56.599998474121</ele>
        <time>2018-10-13T10:56:06Z</time>
      </trkpt>
      <trkpt lat="43.39141" lon="6.70651">
        <ele>56.400001525879</ele>
        <time>2018-10-13T10:56:08Z</time>
      </trkpt>
      <trkpt lat="43.39145" lon="6.70663">
        <ele>56</ele>
        <time>2018-10-13T10:56:10Z</time>
      </trkpt>
      <trkpt lat="43.39148" lon="6.70668">
        <ele>56</ele>
        <time>2018-10-13T10:56:11Z</time>
      </trkpt>
      <trkpt lat="43.39155" lon="6.70674">
        <ele>55.799999237061</ele>
        <time>2018-10-13T10:56:13Z</time>
      </trkpt>
      <trkpt lat="43.39168" lon="6.70676">
        <ele>55.599998474121</ele>
        <time>2018-10-13T10:56:16Z</time>
      </trkpt>
      <trkpt lat="43.39178" lon="6.70675">
        <ele>55.200000762939</ele>
        <time>2018-10-13T10:56:18Z</time>
      </trkpt>
      <trkpt lat="43.39189" lon="6.70681">
        <ele>54.799999237061</ele>
        <time>2018-10-13T10:56:21Z</time>
      </trkpt>
      <trkpt lat="43.39204" lon="6.70684">
        <ele>54.200000762939</ele>
        <time>2018-10-13T10:56:25Z</time>
      </trkpt>
      <trkpt lat="43.39212" lon="6.70687">
        <ele>53.599998474121</ele>
        <time>2018-10-13T10:56:29Z</time>
      </trkpt>
      <trkpt lat="43.39212" lon="6.70687">
        <ele>53.599998474121</ele>
        <time>2018-10-13T10:56:30Z</time>
      </trkpt>
      <trkpt lat="43.3922" lon="6.7069">
        <ele>51</ele>
        <time>2018-10-13T10:57:12Z</time>
      </trkpt>
      <trkpt lat="43.39224" lon="6.70691">
        <ele>51</ele>
        <time>2018-10-13T10:57:14Z</time>
      </trkpt>
      <trkpt lat="43.39235" lon="6.70697">
        <ele>50.599998474121</ele>
        <time>2018-10-13T10:57:20Z</time>
      </trkpt>
      <trkpt lat="43.39247" lon="6.70699">
        <ele>50.200000762939</ele>
        <time>2018-10-13T10:57:25Z</time>
      </trkpt>
      <trkpt lat="43.39256" lon="6.707">
        <ele>49.400001525879</ele>
        <time>2018-10-13T10:57:29Z</time>
      </trkpt>
      <trkpt lat="43.39261" lon="6.70699">
        <ele>48.799999237061</ele>
        <time>2018-10-13T10:57:32Z</time>
      </trkpt>
      <trkpt lat="43.39262" lon="6.707">
        <ele>48.599998474121</ele>
        <time>2018-10-13T10:57:33Z</time>
      </trkpt>
      <trkpt lat="43.39268" lon="6.70701">
        <ele>47.599998474121</ele>
        <time>2018-10-13T10:57:38Z</time>
      </trkpt>
      <trkpt lat="43.39267" lon="6.70699">
        <ele>46.799999237061</ele>
        <time>2018-10-13T10:57:43Z</time>
      </trkpt>
      <trkpt lat="43.39267" lon="6.70699">
        <ele>46.599998474121</ele>
        <time>2018-10-13T10:57:44Z</time>
      </trkpt>
      <trkpt lat="43.39266" lon="6.70693">
        <ele>45.400001525879</ele>
        <time>2018-10-13T10:57:53Z</time>
      </trkpt>
      <trkpt lat="43.39265" lon="6.70687">
        <ele>45</ele>
        <time>2018-10-13T10:57:55Z</time>
      </trkpt>
      <trkpt lat="43.39257" lon="6.70675">
        <ele>44</ele>
        <time>2018-10-13T10:57:59Z</time>
      </trkpt>
      <trkpt lat="43.39256" lon="6.70671">
        <ele>44</ele>
        <time>2018-10-13T10:58:00Z</time>
      </trkpt>
      <trkpt lat="43.39258" lon="6.70664">
        <ele>43.599998474121</ele>
        <time>2018-10-13T10:58:02Z</time>
      </trkpt>
      <trkpt lat="43.39262" lon="6.7066">
        <ele>43.400001525879</ele>
        <time>2018-10-13T10:58:05Z</time>
      </trkpt>
      <trkpt lat="43.39266" lon="6.7066">
        <ele>43.200000762939</ele>
        <time>2018-10-13T10:58:07Z</time>
      </trkpt>
      <trkpt lat="43.39277" lon="6.70662">
        <ele>42.799999237061</ele>
        <time>2018-10-13T10:58:12Z</time>
      </trkpt>
      <trkpt lat="43.39283" lon="6.7066">
        <ele>42.599998474121</ele>
        <time>2018-10-13T10:58:19Z</time>
      </trkpt>
      <trkpt lat="43.39342" lon="6.70656">
        <ele>43.599998474121</ele>
        <time>2018-10-13T10:59:37Z</time>
      </trkpt>
      <trkpt lat="43.39345" lon="6.70655">
        <ele>43.799999237061</ele>
        <time>2018-10-13T10:59:39Z</time>
      </trkpt>
      <trkpt lat="43.39352" lon="6.70654">
        <ele>43.799999237061</ele>
        <time>2018-10-13T10:59:43Z</time>
      </trkpt>
      <trkpt lat="43.39353" lon="6.70655">
        <ele>43.799999237061</ele>
        <time>2018-10-13T10:59:44Z</time>
      </trkpt>
      <trkpt lat="43.39364" lon="6.7066">
        <ele>44</ele>
        <time>2018-10-13T10:59:49Z</time>
      </trkpt>
      <trkpt lat="43.39377" lon="6.70668">
        <ele>43.799999237061</ele>
        <time>2018-10-13T10:59:55Z</time>
      </trkpt>
      <trkpt lat="43.39387" lon="6.70673">
        <ele>43.799999237061</ele>
        <time>2018-10-13T11:00:00Z</time>
      </trkpt>
      <trkpt lat="43.39388" lon="6.70673">
        <ele>43.799999237061</ele>
        <time>2018-10-13T11:00:01Z</time>
      </trkpt>
      <trkpt lat="43.39392" lon="6.70672">
        <ele>43.799999237061</ele>
        <time>2018-10-13T11:00:03Z</time>
      </trkpt>
      <trkpt lat="43.39395" lon="6.70675">
        <ele>44</ele>
        <time>2018-10-13T11:00:05Z</time>
      </trkpt>
      <trkpt lat="43.39402" lon="6.70679">
        <ele>44.200000762939</ele>
        <time>2018-10-13T11:00:10Z</time>
      </trkpt>
      <trkpt lat="43.39404" lon="6.70679">
        <ele>44.400001525879</ele>
        <time>2018-10-13T11:00:11Z</time>
      </trkpt>
      <trkpt lat="43.39412" lon="6.70681">
        <ele>44.799999237061</ele>
        <time>2018-10-13T11:00:18Z</time>
      </trkpt>
      <trkpt lat="43.39424" lon="6.70681">
        <ele>45.400001525879</ele>
        <time>2018-10-13T11:00:26Z</time>
      </trkpt>
      <trkpt lat="43.39432" lon="6.70679">
        <ele>45.799999237061</ele>
        <time>2018-10-13T11:00:32Z</time>
      </trkpt>
      <trkpt lat="43.39442" lon="6.70684">
        <ele>46</ele>
        <time>2018-10-13T11:00:38Z</time>
      </trkpt>
      <trkpt lat="43.39453" lon="6.70687">
        <ele>46.400001525879</ele>
        <time>2018-10-13T11:00:45Z</time>
      </trkpt>
      <trkpt lat="43.39455" lon="6.70687">
        <ele>46.599998474121</ele>
        <time>2018-10-13T11:00:46Z</time>
      </trkpt>
      <trkpt lat="43.39458" lon="6.70683">
        <ele>46.599998474121</ele>
        <time>2018-10-13T11:00:49Z</time>
      </trkpt>
      <trkpt lat="43.3946" lon="6.7068">
        <ele>46.799999237061</ele>
        <time>2018-10-13T11:00:51Z</time>
      </trkpt>
      <trkpt lat="43.3946" lon="6.70677">
        <ele>46.799999237061</ele>
        <time>2018-10-13T11:00:53Z</time>
      </trkpt>
      <trkpt lat="43.3946" lon="6.70676">
        <ele>46.799999237061</ele>
        <time>2018-10-13T11:00:54Z</time>
      </trkpt>
      <trkpt lat="43.39459" lon="6.70676">
        <ele>46.799999237061</ele>
        <time>2018-10-13T11:00:55Z</time>
      </trkpt>
      <trkpt lat="43.39459" lon="6.70677">
        <ele>47</ele>
        <time>2018-10-13T11:00:57Z</time>
      </trkpt>
      <trkpt lat="43.39467" lon="6.7067">
        <ele>48</ele>
        <time>2018-10-13T11:01:18Z</time>
      </trkpt>
      <trkpt lat="43.39476" lon="6.70668">
        <ele>48</ele>
        <time>2018-10-13T11:01:23Z</time>
      </trkpt>
      <trkpt lat="43.39483" lon="6.70667">
        <ele>48</ele>
        <time>2018-10-13T11:01:27Z</time>
      </trkpt>
      <trkpt lat="43.39486" lon="6.70666">
        <ele>48</ele>
        <time>2018-10-13T11:01:29Z</time>
      </trkpt>
      <trkpt lat="43.39493" lon="6.70665">
        <ele>48.599998474121</ele>
        <time>2018-10-13T11:01:34Z</time>
      </trkpt>
      <trkpt lat="43.39494" lon="6.70664">
        <ele>48.599998474121</ele>
        <time>2018-10-13T11:01:35Z</time>
      </trkpt>
      <trkpt lat="43.39495" lon="6.70662">
        <ele>48.799999237061</ele>
        <time>2018-10-13T11:01:36Z</time>
      </trkpt>
      <trkpt lat="43.39496" lon="6.70654">
        <ele>49</ele>
        <time>2018-10-13T11:01:40Z</time>
      </trkpt>
      <trkpt lat="43.39495" lon="6.70641">
        <ele>49.599998474121</ele>
        <time>2018-10-13T11:01:46Z</time>
      </trkpt>
      <trkpt lat="43.39499" lon="6.70634">
        <ele>50</ele>
        <time>2018-10-13T11:01:50Z</time>
      </trkpt>
      <trkpt lat="43.39501" lon="6.70631">
        <ele>50.200000762939</ele>
        <time>2018-10-13T11:01:52Z</time>
      </trkpt>
      <trkpt lat="43.39507" lon="6.70622">
        <ele>50.599998474121</ele>
        <time>2018-10-13T11:01:57Z</time>
      </trkpt>
      <trkpt lat="43.39511" lon="6.70608">
        <ele>51</ele>
        <time>2018-10-13T11:02:02Z</time>
      </trkpt>
      <trkpt lat="43.39519" lon="6.70602">
        <ele>51.200000762939</ele>
        <time>2018-10-13T11:02:06Z</time>
      </trkpt>
      <trkpt lat="43.39523" lon="6.70601">
        <ele>51.200000762939</ele>
        <time>2018-10-13T11:02:08Z</time>
      </trkpt>
      <trkpt lat="43.39527" lon="6.70599">
        <ele>51.400001525879</ele>
        <time>2018-10-13T11:02:10Z</time>
      </trkpt>
      <trkpt lat="43.39538" lon="6.706">
        <ele>51.200000762939</ele>
        <time>2018-10-13T11:02:14Z</time>
      </trkpt>
      <trkpt lat="43.3954" lon="6.70603">
        <ele>51.200000762939</ele>
        <time>2018-10-13T11:02:15Z</time>
      </trkpt>
      <trkpt lat="43.39542" lon="6.70611">
        <ele>51</ele>
        <time>2018-10-13T11:02:17Z</time>
      </trkpt>
      <trkpt lat="43.39542" lon="6.70615">
        <ele>51</ele>
        <time>2018-10-13T11:02:18Z</time>
      </trkpt>
      <trkpt lat="43.39543" lon="6.70623">
        <ele>50.799999237061</ele>
        <time>2018-10-13T11:02:20Z</time>
      </trkpt>
      <trkpt lat="43.39545" lon="6.70631">
        <ele>50.599998474121</ele>
        <time>2018-10-13T11:02:22Z</time>
      </trkpt>
      <trkpt lat="43.39551" lon="6.70635">
        <ele>50.400001525879</ele>
        <time>2018-10-13T11:02:25Z</time>
      </trkpt>
      <trkpt lat="43.39554" lon="6.70634">
        <ele>50.200000762939</ele>
        <time>2018-10-13T11:02:26Z</time>
      </trkpt>
      <trkpt lat="43.39564" lon="6.70626">
        <ele>49.400001525879</ele>
        <time>2018-10-13T11:02:29Z</time>
      </trkpt>
      <trkpt lat="43.39566" lon="6.7062">
        <ele>49.200000762939</ele>
        <time>2018-10-13T11:02:30Z</time>
      </trkpt>
      <trkpt lat="43.39572" lon="6.70605">
        <ele>48.400001525879</ele>
        <time>2018-10-13T11:02:34Z</time>
      </trkpt>
      <trkpt lat="43.39573" lon="6.70604">
        <ele>48.200000762939</ele>
        <time>2018-10-13T11:02:35Z</time>
      </trkpt>
      <trkpt lat="43.39577" lon="6.70601">
        <ele>48</ele>
        <time>2018-10-13T11:02:38Z</time>
      </trkpt>
      <trkpt lat="43.39579" lon="6.706">
        <ele>48</ele>
        <time>2018-10-13T11:02:39Z</time>
      </trkpt>
      <trkpt lat="43.39583" lon="6.706">
        <ele>47.799999237061</ele>
        <time>2018-10-13T11:02:42Z</time>
      </trkpt>
      <trkpt lat="43.39589" lon="6.70605">
        <ele>48</ele>
        <time>2018-10-13T11:02:47Z</time>
      </trkpt>
      <trkpt lat="43.3959" lon="6.70608">
        <ele>48</ele>
        <time>2018-10-13T11:02:48Z</time>
      </trkpt>
      <trkpt lat="43.39593" lon="6.70614">
        <ele>48.200000762939</ele>
        <time>2018-10-13T11:02:50Z</time>
      </trkpt>
      <trkpt lat="43.39596" lon="6.7062">
        <ele>48.200000762939</ele>
        <time>2018-10-13T11:02:52Z</time>
      </trkpt>
      <trkpt lat="43.39602" lon="6.70636">
        <ele>48.200000762939</ele>
        <time>2018-10-13T11:02:57Z</time>
      </trkpt>
      <trkpt lat="43.39604" lon="6.70654">
        <ele>48.400001525879</ele>
        <time>2018-10-13T11:03:04Z</time>
      </trkpt>
      <trkpt lat="43.39602" lon="6.70669">
        <ele>48.400001525879</ele>
        <time>2018-10-13T11:03:09Z</time>
      </trkpt>
      <trkpt lat="43.39603" lon="6.7067">
        <ele>48.400001525879</ele>
        <time>2018-10-13T11:03:10Z</time>
      </trkpt>
      <trkpt lat="43.39605" lon="6.70674">
        <ele>48.599998474121</ele>
        <time>2018-10-13T11:03:12Z</time>
      </trkpt>
      <trkpt lat="43.39606" lon="6.70679">
        <ele>48.599998474121</ele>
        <time>2018-10-13T11:03:14Z</time>
      </trkpt>
      <trkpt lat="43.39607" lon="6.70681">
        <ele>48.599998474121</ele>
        <time>2018-10-13T11:03:15Z</time>
      </trkpt>
      <trkpt lat="43.39608" lon="6.70683">
        <ele>48.599998474121</ele>
        <time>2018-10-13T11:03:17Z</time>
      </trkpt>
      <trkpt lat="43.39608" lon="6.70683">
        <ele>48.799999237061</ele>
        <time>2018-10-13T11:03:20Z</time>
      </trkpt>
      <trkpt lat="43.39614" lon="6.70686">
        <ele>49.200000762939</ele>
        <time>2018-10-13T11:03:35Z</time>
      </trkpt>
      <trkpt lat="43.39616" lon="6.70687">
        <ele>49.200000762939</ele>
        <time>2018-10-13T11:03:36Z</time>
      </trkpt>
      <trkpt lat="43.39617" lon="6.70686">
        <ele>49.400001525879</ele>
        <time>2018-10-13T11:03:37Z</time>
      </trkpt>
      <trkpt lat="43.39621" lon="6.70683">
        <ele>49.599998474121</ele>
        <time>2018-10-13T11:03:41Z</time>
      </trkpt>
      <trkpt lat="43.39624" lon="6.70682">
        <ele>50</ele>
        <time>2018-10-13T11:03:44Z</time>
      </trkpt>
      <trkpt lat="43.39627" lon="6.70682">
        <ele>50.200000762939</ele>
        <time>2018-10-13T11:03:46Z</time>
      </trkpt>
      <trkpt lat="43.39634" lon="6.70677">
        <ele>50.599998474121</ele>
        <time>2018-10-13T11:03:52Z</time>
      </trkpt>
      <trkpt lat="43.39644" lon="6.70673">
        <ele>51.200000762939</ele>
        <time>2018-10-13T11:03:59Z</time>
      </trkpt>
      <trkpt lat="43.39646" lon="6.70674">
        <ele>51.400001525879</ele>
        <time>2018-10-13T11:04:01Z</time>
      </trkpt>
      <trkpt lat="43.39648" lon="6.70674">
        <ele>51.599998474121</ele>
        <time>2018-10-13T11:04:03Z</time>
      </trkpt>
      <trkpt lat="43.39651" lon="6.70674">
        <ele>51.799999237061</ele>
        <time>2018-10-13T11:04:05Z</time>
      </trkpt>
      <trkpt lat="43.39653" lon="6.70672">
        <ele>52</ele>
        <time>2018-10-13T11:04:07Z</time>
      </trkpt>
      <trkpt lat="43.39654" lon="6.70671">
        <ele>52</ele>
        <time>2018-10-13T11:04:08Z</time>
      </trkpt>
      <trkpt lat="43.39661" lon="6.70666">
        <ele>52.599998474121</ele>
        <time>2018-10-13T11:04:14Z</time>
      </trkpt>
      <trkpt lat="43.39669" lon="6.70659">
        <ele>53.400001525879</ele>
        <time>2018-10-13T11:04:21Z</time>
      </trkpt>
      <trkpt lat="43.39675" lon="6.70652">
        <ele>53.599998474121</ele>
        <time>2018-10-13T11:04:25Z</time>
      </trkpt>
      <trkpt lat="43.39677" lon="6.70651">
        <ele>53.599998474121</ele>
        <time>2018-10-13T11:04:26Z</time>
      </trkpt>
      <trkpt lat="43.39688" lon="6.70647">
        <ele>53.799999237061</ele>
        <time>2018-10-13T11:04:30Z</time>
      </trkpt>
      <trkpt lat="43.397" lon="6.70644">
        <ele>54</ele>
        <time>2018-10-13T11:04:35Z</time>
      </trkpt>
      <trkpt lat="43.39713" lon="6.70645">
        <ele>54.599998474121</ele>
        <time>2018-10-13T11:04:41Z</time>
      </trkpt>
      <trkpt lat="43.39725" lon="6.70653">
        <ele>55</ele>
        <time>2018-10-13T11:04:46Z</time>
      </trkpt>
      <trkpt lat="43.39729" lon="6.70658">
        <ele>55.200000762939</ele>
        <time>2018-10-13T11:04:48Z</time>
      </trkpt>
      <trkpt lat="43.39735" lon="6.70658">
        <ele>55.200000762939</ele>
        <time>2018-10-13T11:04:50Z</time>
      </trkpt>
      <trkpt lat="43.39743" lon="6.70646">
        <ele>55.599998474121</ele>
        <time>2018-10-13T11:04:54Z</time>
      </trkpt>
      <trkpt lat="43.39749" lon="6.70629">
        <ele>55.799999237061</ele>
        <time>2018-10-13T11:04:59Z</time>
      </trkpt>
      <trkpt lat="43.39756" lon="6.70615">
        <ele>56.200000762939</ele>
        <time>2018-10-13T11:05:05Z</time>
      </trkpt>
      <trkpt lat="43.39758" lon="6.70611">
        <ele>56.599998474121</ele>
        <time>2018-10-13T11:05:07Z</time>
      </trkpt>
      <trkpt lat="43.39759" lon="6.70606">
        <ele>56.799999237061</ele>
        <time>2018-10-13T11:05:09Z</time>
      </trkpt>
      <trkpt lat="43.39765" lon="6.70592">
        <ele>57.200000762939</ele>
        <time>2018-10-13T11:05:14Z</time>
      </trkpt>
      <trkpt lat="43.39767" lon="6.70575">
        <ele>57.400001525879</ele>
        <time>2018-10-13T11:05:18Z</time>
      </trkpt>
      <trkpt lat="43.39769" lon="6.70572">
        <ele>57.599998474121</ele>
        <time>2018-10-13T11:05:19Z</time>
      </trkpt>
      <trkpt lat="43.39779" lon="6.70565">
        <ele>57.599998474121</ele>
        <time>2018-10-13T11:05:23Z</time>
      </trkpt>
      <trkpt lat="43.39792" lon="6.70549">
        <ele>57.799999237061</ele>
        <time>2018-10-13T11:05:29Z</time>
      </trkpt>
      <trkpt lat="43.39799" lon="6.70536">
        <ele>57.799999237061</ele>
        <time>2018-10-13T11:05:34Z</time>
      </trkpt>
      <trkpt lat="43.398" lon="6.70531">
        <ele>57.799999237061</ele>
        <time>2018-10-13T11:05:35Z</time>
      </trkpt>
      <trkpt lat="43.398" lon="6.70526">
        <ele>57.799999237061</ele>
        <time>2018-10-13T11:05:36Z</time>
      </trkpt>
      <trkpt lat="43.39804" lon="6.70516">
        <ele>57.599998474121</ele>
        <time>2018-10-13T11:05:38Z</time>
      </trkpt>
      <trkpt lat="43.39811" lon="6.70513">
        <ele>57.799999237061</ele>
        <time>2018-10-13T11:05:40Z</time>
      </trkpt>
      <trkpt lat="43.39813" lon="6.7051">
        <ele>57.799999237061</ele>
        <time>2018-10-13T11:05:41Z</time>
      </trkpt>
      <trkpt lat="43.3982" lon="6.70495">
        <ele>57.799999237061</ele>
        <time>2018-10-13T11:05:45Z</time>
      </trkpt>
      <trkpt lat="43.39823" lon="6.70483">
        <ele>57.799999237061</ele>
        <time>2018-10-13T11:05:48Z</time>
      </trkpt>
      <trkpt lat="43.39827" lon="6.70481">
        <ele>57.799999237061</ele>
        <time>2018-10-13T11:05:50Z</time>
      </trkpt>
      <trkpt lat="43.39829" lon="6.70482">
        <ele>57.799999237061</ele>
        <time>2018-10-13T11:05:51Z</time>
      </trkpt>
      <trkpt lat="43.39832" lon="6.70485">
        <ele>57.599998474121</ele>
        <time>2018-10-13T11:05:53Z</time>
      </trkpt>
      <trkpt lat="43.39835" lon="6.7049">
        <ele>57.599998474121</ele>
        <time>2018-10-13T11:05:56Z</time>
      </trkpt>
      <trkpt lat="43.39842" lon="6.70502">
        <ele>58</ele>
        <time>2018-10-13T11:06:03Z</time>
      </trkpt>
      <trkpt lat="43.39845" lon="6.70503">
        <ele>58.200000762939</ele>
        <time>2018-10-13T11:06:07Z</time>
      </trkpt>
      <trkpt lat="43.39857" lon="6.70518">
        <ele>60</ele>
        <time>2018-10-13T11:06:32Z</time>
      </trkpt>
      <trkpt lat="43.39858" lon="6.70528">
        <ele>60</ele>
        <time>2018-10-13T11:06:35Z</time>
      </trkpt>
      <trkpt lat="43.39859" lon="6.70531">
        <ele>60</ele>
        <time>2018-10-13T11:06:36Z</time>
      </trkpt>
      <trkpt lat="43.39863" lon="6.70541">
        <ele>59.799999237061</ele>
        <time>2018-10-13T11:06:39Z</time>
      </trkpt>
      <trkpt lat="43.39869" lon="6.70556">
        <ele>59.599998474121</ele>
        <time>2018-10-13T11:06:43Z</time>
      </trkpt>
      <trkpt lat="43.39879" lon="6.70567">
        <ele>59.599998474121</ele>
        <time>2018-10-13T11:06:47Z</time>
      </trkpt>
      <trkpt lat="43.39891" lon="6.70585">
        <ele>59.599998474121</ele>
        <time>2018-10-13T11:06:53Z</time>
      </trkpt>
      <trkpt lat="43.39907" lon="6.7059">
        <ele>59.599998474121</ele>
        <time>2018-10-13T11:06:58Z</time>
      </trkpt>
      <trkpt lat="43.39918" lon="6.70591">
        <ele>59.799999237061</ele>
        <time>2018-10-13T11:07:03Z</time>
      </trkpt>
      <trkpt lat="43.39919" lon="6.7059">
        <ele>59.799999237061</ele>
        <time>2018-10-13T11:07:04Z</time>
      </trkpt>
      <trkpt lat="43.39927" lon="6.70585">
        <ele>60.200000762939</ele>
        <time>2018-10-13T11:07:09Z</time>
      </trkpt>
      <trkpt lat="43.39928" lon="6.70583">
        <ele>60.200000762939</ele>
        <time>2018-10-13T11:07:10Z</time>
      </trkpt>
      <trkpt lat="43.39937" lon="6.70573">
        <ele>60.400001525879</ele>
        <time>2018-10-13T11:07:16Z</time>
      </trkpt>
      <trkpt lat="43.39947" lon="6.70562">
        <ele>60.799999237061</ele>
        <time>2018-10-13T11:07:23Z</time>
      </trkpt>
      <trkpt lat="43.39958" lon="6.70558">
        <ele>61</ele>
        <time>2018-10-13T11:07:29Z</time>
      </trkpt>
      <trkpt lat="43.39966" lon="6.70553">
        <ele>61.400001525879</ele>
        <time>2018-10-13T11:07:34Z</time>
      </trkpt>
      <trkpt lat="43.39979" lon="6.70543">
        <ele>61.599998474121</ele>
        <time>2018-10-13T11:07:40Z</time>
      </trkpt>
      <trkpt lat="43.39985" lon="6.7053">
        <ele>62</ele>
        <time>2018-10-13T11:07:44Z</time>
      </trkpt>
      <trkpt lat="43.39985" lon="6.70526">
        <ele>62</ele>
        <time>2018-10-13T11:07:45Z</time>
      </trkpt>
      <trkpt lat="43.39983" lon="6.70506">
        <ele>62</ele>
        <time>2018-10-13T11:07:50Z</time>
      </trkpt>
      <trkpt lat="43.39984" lon="6.70495">
        <ele>62</ele>
        <time>2018-10-13T11:07:53Z</time>
      </trkpt>
      <trkpt lat="43.39987" lon="6.70489">
        <ele>62.200000762939</ele>
        <time>2018-10-13T11:07:55Z</time>
      </trkpt>
      <trkpt lat="43.39989" lon="6.70485">
        <ele>62.400001525879</ele>
        <time>2018-10-13T11:07:57Z</time>
      </trkpt>
      <trkpt lat="43.3999" lon="6.70477">
        <ele>62.599998474121</ele>
        <time>2018-10-13T11:08:00Z</time>
      </trkpt>
      <trkpt lat="43.39991" lon="6.70474">
        <ele>62.599998474121</ele>
        <time>2018-10-13T11:08:01Z</time>
      </trkpt>
      <trkpt lat="43.39994" lon="6.70464">
        <ele>62.799999237061</ele>
        <time>2018-10-13T11:08:04Z</time>
      </trkpt>
      <trkpt lat="43.39999" lon="6.70456">
        <ele>62.799999237061</ele>
        <time>2018-10-13T11:08:06Z</time>
      </trkpt>
      <trkpt lat="43.40001" lon="6.7045">
        <ele>62.799999237061</ele>
        <time>2018-10-13T11:08:07Z</time>
      </trkpt>
      <trkpt lat="43.40002" lon="6.70444">
        <ele>62.799999237061</ele>
        <time>2018-10-13T11:08:08Z</time>
      </trkpt>
      <trkpt lat="43.40001" lon="6.70431">
        <ele>62.599998474121</ele>
        <time>2018-10-13T11:08:10Z</time>
      </trkpt>
      <trkpt lat="43.40006" lon="6.70424">
        <ele>62.599998474121</ele>
        <time>2018-10-13T11:08:12Z</time>
      </trkpt>
      <trkpt lat="43.40017" lon="6.70425">
        <ele>62.599998474121</ele>
        <time>2018-10-13T11:08:16Z</time>
      </trkpt>
      <trkpt lat="43.40027" lon="6.70431">
        <ele>62.599998474121</ele>
        <time>2018-10-13T11:08:20Z</time>
      </trkpt>
      <trkpt lat="43.40037" lon="6.70429">
        <ele>62.599998474121</ele>
        <time>2018-10-13T11:08:24Z</time>
      </trkpt>
      <trkpt lat="43.40047" lon="6.70423">
        <ele>62.599998474121</ele>
        <time>2018-10-13T11:08:28Z</time>
      </trkpt>
      <trkpt lat="43.40051" lon="6.70418">
        <ele>62.599998474121</ele>
        <time>2018-10-13T11:08:31Z</time>
      </trkpt>
      <trkpt lat="43.40055" lon="6.70419">
        <ele>62.599998474121</ele>
        <time>2018-10-13T11:08:33Z</time>
      </trkpt>
      <trkpt lat="43.40062" lon="6.70421">
        <ele>62.400001525879</ele>
        <time>2018-10-13T11:08:35Z</time>
      </trkpt>
      <trkpt lat="43.4007" lon="6.70423">
        <ele>62.400001525879</ele>
        <time>2018-10-13T11:08:37Z</time>
      </trkpt>
      <trkpt lat="43.40072" lon="6.70427">
        <ele>62.400001525879</ele>
        <time>2018-10-13T11:08:38Z</time>
      </trkpt>
      <trkpt lat="43.40075" lon="6.70441">
        <ele>62.200000762939</ele>
        <time>2018-10-13T11:08:41Z</time>
      </trkpt>
      <trkpt lat="43.40078" lon="6.70444">
        <ele>62.200000762939</ele>
        <time>2018-10-13T11:08:42Z</time>
      </trkpt>
      <trkpt lat="43.40084" lon="6.70458">
        <ele>61.599998474121</ele>
        <time>2018-10-13T11:08:47Z</time>
      </trkpt>
      <trkpt lat="43.40082" lon="6.70465">
        <ele>61.400001525879</ele>
        <time>2018-10-13T11:08:49Z</time>
      </trkpt>
      <trkpt lat="43.40083" lon="6.70468">
        <ele>61.200000762939</ele>
        <time>2018-10-13T11:08:50Z</time>
      </trkpt>
      <trkpt lat="43.40083" lon="6.70468">
        <ele>61.200000762939</ele>
        <time>2018-10-13T11:08:51Z</time>
      </trkpt>
      <trkpt lat="43.40104" lon="6.70493">
        <ele>62.400001525879</ele>
        <time>2018-10-13T11:11:34Z</time>
      </trkpt>
      <trkpt lat="43.40104" lon="6.70498">
        <ele>62.400001525879</ele>
        <time>2018-10-13T11:11:36Z</time>
      </trkpt>
      <trkpt lat="43.40105" lon="6.705">
        <ele>62.400001525879</ele>
        <time>2018-10-13T11:11:37Z</time>
      </trkpt>
      <trkpt lat="43.40108" lon="6.70504">
        <ele>62.400001525879</ele>
        <time>2018-10-13T11:11:40Z</time>
      </trkpt>
      <trkpt lat="43.40108" lon="6.70506">
        <ele>62.400001525879</ele>
        <time>2018-10-13T11:11:41Z</time>
      </trkpt>
      <trkpt lat="43.40112" lon="6.70515">
        <ele>62.599998474121</ele>
        <time>2018-10-13T11:11:46Z</time>
      </trkpt>
      <trkpt lat="43.40114" lon="6.70525">
        <ele>62.599998474121</ele>
        <time>2018-10-13T11:11:52Z</time>
      </trkpt>
      <trkpt lat="43.40116" lon="6.70544">
        <ele>62.599998474121</ele>
        <time>2018-10-13T11:11:57Z</time>
      </trkpt>
      <trkpt lat="43.40117" lon="6.70545">
        <ele>62.599998474121</ele>
        <time>2018-10-13T11:11:58Z</time>
      </trkpt>
      <trkpt lat="43.4012" lon="6.70544">
        <ele>62.599998474121</ele>
        <time>2018-10-13T11:12:00Z</time>
      </trkpt>
      <trkpt lat="43.40122" lon="6.70544">
        <ele>62.799999237061</ele>
        <time>2018-10-13T11:12:02Z</time>
      </trkpt>
      <trkpt lat="43.40127" lon="6.70546">
        <ele>63</ele>
        <time>2018-10-13T11:12:05Z</time>
      </trkpt>
      <trkpt lat="43.40128" lon="6.70546">
        <ele>63.200000762939</ele>
        <time>2018-10-13T11:12:06Z</time>
      </trkpt>
      <trkpt lat="43.40132" lon="6.70548">
        <ele>63.400001525879</ele>
        <time>2018-10-13T11:12:09Z</time>
      </trkpt>
      <trkpt lat="43.40135" lon="6.70554">
        <ele>63.599998474121</ele>
        <time>2018-10-13T11:12:13Z</time>
      </trkpt>
      <trkpt lat="43.40134" lon="6.70558">
        <ele>63.400001525879</ele>
        <time>2018-10-13T11:12:14Z</time>
      </trkpt>
      <trkpt lat="43.40134" lon="6.70562">
        <ele>63.400001525879</ele>
        <time>2018-10-13T11:12:15Z</time>
      </trkpt>
      <trkpt lat="43.40137" lon="6.70566">
        <ele>63.200000762939</ele>
        <time>2018-10-13T11:12:17Z</time>
      </trkpt>
      <trkpt lat="43.40139" lon="6.70568">
        <ele>63.200000762939</ele>
        <time>2018-10-13T11:12:18Z</time>
      </trkpt>
      <trkpt lat="43.40139" lon="6.70572">
        <ele>63</ele>
        <time>2018-10-13T11:12:20Z</time>
      </trkpt>
      <trkpt lat="43.40139" lon="6.70575">
        <ele>62.799999237061</ele>
        <time>2018-10-13T11:12:21Z</time>
      </trkpt>
      <trkpt lat="43.40143" lon="6.70578">
        <ele>62.400001525879</ele>
        <time>2018-10-13T11:12:23Z</time>
      </trkpt>
      <trkpt lat="43.40148" lon="6.70581">
        <ele>62.200000762939</ele>
        <time>2018-10-13T11:12:26Z</time>
      </trkpt>
      <trkpt lat="43.4015" lon="6.70584">
        <ele>62.200000762939</ele>
        <time>2018-10-13T11:12:27Z</time>
      </trkpt>
      <trkpt lat="43.40151" lon="6.70586">
        <ele>62</ele>
        <time>2018-10-13T11:12:28Z</time>
      </trkpt>
      <trkpt lat="43.40154" lon="6.70595">
        <ele>61.599998474121</ele>
        <time>2018-10-13T11:12:30Z</time>
      </trkpt>
      <trkpt lat="43.40158" lon="6.70605">
        <ele>61</ele>
        <time>2018-10-13T11:12:32Z</time>
      </trkpt>
      <trkpt lat="43.40162" lon="6.70615">
        <ele>60.599998474121</ele>
        <time>2018-10-13T11:12:34Z</time>
      </trkpt>
      <trkpt lat="43.40167" lon="6.70628">
        <ele>59.799999237061</ele>
        <time>2018-10-13T11:12:37Z</time>
      </trkpt>
      <trkpt lat="43.40168" lon="6.70631">
        <ele>59.799999237061</ele>
        <time>2018-10-13T11:12:38Z</time>
      </trkpt>
      <trkpt lat="43.40169" lon="6.70633">
        <ele>59.799999237061</ele>
        <time>2018-10-13T11:12:39Z</time>
      </trkpt>
      <trkpt lat="43.40174" lon="6.70639">
        <ele>59.400001525879</ele>
        <time>2018-10-13T11:12:42Z</time>
      </trkpt>
      <trkpt lat="43.40179" lon="6.70641">
        <ele>59.200000762939</ele>
        <time>2018-10-13T11:12:44Z</time>
      </trkpt>
      <trkpt lat="43.40182" lon="6.70647">
        <ele>59</ele>
        <time>2018-10-13T11:12:46Z</time>
      </trkpt>
      <trkpt lat="43.40183" lon="6.70651">
        <ele>58.799999237061</ele>
        <time>2018-10-13T11:12:47Z</time>
      </trkpt>
      <trkpt lat="43.40182" lon="6.70657">
        <ele>58.400001525879</ele>
        <time>2018-10-13T11:12:49Z</time>
      </trkpt>
      <trkpt lat="43.40182" lon="6.70662">
        <ele>57.799999237061</ele>
        <time>2018-10-13T11:12:51Z</time>
      </trkpt>
      <trkpt lat="43.40186" lon="6.70668">
        <ele>57.599998474121</ele>
        <time>2018-10-13T11:12:53Z</time>
      </trkpt>
      <trkpt lat="43.4019" lon="6.70678">
        <ele>57.200000762939</ele>
        <time>2018-10-13T11:12:56Z</time>
      </trkpt>
      <trkpt lat="43.40194" lon="6.70684">
        <ele>57</ele>
        <time>2018-10-13T11:12:58Z</time>
      </trkpt>
      <trkpt lat="43.40195" lon="6.70688">
        <ele>56.799999237061</ele>
        <time>2018-10-13T11:12:59Z</time>
      </trkpt>
      <trkpt lat="43.40197" lon="6.70694">
        <ele>56.400001525879</ele>
        <time>2018-10-13T11:13:01Z</time>
      </trkpt>
      <trkpt lat="43.40199" lon="6.70702">
        <ele>56</ele>
        <time>2018-10-13T11:13:03Z</time>
      </trkpt>
      <trkpt lat="43.40204" lon="6.70704">
        <ele>55.799999237061</ele>
        <time>2018-10-13T11:13:05Z</time>
      </trkpt>
      <trkpt lat="43.40206" lon="6.70706">
        <ele>55.599998474121</ele>
        <time>2018-10-13T11:13:06Z</time>
      </trkpt>
      <trkpt lat="43.4021" lon="6.70711">
        <ele>55.400001525879</ele>
        <time>2018-10-13T11:13:08Z</time>
      </trkpt>
      <trkpt lat="43.4021" lon="6.70715">
        <ele>55.200000762939</ele>
        <time>2018-10-13T11:13:09Z</time>
      </trkpt>
      <trkpt lat="43.40211" lon="6.70722">
        <ele>55</ele>
        <time>2018-10-13T11:13:11Z</time>
      </trkpt>
      <trkpt lat="43.4021" lon="6.70729">
        <ele>54.599998474121</ele>
        <time>2018-10-13T11:13:13Z</time>
      </trkpt>
      <trkpt lat="43.40207" lon="6.70753">
        <ele>53.599998474121</ele>
        <time>2018-10-13T11:13:18Z</time>
      </trkpt>
      <trkpt lat="43.40207" lon="6.70759">
        <ele>53.400001525879</ele>
        <time>2018-10-13T11:13:19Z</time>
      </trkpt>
      <trkpt lat="43.40205" lon="6.70776">
        <ele>53</ele>
        <time>2018-10-13T11:13:22Z</time>
      </trkpt>
      <trkpt lat="43.40199" lon="6.70804">
        <ele>51.799999237061</ele>
        <time>2018-10-13T11:13:27Z</time>
      </trkpt>
      <trkpt lat="43.40194" lon="6.70814">
        <ele>51.400001525879</ele>
        <time>2018-10-13T11:13:29Z</time>
      </trkpt>
      <trkpt lat="43.40191" lon="6.70819">
        <ele>51.200000762939</ele>
        <time>2018-10-13T11:13:30Z</time>
      </trkpt>
      <trkpt lat="43.40188" lon="6.70823">
        <ele>51.200000762939</ele>
        <time>2018-10-13T11:13:31Z</time>
      </trkpt>
      <trkpt lat="43.40176" lon="6.70839">
        <ele>50.400001525879</ele>
        <time>2018-10-13T11:13:35Z</time>
      </trkpt>
      <trkpt lat="43.40165" lon="6.70854">
        <ele>49.400001525879</ele>
        <time>2018-10-13T11:13:39Z</time>
      </trkpt>
      <trkpt lat="43.40162" lon="6.70859">
        <ele>49.200000762939</ele>
        <time>2018-10-13T11:13:40Z</time>
      </trkpt>
      <trkpt lat="43.40156" lon="6.7087">
        <ele>48.599998474121</ele>
        <time>2018-10-13T11:13:42Z</time>
      </trkpt>
      <trkpt lat="43.4015" lon="6.70881">
        <ele>48.200000762939</ele>
        <time>2018-10-13T11:13:44Z</time>
      </trkpt>
      <trkpt lat="43.40145" lon="6.70896">
        <ele>47.200000762939</ele>
        <time>2018-10-13T11:13:47Z</time>
      </trkpt>
      <trkpt lat="43.40145" lon="6.70901">
        <ele>47</ele>
        <time>2018-10-13T11:13:48Z</time>
      </trkpt>
      <trkpt lat="43.40142" lon="6.70919">
        <ele>45.799999237061</ele>
        <time>2018-10-13T11:13:52Z</time>
      </trkpt>
      <trkpt lat="43.40139" lon="6.70933">
        <ele>44.599998474121</ele>
        <time>2018-10-13T11:13:56Z</time>
      </trkpt>
      <trkpt lat="43.40136" lon="6.70951">
        <ele>42.599998474121</ele>
        <time>2018-10-13T11:14:01Z</time>
      </trkpt>
      <trkpt lat="43.40135" lon="6.70955">
        <ele>41.599998474121</ele>
        <time>2018-10-13T11:14:03Z</time>
      </trkpt>
      <trkpt lat="43.40134" lon="6.7096">
        <ele>41</ele>
        <time>2018-10-13T11:14:05Z</time>
      </trkpt>
      <trkpt lat="43.40133" lon="6.70963">
        <ele>40.599998474121</ele>
        <time>2018-10-13T11:14:06Z</time>
      </trkpt>
      <trkpt lat="43.40132" lon="6.7097">
        <ele>39.799999237061</ele>
        <time>2018-10-13T11:14:08Z</time>
      </trkpt>
      <trkpt lat="43.40132" lon="6.70977">
        <ele>39.400001525879</ele>
        <time>2018-10-13T11:14:09Z</time>
      </trkpt>
      <trkpt lat="43.40132" lon="6.70994">
        <ele>38.400001525879</ele>
        <time>2018-10-13T11:14:12Z</time>
      </trkpt>
      <trkpt lat="43.40134" lon="6.71017">
        <ele>36.400001525879</ele>
        <time>2018-10-13T11:14:17Z</time>
      </trkpt>
      <trkpt lat="43.40133" lon="6.7103">
        <ele>35.400001525879</ele>
        <time>2018-10-13T11:14:19Z</time>
      </trkpt>
      <trkpt lat="43.40136" lon="6.71046">
        <ele>34.200000762939</ele>
        <time>2018-10-13T11:14:22Z</time>
      </trkpt>
      <trkpt lat="43.40138" lon="6.71066">
        <ele>32</ele>
        <time>2018-10-13T11:14:26Z</time>
      </trkpt>
      <trkpt lat="43.4014" lon="6.71083">
        <ele>29.799999237061</ele>
        <time>2018-10-13T11:14:30Z</time>
      </trkpt>
      <trkpt lat="43.40141" lon="6.71087">
        <ele>29.200000762939</ele>
        <time>2018-10-13T11:14:31Z</time>
      </trkpt>
      <trkpt lat="43.40143" lon="6.71093">
        <ele>28</ele>
        <time>2018-10-13T11:14:33Z</time>
      </trkpt>
      <trkpt lat="43.40136" lon="6.71112">
        <ele>25.200000762939</ele>
        <time>2018-10-13T11:14:38Z</time>
      </trkpt>
      <trkpt lat="43.40132" lon="6.71134">
        <ele>22.39999961853</ele>
        <time>2018-10-13T11:14:43Z</time>
      </trkpt>
      <trkpt lat="43.40134" lon="6.71147">
        <ele>21.39999961853</ele>
        <time>2018-10-13T11:14:45Z</time>
      </trkpt>
      <trkpt lat="43.40137" lon="6.71163">
        <ele>20.60000038147</ele>
        <time>2018-10-13T11:14:47Z</time>
      </trkpt>
      <trkpt lat="43.40139" lon="6.71172">
        <ele>20.200000762939</ele>
        <time>2018-10-13T11:14:48Z</time>
      </trkpt>
      <trkpt lat="43.40141" lon="6.71211">
        <ele>19</ele>
        <time>2018-10-13T11:14:52Z</time>
      </trkpt>
      <trkpt lat="43.40142" lon="6.7122">
        <ele>18.60000038147</ele>
        <time>2018-10-13T11:14:53Z</time>
      </trkpt>
      <trkpt lat="43.40143" lon="6.71245">
        <ele>17.799999237061</ele>
        <time>2018-10-13T11:14:56Z</time>
      </trkpt>
      <trkpt lat="43.40142" lon="6.71252">
        <ele>17.39999961853</ele>
        <time>2018-10-13T11:14:57Z</time>
      </trkpt>
      <trkpt lat="43.4014" lon="6.71262">
        <ele>16.799999237061</ele>
        <time>2018-10-13T11:14:59Z</time>
      </trkpt>
      <trkpt lat="43.40131" lon="6.71271">
        <ele>15.60000038147</ele>
        <time>2018-10-13T11:15:03Z</time>
      </trkpt>
      <trkpt lat="43.40124" lon="6.71281">
        <ele>13.800000190735</ele>
        <time>2018-10-13T11:15:09Z</time>
      </trkpt>
      <trkpt lat="43.40113" lon="6.71291">
        <ele>12</ele>
        <time>2018-10-13T11:15:16Z</time>
      </trkpt>
      <trkpt lat="43.40103" lon="6.71298">
        <ele>10.800000190735</ele>
        <time>2018-10-13T11:15:22Z</time>
      </trkpt>
      <trkpt lat="43.40093" lon="6.71308">
        <ele>9.6000003814697</ele>
        <time>2018-10-13T11:15:28Z</time>
      </trkpt>
      <trkpt lat="43.40085" lon="6.71313">
        <ele>8.3999996185303</ele>
        <time>2018-10-13T11:15:33Z</time>
      </trkpt>
      <trkpt lat="43.40065" lon="6.71327">
        <ele>7.1999998092651</ele>
        <time>2018-10-13T11:15:41Z</time>
      </trkpt>
      <trkpt lat="43.40052" lon="6.71341">
        <ele>6.1999998092651</ele>
        <time>2018-10-13T11:15:48Z</time>
      </trkpt>
      <trkpt lat="43.40045" lon="6.71353">
        <ele>5.8000001907349</ele>
        <time>2018-10-13T11:15:53Z</time>
      </trkpt>
      <trkpt lat="43.40038" lon="6.71366">
        <ele>5.1999998092651</ele>
        <time>2018-10-13T11:15:58Z</time>
      </trkpt>
      <trkpt lat="43.40029" lon="6.71386">
        <ele>4.8000001907349</ele>
        <time>2018-10-13T11:16:05Z</time>
      </trkpt>
      <trkpt lat="43.40021" lon="6.71402">
        <ele>4.1999998092651</ele>
        <time>2018-10-13T11:16:11Z</time>
      </trkpt>
      <trkpt lat="43.40013" lon="6.71421">
        <ele>3.5999999046326</ele>
        <time>2018-10-13T11:16:18Z</time>
      </trkpt>
      <trkpt lat="43.40003" lon="6.71438">
        <ele>3.4000000953674</ele>
        <time>2018-10-13T11:16:25Z</time>
      </trkpt>
      <trkpt lat="43.3999" lon="6.71463">
        <ele>3</ele>
        <time>2018-10-13T11:16:34Z</time>
      </trkpt>
      <trkpt lat="43.39978" lon="6.71486">
        <ele>2.5999999046326</ele>
        <time>2018-10-13T11:16:42Z</time>
      </trkpt>
      <trkpt lat="43.39975" lon="6.71494">
        <ele>2.2000000476837</ele>
        <time>2018-10-13T11:16:45Z</time>
      </trkpt>
      <trkpt lat="43.39978" lon="6.71509">
        <ele>1.6000000238419</ele>
        <time>2018-10-13T11:16:49Z</time>
      </trkpt>
      <trkpt lat="43.39983" lon="6.71535">
        <ele>1.3999999761581</ele>
        <time>2018-10-13T11:16:56Z</time>
      </trkpt>
      <trkpt lat="43.39983" lon="6.71554">
        <ele>1.6000000238419</ele>
        <time>2018-10-13T11:17:01Z</time>
      </trkpt>
      <trkpt lat="43.39988" lon="6.71572">
        <ele>1.3999999761581</ele>
        <time>2018-10-13T11:17:06Z</time>
      </trkpt>
      <trkpt lat="43.39987" lon="6.71592">
        <ele>1</ele>
        <time>2018-10-13T11:17:12Z</time>
      </trkpt>
      <trkpt lat="43.39983" lon="6.71616">
        <ele>0.60000002384186</ele>
        <time>2018-10-13T11:17:19Z</time>
      </trkpt>
      <trkpt lat="43.39982" lon="6.7162">
        <ele>0.40000000596046</ele>
        <time>2018-10-13T11:17:20Z</time>
      </trkpt>
      <trkpt lat="43.39978" lon="6.71629">
        <ele>0.20000000298023</ele>
        <time>2018-10-13T11:17:23Z</time>
      </trkpt>
      <trkpt lat="43.39976" lon="6.71641">
        <ele>-0.20000000298023</ele>
        <time>2018-10-13T11:17:28Z</time>
      </trkpt>
      <trkpt lat="43.39978" lon="6.71651">
        <ele>-0.20000000298023</ele>
        <time>2018-10-13T11:17:33Z</time>
      </trkpt>
      <trkpt lat="43.39978" lon="6.71655">
        <ele>-0.40000000596046</ele>
        <time>2018-10-13T11:17:35Z</time>
      </trkpt>
      <trkpt lat="43.3998" lon="6.71659">
        <ele>-0.60000002384186</ele>
        <time>2018-10-13T11:17:37Z</time>
      </trkpt>
      <trkpt lat="43.39982" lon="6.7166">
        <ele>-0.80000001192093</ele>
        <time>2018-10-13T11:17:39Z</time>
      </trkpt>
      <trkpt lat="43.39984" lon="6.71666">
        <ele>-1.3999999761581</ele>
        <time>2018-10-13T11:17:43Z</time>
      </trkpt>
      <trkpt lat="43.39986" lon="6.7167">
        <ele>-1.6000000238419</ele>
        <time>2018-10-13T11:17:45Z</time>
      </trkpt>
      <trkpt lat="43.39987" lon="6.71671">
        <ele>-1.7999999523163</ele>
        <time>2018-10-13T11:17:46Z</time>
      </trkpt>
      <trkpt lat="43.39991" lon="6.71684">
        <ele>-0.60000002384186</ele>
        <time>2018-10-13T11:18:38Z</time>
      </trkpt>
      <trkpt lat="43.3999" lon="6.71686">
        <ele>-0.60000002384186</ele>
        <time>2018-10-13T11:18:39Z</time>
      </trkpt>
      <trkpt lat="43.39987" lon="6.71694">
        <ele>-1</ele>
        <time>2018-10-13T11:18:42Z</time>
      </trkpt>
      <trkpt lat="43.39986" lon="6.717">
        <ele>-1.2000000476837</ele>
        <time>2018-10-13T11:18:44Z</time>
      </trkpt>
      <trkpt lat="43.39978" lon="6.71715">
        <ele>-2</ele>
        <time>2018-10-13T11:18:49Z</time>
      </trkpt>
      <trkpt lat="43.39966" lon="6.71731">
        <ele>-4</ele>
        <time>2018-10-13T11:18:55Z</time>
      </trkpt>
      <trkpt lat="43.39961" lon="6.71744">
        <ele>-5.5999999046326</ele>
        <time>2018-10-13T11:19:00Z</time>
      </trkpt>
      <trkpt lat="43.39958" lon="6.71755">
        <ele>-6.8000001907349</ele>
        <time>2018-10-13T11:19:05Z</time>
      </trkpt>
      <trkpt lat="43.39958" lon="6.71756">
        <ele>-7</ele>
        <time>2018-10-13T11:19:06Z</time>
      </trkpt>
      <trkpt lat="43.39959" lon="6.71757">
        <ele>-7.4000000953674</ele>
        <time>2018-10-13T11:19:08Z</time>
      </trkpt>
      <trkpt lat="43.39956" lon="6.71763">
        <ele>-8</ele>
        <time>2018-10-13T11:19:12Z</time>
      </trkpt>
      <trkpt lat="43.39946" lon="6.7178">
        <ele>-8</ele>
        <time>2018-10-13T11:19:18Z</time>
      </trkpt>
      <trkpt lat="43.39929" lon="6.71807">
        <ele>-8.8000001907349</ele>
        <time>2018-10-13T11:19:26Z</time>
      </trkpt>
      <trkpt lat="43.39909" lon="6.71828">
        <ele>-8.8000001907349</ele>
        <time>2018-10-13T11:19:33Z</time>
      </trkpt>
      <trkpt lat="43.39875" lon="6.71849">
        <ele>-8</ele>
        <time>2018-10-13T11:19:42Z</time>
      </trkpt>
      <trkpt lat="43.39844" lon="6.71861">
        <ele>-7.1999998092651</ele>
        <time>2018-10-13T11:19:50Z</time>
      </trkpt>
      <trkpt lat="43.39806" lon="6.71872">
        <ele>-6</ele>
        <time>2018-10-13T11:19:59Z</time>
      </trkpt>
      <trkpt lat="43.39765" lon="6.71883">
        <ele>-4.5999999046326</ele>
        <time>2018-10-13T11:20:09Z</time>
      </trkpt>
      <trkpt lat="43.39725" lon="6.71893">
        <ele>-3.4000000953674</ele>
        <time>2018-10-13T11:20:19Z</time>
      </trkpt>
      <trkpt lat="43.39705" lon="6.71897">
        <ele>-3</ele>
        <time>2018-10-13T11:20:24Z</time>
      </trkpt>
      <trkpt lat="43.39702" lon="6.719">
        <ele>-3</ele>
        <time>2018-10-13T11:20:25Z</time>
      </trkpt>
      <trkpt lat="43.397" lon="6.71904">
        <ele>-3</ele>
        <time>2018-10-13T11:20:26Z</time>
      </trkpt>
      <trkpt lat="43.39699" lon="6.71911">
        <ele>-3</ele>
        <time>2018-10-13T11:20:27Z</time>
      </trkpt>
      <trkpt lat="43.39698" lon="6.7192">
        <ele>-3</ele>
        <time>2018-10-13T11:20:28Z</time>
      </trkpt>
      <trkpt lat="43.39694" lon="6.71948">
        <ele>-3</ele>
        <time>2018-10-13T11:20:31Z</time>
      </trkpt>
      <trkpt lat="43.39691" lon="6.71976">
        <ele>-2.7999999523163</ele>
        <time>2018-10-13T11:20:34Z</time>
      </trkpt>
      <trkpt lat="43.3969" lon="6.71993">
        <ele>-2.7999999523163</ele>
        <time>2018-10-13T11:20:36Z</time>
      </trkpt>
      <trkpt lat="43.39686" lon="6.72011">
        <ele>-2.5999999046326</ele>
        <time>2018-10-13T11:20:38Z</time>
      </trkpt>
      <trkpt lat="43.39683" lon="6.72029">
        <ele>-2.4000000953674</ele>
        <time>2018-10-13T11:20:40Z</time>
      </trkpt>
      <trkpt lat="43.39681" lon="6.72037">
        <ele>-2.4000000953674</ele>
        <time>2018-10-13T11:20:41Z</time>
      </trkpt>
      <trkpt lat="43.39679" lon="6.72046">
        <ele>-2.4000000953674</ele>
        <time>2018-10-13T11:20:42Z</time>
      </trkpt>
      <trkpt lat="43.39674" lon="6.72077">
        <ele>-2.2000000476837</ele>
        <time>2018-10-13T11:20:46Z</time>
      </trkpt>
      <trkpt lat="43.39669" lon="6.72098">
        <ele>-2.2000000476837</ele>
        <time>2018-10-13T11:20:49Z</time>
      </trkpt>
      <trkpt lat="43.39666" lon="6.72121">
        <ele>-2</ele>
        <time>2018-10-13T11:20:52Z</time>
      </trkpt>
      <trkpt lat="43.39665" lon="6.72128">
        <ele>-2</ele>
        <time>2018-10-13T11:20:53Z</time>
      </trkpt>
      <trkpt lat="43.39661" lon="6.72156">
        <ele>-1.7999999523163</ele>
        <time>2018-10-13T11:20:57Z</time>
      </trkpt>
      <trkpt lat="43.39655" lon="6.72188">
        <ele>-1.7999999523163</ele>
        <time>2018-10-13T11:21:02Z</time>
      </trkpt>
      <trkpt lat="43.39649" lon="6.72219">
        <ele>-1.7999999523163</ele>
        <time>2018-10-13T11:21:07Z</time>
      </trkpt>
      <trkpt lat="43.39649" lon="6.72226">
        <ele>-1.7999999523163</ele>
        <time>2018-10-13T11:21:08Z</time>
      </trkpt>
      <trkpt lat="43.39643" lon="6.72258">
        <ele>-1.6000000238419</ele>
        <time>2018-10-13T11:21:13Z</time>
      </trkpt>
      <trkpt lat="43.39641" lon="6.72269">
        <ele>-1.6000000238419</ele>
        <time>2018-10-13T11:21:15Z</time>
      </trkpt>
      <trkpt lat="43.39639" lon="6.72282">
        <ele>-1.6000000238419</ele>
        <time>2018-10-13T11:21:17Z</time>
      </trkpt>
      <trkpt lat="43.39632" lon="6.72331">
        <ele>-1.3999999761581</ele>
        <time>2018-10-13T11:21:24Z</time>
      </trkpt>
      <trkpt lat="43.39624" lon="6.72385">
        <ele>-1.2000000476837</ele>
        <time>2018-10-13T11:21:32Z</time>
      </trkpt>
      <trkpt lat="43.39623" lon="6.72392">
        <ele>-1.2000000476837</ele>
        <time>2018-10-13T11:21:33Z</time>
      </trkpt>
      <trkpt lat="43.39616" lon="6.72433">
        <ele>-1</ele>
        <time>2018-10-13T11:21:39Z</time>
      </trkpt>
      <trkpt lat="43.3961" lon="6.72466">
        <ele>-0.80000001192093</ele>
        <time>2018-10-13T11:21:44Z</time>
      </trkpt>
      <trkpt lat="43.39609" lon="6.72472">
        <ele>-0.80000001192093</ele>
        <time>2018-10-13T11:21:45Z</time>
      </trkpt>
      <trkpt lat="43.39608" lon="6.72486">
        <ele>-0.80000001192093</ele>
        <time>2018-10-13T11:21:47Z</time>
      </trkpt>
      <trkpt lat="43.39604" lon="6.72507">
        <ele>-0.60000002384186</ele>
        <time>2018-10-13T11:21:50Z</time>
      </trkpt>
      <trkpt lat="43.39602" lon="6.7252">
        <ele>-0.60000002384186</ele>
        <time>2018-10-13T11:21:52Z</time>
      </trkpt>
      <trkpt lat="43.39601" lon="6.72527">
        <ele>-0.60000002384186</ele>
        <time>2018-10-13T11:21:53Z</time>
      </trkpt>
      <trkpt lat="43.396" lon="6.72534">
        <ele>-0.60000002384186</ele>
        <time>2018-10-13T11:21:54Z</time>
      </trkpt>
      <trkpt lat="43.39598" lon="6.72549">
        <ele>-0.60000002384186</ele>
        <time>2018-10-13T11:21:56Z</time>
      </trkpt>
      <trkpt lat="43.39596" lon="6.72555">
        <ele>-0.60000002384186</ele>
        <time>2018-10-13T11:21:57Z</time>
      </trkpt>
      <trkpt lat="43.3959" lon="6.72567">
        <ele>-0.60000002384186</ele>
        <time>2018-10-13T11:21:59Z</time>
      </trkpt>
      <trkpt lat="43.39588" lon="6.72579">
        <ele>-0.80000001192093</ele>
        <time>2018-10-13T11:22:01Z</time>
      </trkpt>
      <trkpt lat="43.39583" lon="6.72608">
        <ele>-0.80000001192093</ele>
        <time>2018-10-13T11:22:05Z</time>
      </trkpt>
      <trkpt lat="43.3958" lon="6.72614">
        <ele>-0.80000001192093</ele>
        <time>2018-10-13T11:22:06Z</time>
      </trkpt>
      <trkpt lat="43.39576" lon="6.72618">
        <ele>-0.80000001192093</ele>
        <time>2018-10-13T11:22:07Z</time>
      </trkpt>
      <trkpt lat="43.39566" lon="6.7262">
        <ele>-0.80000001192093</ele>
        <time>2018-10-13T11:22:09Z</time>
      </trkpt>
      <trkpt lat="43.39546" lon="6.72612">
        <ele>-0.80000001192093</ele>
        <time>2018-10-13T11:22:13Z</time>
      </trkpt>
      <trkpt lat="43.39514" lon="6.72599">
        <ele>-0.80000001192093</ele>
        <time>2018-10-13T11:22:19Z</time>
      </trkpt>
      <trkpt lat="43.39509" lon="6.72597">
        <ele>-0.80000001192093</ele>
        <time>2018-10-13T11:22:20Z</time>
      </trkpt>
      <trkpt lat="43.39493" lon="6.72596">
        <ele>-0.60000002384186</ele>
        <time>2018-10-13T11:22:23Z</time>
      </trkpt>
      <trkpt lat="43.39483" lon="6.726">
        <ele>-0.80000001192093</ele>
        <time>2018-10-13T11:22:25Z</time>
      </trkpt>
      <trkpt lat="43.39468" lon="6.72605">
        <ele>-0.60000002384186</ele>
        <time>2018-10-13T11:22:28Z</time>
      </trkpt>
      <trkpt lat="43.39437" lon="6.72615">
        <ele>-0.60000002384186</ele>
        <time>2018-10-13T11:22:34Z</time>
      </trkpt>
      <trkpt lat="43.39431" lon="6.72616">
        <ele>-0.60000002384186</ele>
        <time>2018-10-13T11:22:35Z</time>
      </trkpt>
      <trkpt lat="43.3941" lon="6.72623">
        <ele>-0.60000002384186</ele>
        <time>2018-10-13T11:22:39Z</time>
      </trkpt>
      <trkpt lat="43.39377" lon="6.72634">
        <ele>-0.40000000596046</ele>
        <time>2018-10-13T11:22:46Z</time>
      </trkpt>
      <trkpt lat="43.39368" lon="6.72636">
        <ele>-0.40000000596046</ele>
        <time>2018-10-13T11:22:48Z</time>
      </trkpt>
      <trkpt lat="43.3936" lon="6.72642">
        <ele>-0.40000000596046</ele>
        <time>2018-10-13T11:22:50Z</time>
      </trkpt>
      <trkpt lat="43.39356" lon="6.72646">
        <ele>-0.40000000596046</ele>
        <time>2018-10-13T11:22:51Z</time>
      </trkpt>
      <trkpt lat="43.39349" lon="6.72657">
        <ele>-0.40000000596046</ele>
        <time>2018-10-13T11:22:53Z</time>
      </trkpt>
      <trkpt lat="43.39341" lon="6.72677">
        <ele>-0.20000000298023</ele>
        <time>2018-10-13T11:22:56Z</time>
      </trkpt>
      <trkpt lat="43.39326" lon="6.72703">
        <ele>1.3</ele>
        <time>2018-10-13T11:23:01Z</time>
      </trkpt>
      <trkpt lat="43.39319" lon="6.72711">
        <ele>0.20000000298023</ele>
        <time>2018-10-13T11:23:03Z</time>
      </trkpt>
      <trkpt lat="43.39303" lon="6.72714">
        <ele>0.40000000596046</ele>
        <time>2018-10-13T11:23:07Z</time>
      </trkpt>
      <trkpt lat="43.39298" lon="6.72705">
        <ele>0.40000000596046</ele>
        <time>2018-10-13T11:23:09Z</time>
      </trkpt>
      <trkpt lat="43.39296" lon="6.727">
        <ele>0.40000000596046</ele>
        <time>2018-10-13T11:23:10Z</time>
      </trkpt>
      <trkpt lat="43.39288" lon="6.72685">
        <ele>0.40000000596046</ele>
        <time>2018-10-13T11:23:13Z</time>
      </trkpt>
      <trkpt lat="43.39281" lon="6.72679">
        <ele>0.60000002384186</ele>
        <time>2018-10-13T11:23:15Z</time>
      </trkpt>
      <trkpt lat="43.39276" lon="6.72669">
        <ele>0.60000002384186</ele>
        <time>2018-10-13T11:23:17Z</time>
      </trkpt>
      <trkpt lat="43.39272" lon="6.72667">
        <ele>0.60000002384186</ele>
        <time>2018-10-13T11:23:18Z</time>
      </trkpt>
      <trkpt lat="43.39267" lon="6.72667">
        <ele>0.60000002384186</ele>
        <time>2018-10-13T11:23:19Z</time>
      </trkpt>
      <trkpt lat="43.39258" lon="6.7267">
        <ele>0.60000002384186</ele>
        <time>2018-10-13T11:23:21Z</time>
      </trkpt>
      <trkpt lat="43.39254" lon="6.72671">
        <ele>0.60000002384186</ele>
        <time>2018-10-13T11:23:22Z</time>
      </trkpt>
      <trkpt lat="43.3925" lon="6.72672">
        <ele>0.60000002384186</ele>
        <time>2018-10-13T11:23:23Z</time>
      </trkpt>
      <trkpt lat="43.39244" lon="6.7268">
        <ele>0.60000002384186</ele>
        <time>2018-10-13T11:23:25Z</time>
      </trkpt>
      <trkpt lat="43.39243" lon="6.7269">
        <ele>0.60000002384186</ele>
        <time>2018-10-13T11:23:27Z</time>
      </trkpt>
      <trkpt lat="43.39245" lon="6.72695">
        <ele>0.40000000596046</ele>
        <time>2018-10-13T11:23:28Z</time>
      </trkpt>
      <trkpt lat="43.39257" lon="6.72713">
        <ele>0.40000000596046</ele>
        <time>2018-10-13T11:23:32Z</time>
      </trkpt>
      <trkpt lat="43.3926" lon="6.72715">
        <ele>0.40000000596046</ele>
        <time>2018-10-13T11:23:33Z</time>
      </trkpt>
      <trkpt lat="43.39276" lon="6.72729">
        <ele>0.40000000596046</ele>
        <time>2018-10-13T11:23:38Z</time>
      </trkpt>
      <trkpt lat="43.39283" lon="6.72749">
        <ele>0.60000002384186</ele>
        <time>2018-10-13T11:23:43Z</time>
      </trkpt>
      <trkpt lat="43.39282" lon="6.72766">
        <ele>0.60000002384186</ele>
        <time>2018-10-13T11:23:47Z</time>
      </trkpt>
      <trkpt lat="43.39277" lon="6.72786">
        <ele>0.60000002384186</ele>
        <time>2018-10-13T11:23:53Z</time>
      </trkpt>
      <trkpt lat="43.39275" lon="6.72791">
        <ele>0.60000002384186</ele>
        <time>2018-10-13T11:23:56Z</time>
      </trkpt>
      <trkpt lat="43.39273" lon="6.72794">
        <ele>0.40000000596046</ele>
        <time>2018-10-13T11:23:58Z</time>
      </trkpt>
      <trkpt lat="43.39273" lon="6.72796">
        <ele>0.20000000298023</ele>
        <time>2018-10-13T11:24:01Z</time>
      </trkpt>
      <trkpt lat="43.39267" lon="6.72812">
        <ele>0.20000000298023</ele>
        <time>2018-10-13T11:24:21Z</time>
      </trkpt>
      <trkpt lat="43.39264" lon="6.7283">
        <ele>0.20000000298023</ele>
        <time>2018-10-13T11:24:26Z</time>
      </trkpt>
      <trkpt lat="43.39258" lon="6.72844">
        <ele>0.20000000298023</ele>
        <time>2018-10-13T11:24:32Z</time>
      </trkpt>
      <trkpt lat="43.3925" lon="6.72852">
        <ele>0.20000000298023</ele>
        <time>2018-10-13T11:24:37Z</time>
      </trkpt>
      <trkpt lat="43.39246" lon="6.72852">
        <ele>0.20000000298023</ele>
        <time>2018-10-13T11:24:39Z</time>
      </trkpt>
      <trkpt lat="43.39245" lon="6.72851">
        <ele>0.40000000596046</ele>
        <time>2018-10-13T11:24:41Z</time>
      </trkpt>
      <trkpt lat="43.39214" lon="6.72819">
        <ele>2.7999999523163</ele>
        <time>2018-10-13T11:25:58Z</time>
      </trkpt>
      <trkpt lat="43.39207" lon="6.72816">
        <ele>3</ele>
        <time>2018-10-13T11:26:01Z</time>
      </trkpt>
      <trkpt lat="43.39201" lon="6.72813">
        <ele>3.2000000476837</ele>
        <time>2018-10-13T11:26:05Z</time>
      </trkpt>
      <trkpt lat="43.39185" lon="6.72806">
        <ele>3.5999999046326</ele>
        <time>2018-10-13T11:26:11Z</time>
      </trkpt>
      <trkpt lat="43.39171" lon="6.72807">
        <ele>3.7999999523163</ele>
        <time>2018-10-13T11:26:16Z</time>
      </trkpt>
      <trkpt lat="43.39159" lon="6.72811">
        <ele>4</ele>
        <time>2018-10-13T11:26:21Z</time>
      </trkpt>
      <trkpt lat="43.39147" lon="6.72814">
        <ele>4.1999998092651</ele>
        <time>2018-10-13T11:26:26Z</time>
      </trkpt>
      <trkpt lat="43.39145" lon="6.72816">
        <ele>4.1999998092651</ele>
        <time>2018-10-13T11:26:27Z</time>
      </trkpt>
      <trkpt lat="43.39131" lon="6.72829">
        <ele>4.8000001907349</ele>
        <time>2018-10-13T11:26:34Z</time>
      </trkpt>
      <trkpt lat="43.39115" lon="6.72845">
        <ele>5.1999998092651</ele>
        <time>2018-10-13T11:26:42Z</time>
      </trkpt>
      <trkpt lat="43.39101" lon="6.72859">
        <ele>5.4000000953674</ele>
        <time>2018-10-13T11:26:48Z</time>
      </trkpt>
      <trkpt lat="43.39085" lon="6.72873">
        <ele>5.4000000953674</ele>
        <time>2018-10-13T11:26:54Z</time>
      </trkpt>
      <trkpt lat="43.39066" lon="6.72889">
        <ele>5.8000001907349</ele>
        <time>2018-10-13T11:27:01Z</time>
      </trkpt>
      <trkpt lat="43.39053" lon="6.72883">
        <ele>6</ele>
        <time>2018-10-13T11:27:05Z</time>
      </trkpt>
      <trkpt lat="43.39036" lon="6.7287">
        <ele>6.5999999046326</ele>
        <time>2018-10-13T11:27:11Z</time>
      </trkpt>
      <trkpt lat="43.39019" lon="6.72859">
        <ele>7.1999998092651</ele>
        <time>2018-10-13T11:27:17Z</time>
      </trkpt>
      <trkpt lat="43.38997" lon="6.72846">
        <ele>8</ele>
        <time>2018-10-13T11:27:25Z</time>
      </trkpt>
      <trkpt lat="43.38985" lon="6.72837">
        <ele>8.6000003814697</ele>
        <time>2018-10-13T11:27:30Z</time>
      </trkpt>
      <trkpt lat="43.38969" lon="6.72828">
        <ele>9.1999998092651</ele>
        <time>2018-10-13T11:27:36Z</time>
      </trkpt>
      <trkpt lat="43.38956" lon="6.72819">
        <ele>9.8000001907349</ele>
        <time>2018-10-13T11:27:41Z</time>
      </trkpt>
      <trkpt lat="43.38939" lon="6.72808">
        <ele>10.39999961853</ele>
        <time>2018-10-13T11:27:47Z</time>
      </trkpt>
      <trkpt lat="43.38923" lon="6.72796">
        <ele>11</ele>
        <time>2018-10-13T11:27:53Z</time>
      </trkpt>
      <trkpt lat="43.38913" lon="6.72789">
        <ele>11.199999809265</ele>
        <time>2018-10-13T11:27:57Z</time>
      </trkpt>
      <trkpt lat="43.38904" lon="6.72781">
        <ele>11.39999961853</ele>
        <time>2018-10-13T11:28:01Z</time>
      </trkpt>
      <trkpt lat="43.38893" lon="6.72778">
        <ele>11.60000038147</ele>
        <time>2018-10-13T11:28:05Z</time>
      </trkpt>
      <trkpt lat="43.38883" lon="6.72793">
        <ele>11.800000190735</ele>
        <time>2018-10-13T11:28:09Z</time>
      </trkpt>
      <trkpt lat="43.38874" lon="6.7282">
        <ele>12.199999809265</ele>
        <time>2018-10-13T11:28:15Z</time>
      </trkpt>
      <trkpt lat="43.38869" lon="6.7283">
        <ele>12.199999809265</ele>
        <time>2018-10-13T11:28:17Z</time>
      </trkpt>
      <trkpt lat="43.38865" lon="6.72842">
        <ele>12.39999961853</ele>
        <time>2018-10-13T11:28:19Z</time>
      </trkpt>
      <trkpt lat="43.38863" lon="6.72848">
        <ele>12.199999809265</ele>
        <time>2018-10-13T11:28:20Z</time>
      </trkpt>
      <trkpt lat="43.38859" lon="6.72864">
        <ele>12.199999809265</ele>
        <time>2018-10-13T11:28:22Z</time>
      </trkpt>
      <trkpt lat="43.38852" lon="6.72882">
        <ele>12</ele>
        <time>2018-10-13T11:28:24Z</time>
      </trkpt>
      <trkpt lat="43.38835" lon="6.72925">
        <ele>11.39999961853</ele>
        <time>2018-10-13T11:28:28Z</time>
      </trkpt>
      <trkpt lat="43.38814" lon="6.72983">
        <ele>10.800000190735</ele>
        <time>2018-10-13T11:28:34Z</time>
      </trkpt>
      <trkpt lat="43.38806" lon="6.73003">
        <ele>10.39999961853</ele>
        <time>2018-10-13T11:28:37Z</time>
      </trkpt>
      <trkpt lat="43.388" lon="6.73012">
        <ele>10.199999809265</ele>
        <time>2018-10-13T11:28:39Z</time>
      </trkpt>
      <trkpt lat="43.38798" lon="6.73016">
        <ele>10.199999809265</ele>
        <time>2018-10-13T11:28:41Z</time>
      </trkpt>
      <trkpt lat="43.38798" lon="6.73016">
        <ele>10</ele>
        <time>2018-10-13T11:28:42Z</time>
      </trkpt>
      <trkpt lat="43.38798" lon="6.73016">
        <ele>10</ele>
        <time>2018-10-13T11:28:43Z</time>
      </trkpt>
      <trkpt lat="43.38802" lon="6.73026">
        <ele>6.5999999046326</ele>
        <time>2018-10-13T11:29:35Z</time>
      </trkpt>
      <trkpt lat="43.38806" lon="6.73031">
        <ele>6.4000000953674</ele>
        <time>2018-10-13T11:29:37Z</time>
      </trkpt>
      <trkpt lat="43.3881" lon="6.73046">
        <ele>5.5999999046326</ele>
        <time>2018-10-13T11:29:42Z</time>
      </trkpt>
      <trkpt lat="43.38817" lon="6.73053">
        <ele>5.1999998092651</ele>
        <time>2018-10-13T11:29:47Z</time>
      </trkpt>
      <trkpt lat="43.38824" lon="6.7306">
        <ele>5</ele>
        <time>2018-10-13T11:29:52Z</time>
      </trkpt>
      <trkpt lat="43.38825" lon="6.73059">
        <ele>4.8000001907349</ele>
        <time>2018-10-13T11:29:53Z</time>
      </trkpt>
      <trkpt lat="43.38831" lon="6.7305">
        <ele>4.5999999046326</ele>
        <time>2018-10-13T11:29:58Z</time>
      </trkpt>
      <trkpt lat="43.38832" lon="6.73036">
        <ele>4.4000000953674</ele>
        <time>2018-10-13T11:30:03Z</time>
      </trkpt>
      <trkpt lat="43.38836" lon="6.73021">
        <ele>4.1999998092651</ele>
        <time>2018-10-13T11:30:11Z</time>
      </trkpt>
      <trkpt lat="43.38837" lon="6.7302">
        <ele>4.1999998092651</ele>
        <time>2018-10-13T11:30:12Z</time>
      </trkpt>
      <trkpt lat="43.38841" lon="6.73019">
        <ele>4.1999998092651</ele>
        <time>2018-10-13T11:30:14Z</time>
      </trkpt>
      <trkpt lat="43.38842" lon="6.7302">
        <ele>4</ele>
        <time>2018-10-13T11:30:15Z</time>
      </trkpt>
      <trkpt lat="43.38844" lon="6.73021">
        <ele>4</ele>
        <time>2018-10-13T11:30:16Z</time>
      </trkpt>
      <trkpt lat="43.38845" lon="6.73022">
        <ele>4</ele>
        <time>2018-10-13T11:30:18Z</time>
      </trkpt>
      <trkpt lat="43.38869" lon="6.7305">
        <ele>4</ele>
        <time>2018-10-13T11:32:28Z</time>
      </trkpt>
      <trkpt lat="43.38884" lon="6.73056">
        <ele>4</ele>
        <time>2018-10-13T11:32:35Z</time>
      </trkpt>
      <trkpt lat="43.38901" lon="6.73066">
        <ele>3.5999999046326</ele>
        <time>2018-10-13T11:32:41Z</time>
      </trkpt>
      <trkpt lat="43.38915" lon="6.73065">
        <ele>3.7999999523163</ele>
        <time>2018-10-13T11:32:47Z</time>
      </trkpt>
      <trkpt lat="43.38919" lon="6.7306">
        <ele>3.5999999046326</ele>
        <time>2018-10-13T11:32:49Z</time>
      </trkpt>
      <trkpt lat="43.38922" lon="6.73057">
        <ele>3.5999999046326</ele>
        <time>2018-10-13T11:32:51Z</time>
      </trkpt>
      <trkpt lat="43.3893" lon="6.73062">
        <ele>3.4000000953674</ele>
        <time>2018-10-13T11:32:55Z</time>
      </trkpt>
      <trkpt lat="43.38931" lon="6.73069">
        <ele>3</ele>
        <time>2018-10-13T11:32:59Z</time>
      </trkpt>
      <trkpt lat="43.38931" lon="6.73071">
        <ele>2.7999999523163</ele>
        <time>2018-10-13T11:33:01Z</time>
      </trkpt>
      <trkpt lat="43.38928" lon="6.73098">
        <ele>2.7999999523163</ele>
        <time>2018-10-13T11:33:32Z</time>
      </trkpt>
      <trkpt lat="43.38928" lon="6.731">
        <ele>2.7999999523163</ele>
        <time>2018-10-13T11:33:33Z</time>
      </trkpt>
      <trkpt lat="43.38932" lon="6.73108">
        <ele>3</ele>
        <time>2018-10-13T11:33:39Z</time>
      </trkpt>
      <trkpt lat="43.38934" lon="6.73113">
        <ele>3</ele>
        <time>2018-10-13T11:33:43Z</time>
      </trkpt>
      <trkpt lat="43.38953" lon="6.73128">
        <ele>2.4000000953674</ele>
        <time>2018-10-13T11:34:06Z</time>
      </trkpt>
      <trkpt lat="43.38956" lon="6.7314">
        <ele>2.4000000953674</ele>
        <time>2018-10-13T11:34:14Z</time>
      </trkpt>
      <trkpt lat="43.38961" lon="6.73149">
        <ele>2.2000000476837</ele>
        <time>2018-10-13T11:34:21Z</time>
      </trkpt>
      <trkpt lat="43.38968" lon="6.73161">
        <ele>2.4000000953674</ele>
        <time>2018-10-13T11:34:28Z</time>
      </trkpt>
      <trkpt lat="43.3897" lon="6.73164">
        <ele>2.4000000953674</ele>
        <time>2018-10-13T11:34:30Z</time>
      </trkpt>
      <trkpt lat="43.3897" lon="6.73168">
        <ele>2.4000000953674</ele>
        <time>2018-10-13T11:34:32Z</time>
      </trkpt>
      <trkpt lat="43.38968" lon="6.73173">
        <ele>2.4000000953674</ele>
        <time>2018-10-13T11:34:34Z</time>
      </trkpt>
      <trkpt lat="43.3897" lon="6.73177">
        <ele>2.4000000953674</ele>
        <time>2018-10-13T11:34:36Z</time>
      </trkpt>
      <trkpt lat="43.38971" lon="6.73177">
        <ele>2.4000000953674</ele>
        <time>2018-10-13T11:34:37Z</time>
      </trkpt>
      <trkpt lat="43.38974" lon="6.73178">
        <ele>2.4000000953674</ele>
        <time>2018-10-13T11:34:41Z</time>
      </trkpt>
      <trkpt lat="43.38977" lon="6.73173">
        <ele>2.4000000953674</ele>
        <time>2018-10-13T11:34:44Z</time>
      </trkpt>
      <trkpt lat="43.38978" lon="6.73172">
        <ele>2.4000000953674</ele>
        <time>2018-10-13T11:34:45Z</time>
      </trkpt>
      <trkpt lat="43.3898" lon="6.73167">
        <ele>2.5999999046326</ele>
        <time>2018-10-13T11:34:49Z</time>
      </trkpt>
      <trkpt lat="43.38983" lon="6.73168">
        <ele>2.5999999046326</ele>
        <time>2018-10-13T11:34:51Z</time>
      </trkpt>
      <trkpt lat="43.38987" lon="6.73173">
        <ele>2.5999999046326</ele>
        <time>2018-10-13T11:34:54Z</time>
      </trkpt>
      <trkpt lat="43.38989" lon="6.73176">
        <ele>2.4000000953674</ele>
        <time>2018-10-13T11:34:56Z</time>
      </trkpt>
      <trkpt lat="43.38994" lon="6.73184">
        <ele>2.5999999046326</ele>
        <time>2018-10-13T11:35:01Z</time>
      </trkpt>
      <trkpt lat="43.39001" lon="6.73195">
        <ele>2.5999999046326</ele>
        <time>2018-10-13T11:35:07Z</time>
      </trkpt>
      <trkpt lat="43.39008" lon="6.73204">
        <ele>2.7999999523163</ele>
        <time>2018-10-13T11:35:14Z</time>
      </trkpt>
      <trkpt lat="43.39016" lon="6.73204">
        <ele>2.5999999046326</ele>
        <time>2018-10-13T11:35:21Z</time>
      </trkpt>
      <trkpt lat="43.39017" lon="6.73203">
        <ele>2.5999999046326</ele>
        <time>2018-10-13T11:35:22Z</time>
      </trkpt>
      <trkpt lat="43.3902" lon="6.73202">
        <ele>2.5999999046326</ele>
        <time>2018-10-13T11:35:24Z</time>
      </trkpt>
      <trkpt lat="43.39022" lon="6.73202">
        <ele>2.5999999046326</ele>
        <time>2018-10-13T11:35:25Z</time>
      </trkpt>
      <trkpt lat="43.39026" lon="6.73203">
        <ele>2.4000000953674</ele>
        <time>2018-10-13T11:35:29Z</time>
      </trkpt>
      <trkpt lat="43.39029" lon="6.732">
        <ele>2.4000000953674</ele>
        <time>2018-10-13T11:35:31Z</time>
      </trkpt>
      <trkpt lat="43.39034" lon="6.73189">
        <ele>2.4000000953674</ele>
        <time>2018-10-13T11:35:36Z</time>
      </trkpt>
      <trkpt lat="43.39039" lon="6.73183">
        <ele>2.4000000953674</ele>
        <time>2018-10-13T11:35:42Z</time>
      </trkpt>
      <trkpt lat="43.39044" lon="6.73183">
        <ele>2.5999999046326</ele>
        <time>2018-10-13T11:35:46Z</time>
      </trkpt>
      <trkpt lat="43.39046" lon="6.73182">
        <ele>2.5999999046326</ele>
        <time>2018-10-13T11:35:48Z</time>
      </trkpt>
      <trkpt lat="43.39055" lon="6.73182">
        <ele>2.5999999046326</ele>
        <time>2018-10-13T11:35:54Z</time>
      </trkpt>
      <trkpt lat="43.3906" lon="6.73186">
        <ele>2.7999999523163</ele>
        <time>2018-10-13T11:35:59Z</time>
      </trkpt>
      <trkpt lat="43.39068" lon="6.73193">
        <ele>3</ele>
        <time>2018-10-13T11:36:06Z</time>
      </trkpt>
      <trkpt lat="43.39076" lon="6.73192">
        <ele>2.7999999523163</ele>
        <time>2018-10-13T11:36:12Z</time>
      </trkpt>
      <trkpt lat="43.39077" lon="6.73191">
        <ele>2.7999999523163</ele>
        <time>2018-10-13T11:36:14Z</time>
      </trkpt>
      <trkpt lat="43.3908" lon="6.7319">
        <ele>2.7999999523163</ele>
        <time>2018-10-13T11:36:16Z</time>
      </trkpt>
      <trkpt lat="43.39083" lon="6.7319">
        <ele>2.7999999523163</ele>
        <time>2018-10-13T11:36:18Z</time>
      </trkpt>
      <trkpt lat="43.39087" lon="6.7319">
        <ele>2.7999999523163</ele>
        <time>2018-10-13T11:36:21Z</time>
      </trkpt>
      <trkpt lat="43.39091" lon="6.73188">
        <ele>2.5999999046326</ele>
        <time>2018-10-13T11:36:25Z</time>
      </trkpt>
      <trkpt lat="43.39095" lon="6.7318">
        <ele>2.4000000953674</ele>
        <time>2018-10-13T11:36:30Z</time>
      </trkpt>
      <trkpt lat="43.39095" lon="6.7318">
        <ele>2.4000000953674</ele>
        <time>2018-10-13T11:36:32Z</time>
      </trkpt>
      <trkpt lat="43.39098" lon="6.73177">
        <ele>2.2000000476837</ele>
        <time>2018-10-13T11:36:36Z</time>
      </trkpt>
      <trkpt lat="43.391" lon="6.73175">
        <ele>2.2000000476837</ele>
        <time>2018-10-13T11:36:37Z</time>
      </trkpt>
      <trkpt lat="43.39113" lon="6.73156">
        <ele>1.7999999523163</ele>
        <time>2018-10-13T11:36:44Z</time>
      </trkpt>
      <trkpt lat="43.39114" lon="6.73144">
        <ele>1.6000000238419</ele>
        <time>2018-10-13T11:36:49Z</time>
      </trkpt>
      <trkpt lat="43.39113" lon="6.7313">
        <ele>1</ele>
        <time>2018-10-13T11:36:54Z</time>
      </trkpt>
      <trkpt lat="43.3911" lon="6.73112">
        <ele>5.1</ele>
        <time>2018-10-13T11:37:00Z</time>
      </trkpt>
      <trkpt lat="43.3911" lon="6.73102">
        <ele>-0.40000000596046</ele>
        <time>2018-10-13T11:37:03Z</time>
      </trkpt>
      <trkpt lat="43.39112" lon="6.73094">
        <ele>-0.60000002384186</ele>
        <time>2018-10-13T11:37:05Z</time>
      </trkpt>
      <trkpt lat="43.3912" lon="6.73063">
        <ele>-0.80000001192093</ele>
        <time>2018-10-13T11:37:11Z</time>
      </trkpt>
      <trkpt lat="43.39132" lon="6.73037">
        <ele>-1</ele>
        <time>2018-10-13T11:37:16Z</time>
      </trkpt>
      <trkpt lat="43.39151" lon="6.72996">
        <ele>-1.3999999761581</ele>
        <time>2018-10-13T11:37:21Z</time>
      </trkpt>
      <trkpt lat="43.39155" lon="6.72988">
        <ele>-1.3999999761581</ele>
        <time>2018-10-13T11:37:22Z</time>
      </trkpt>
      <trkpt lat="43.39169" lon="6.72968">
        <ele>-1.2000000476837</ele>
        <time>2018-10-13T11:37:25Z</time>
      </trkpt>
      <trkpt lat="43.39192" lon="6.72941">
        <ele>-1.2000000476837</ele>
        <time>2018-10-13T11:37:30Z</time>
      </trkpt>
      <trkpt lat="43.39207" lon="6.72927">
        <ele>-1</ele>
        <time>2018-10-13T11:37:34Z</time>
      </trkpt>
      <trkpt lat="43.39216" lon="6.72925">
        <ele>-1</ele>
        <time>2018-10-13T11:37:38Z</time>
      </trkpt>
      <trkpt lat="43.39219" lon="6.72923">
        <ele>-1</ele>
        <time>2018-10-13T11:37:40Z</time>
      </trkpt>
      <trkpt lat="43.39221" lon="6.72917">
        <ele>-1</ele>
        <time>2018-10-13T11:37:42Z</time>
      </trkpt>
      <trkpt lat="43.39234" lon="6.72886">
        <ele>-0.80000001192093</ele>
        <time>2018-10-13T11:37:49Z</time>
      </trkpt>
      <trkpt lat="43.39252" lon="6.72858">
        <ele>-0.80000001192093</ele>
        <time>2018-10-13T11:37:56Z</time>
      </trkpt>
      <trkpt lat="43.39258" lon="6.72851">
        <ele>-0.60000002384186</ele>
        <time>2018-10-13T11:37:58Z</time>
      </trkpt>
      <trkpt lat="43.39262" lon="6.72842">
        <ele>-0.60000002384186</ele>
        <time>2018-10-13T11:38:00Z</time>
      </trkpt>
      <trkpt lat="43.39264" lon="6.72837">
        <ele>-0.60000002384186</ele>
        <time>2018-10-13T11:38:01Z</time>
      </trkpt>
      <trkpt lat="43.39271" lon="6.72807">
        <ele>-0.60000002384186</ele>
        <time>2018-10-13T11:38:07Z</time>
      </trkpt>
      <trkpt lat="43.3928" lon="6.72791">
        <ele>-0.60000002384186</ele>
        <time>2018-10-13T11:38:12Z</time>
      </trkpt>
      <trkpt lat="43.39283" lon="6.72787">
        <ele>-0.40000000596046</ele>
        <time>2018-10-13T11:38:14Z</time>
      </trkpt>
      <trkpt lat="43.39284" lon="6.72786">
        <ele>-0.40000000596046</ele>
        <time>2018-10-13T11:38:16Z</time>
      </trkpt>
      <trkpt lat="43.39284" lon="6.72786">
        <ele>-0.40000000596046</ele>
        <time>2018-10-13T11:38:17Z</time>
      </trkpt>
      <trkpt lat="43.39297" lon="6.72784">
        <ele>-0.40000000596046</ele>
        <time>2018-10-13T11:38:35Z</time>
      </trkpt>
      <trkpt lat="43.39303" lon="6.72784">
        <ele>-0.40000000596046</ele>
        <time>2018-10-13T11:38:37Z</time>
      </trkpt>
      <trkpt lat="43.39321" lon="6.72784">
        <ele>-0.40000000596046</ele>
        <time>2018-10-13T11:38:42Z</time>
      </trkpt>
      <trkpt lat="43.3934" lon="6.72785">
        <ele>-0.40000000596046</ele>
        <time>2018-10-13T11:38:47Z</time>
      </trkpt>
      <trkpt lat="43.39365" lon="6.72785">
        <ele>-0.20000000298023</ele>
        <time>2018-10-13T11:38:54Z</time>
      </trkpt>
      <trkpt lat="43.39383" lon="6.72781">
        <ele>0.40000000596046</ele>
        <time>2018-10-13T11:39:00Z</time>
      </trkpt>
      <trkpt lat="43.39404" lon="6.72786">
        <ele>0.80000001192093</ele>
        <time>2018-10-13T11:39:06Z</time>
      </trkpt>
      <trkpt lat="43.39432" lon="6.72797">
        <ele>1</ele>
        <time>2018-10-13T11:39:13Z</time>
      </trkpt>
      <trkpt lat="43.39467" lon="6.7281">
        <ele>1.3999999761581</ele>
        <time>2018-10-13T11:39:21Z</time>
      </trkpt>
      <trkpt lat="43.39503" lon="6.72824">
        <ele>1.3999999761581</ele>
        <time>2018-10-13T11:39:29Z</time>
      </trkpt>
      <trkpt lat="43.39542" lon="6.72838">
        <ele>1.6000000238419</ele>
        <time>2018-10-13T11:39:37Z</time>
      </trkpt>
      <trkpt lat="43.39582" lon="6.72853">
        <ele>1.6000000238419</ele>
        <time>2018-10-13T11:39:45Z</time>
      </trkpt>
      <trkpt lat="43.39618" lon="6.72866">
        <ele>1.6000000238419</ele>
        <time>2018-10-13T11:39:52Z</time>
      </trkpt>
      <trkpt lat="43.39662" lon="6.72881">
        <ele>1.6000000238419</ele>
        <time>2018-10-13T11:40:00Z</time>
      </trkpt>
      <trkpt lat="43.39694" lon="6.72893">
        <ele>1.6000000238419</ele>
        <time>2018-10-13T11:40:06Z</time>
      </trkpt>
      <trkpt lat="43.39743" lon="6.72911">
        <ele>1.7999999523163</ele>
        <time>2018-10-13T11:40:15Z</time>
      </trkpt>
      <trkpt lat="43.39786" lon="6.72927">
        <ele>1.7999999523163</ele>
        <time>2018-10-13T11:40:23Z</time>
      </trkpt>
      <trkpt lat="43.3983" lon="6.72943">
        <ele>1.7999999523163</ele>
        <time>2018-10-13T11:40:31Z</time>
      </trkpt>
      <trkpt lat="43.39863" lon="6.72954">
        <ele>1.6000000238419</ele>
        <time>2018-10-13T11:40:37Z</time>
      </trkpt>
      <trkpt lat="43.39908" lon="6.7297">
        <ele>1.6000000238419</ele>
        <time>2018-10-13T11:40:45Z</time>
      </trkpt>
      <trkpt lat="43.39914" lon="6.72971">
        <ele>1.6000000238419</ele>
        <time>2018-10-13T11:40:46Z</time>
      </trkpt>
      <trkpt lat="43.39961" lon="6.72979">
        <ele>1.6000000238419</ele>
        <time>2018-10-13T11:40:54Z</time>
      </trkpt>
      <trkpt lat="43.40003" lon="6.72981">
        <ele>1.7999999523163</ele>
        <time>2018-10-13T11:41:01Z</time>
      </trkpt>
      <trkpt lat="43.40046" lon="6.72984">
        <ele>1.7999999523163</ele>
        <time>2018-10-13T11:41:08Z</time>
      </trkpt>
      <trkpt lat="43.40095" lon="6.72988">
        <ele>2</ele>
        <time>2018-10-13T11:41:16Z</time>
      </trkpt>
      <trkpt lat="43.40131" lon="6.7299">
        <ele>2</ele>
        <time>2018-10-13T11:41:22Z</time>
      </trkpt>
      <trkpt lat="43.40168" lon="6.72992">
        <ele>2</ele>
        <time>2018-10-13T11:41:28Z</time>
      </trkpt>
      <trkpt lat="43.40204" lon="6.72992">
        <ele>2</ele>
        <time>2018-10-13T11:41:34Z</time>
      </trkpt>
      <trkpt lat="43.40247" lon="6.72988">
        <ele>2</ele>
        <time>2018-10-13T11:41:41Z</time>
      </trkpt>
      <trkpt lat="43.40295" lon="6.72973">
        <ele>2</ele>
        <time>2018-10-13T11:41:49Z</time>
      </trkpt>
      <trkpt lat="43.40308" lon="6.72969">
        <ele>2</ele>
        <time>2018-10-13T11:41:51Z</time>
      </trkpt>
      <trkpt lat="43.40321" lon="6.72965">
        <ele>2</ele>
        <time>2018-10-13T11:41:53Z</time>
      </trkpt>
      <trkpt lat="43.40327" lon="6.72962">
        <ele>2</ele>
        <time>2018-10-13T11:41:54Z</time>
      </trkpt>
      <trkpt lat="43.40369" lon="6.72938">
        <ele>2.2000000476837</ele>
        <time>2018-10-13T11:42:01Z</time>
      </trkpt>
      <trkpt lat="43.40412" lon="6.72909">
        <ele>2.4000000953674</ele>
        <time>2018-10-13T11:42:08Z</time>
      </trkpt>
      <trkpt lat="43.40449" lon="6.72875">
        <ele>2.4000000953674</ele>
        <time>2018-10-13T11:42:15Z</time>
      </trkpt>
      <trkpt lat="43.40464" lon="6.72862">
        <ele>2.4000000953674</ele>
        <time>2018-10-13T11:42:18Z</time>
      </trkpt>
      <trkpt lat="43.40474" lon="6.72852">
        <ele>2.5999999046326</ele>
        <time>2018-10-13T11:42:20Z</time>
      </trkpt>
      <trkpt lat="43.40489" lon="6.72839">
        <ele>2.7999999523163</ele>
        <time>2018-10-13T11:42:23Z</time>
      </trkpt>
      <trkpt lat="43.405" lon="6.72827">
        <ele>3</ele>
        <time>2018-10-13T11:42:25Z</time>
      </trkpt>
      <trkpt lat="43.40522" lon="6.72804">
        <ele>3.2000000476837</ele>
        <time>2018-10-13T11:42:29Z</time>
      </trkpt>
      <trkpt lat="43.40528" lon="6.72798">
        <ele>3.4000000953674</ele>
        <time>2018-10-13T11:42:30Z</time>
      </trkpt>
      <trkpt lat="43.40561" lon="6.72766">
        <ele>3.5999999046326</ele>
        <time>2018-10-13T11:42:36Z</time>
      </trkpt>
      <trkpt lat="43.40577" lon="6.72748">
        <ele>3.5999999046326</ele>
        <time>2018-10-13T11:42:39Z</time>
      </trkpt>
      <trkpt lat="43.40582" lon="6.72742">
        <ele>3.5999999046326</ele>
        <time>2018-10-13T11:42:40Z</time>
      </trkpt>
      <trkpt lat="43.40615" lon="6.7271">
        <ele>3.7999999523163</ele>
        <time>2018-10-13T11:42:46Z</time>
      </trkpt>
      <trkpt lat="43.40626" lon="6.72698">
        <ele>3.7999999523163</ele>
        <time>2018-10-13T11:42:48Z</time>
      </trkpt>
      <trkpt lat="43.40638" lon="6.72688">
        <ele>3.7999999523163</ele>
        <time>2018-10-13T11:42:50Z</time>
      </trkpt>
      <trkpt lat="43.40654" lon="6.72673">
        <ele>4</ele>
        <time>2018-10-13T11:42:53Z</time>
      </trkpt>
      <trkpt lat="43.40659" lon="6.72667">
        <ele>4</ele>
        <time>2018-10-13T11:42:54Z</time>
      </trkpt>
      <trkpt lat="43.40692" lon="6.72636">
        <ele>4.4000000953674</ele>
        <time>2018-10-13T11:43:00Z</time>
      </trkpt>
      <trkpt lat="43.40718" lon="6.72605">
        <ele>4.5999999046326</ele>
        <time>2018-10-13T11:43:05Z</time>
      </trkpt>
      <trkpt lat="43.40736" lon="6.72588">
        <ele>4.5999999046326</ele>
        <time>2018-10-13T11:43:08Z</time>
      </trkpt>
      <trkpt lat="43.40747" lon="6.72578">
        <ele>4.8000001907349</ele>
        <time>2018-10-13T11:43:10Z</time>
      </trkpt>
      <trkpt lat="43.40759" lon="6.72567">
        <ele>4.8000001907349</ele>
        <time>2018-10-13T11:43:12Z</time>
      </trkpt>
      <trkpt lat="43.40775" lon="6.7255">
        <ele>5</ele>
        <time>2018-10-13T11:43:15Z</time>
      </trkpt>
      <trkpt lat="43.40802" lon="6.72523">
        <ele>5.5999999046326</ele>
        <time>2018-10-13T11:43:20Z</time>
      </trkpt>
      <trkpt lat="43.40828" lon="6.72497">
        <ele>6.1999998092651</ele>
        <time>2018-10-13T11:43:25Z</time>
      </trkpt>
      <trkpt lat="43.4086" lon="6.72467">
        <ele>7</ele>
        <time>2018-10-13T11:43:31Z</time>
      </trkpt>
      <trkpt lat="43.40875" lon="6.72456">
        <ele>7</ele>
        <time>2018-10-13T11:43:33Z</time>
      </trkpt>
      <trkpt lat="43.40888" lon="6.72445">
        <ele>7</ele>
        <time>2018-10-13T11:43:35Z</time>
      </trkpt>
      <trkpt lat="43.40905" lon="6.72422">
        <ele>6.8000001907349</ele>
        <time>2018-10-13T11:43:39Z</time>
      </trkpt>
      <trkpt lat="43.40916" lon="6.72424">
        <ele>6.8000001907349</ele>
        <time>2018-10-13T11:43:42Z</time>
      </trkpt>
      <trkpt lat="43.40924" lon="6.72427">
        <ele>6.8000001907349</ele>
        <time>2018-10-13T11:43:44Z</time>
      </trkpt>
      <trkpt lat="43.40933" lon="6.72427">
        <ele>6.8000001907349</ele>
        <time>2018-10-13T11:43:46Z</time>
      </trkpt>
      <trkpt lat="43.40964" lon="6.72421">
        <ele>6.8000001907349</ele>
        <time>2018-10-13T11:43:52Z</time>
      </trkpt>
      <trkpt lat="43.41005" lon="6.72423">
        <ele>6.8000001907349</ele>
        <time>2018-10-13T11:43:59Z</time>
      </trkpt>
      <trkpt lat="43.41044" lon="6.72435">
        <ele>6.4000000953674</ele>
        <time>2018-10-13T11:44:06Z</time>
      </trkpt>
      <trkpt lat="43.41072" lon="6.72451">
        <ele>6.1999998092651</ele>
        <time>2018-10-13T11:44:11Z</time>
      </trkpt>
      <trkpt lat="43.41077" lon="6.72456">
        <ele>6</ele>
        <time>2018-10-13T11:44:12Z</time>
      </trkpt>
      <trkpt lat="43.41082" lon="6.7246">
        <ele>6.1999998092651</ele>
        <time>2018-10-13T11:44:13Z</time>
      </trkpt>
      <trkpt lat="43.41109" lon="6.72479">
        <ele>6</ele>
        <time>2018-10-13T11:44:18Z</time>
      </trkpt>
      <trkpt lat="43.41158" lon="6.7251">
        <ele>5.5999999046326</ele>
        <time>2018-10-13T11:44:27Z</time>
      </trkpt>
      <trkpt lat="43.4117" lon="6.72515">
        <ele>5.4000000953674</ele>
        <time>2018-10-13T11:44:29Z</time>
      </trkpt>
      <trkpt lat="43.41189" lon="6.72509">
        <ele>5.1999998092651</ele>
        <time>2018-10-13T11:44:32Z</time>
      </trkpt>
      <trkpt lat="43.41203" lon="6.7251">
        <ele>5.1999998092651</ele>
        <time>2018-10-13T11:44:34Z</time>
      </trkpt>
      <trkpt lat="43.4121" lon="6.72513">
        <ele>5.1999998092651</ele>
        <time>2018-10-13T11:44:35Z</time>
      </trkpt>
      <trkpt lat="43.41254" lon="6.72536">
        <ele>4.8000001907349</ele>
        <time>2018-10-13T11:44:42Z</time>
      </trkpt>
      <trkpt lat="43.41274" lon="6.72544">
        <ele>4.8000001907349</ele>
        <time>2018-10-13T11:44:45Z</time>
      </trkpt>
      <trkpt lat="43.41286" lon="6.72547">
        <ele>4.5999999046326</ele>
        <time>2018-10-13T11:44:47Z</time>
      </trkpt>
      <trkpt lat="43.41293" lon="6.72548">
        <ele>4.5999999046326</ele>
        <time>2018-10-13T11:44:48Z</time>
      </trkpt>
      <trkpt lat="43.41305" lon="6.72557">
        <ele>4.5999999046326</ele>
        <time>2018-10-13T11:44:50Z</time>
      </trkpt>
      <trkpt lat="43.41334" lon="6.72577">
        <ele>4.4000000953674</ele>
        <time>2018-10-13T11:44:55Z</time>
      </trkpt>
      <trkpt lat="43.41347" lon="6.72583">
        <ele>4.4000000953674</ele>
        <time>2018-10-13T11:44:57Z</time>
      </trkpt>
      <trkpt lat="43.41366" lon="6.72588">
        <ele>4.1999998092651</ele>
        <time>2018-10-13T11:45:00Z</time>
      </trkpt>
      <trkpt lat="43.41388" lon="6.72601">
        <ele>4</ele>
        <time>2018-10-13T11:45:04Z</time>
      </trkpt>
      <trkpt lat="43.414" lon="6.7262">
        <ele>4</ele>
        <time>2018-10-13T11:45:07Z</time>
      </trkpt>
      <trkpt lat="43.41421" lon="6.72634">
        <ele>4.1999998092651</ele>
        <time>2018-10-13T11:45:11Z</time>
      </trkpt>
      <trkpt lat="43.41453" lon="6.72651">
        <ele>4.1999998092651</ele>
        <time>2018-10-13T11:45:17Z</time>
      </trkpt>
      <trkpt lat="43.41472" lon="6.72655">
        <ele>4.1999998092651</ele>
        <time>2018-10-13T11:45:22Z</time>
      </trkpt>
      <trkpt lat="43.41474" lon="6.72651">
        <ele>4</ele>
        <time>2018-10-13T11:45:25Z</time>
      </trkpt>
      <trkpt lat="43.41477" lon="6.72649">
        <ele>3.7999999523163</ele>
        <time>2018-10-13T11:45:26Z</time>
      </trkpt>
      <trkpt lat="43.4148" lon="6.72648">
        <ele>3.7999999523163</ele>
        <time>2018-10-13T11:45:27Z</time>
      </trkpt>
      <trkpt lat="43.41487" lon="6.72649">
        <ele>3.5999999046326</ele>
        <time>2018-10-13T11:45:29Z</time>
      </trkpt>
      <trkpt lat="43.4151" lon="6.72658">
        <ele>3.2000000476837</ele>
        <time>2018-10-13T11:45:35Z</time>
      </trkpt>
      <trkpt lat="43.41513" lon="6.7266">
        <ele>3.2000000476837</ele>
        <time>2018-10-13T11:45:36Z</time>
      </trkpt>
      <trkpt lat="43.41513" lon="6.72666">
        <ele>3</ele>
        <time>2018-10-13T11:45:38Z</time>
      </trkpt>
      <trkpt lat="43.41507" lon="6.72669">
        <ele>2.7999999523163</ele>
        <time>2018-10-13T11:45:41Z</time>
      </trkpt>
      <trkpt lat="43.41506" lon="6.72669">
        <ele>2.5999999046326</ele>
        <time>2018-10-13T11:45:42Z</time>
      </trkpt>
      <trkpt lat="43.41501" lon="6.72671">
        <ele>2.2000000476837</ele>
        <time>2018-10-13T11:45:44Z</time>
      </trkpt>
      <trkpt lat="43.41496" lon="6.72673">
        <ele>1.7999999523163</ele>
        <time>2018-10-13T11:45:46Z</time>
      </trkpt>
      <trkpt lat="43.41493" lon="6.72677">
        <ele>1.6000000238419</ele>
        <time>2018-10-13T11:45:47Z</time>
      </trkpt>
      <trkpt lat="43.41485" lon="6.72697">
        <ele>1.2000000476837</ele>
        <time>2018-10-13T11:45:51Z</time>
      </trkpt>
      <trkpt lat="43.41478" lon="6.72707">
        <ele>1.2000000476837</ele>
        <time>2018-10-13T11:45:53Z</time>
      </trkpt>
      <trkpt lat="43.41471" lon="6.72715">
        <ele>1.2000000476837</ele>
        <time>2018-10-13T11:45:55Z</time>
      </trkpt>
      <trkpt lat="43.41456" lon="6.72733">
        <ele>1</ele>
        <time>2018-10-13T11:45:59Z</time>
      </trkpt>
      <trkpt lat="43.41445" lon="6.72748">
        <ele>1</ele>
        <time>2018-10-13T11:46:02Z</time>
      </trkpt>
      <trkpt lat="43.4143" lon="6.72767">
        <ele>0.60000002384186</ele>
        <time>2018-10-13T11:46:06Z</time>
      </trkpt>
      <trkpt lat="43.41423" lon="6.72777">
        <ele>0.40000000596046</ele>
        <time>2018-10-13T11:46:08Z</time>
      </trkpt>
      <trkpt lat="43.41412" lon="6.72792">
        <ele>0.60000002384186</ele>
        <time>2018-10-13T11:46:11Z</time>
      </trkpt>
      <trkpt lat="43.41404" lon="6.72803">
        <ele>0.60000002384186</ele>
        <time>2018-10-13T11:46:13Z</time>
      </trkpt>
      <trkpt lat="43.41397" lon="6.72812">
        <ele>0.60000002384186</ele>
        <time>2018-10-13T11:46:15Z</time>
      </trkpt>
      <trkpt lat="43.41373" lon="6.72841">
        <ele>0.60000002384186</ele>
        <time>2018-10-13T11:46:21Z</time>
      </trkpt>
      <trkpt lat="43.4137" lon="6.72846">
        <ele>0.60000002384186</ele>
        <time>2018-10-13T11:46:22Z</time>
      </trkpt>
      <trkpt lat="43.41336" lon="6.72891">
        <ele>0.60000002384186</ele>
        <time>2018-10-13T11:46:31Z</time>
      </trkpt>
      <trkpt lat="43.41328" lon="6.729">
        <ele>0.60000002384186</ele>
        <time>2018-10-13T11:46:33Z</time>
      </trkpt>
      <trkpt lat="43.41317" lon="6.72916">
        <ele>0.60000002384186</ele>
        <time>2018-10-13T11:46:36Z</time>
      </trkpt>
      <trkpt lat="43.41305" lon="6.72932">
        <ele>0.60000002384186</ele>
        <time>2018-10-13T11:46:39Z</time>
      </trkpt>
      <trkpt lat="43.41298" lon="6.72943">
        <ele>0.80000001192093</ele>
        <time>2018-10-13T11:46:41Z</time>
      </trkpt>
      <trkpt lat="43.41279" lon="6.72968">
        <ele>0.80000001192093</ele>
        <time>2018-10-13T11:46:46Z</time>
      </trkpt>
      <trkpt lat="43.4127" lon="6.72977">
        <ele>0.80000001192093</ele>
        <time>2018-10-13T11:46:48Z</time>
      </trkpt>
      <trkpt lat="43.41254" lon="6.72995">
        <ele>0.80000001192093</ele>
        <time>2018-10-13T11:46:52Z</time>
      </trkpt>
      <trkpt lat="43.41243" lon="6.7301">
        <ele>0.80000001192093</ele>
        <time>2018-10-13T11:46:55Z</time>
      </trkpt>
      <trkpt lat="43.41239" lon="6.73015">
        <ele>0.80000001192093</ele>
        <time>2018-10-13T11:46:56Z</time>
      </trkpt>
      <trkpt lat="43.41222" lon="6.7304">
        <ele>0.80000001192093</ele>
        <time>2018-10-13T11:47:01Z</time>
      </trkpt>
      <trkpt lat="43.41198" lon="6.73071">
        <ele>0.80000001192093</ele>
        <time>2018-10-13T11:47:08Z</time>
      </trkpt>
      <trkpt lat="43.41183" lon="6.73094">
        <ele>0.80000001192093</ele>
        <time>2018-10-13T11:47:14Z</time>
      </trkpt>
      <trkpt lat="43.41174" lon="6.73116">
        <ele>0.80000001192093</ele>
        <time>2018-10-13T11:47:19Z</time>
      </trkpt>
      <trkpt lat="43.41169" lon="6.73129">
        <ele>0.60000002384186</ele>
        <time>2018-10-13T11:47:22Z</time>
      </trkpt>
      <trkpt lat="43.41171" lon="6.73134">
        <ele>0.80000001192093</ele>
        <time>2018-10-13T11:47:23Z</time>
      </trkpt>
      <trkpt lat="43.41188" lon="6.73154">
        <ele>1</ele>
        <time>2018-10-13T11:47:29Z</time>
      </trkpt>
      <trkpt lat="43.41212" lon="6.73184">
        <ele>1.2000000476837</ele>
        <time>2018-10-13T11:47:37Z</time>
      </trkpt>
      <trkpt lat="43.4122" lon="6.73199">
        <ele>1.2000000476837</ele>
        <time>2018-10-13T11:47:41Z</time>
      </trkpt>
      <trkpt lat="43.41217" lon="6.73209">
        <ele>1.3999999761581</ele>
        <time>2018-10-13T11:47:43Z</time>
      </trkpt>
      <trkpt lat="43.41214" lon="6.73213">
        <ele>1.3999999761581</ele>
        <time>2018-10-13T11:47:44Z</time>
      </trkpt>
      <trkpt lat="43.41211" lon="6.73218">
        <ele>1.3999999761581</ele>
        <time>2018-10-13T11:47:45Z</time>
      </trkpt>
      <trkpt lat="43.41197" lon="6.73235">
        <ele>1.2000000476837</ele>
        <time>2018-10-13T11:47:49Z</time>
      </trkpt>
      <trkpt lat="43.41182" lon="6.73262">
        <ele>1.2000000476837</ele>
        <time>2018-10-13T11:47:54Z</time>
      </trkpt>
      <trkpt lat="43.4118" lon="6.73268">
        <ele>1.2000000476837</ele>
        <time>2018-10-13T11:47:55Z</time>
      </trkpt>
      <trkpt lat="43.41173" lon="6.73288">
        <ele>1</ele>
        <time>2018-10-13T11:47:58Z</time>
      </trkpt>
      <trkpt lat="43.41164" lon="6.73307">
        <ele>0.80000001192093</ele>
        <time>2018-10-13T11:48:01Z</time>
      </trkpt>
      <trkpt lat="43.41144" lon="6.73353">
        <ele>0.80000001192093</ele>
        <time>2018-10-13T11:48:08Z</time>
      </trkpt>
      <trkpt lat="43.4113" lon="6.73394">
        <ele>0.80000001192093</ele>
        <time>2018-10-13T11:48:14Z</time>
      </trkpt>
      <trkpt lat="43.41114" lon="6.73442">
        <ele>0.80000001192093</ele>
        <time>2018-10-13T11:48:21Z</time>
      </trkpt>
      <trkpt lat="43.41114" lon="6.73457">
        <ele>0.80000001192093</ele>
        <time>2018-10-13T11:48:23Z</time>
      </trkpt>
      <trkpt lat="43.41116" lon="6.73464">
        <ele>0.80000001192093</ele>
        <time>2018-10-13T11:48:24Z</time>
      </trkpt>
      <trkpt lat="43.41119" lon="6.7347">
        <ele>0.80000001192093</ele>
        <time>2018-10-13T11:48:25Z</time>
      </trkpt>
      <trkpt lat="43.41127" lon="6.73476">
        <ele>0.80000001192093</ele>
        <time>2018-10-13T11:48:27Z</time>
      </trkpt>
      <trkpt lat="43.41131" lon="6.73479">
        <ele>0.80000001192093</ele>
        <time>2018-10-13T11:48:28Z</time>
      </trkpt>
      <trkpt lat="43.41141" lon="6.73486">
        <ele>0.80000001192093</ele>
        <time>2018-10-13T11:48:31Z</time>
      </trkpt>
      <trkpt lat="43.41161" lon="6.73504">
        <ele>1.2000000476837</ele>
        <time>2018-10-13T11:48:38Z</time>
      </trkpt>
      <trkpt lat="43.41174" lon="6.73515">
        <ele>1.6000000238419</ele>
        <time>2018-10-13T11:48:43Z</time>
      </trkpt>
      <trkpt lat="43.41184" lon="6.73523">
        <ele>2</ele>
        <time>2018-10-13T11:48:47Z</time>
      </trkpt>
      <trkpt lat="43.41195" lon="6.7353">
        <ele>2.5999999046326</ele>
        <time>2018-10-13T11:48:51Z</time>
      </trkpt>
      <trkpt lat="43.41211" lon="6.73533">
        <ele>3</ele>
        <time>2018-10-13T11:48:55Z</time>
      </trkpt>
      <trkpt lat="43.41221" lon="6.73526">
        <ele>3.2000000476837</ele>
        <time>2018-10-13T11:48:59Z</time>
      </trkpt>
      <trkpt lat="43.41235" lon="6.73515">
        <ele>2.5999999046326</ele>
        <time>2018-10-13T11:49:04Z</time>
      </trkpt>
      <trkpt lat="43.41237" lon="6.73514">
        <ele>2.5999999046326</ele>
        <time>2018-10-13T11:49:05Z</time>
      </trkpt>
      <trkpt lat="43.41242" lon="6.73508">
        <ele>2.5999999046326</ele>
        <time>2018-10-13T11:49:09Z</time>
      </trkpt>
      <trkpt lat="43.41251" lon="6.73496">
        <ele>2.5999999046326</ele>
        <time>2018-10-13T11:49:15Z</time>
      </trkpt>
      <trkpt lat="43.41258" lon="6.73483">
        <ele>2.7999999523163</ele>
        <time>2018-10-13T11:49:20Z</time>
      </trkpt>
      <trkpt lat="43.41265" lon="6.73476">
        <ele>2.7999999523163</ele>
        <time>2018-10-13T11:49:22Z</time>
      </trkpt>
      <trkpt lat="43.41269" lon="6.73474">
        <ele>2.7999999523163</ele>
        <time>2018-10-13T11:49:23Z</time>
      </trkpt>
      <trkpt lat="43.41282" lon="6.73478">
        <ele>2.5999999046326</ele>
        <time>2018-10-13T11:49:26Z</time>
      </trkpt>
      <trkpt lat="43.41306" lon="6.73485">
        <ele>2.4000000953674</ele>
        <time>2018-10-13T11:49:32Z</time>
      </trkpt>
      <trkpt lat="43.41334" lon="6.73491">
        <ele>2.4000000953674</ele>
        <time>2018-10-13T11:49:39Z</time>
      </trkpt>
      <trkpt lat="43.4136" lon="6.73498">
        <ele>2.2000000476837</ele>
        <time>2018-10-13T11:49:46Z</time>
      </trkpt>
      <trkpt lat="43.41388" lon="6.73505">
        <ele>2.2000000476837</ele>
        <time>2018-10-13T11:49:53Z</time>
      </trkpt>
      <trkpt lat="43.41405" lon="6.73509">
        <ele>2</ele>
        <time>2018-10-13T11:49:57Z</time>
      </trkpt>
      <trkpt lat="43.41414" lon="6.7351">
        <ele>2</ele>
        <time>2018-10-13T11:49:59Z</time>
      </trkpt>
      <trkpt lat="43.41446" lon="6.73519">
        <ele>1.7999999523163</ele>
        <time>2018-10-13T11:50:06Z</time>
      </trkpt>
      <trkpt lat="43.41487" lon="6.73529">
        <ele>1.7999999523163</ele>
        <time>2018-10-13T11:50:14Z</time>
      </trkpt>
      <trkpt lat="43.41522" lon="6.73537">
        <ele>1.6000000238419</ele>
        <time>2018-10-13T11:50:21Z</time>
      </trkpt>
      <trkpt lat="43.41564" lon="6.73548">
        <ele>1.6000000238419</ele>
        <time>2018-10-13T11:50:30Z</time>
      </trkpt>
      <trkpt lat="43.41582" lon="6.73554">
        <ele>1.6000000238419</ele>
        <time>2018-10-13T11:50:34Z</time>
      </trkpt>
      <trkpt lat="43.41586" lon="6.73558">
        <ele>1.6000000238419</ele>
        <time>2018-10-13T11:50:35Z</time>
      </trkpt>
      <trkpt lat="43.41597" lon="6.73571">
        <ele>1.6000000238419</ele>
        <time>2018-10-13T11:50:38Z</time>
      </trkpt>
      <trkpt lat="43.41602" lon="6.73582">
        <ele>1.3999999761581</ele>
        <time>2018-10-13T11:50:40Z</time>
      </trkpt>
      <trkpt lat="43.41611" lon="6.73602">
        <ele>1.3999999761581</ele>
        <time>2018-10-13T11:50:44Z</time>
      </trkpt>
      <trkpt lat="43.41616" lon="6.73611">
        <ele>1.3999999761581</ele>
        <time>2018-10-13T11:50:46Z</time>
      </trkpt>
      <trkpt lat="43.41628" lon="6.73632">
        <ele>1.2000000476837</ele>
        <time>2018-10-13T11:50:51Z</time>
      </trkpt>
      <trkpt lat="43.41635" lon="6.73646">
        <ele>1.2000000476837</ele>
        <time>2018-10-13T11:50:56Z</time>
      </trkpt>
      <trkpt lat="43.41641" lon="6.73662">
        <ele>1</ele>
        <time>2018-10-13T11:51:02Z</time>
      </trkpt>
      <trkpt lat="43.41647" lon="6.73677">
        <ele>1.2000000476837</ele>
        <time>2018-10-13T11:51:08Z</time>
      </trkpt>
      <trkpt lat="43.41652" lon="6.7369">
        <ele>1</ele>
        <time>2018-10-13T11:51:12Z</time>
      </trkpt>
      <trkpt lat="43.41648" lon="6.73696">
        <ele>1</ele>
        <time>2018-10-13T11:51:14Z</time>
      </trkpt>
      <trkpt lat="43.41646" lon="6.73696">
        <ele>1</ele>
        <time>2018-10-13T11:51:15Z</time>
      </trkpt>
      <trkpt lat="43.41631" lon="6.737">
        <ele>0.80000001192093</ele>
        <time>2018-10-13T11:51:21Z</time>
      </trkpt>
      <trkpt lat="43.41629" lon="6.73701">
        <ele>0.80000001192093</ele>
        <time>2018-10-13T11:51:22Z</time>
      </trkpt>
      <trkpt lat="43.41626" lon="6.73706">
        <ele>0.80000001192093</ele>
        <time>2018-10-13T11:51:24Z</time>
      </trkpt>
      <trkpt lat="43.41616" lon="6.73711">
        <ele>1</ele>
        <time>2018-10-13T11:51:29Z</time>
      </trkpt>
      <trkpt lat="43.41615" lon="6.73712">
        <ele>1</ele>
        <time>2018-10-13T11:51:30Z</time>
      </trkpt>
      <trkpt lat="43.41613" lon="6.73719">
        <ele>0.80000001192093</ele>
        <time>2018-10-13T11:51:33Z</time>
      </trkpt>
      <trkpt lat="43.41612" lon="6.73727">
        <ele>0.80000001192093</ele>
        <time>2018-10-13T11:51:39Z</time>
      </trkpt>
      <trkpt lat="43.41615" lon="6.73734">
        <ele>1</ele>
        <time>2018-10-13T11:51:46Z</time>
      </trkpt>
      <trkpt lat="43.41615" lon="6.73735">
        <ele>0.80000001192093</ele>
        <time>2018-10-13T11:51:47Z</time>
      </trkpt>
      <trkpt lat="43.41616" lon="6.7374">
        <ele>1</ele>
        <time>2018-10-13T11:51:51Z</time>
      </trkpt>
      <trkpt lat="43.41618" lon="6.73746">
        <ele>0.80000001192093</ele>
        <time>2018-10-13T11:51:56Z</time>
      </trkpt>
      <trkpt lat="43.41621" lon="6.73758">
        <ele>0.80000001192093</ele>
        <time>2018-10-13T11:52:02Z</time>
      </trkpt>
      <trkpt lat="43.41624" lon="6.73768">
        <ele>0.60000002384186</ele>
        <time>2018-10-13T11:52:09Z</time>
      </trkpt>
      <trkpt lat="43.41625" lon="6.73769">
        <ele>0.60000002384186</ele>
        <time>2018-10-13T11:52:10Z</time>
      </trkpt>
      <trkpt lat="43.41631" lon="6.73774">
        <ele>0.80000001192093</ele>
        <time>2018-10-13T11:52:15Z</time>
      </trkpt>
      <trkpt lat="43.41631" lon="6.73776">
        <ele>0.80000001192093</ele>
        <time>2018-10-13T11:52:16Z</time>
      </trkpt>
      <trkpt lat="43.41633" lon="6.73783">
        <ele>0.80000001192093</ele>
        <time>2018-10-13T11:52:20Z</time>
      </trkpt>
      <trkpt lat="43.41636" lon="6.73799">
        <ele>1</ele>
        <time>2018-10-13T11:52:26Z</time>
      </trkpt>
      <trkpt lat="43.41637" lon="6.73808">
        <ele>1.2000000476837</ele>
        <time>2018-10-13T11:52:30Z</time>
      </trkpt>
      <trkpt lat="43.41639" lon="6.73822">
        <ele>1.3999999761581</ele>
        <time>2018-10-13T11:52:35Z</time>
      </trkpt>
      <trkpt lat="43.41633" lon="6.73834">
        <ele>1.2000000476837</ele>
        <time>2018-10-13T11:52:41Z</time>
      </trkpt>
      <trkpt lat="43.41632" lon="6.73846">
        <ele>1</ele>
        <time>2018-10-13T11:52:47Z</time>
      </trkpt>
      <trkpt lat="43.41632" lon="6.73848">
        <ele>1</ele>
        <time>2018-10-13T11:52:50Z</time>
      </trkpt>
    </trkseg>
  </trk>
</gpx>